<
# Wetter Temperatur Luftdruck Luftfeuchtigkeit Sichtweite Windgeschwindigkeit Windrichtung Zeit
1 Clouds 4 1000 80 10000 8.2 260 09:40 29.01.2020
2 Clouds 4 1000 80 10000 8.2 260 09:22 29.01.2020
3 Rain 4 999 80 10000 8.2 260 08:58 29.01.2020
4 Rain 4 999 80 10000 8.2 260 08:39 29.01.2020
5 Rain 4 999 80 10000 8.2 260 08:20 29.01.2020
6 Rain 3 999 86 10000 8.7 250 07:45 29.01.2020
7 Clouds 3 998 86 10000 7.7 250 07:25 29.01.2020
8 Clouds 3 997 93 0 8.45 249 06:55 29.01.2020
9 Clouds 3 997 93 0 8.45 249 06:55 29.01.2020
10 Clouds 3 998 88 0 1.34 270 06:37 29.01.2020
11 Clouds 3 998 86 0 1.79 270 06:18 29.01.2020
12 Clouds 3 1000 89 0 0.45 229 05:46 29.01.2020
13 Clouds 3 998 85 0 1.34 270 05:27 29.01.2020
14 Clouds 3 998 85 0 1.79 270 04:38 29.01.2020
15 Clouds 3 998 87 0 0.45 248 03:50 29.01.2020
16 Clouds 3 996 82 0 2.24 270 02:33 29.01.2020
17 Snow 3 1001 86 0 8.52 256 00:51 29.01.2020
18 Snow 3 996 85 0 1.79 270 00:29 29.01.2020
19 Snow 3 996 87 0 2.24 270 23:58 28.01.2020
20 Snow 3 995 90 0 1.34 270 23:37 28.01.2020
21 Clouds 3 995 69 10000 9.3 260 23:19 28.01.2020
22 Clouds 3 995 69 10000 9.3 260 22:44 28.01.2020
23 Clouds 3 995 69 10000 9.3 260 22:26 28.01.2020
24 Clouds 4 995 69 10000 9.8 260 21:54 28.01.2020
25 Clouds 4 994 69 10000 8.7 260 21:36 28.01.2020
26 Clouds 3 994 69 10000 8.7 260 21:18 28.01.2020
27 Clouds 3 994 69 10000 8.7 260 21:18 28.01.2020
28 Clouds 3 994 69 10000 8.7 260 20:45 28.01.2020
29 Clouds 4 994 69 10000 10.3 250 20:25 28.01.2020
30 Clouds 3 994 75 10000 10.3 250 19:55 28.01.2020
31 Clouds 4 993 75 10000 9.8 260 19:37 28.01.2020
32 Clouds 4 993 75 10000 9.8 260 19:18 28.01.2020
33 Clouds 4 993 75 10000 9.8 260 19:18 28.01.2020
34 Clouds 4 993 75 10000 8.7 260 18:41 28.01.2020
35 Rain 4 992 75 10000 7.2 250 18:23 28.01.2020
36 Rain 4 992 86 10000 8.7 290 17:59 28.01.2020
37 Rain 3 992 86 10000 8.7 290 17:39 28.01.2020
38 Rain 4 992 80 10000 8.7 250 17:21 28.01.2020
39 Clouds 4 991 75 10000 9.8 260 16:58 28.01.2020
40 Clouds 4 991 75 10000 9.8 260 16:40 28.01.2020
41 Clouds 5 991 75 10000 9.3 250 16:21 28.01.2020
42 Clouds 5 990 75 10000 7.7 240 15:47 28.01.2020
43 Clouds 5 990 80 10000 6.7 240 15:19 28.01.2020
44 Clouds 5 990 80 10000 6.7 240 14:58 28.01.2020
45 Clouds 5 990 80 10000 6.7 240 14:39 28.01.2020
46 Drizzle 5 989 80 10000 8.2 240 14:18 28.01.2020
47 Clouds 5 989 86 10000 9.3 250 13:41 28.01.2020
48 Rain 5 989 70 10000 6.2 220 13:23 28.01.2020
49 Clouds 5 989 70 10000 6.7 220 12:44 28.01.2020
50 Clouds 5 989 70 10000 5.7 200 12:24 28.01.2020
51 Rain 6 989 70 10000 4.6 210 11:58 28.01.2020
52 Rain 6 989 70 10000 4.6 210 11:40 28.01.2020
53 Clouds 6 989 75 10000 5.1 210 11:21 28.01.2020
54 Clouds 6 990 75 10000 3.6 190 10:43 28.01.2020
55 Clouds 6 990 81 10000 3.6 220 10:24 28.01.2020
56 Clouds 6 991 81 10000 4.1 220 09:59 28.01.2020
57 Clouds 6 991 81 10000 4.1 220 09:39 28.01.2020
58 Clouds 6 991 81 10000 3.1 240 09:20 28.01.2020
59 Clouds 6 991 81 10000 5.7 250 08:44 28.01.2020
60 Drizzle 6 991 75 10000 6.2 220 08:25 28.01.2020
61 Clouds 6 991 75 10000 6.7 220 07:44 28.01.2020
62 Clouds 6 992 75 10000 5.1 220 07:26 28.01.2020
63 Rain 6 991 89 0 3.13 225 06:47 28.01.2020
64 Rain 6 990 90 0 2.24 270 06:24 28.01.2020
65 Rain 6 991 91 0 1.79 270 05:38 28.01.2020
66 Rain 6 994 95 0 0.45 160 05:20 28.01.2020
67 Rain 5 992 94 0 1.34 270 03:47 28.01.2020
68 Rain 6 994 93 0 1.34 270 02:46 28.01.2020
69 Rain 6 994 93 0 1.34 292 02:25 28.01.2020
70 Clouds 6 994 91 0 1.34 270 01:53 28.01.2020
71 Clouds 6 995 90 0 1.79 270 01:20 28.01.2020
72 Clouds 6 996 91 0 1.34 270 00:43 28.01.2020
73 Clouds 5 996 93 0 0.45 270 00:19 28.01.2020
74 Drizzle 5 1001 87 10000 2.6 170 23:43 27.01.2020
75 Drizzle 6 1001 87 10000 2.6 170 23:19 27.01.2020
76 Drizzle 6 1001 87 10000 2.6 170 22:45 27.01.2020
77 Drizzle 6 1001 87 10000 2.6 190 22:20 27.01.2020
78 Drizzle 6 1001 87 10000 2.6 190 22:20 27.01.2020
79 Drizzle 6 1001 87 10000 2.6 190 22:20 27.01.2020
80 Rain 6 1001 87 10000 3.1 190 21:57 27.01.2020
81 Rain 6 1001 87 10000 3.1 190 21:57 27.01.2020
82 Rain 6 1001 87 10000 3.1 190 21:39 27.01.2020
83 Rain 6 1002 87 10000 4.1 190 21:19 27.01.2020
84 Rain 6 1003 87 9000 3.6 200 20:57 27.01.2020
85 Rain 6 1003 87 10000 4.6 210 20:37 27.01.2020
86 Rain 6 1003 87 10000 4.6 210 20:19 27.01.2020
87 Rain 6 1003 87 10000 3.6 200 19:56 27.01.2020
88 Rain 6 1003 87 10000 3.6 200 19:38 27.01.2020
89 Rain 6 1004 87 10000 3.6 190 19:19 27.01.2020
90 Rain 6 1004 87 10000 3.6 190 18:39 27.01.2020
91 Rain 6 1004 81 10000 3.1 170 18:21 27.01.2020
92 Rain 6 1005 81 10000 4.1 190 17:58 27.01.2020
93 Rain 7 1005 81 10000 4.1 190 17:38 27.01.2020
94 Clouds 7 1006 70 10000 4.1 200 17:19 27.01.2020
95 Clouds 7 1006 70 10000 4.1 200 16:56 27.01.2020
96 Clouds 7 1006 70 10000 5.7 210 16:37 27.01.2020
97 Clouds 7 1006 70 10000 5.7 210 16:19 27.01.2020
98 Clouds 8 1006 70 10000 5.1 210 15:41 27.01.2020
99 Clouds 8 1006 70 10000 4.6 220 15:20 27.01.2020
100 Clouds 8 1007 70 10000 5.1 220 14:57 27.01.2020
101 Clouds 8 1007 70 10000 5.1 220 14:39 27.01.2020
102 Clouds 8 1007 70 10000 5.7 220 14:20 27.01.2020
103 Clouds 8 1008 70 10000 5.7 220 13:42 27.01.2020
104 Clouds 8 1008 70 10000 5.7 220 13:23 27.01.2020
105 Clouds 8 1008 75 10000 6.7 220 12:58 27.01.2020
106 Clouds 7 1008 75 10000 6.7 220 12:39 27.01.2020
107 Clouds 7 1009 75 10000 5.1 210 12:21 27.01.2020
108 Clouds 7 1009 81 10000 5.1 210 11:43 27.01.2020
109 Clouds 7 1009 81 10000 4.6 210 11:22 27.01.2020
110 Clouds 6 1009 81 10000 5.7 210 10:56 27.01.2020
111 Clouds 6 1009 81 10000 5.7 210 10:38 27.01.2020
112 Clouds 6 1009 75 10000 5.7 210 10:20 27.01.2020
113 Clouds 6 1010 75 10000 4.6 200 09:39 27.01.2020
114 Clouds 6 1010 81 10000 3.6 190 09:19 27.01.2020
115 Clouds 5 1010 81 10000 4.6 200 08:56 27.01.2020
116 Clouds 5 1010 81 10000 4.6 200 08:38 27.01.2020
117 Clouds 5 1010 81 10000 4.6 200 08:18 27.01.2020
118 Clouds 5 1010 86 10000 3.6 210 07:46 27.01.2020
119 Clouds 5 1011 86 10000 3.6 210 07:26 27.01.2020
120 Clouds 5 1010 91 0 1.79 270 06:38 27.01.2020
121 Clouds 4 1010 91 0 1.79 270 05:43 27.01.2020
122 Clouds 3 1011 91 0 1.34 270 04:37 27.01.2020
123 Clouds 3 1011 91 0 1.34 292 03:35 27.01.2020
124 Clouds 3 1013 10 0 3.99 208 01:55 27.01.2020
125 Clouds 3 1013 10 0 3.99 208 01:27 27.01.2020
126 Clouds 3 1013 10 0 3.89 207 00:41 27.01.2020
127 Clouds 3 1013 92 0 3.89 207 00:21 27.01.2020
128 Clouds 2 1013 92 0 0.45 270 23:43 26.01.2020
129 Clouds 2 1013 92 0 1.34 270 23:22 26.01.2020
130 Clouds 3 1013 10 0 3.8 211 22:58 26.01.2020
131 Clouds 3 1015 95 0 3.8 211 22:38 26.01.2020
132 Clouds 2 1013 92 0 1.34 292 22:20 26.01.2020
133 Clouds 2 1015 95 0 3.8 211 21:58 26.01.2020
134 Clouds 2 1015 95 0 3.8 211 21:58 26.01.2020
135 Clouds 2 1014 10 0 3.8 211 21:39 26.01.2020
136 Clouds 2 1014 93 0 1.34 270 21:20 26.01.2020
137 Clouds 2 1014 10 0 3.8 211 20:58 26.01.2020
138 Clouds 2 1014 92 0 0.89 270 20:38 26.01.2020
139 Clouds 2 1014 92 0 0.89 270 20:38 26.01.2020
140 Clouds 3 1015 85 10000 1 140 20:19 26.01.2020
141 Clouds 2 1015 85 10000 1 140 19:58 26.01.2020
142 Clouds 2 1015 85 10000 1 140 19:38 26.01.2020
143 Clouds 2 1015 85 10000 1 140 19:38 26.01.2020
144 Clouds 2 1015 85 10000 1 140 19:19 26.01.2020
145 Clouds 2 1015 85 10000 1.5 0 18:56 26.01.2020
146 Clouds 2 1015 85 10000 1.5 0 18:38 26.01.2020
147 Clouds 2 1015 85 10000 1.5 150 18:19 26.01.2020
148 Mist 2 1015 85 5000 2.6 140 17:55 26.01.2020
149 Mist 2 1015 85 5000 2.1 170 17:36 26.01.2020
150 Mist 2 1015 79 5000 2.1 170 17:18 26.01.2020
151 Mist 3 1016 93 3500 2.6 150 16:55 26.01.2020
152 Mist 3 1016 93 3500 2.6 150 16:55 26.01.2020
153 Mist 3 1016 93 3500 2.6 150 16:37 26.01.2020
154 Clouds 3 1016 93 6000 2.6 140 16:18 26.01.2020
155 Clouds 3 1014 92 0 1.79 270 15:43 26.01.2020
156 Clouds 3 1019 91 0 1.89 198 15:21 26.01.2020
157 Clouds 3 1015 10 0 1.89 198 14:56 26.01.2020
158 Clouds 2 1015 93 0 1.34 270 14:38 26.01.2020
159 Clouds 3 1015 94 0 0.89 247 14:19 26.01.2020
160 Clouds 3 1015 97 0 0.89 270 13:39 26.01.2020
161 Clouds 2 1015 97 0 1.34 270 13:19 26.01.2020
162 Clouds 2 1016 10 0 1.48 205 12:56 26.01.2020
163 Clouds 3 1017 96 0 1.48 205 12:36 26.01.2020
164 Clouds 2 1017 97 0 2.24 38 12:18 26.01.2020
165 Clouds 2 1020 95 0 1.48 205 11:56 26.01.2020
166 Clouds 2 1020 95 0 1.48 205 11:36 26.01.2020
167 Fog 1 1019 78 800 1.5 0 11:18 26.01.2020
168 Fog 1 1019 78 800 1.5 0 10:39 26.01.2020
169 Fog 1 1019 78 800 1.5 0 10:21 26.01.2020
170 Fog 1 1019 78 750 1 0 09:59 26.01.2020
171 Fog 1 1019 78 750 1 0 09:59 26.01.2020
172 Fog 1 1019 78 750 1 0 09:41 26.01.2020
173 Fog 0 1019 78 800 1.5 0 09:23 26.01.2020
174 Clouds 1 1017 97 0 0.89 270 08:57 26.01.2020
175 Clouds 1 1017 97 0 0.89 270 08:57 26.01.2020
176 Clouds 0 1017 97 0 0.45 225 08:39 26.01.2020
177 Clouds 0 1017 97 0 0.45 270 08:20 26.01.2020
178 Clouds 0 1017 97 0 0.45 270 07:47 26.01.2020
179 Clouds 0 1017 97 0 0.45 225 07:25 26.01.2020
180 Clouds 0 1017 97 0 0.89 270 06:38 26.01.2020
181 Clouds 0 1017 97 0 0.45 292 06:18 26.01.2020
182 Clouds 0 1017 97 0 0.45 292 05:26 26.01.2020
183 Clouds 0 1017 97 0 0.45 270 03:23 26.01.2020
184 Clouds 0 1017 96 0 1.38 205 02:24 26.01.2020
185 Clouds 0 1017 96 0 1.4 212 01:40 26.01.2020
186 Clouds 0 1018 96 0 0.45 270 01:21 26.01.2020
187 Clouds 0 1018 96 0 0.45 270 00:41 26.01.2020
188 Clouds 0 1018 95 0 0.45 270 00:20 26.01.2020
189 Clouds 0 1018 95 0 1.61 206 23:38 25.01.2020
190 Clouds 0 1018 94 0 0.89 270 23:20 25.01.2020
191 Clouds 0 1018 94 0 0.89 270 22:45 25.01.2020
192 Clouds 0 1018 94 0 0.45 270 22:22 25.01.2020
193 Clouds 0 1018 94 0 0.45 270 21:59 25.01.2020
194 Clouds 0 1018 94 0 0.45 292 21:41 25.01.2020
195 Clouds 0 1019 94 0 0.89 270 21:23 25.01.2020
196 Clouds 0 1019 93 0 0.45 225 20:56 25.01.2020
197 Clouds -1 1019 93 0 0.89 270 20:38 25.01.2020
198 Clouds -1 1019 93 0 0.45 225 20:19 25.01.2020
199 Clear 0 1021 64 0 1.26 197 19:43 25.01.2020
200 Clear -1 1019 94 0 0.45 270 19:20 25.01.2020
201 Clear -1 1019 94 0 0.45 270 18:57 25.01.2020
202 Clouds -1 1019 94 0 0.45 225 18:39 25.01.2020
203 Clear -1 1018 94 0 0.45 292 18:20 25.01.2020
204 Clear -1 1019 93 0 0.45 292 17:42 25.01.2020
205 Clear -1 1019 93 0 0.45 292 17:23 25.01.2020
206 Clear 0 1019 93 0 1.79 246 16:58 25.01.2020
207 Clear -1 1019 93 0 0.89 270 16:39 25.01.2020
208 Clear -1 1019 93 0 0.45 225 16:19 25.01.2020
209 Clear 0 1019 94 0 0.89 270 15:47 25.01.2020
210 Clear 0 1019 94 0 0.45 247 15:25 25.01.2020
211 Clear 0 1020 97 0 1.79 246 14:59 25.01.2020
212 Clear 0 1019 94 0 1.34 270 14:41 25.01.2020
213 Clear 0 1019 95 0 2.18 255 14:18 25.01.2020
214 Clear 0 1019 99 0 2.18 255 13:43 25.01.2020
215 Clear 0 1019 99 0 2.18 255 13:24 25.01.2020
216 Clear 0 1019 99 0 2.18 255 13:24 25.01.2020
217 Clouds 0 1022 59 8000 3.1 220 12:46 25.01.2020
218 Clouds 0 1022 59 8000 3.1 220 12:28 25.01.2020
219 Clouds 0 1022 59 8000 3.1 220 11:54 25.01.2020
220 Clouds 0 1022 59 9000 2.6 220 11:36 25.01.2020
221 Clouds 0 1022 64 9000 2.6 220 11:18 25.01.2020
222 Clouds 0 1022 64 8000 2.6 210 10:40 25.01.2020
223 Drizzle 0 1022 64 6000 2.1 210 10:21 25.01.2020
224 Drizzle -1 1022 64 2900 2.6 220 09:57 25.01.2020
225 Drizzle -1 1022 64 2300 2.6 220 09:37 25.01.2020
226 Drizzle -1 1022 64 2300 2.6 220 09:18 25.01.2020
227 Clear -1 1020 96 0 2.04 230 08:42 25.01.2020
228 Clear -1 1020 96 0 2.37 234 07:53 25.01.2020
229 Clear -1 1020 96 0 2.37 234 07:53 25.01.2020
230 Clear -1 1020 96 0 2.37 234 06:58 25.01.2020
231 Clear -1 1019 99 0 0.45 300 06:31 25.01.2020
232 Clear -1 1019 95 0 0.45 225 05:51 25.01.2020
233 Clear -1 1019 99 0 2.37 234 05:30 25.01.2020
234 Clear 0 1019 95 0 0.45 270 03:56 25.01.2020
235 Clear -1 1020 95 0 0.45 270 03:37 25.01.2020
236 Clear -1 1020 94 0 0.89 270 02:35 25.01.2020
237 Clouds -1 1021 95 0 2.61 245 01:56 25.01.2020
238 Clouds -1 1020 93 0 0.89 270 01:21 25.01.2020
239 Clouds -1 1020 93 0 0.89 225 00:37 25.01.2020
240 Clouds -1 1020 93 0 0.45 270 00:18 25.01.2020
241 Clouds 0 1020 93 0 0.89 225 23:41 24.01.2020
242 Clouds 0 1020 93 0 0.89 225 23:41 24.01.2020
243 Clouds 0 1020 93 0 0.89 225 23:41 24.01.2020
244 Clouds 0 1020 92 0 0.89 225 23:23 24.01.2020
245 Clouds 0 1022 77 6000 3.6 260 22:46 24.01.2020
246 Clouds 0 1022 77 6000 3.6 260 22:46 24.01.2020
247 Clouds 0 1022 77 6000 3.6 260 22:28 24.01.2020
248 Clouds 0 1022 77 5000 3.1 270 21:58 24.01.2020
249 Clouds 0 1022 77 5000 3.1 270 21:40 24.01.2020
250 Clouds 0 1022 77 5000 3.6 280 21:19 24.01.2020
251 Clouds 0 1022 77 5000 3.6 290 20:43 24.01.2020
252 Clouds 0 1022 79 6000 3.6 280 20:22 24.01.2020
253 Clouds 0 1022 77 7000 4.6 280 19:58 24.01.2020
254 Clouds 0 1022 77 7000 4.6 280 19:40 24.01.2020
255 Clouds 0 1022 77 8000 3.6 290 19:22 24.01.2020
256 Clouds 0 1022 77 8000 3.6 290 19:22 24.01.2020
257 Clouds 0 1022 77 9000 3.6 290 18:56 24.01.2020
258 Clouds 0 1022 77 9000 4.1 270 18:37 24.01.2020
259 Clouds 0 1022 77 9000 4.1 270 18:19 24.01.2020
260 Clouds 0 1021 77 9000 4.1 250 17:42 24.01.2020
261 Clouds 0 1022 70 8000 3.6 260 17:21 24.01.2020
262 Clouds 0 1021 70 7000 4.6 240 16:45 24.01.2020
263 Clouds 0 1022 70 7000 4.1 270 16:22 24.01.2020
264 Clouds 0 1022 70 7000 4.6 270 15:57 24.01.2020
265 Clouds 0 1022 70 7000 4.6 270 15:39 24.01.2020
266 Clouds 0 1022 70 7000 4.6 260 15:20 24.01.2020
267 Clouds 0 1022 70 6000 4.1 260 14:41 24.01.2020
268 Mist 0 1022 58 5000 4.6 240 14:23 24.01.2020
269 Clouds 0 1022 58 5000 4.6 250 13:57 24.01.2020
270 Clouds 0 1022 58 5000 4.6 250 13:39 24.01.2020
271 Mist 0 1023 56 4300 4.6 270 13:19 24.01.2020
272 Mist 0 1023 56 4300 4.6 270 13:19 24.01.2020
273 Mist 0 1023 56 4400 4.6 280 12:41 24.01.2020
274 Mist 0 1023 56 3900 5.1 300 12:18 24.01.2020
275 Clouds 0 1023 56 5000 4.6 270 11:43 24.01.2020
276 Clouds -1 1023 68 6000 4.6 270 11:19 24.01.2020
277 Clouds -1 1023 92 6000 4.6 270 10:43 24.01.2020
278 Clouds -1 1023 92 6000 3.1 250 10:23 24.01.2020
279 Clear -1 1022 86 6000 2.1 250 09:59 24.01.2020
280 Clear -1 1022 86 6000 2.1 250 09:40 24.01.2020
281 Clear -2 1023 92 6000 2.6 240 09:22 24.01.2020
282 Clear -2 1023 86 7000 4.1 260 08:41 24.01.2020
283 Clear -2 1023 92 8000 2.6 270 08:20 24.01.2020
284 Clear -2 1022 92 9000 2.6 250 07:53 24.01.2020
285 Clear -2 1022 92 8000 1.57 229 07:35 24.01.2020
286 Clear -2 1022 94 0 1.57 229 06:48 24.01.2020
287 Clear -2 1021 99 0 1.57 229 06:29 24.01.2020
288 Clear -2 1021 99 0 1.57 229 05:59 24.01.2020
289 Clear -3 1021 93 0 0.45 270 05:18 24.01.2020
290 Clear -2 1022 93 0 0.87 237 02:54 24.01.2020
291 Clear -2 1022 98 0 0.87 237 02:27 24.01.2020
292 Clear -2 1023 95 0 0.45 270 01:53 24.01.2020
293 Clear -2 1023 96 0 0.67 216 01:33 24.01.2020
294 Clear -2 1024 94 0 0.89 38 00:31 24.01.2020
295 Clear -2 1025 94 0 1.34 38 23:58 23.01.2020
296 Clear -2 1024 95 0 0.36 276 23:40 23.01.2020
297 Clouds -2 1027 92 6000 0.81 199 23:20 23.01.2020
298 Clouds -2 1027 92 6000 0.81 199 22:39 23.01.2020
299 Clouds -1 1027 92 6000 0.81 199 22:20 23.01.2020
300 Clouds -1 1028 89 7000 0.81 199 21:58 23.01.2020
301 Clouds -1 1028 89 7000 0.81 199 21:58 23.01.2020
302 Clouds -1 1028 89 7000 0.81 199 21:40 23.01.2020
303 Clouds -1 1028 92 7000 0.81 199 21:21 23.01.2020
304 Clouds -1 1028 89 9000 0.81 199 20:59 23.01.2020
305 Clouds -1 1028 89 9000 0.81 199 20:39 23.01.2020
306 Clouds -1 1028 86 10000 1.16 148 20:21 23.01.2020
307 Clouds -1 1028 86 10000 1.23 155 19:57 23.01.2020
308 Clouds 0 1028 86 10000 1.23 155 19:38 23.01.2020
309 Clouds 0 1028 86 10000 1.23 155 19:38 23.01.2020
310 Clouds 0 1028 80 10000 1.23 155 19:20 23.01.2020
311 Clouds 0 1028 74 10000 1.23 155 18:56 23.01.2020
312 Clouds 0 1026 89 0 1.23 155 18:37 23.01.2020
313 Clouds 0 1027 93 0 1.23 155 18:19 23.01.2020
314 Clouds 1 1029 91 10000 0.5 0 17:43 23.01.2020
315 Clouds 2 1029 86 10000 1.5 0 17:20 23.01.2020
316 Clouds 3 1030 86 10000 1.5 0 16:58 23.01.2020
317 Clouds 3 1030 86 10000 1.5 0 16:38 23.01.2020
318 Clouds 4 1030 86 10000 1 40 16:19 23.01.2020
319 Clouds 4 1030 86 10000 1 40 15:57 23.01.2020
320 Clouds 4 1030 86 10000 1 40 15:38 23.01.2020
321 Clouds 4 1031 86 10000 1 40 15:18 23.01.2020
322 Clouds 4 1031 86 10000 1 40 15:18 23.01.2020
323 Clouds 5 1031 86 10000 1 0 14:56 23.01.2020
324 Clouds 5 1031 86 10000 1 0 14:56 23.01.2020
325 Clouds 4 1031 86 10000 1 0 14:38 23.01.2020
326 Clouds 4 1031 77 10000 0.65 18 14:20 23.01.2020
327 Clouds 4 1032 77 10000 0.5 0 13:44 23.01.2020
328 Clouds 4 1032 74 10000 0.6 35 13:21 23.01.2020
329 Clouds 5 1033 74 10000 1.5 0 12:55 23.01.2020
330 Clouds 4 1033 75 10000 0.6 35 12:36 23.01.2020
331 Clouds 4 1033 75 10000 0.6 35 12:18 23.01.2020
332 Clouds 4 1033 86 10000 0.6 35 11:43 23.01.2020
333 Clouds 4 1034 86 10000 0.5 0 11:24 23.01.2020
334 Clouds 3 1034 93 9000 0.96 178 10:58 23.01.2020
335 Clouds 3 1034 93 9000 0.96 178 10:40 23.01.2020
336 Clouds 3 1034 93 7000 1 0 10:19 23.01.2020
337 Clouds 3 1034 93 7000 1 260 09:41 23.01.2020
338 Clouds 2 1034 93 7000 1 260 09:22 23.01.2020
339 Clouds 2 1034 93 7000 1 0 08:56 23.01.2020
340 Clouds 2 1034 93 7000 1 0 08:38 23.01.2020
341 Clouds 2 1034 93 8000 1.5 250 08:19 23.01.2020
342 Clouds 2 1034 93 7000 1.5 0 07:39 23.01.2020
343 Clouds 2 1034 93 7000 1.5 0 07:18 23.01.2020
344 Clouds 2 1032 97 0 0.98 221 06:44 23.01.2020
345 Clouds 2 1032 97 0 0.98 221 06:18 23.01.2020
346 Clouds 2 1032 98 0 1.74 233 04:25 23.01.2020
347 Clouds 2 1033 97 0 1.74 233 03:36 23.01.2020
348 Clouds 3 1035 98 0 1.98 230 01:55 23.01.2020
349 Clouds 2 1035 98 0 1.91 233 00:46 23.01.2020
350 Clouds 2 1034 97 0 1.91 233 00:24 23.01.2020
351 Clouds 3 1034 97 0 1.91 233 23:46 22.01.2020
352 Clouds 3 1033 10 0 1.91 233 23:28 22.01.2020
353 Clouds 3 1033 99 0 2.24 245 22:55 22.01.2020
354 Clouds 3 1035 93 6000 2.1 280 22:37 22.01.2020
355 Clouds 3 1035 93 6000 2.1 280 22:19 22.01.2020
356 Clouds 3 1035 93 6000 2.1 280 21:38 22.01.2020
357 Clouds 3 1035 93 7000 2.6 270 21:20 22.01.2020
358 Clouds 3 1034 93 7000 2.6 280 20:56 22.01.2020
359 Clouds 3 1034 93 7000 3.1 280 20:36 22.01.2020
360 Clouds 3 1034 93 7000 3.1 280 20:18 22.01.2020
361 Clouds 3 1034 93 6000 3.1 270 19:55 22.01.2020
362 Clouds 3 1034 93 7000 3.6 270 19:36 22.01.2020
363 Clouds 3 1034 93 7000 3.6 270 19:36 22.01.2020
364 Clouds 3 1034 93 7000 3.6 270 19:18 22.01.2020
365 Clouds 3 1034 93 6000 3.6 280 18:54 22.01.2020
366 Clouds 3 1033 93 7000 3.6 280 18:36 22.01.2020
367 Clouds 3 1033 93 7000 3.6 280 18:18 22.01.2020
368 Clouds 3 1033 93 8000 3.6 280 17:39 22.01.2020
369 Clouds 3 1033 93 7000 3.6 280 17:21 22.01.2020
370 Clouds 3 1032 93 7000 4.1 270 16:58 22.01.2020
371 Clouds 3 1032 93 7000 4.1 270 16:39 22.01.2020
372 Clouds 3 1033 93 6000 4.1 270 16:20 22.01.2020
373 Drizzle 3 1033 93 4500 4.1 280 15:55 22.01.2020
374 Drizzle 3 1033 93 4500 3.6 280 15:37 22.01.2020
375 Drizzle 3 1033 93 4500 3.6 280 15:18 22.01.2020
376 Drizzle 3 1033 93 5000 3.6 290 14:39 22.01.2020
377 Mist 3 1033 93 4800 3.6 290 14:20 22.01.2020
378 Mist 2 1033 93 4300 4.6 280 13:58 22.01.2020
379 Mist 2 1033 93 4300 4.6 280 13:37 22.01.2020
380 Mist 2 1033 93 2700 4.1 280 13:19 22.01.2020
381 Drizzle 2 1033 93 1600 3.6 270 12:57 22.01.2020
382 Drizzle 2 1033 93 1600 3.6 270 12:39 22.01.2020
383 Drizzle 2 1033 100 2500 4.1 270 12:19 22.01.2020
384 Drizzle 2 1034 93 1700 3.6 270 11:57 22.01.2020
385 Drizzle 2 1034 93 1700 3.6 270 11:39 22.01.2020
386 Drizzle 2 1033 93 1300 3.6 260 11:19 22.01.2020
387 Drizzle 2 1033 93 1500 4.6 260 10:54 22.01.2020
388 Drizzle 1 1033 93 2300 4.6 260 10:36 22.01.2020
389 Drizzle 1 1033 93 2300 4.6 260 10:18 22.01.2020
390 Drizzle 1 1033 93 3000 4.6 260 09:41 22.01.2020
391 Drizzle 1 1033 93 2800 4.1 270 09:23 22.01.2020
392 Drizzle 1 1033 93 2400 5.1 250 08:56 22.01.2020
393 Drizzle 1 1033 93 2400 5.1 250 08:37 22.01.2020
394 Drizzle 1 1033 87 2200 4.6 260 08:19 22.01.2020
395 Drizzle 1 1033 87 2200 4.6 260 08:19 22.01.2020
396 Drizzle 0 1033 87 5000 4.1 260 07:44 22.01.2020
397 Drizzle 1 1033 87 5000 4.6 270 07:26 22.01.2020
398 Clouds 0 1032 91 0 4.87 243 06:37 22.01.2020
399 Clouds 0 1032 91 0 0.45 270 06:18 22.01.2020
400 Clouds 0 1033 91 0 3.36 255 04:27 22.01.2020
401 Clouds -1 1032 90 0 0.45 68 03:27 22.01.2020
402 Clouds -1 1034 91 0 3.36 255 02:49 22.01.2020
403 Clouds -1 1034 92 0 3.67 244 01:30 22.01.2020
404 Clouds -1 1034 88 0 3.78 248 00:40 22.01.2020
405 Clouds -1 1035 91 0 3.78 248 00:19 22.01.2020
406 Clouds -1 1035 91 0 3.78 248 23:37 21.01.2020
407 Clear -1 1037 67 10000 2.1 280 23:19 21.01.2020
408 Clear -1 1037 67 10000 2.1 280 22:42 21.01.2020
409 Clear -1 1037 67 10000 2.1 280 22:23 21.01.2020
410 Clear -1 1037 67 10000 2.1 280 21:58 21.01.2020
411 Clear 0 1037 67 10000 2.1 280 21:39 21.01.2020
412 Clear 0 1037 67 10000 2.6 270 21:21 21.01.2020
413 Clear 0 1037 67 10000 3.1 260 20:58 21.01.2020
414 Clear 0 1037 67 10000 3.1 260 20:39 21.01.2020
415 Clear 0 1037 67 10000 3.1 260 20:39 21.01.2020
416 Clear 0 1037 80 10000 4.1 250 20:20 21.01.2020
417 Clear 0 1037 74 10000 3.6 240 19:58 21.01.2020
418 Clear 0 1037 74 10000 3.6 240 19:39 21.01.2020
419 Clear 0 1037 74 10000 3.6 240 19:39 21.01.2020
420 Clear 0 1037 80 10000 3.6 240 19:21 21.01.2020
421 Clear 0 1037 80 10000 2.6 230 18:57 21.01.2020
422 Clear 0 1037 80 10000 2.6 230 18:38 21.01.2020
423 Clear 1 1038 74 10000 2.6 270 18:20 21.01.2020
424 Clear 1 1038 74 10000 3.1 280 17:56 21.01.2020
425 Clear 1 1038 69 10000 3.6 260 17:37 21.01.2020
426 Clear 2 1038 69 10000 3.6 260 17:18 21.01.2020
427 Clear 2 1038 65 10000 4.1 260 16:38 21.01.2020
428 Clear 3 1038 65 10000 4.1 260 16:19 21.01.2020
429 Clear 3 1038 65 10000 4.1 260 16:19 21.01.2020
430 Clear 4 1039 65 10000 4.6 250 15:58 21.01.2020
431 Clear 4 1039 65 10000 4.6 250 15:38 21.01.2020
432 Clear 4 1039 60 10000 4.6 260 15:19 21.01.2020
433 Clear 4 1039 60 10000 5.1 260 14:39 21.01.2020
434 Clear 4 1040 56 10000 4.6 260 14:21 21.01.2020
435 Clear 4 1040 56 10000 5.1 260 13:43 21.01.2020
436 Clear 4 1040 58 10000 5.1 260 13:21 21.01.2020
437 Clear 3 1041 69 10000 5.7 260 12:59 21.01.2020
438 Clear 4 1041 69 10000 5.7 260 12:41 21.01.2020
439 Clear 3 1041 58 10000 4.6 250 12:23 21.01.2020
440 Clear 3 1041 74 10000 4.6 250 11:56 21.01.2020
441 Clear 3 1041 74 10000 4.6 250 11:37 21.01.2020
442 Clear 1 1041 74 10000 4.6 250 11:18 21.01.2020
443 Clear 0 1041 80 10000 4.1 250 10:42 21.01.2020
444 Clear 0 1041 86 10000 3.1 250 10:22 21.01.2020
445 Clear 0 1041 86 10000 3.1 250 10:22 21.01.2020
446 Clear -1 1041 66 10000 2.6 250 09:55 21.01.2020
447 Clear -1 1041 66 10000 2.6 260 09:37 21.01.2020
448 Clear -2 1041 66 10000 2.6 260 09:18 21.01.2020
449 Clear -2 1041 86 10000 2.6 250 08:41 21.01.2020
450 Clear -1 1041 74 10000 2.6 270 08:21 21.01.2020
451 Clear -1 1041 74 10000 3.1 240 07:43 21.01.2020
452 Clear -1 1041 74 10000 3.1 240 07:43 21.01.2020
453 Clear -1 1041 74 10000 3.6 250 07:23 21.01.2020
454 Clear -1 1040 91 0 2.85 231 06:57 21.01.2020
455 Clear -1 1040 92 0 2.85 231 06:38 21.01.2020
456 Clear -2 1040 91 0 2.85 231 05:53 21.01.2020
457 Clear -1 1046 79 0 3.02 220 04:41 21.01.2020
458 Clear -1 1040 90 0 0.45 270 04:19 21.01.2020
459 Clear -1 1041 99 0 3.02 220 02:27 21.01.2020
460 Clear -1 1042 94 0 0.45 270 01:36 21.01.2020
461 Clear -1 1042 94 0 0.45 270 00:41 21.01.2020
462 Clear -1 1042 94 0 2.29 229 00:22 21.01.2020
463 Clear -1 1043 95 0 2.29 229 23:41 20.01.2020
464 Clouds -1 1045 86 10000 2.1 220 23:19 20.01.2020
465 Clouds -1 1045 86 10000 2.1 220 23:00 20.01.2020
466 Clouds -1 1045 86 10000 2.1 220 22:39 20.01.2020
467 Clouds 0 1045 86 10000 2.1 220 22:21 20.01.2020
468 Clouds 0 1045 86 10000 2.1 230 21:58 20.01.2020
469 Clouds 0 1045 86 10000 2.1 230 21:58 20.01.2020
470 Clouds 0 1045 86 10000 2.1 230 21:38 20.01.2020
471 Clouds 0 1045 86 10000 2.1 250 21:20 20.01.2020
472 Clouds 0 1045 86 10000 2.6 250 20:58 20.01.2020
473 Clouds 1 1045 86 10000 2.6 250 20:39 20.01.2020
474 Clouds 1 1045 86 10000 1.5 240 20:20 20.01.2020
475 Clouds 1 1045 80 10000 2.6 230 19:58 20.01.2020
476 Clouds 1 1045 80 10000 2.6 230 19:40 20.01.2020
477 Clouds 2 1045 80 10000 2.6 220 19:19 20.01.2020
478 Clouds 2 1045 80 10000 2.1 230 18:54 20.01.2020
479 Clouds 2 1045 80 10000 2.6 230 18:36 20.01.2020
480 Clouds 2 1045 80 10000 2.6 230 18:18 20.01.2020
481 Clouds 3 1045 80 10000 2.6 220 17:38 20.01.2020
482 Clouds 4 1045 80 10000 2.6 250 17:19 20.01.2020
483 Clouds 4 1045 81 10000 3.1 240 16:46 20.01.2020
484 Clouds 5 1045 87 10000 3.6 240 16:26 20.01.2020
485 Clouds 5 1045 93 10000 3.1 250 15:59 20.01.2020
486 Clouds 5 1045 93 10000 3.1 250 15:40 20.01.2020
487 Clouds 5 1046 93 10000 4.1 250 15:22 20.01.2020
488 Clouds 6 1046 100 10000 2.1 240 14:56 20.01.2020
489 Clouds 6 1046 93 10000 2.6 240 14:37 20.01.2020
490 Clouds 6 1046 93 10000 2.6 240 14:37 20.01.2020
491 Clouds 6 1046 93 10000 2.6 240 14:19 20.01.2020
492 Clouds 5 1046 93 9000 2.1 230 13:42 20.01.2020
493 Mist 5 1047 93 5000 2.6 230 13:24 20.01.2020
494 Mist 5 1047 100 5000 2.6 240 12:58 20.01.2020
495 Mist 5 1047 100 5000 2.6 240 12:40 20.01.2020
496 Fog 5 1047 93 900 2.6 270 12:21 20.01.2020
497 Fog 5 1047 100 600 2.6 250 11:54 20.01.2020
498 Fog 4 1047 93 450 2.1 240 11:36 20.01.2020
499 Fog 4 1047 93 450 2.1 240 11:18 20.01.2020
500 Fog 3 1046 93 400 2.06 236 10:41 20.01.2020
501 Fog 3 1046 93 400 2.06 236 10:20 20.01.2020
502 Fog 2 1046 100 300 2.06 236 09:41 20.01.2020
503 Fog 2 1046 89 500 2.06 236 09:23 20.01.2020
504 Fog 1 1046 89 700 2.06 236 08:55 20.01.2020
505 Fog 1 1045 89 500 2.06 236 08:31 20.01.2020
506 Fog 1 1045 95 450 1.8 229 07:55 20.01.2020
507 Fog 1 1045 95 400 0.5 0 07:37 20.01.2020
508 Fog 1 1045 95 400 0.5 0 07:19 20.01.2020
509 Clouds 1 1043 95 0 1.8 229 06:40 20.01.2020
510 Clouds 1 1043 94 0 1.8 229 06:20 20.01.2020
511 Clouds 1 1043 94 0 1.8 229 05:38 20.01.2020
512 Clouds 1 1043 97 0 2.19 266 05:19 20.01.2020
513 Clouds 1 1043 92 0 2.19 266 03:55 20.01.2020
514 Clouds 0 1041 98 0 1.95 262 01:58 20.01.2020
515 Clouds 0 1042 93 0 1.95 262 01:39 20.01.2020
516 Clear 1 1041 98 0 0.45 316 00:56 20.01.2020
517 Clear 0 1042 97 0 1.88 252 00:38 20.01.2020
518 Clear 1 1041 93 0 1.88 252 00:20 20.01.2020
519 Clear 1 1041 94 0 1.88 252 23:38 19.01.2020
520 Clear 1 1041 97 0 0.45 309 23:18 19.01.2020
521 Clear 1 1040 95 0 2.16 268 22:55 19.01.2020
522 Clear 2 1041 97 0 2.16 268 22:37 19.01.2020
523 Clear 2 1040 94 0 2.16 268 22:19 19.01.2020
524 Clear 2 1040 94 0 2.16 268 21:56 19.01.2020
525 Clear 2 1040 94 0 2.16 268 21:37 19.01.2020
526 Clear 2 1039 94 0 2.16 268 21:19 19.01.2020
527 Clear 2 1039 94 0 2.16 268 20:56 19.01.2020
528 Clear 2 1039 93 0 2.16 268 20:38 19.01.2020
529 Clouds 3 1039 86 10000 2.1 290 20:19 19.01.2020
530 Clouds 3 1039 86 10000 2.1 290 19:55 19.01.2020
531 Clouds 3 1039 86 10000 2.1 290 19:37 19.01.2020
532 Clouds 3 1039 86 10000 2.1 290 19:19 19.01.2020
533 Clouds 3 1039 86 10000 2.1 280 18:55 19.01.2020
534 Clouds 3 1039 86 10000 2.1 280 18:55 19.01.2020
535 Clouds 3 1038 86 10000 2.1 280 18:37 19.01.2020
536 Clouds 4 1038 86 10000 2.1 280 18:19 19.01.2020
537 Clouds 4 1038 86 10000 2.1 280 18:19 19.01.2020
538 Clouds 4 1038 80 10000 2.6 280 17:57 19.01.2020
539 Clouds 4 1038 80 10000 2.6 280 17:38 19.01.2020
540 Clouds 4 1038 86 10000 2.1 260 17:20 19.01.2020
541 Clouds 4 1037 80 10000 2.1 280 16:57 19.01.2020
542 Clouds 4 1037 80 10000 2.1 280 16:38 19.01.2020
543 Clouds 4 1037 80 10000 2.6 290 16:19 19.01.2020
544 Clouds 4 1036 80 10000 3.1 290 15:57 19.01.2020
545 Clouds 4 1036 80 10000 3.1 290 15:37 19.01.2020
546 Clouds 4 1035 80 10000 2.6 280 15:19 19.01.2020
547 Clouds 4 1035 80 10000 2.6 280 14:57 19.01.2020
548 Clouds 5 1035 80 10000 2.6 280 14:38 19.01.2020
549 Clouds 4 1035 80 10000 2.6 280 14:18 19.01.2020
550 Clouds 4 1035 80 10000 3.1 290 13:55 19.01.2020
551 Clouds 4 1035 86 10000 3.1 280 13:37 19.01.2020
552 Clouds 4 1035 86 10000 3.1 280 13:18 19.01.2020
553 Clouds 4 1035 80 10000 2.6 310 12:42 19.01.2020
554 Clouds 4 1035 86 10000 3.6 310 12:23 19.01.2020
555 Clouds 3 1034 86 10000 3.6 290 11:58 19.01.2020
556 Clouds 3 1034 86 10000 3.6 290 11:39 19.01.2020
557 Clouds 3 1034 86 10000 3.6 290 11:20 19.01.2020
558 Clouds 3 1033 86 10000 3.1 280 10:55 19.01.2020
559 Clouds 3 1033 93 10000 2.1 280 10:37 19.01.2020
560 Clouds 2 1033 93 10000 2.1 280 10:18 19.01.2020
561 Clouds 2 1033 93 10000 1.5 280 09:44 19.01.2020
562 Clouds 2 1032 88 10000 2.1 280 09:25 19.01.2020
563 Clouds 2 1031 97 0 3.12 266 08:58 19.01.2020
564 Clouds 2 1030 94 0 3.12 266 08:39 19.01.2020
565 Clouds 2 1030 97 0 2.74 251 08:20 19.01.2020
566 Clouds 2 1029 93 0 2.74 251 07:42 19.01.2020
567 Clouds 2 1028 99 0 2.74 251 07:21 19.01.2020
568 Clouds 2 1027 99 0 0.45 257 06:50 19.01.2020
569 Clouds 2 1027 93 0 2.9 248 05:21 19.01.2020
570 Clouds 3 1026 90 0 2.9 248 02:44 19.01.2020
571 Clouds 3 1026 95 0 3.55 241 02:21 19.01.2020
572 Clouds 3 1025 91 0 3.55 241 01:25 19.01.2020
573 Clouds 3 1025 91 0 3.55 241 01:25 19.01.2020
574 Clouds 3 1025 90 0 0.45 225 00:46 19.01.2020
575 Clouds 3 1024 97 0 3.41 237 00:28 19.01.2020
576 Clouds 3 1023 97 0 0.45 228 23:56 18.01.2020
577 Clouds 3 1024 90 0 3.41 237 23:38 18.01.2020
578 Clouds 3 1024 90 0 0.45 270 23:19 18.01.2020
579 Clouds 3 1023 97 0 0.45 246 22:55 18.01.2020
580 Clouds 3 1027 92 0 3.73 241 22:37 18.01.2020
581 Clouds 3 1027 92 0 3.73 241 22:37 18.01.2020
582 Clouds 3 1025 93 0 0.89 264 22:19 18.01.2020
583 Clouds 3 1023 89 0 3.73 241 21:57 18.01.2020
584 Clouds 3 1024 93 0 3.73 241 21:37 18.01.2020
585 Clouds 3 1023 89 0 3.73 241 21:19 18.01.2020
586 Clouds 3 1023 89 0 3.73 241 20:43 18.01.2020
587 Clouds 3 1023 89 0 0.45 292 20:21 18.01.2020
588 Clouds 3 1024 92 0 5.75 262 19:57 18.01.2020
589 Clouds 3 1023 89 0 0.45 225 19:39 18.01.2020
590 Clouds 3 1023 89 0 0.45 225 19:39 18.01.2020
591 Clouds 3 1024 92 0 5.75 262 19:21 18.01.2020
592 Clouds 4 1023 75 10000 5.1 250 18:42 18.01.2020
593 Clouds 4 1023 75 10000 5.1 250 18:22 18.01.2020
594 Clouds 4 1023 75 10000 5.1 250 17:55 18.01.2020
595 Clouds 4 1022 75 10000 4.6 260 17:37 18.01.2020
596 Clouds 4 1022 75 10000 4.6 260 17:19 18.01.2020
597 Clouds 4 1022 75 10000 5.1 250 16:55 18.01.2020
598 Clouds 5 1022 81 10000 4.6 250 16:36 18.01.2020
599 Clouds 5 1022 81 10000 4.6 250 16:18 18.01.2020
600 Clouds 5 1022 70 10000 6.2 250 15:41 18.01.2020
601 Clouds 5 1022 70 10000 7.2 250 15:23 18.01.2020
602 Clouds 5 1022 70 10000 6.2 250 14:55 18.01.2020
603 Clouds 5 1022 70 10000 6.7 250 14:37 18.01.2020
604 Clouds 5 1022 70 10000 6.7 250 14:18 18.01.2020
605 Clouds 5 1022 70 10000 7.2 260 13:43 18.01.2020
606 Clouds 5 1022 70 10000 5.7 230 13:24 18.01.2020
607 Clouds 6 1022 70 10000 4.6 240 12:57 18.01.2020
608 Clouds 6 1022 70 10000 4.6 240 12:38 18.01.2020
609 Clouds 5 1022 70 10000 5.7 230 12:19 18.01.2020
610 Clouds 5 1022 79 10000 5.1 240 11:44 18.01.2020
611 Clouds 5 1022 79 10000 5.7 230 11:21 18.01.2020
612 Clouds 5 1022 75 10000 5.1 240 10:56 18.01.2020
613 Clouds 5 1022 75 10000 5.1 240 10:38 18.01.2020
614 Clouds 5 1021 79 10000 5.7 240 10:19 18.01.2020
615 Clouds 4 1021 79 10000 4.6 240 09:42 18.01.2020
616 Clouds 4 1021 79 10000 4.6 230 09:24 18.01.2020
617 Clouds 4 1020 93 0 5.31 231 08:55 18.01.2020
618 Clouds 4 1020 82 0 0.45 270 08:37 18.01.2020
619 Clouds 4 1021 88 0 4.96 229 08:18 18.01.2020
620 Clouds 4 1020 81 0 0.89 270 07:43 18.01.2020
621 Clouds 4 1020 80 0 0.45 247 07:25 18.01.2020
622 Clouds 4 1019 82 0 1.34 270 06:46 18.01.2020
623 Clouds 4 1019 83 0 4.96 229 05:58 18.01.2020
624 Clouds 5 1019 77 0 0.89 270 04:35 18.01.2020
625 Clouds 5 1018 80 0 1.34 270 02:53 18.01.2020
626 Rain 6 1021 82 0 6.93 252 01:51 18.01.2020
627 Rain 6 1017 78 0 0.89 270 01:20 18.01.2020
628 Rain 7 1016 83 0 1.34 225 00:36 18.01.2020
629 Rain 7 1016 85 0 0.45 270 00:18 18.01.2020
630 Rain 7 1014 10 0 0.45 288 23:40 17.01.2020
631 Rain 7 1015 87 9000 4.1 220 23:19 17.01.2020
632 Rain 7 1015 87 9000 4.1 220 22:44 17.01.2020
633 Rain 7 1015 87 9000 4.1 220 22:21 17.01.2020
634 Drizzle 7 1015 87 10000 4.1 230 21:58 17.01.2020
635 Drizzle 7 1015 87 10000 4.1 230 21:40 17.01.2020
636 Drizzle 7 1015 81 10000 4.6 230 21:22 17.01.2020
637 Drizzle 7 1015 81 10000 5.1 240 20:57 17.01.2020
638 Drizzle 7 1015 81 10000 5.1 240 20:38 17.01.2020
639 Clouds 7 1014 70 10000 6.2 240 20:20 17.01.2020
640 Clouds 8 1014 70 10000 5.1 240 19:55 17.01.2020
641 Clouds 8 1014 70 10000 4.6 230 19:37 17.01.2020
642 Clouds 8 1014 70 10000 4.6 230 19:18 17.01.2020
643 Clouds 8 1014 66 10000 5.1 220 18:47 17.01.2020
644 Clouds 8 1014 70 10000 3.6 220 18:28 17.01.2020
645 Clouds 8 1014 81 10000 1.5 220 17:56 17.01.2020
646 Clouds 8 1014 81 10000 1.5 220 17:56 17.01.2020
647 Clouds 8 1014 81 10000 1.5 220 17:38 17.01.2020
648 Clear 8 1014 75 10000 2.39 218 17:20 17.01.2020
649 Clear 9 1014 70 10000 1.5 140 16:43 17.01.2020
650 Clear 9 1014 66 10000 1.5 0 16:20 17.01.2020
651 Clear 9 1014 71 10000 2.1 150 15:49 17.01.2020
652 Clear 9 1014 62 10000 1.5 160 15:28 17.01.2020
653 Clear 10 1014 62 10000 3.1 170 14:59 17.01.2020
654 Clear 10 1014 62 10000 3.1 170 14:40 17.01.2020
655 Clear 10 1014 62 10000 3.1 220 14:22 17.01.2020
656 Clear 10 1015 62 10000 3.6 150 13:42 17.01.2020
657 Clear 9 1015 66 10000 3.1 150 13:22 17.01.2020
658 Clear 9 1016 61 10000 3.6 180 12:46 17.01.2020
659 Clear 9 1016 66 10000 3.1 160 12:23 17.01.2020
660 Clear 8 1016 70 10000 4.1 150 11:41 17.01.2020
661 Clear 7 1017 66 10000 4.6 150 11:20 17.01.2020
662 Clear 7 1017 81 10000 3.6 110 10:56 17.01.2020
663 Clear 6 1017 81 10000 3.6 110 10:38 17.01.2020
664 Clear 6 1018 81 10000 3.6 130 10:20 17.01.2020
665 Clear 5 1018 86 10000 4.1 110 09:44 17.01.2020
666 Clear 4 1019 76 10000 3.6 120 09:21 17.01.2020
667 Clear 4 1019 86 10000 3.1 130 08:58 17.01.2020
668 Clear 4 1019 86 10000 3.1 130 08:40 17.01.2020
669 Clear 3 1019 93 10000 3.6 140 08:21 17.01.2020
670 Clear 5 1019 93 10000 3.1 130 07:46 17.01.2020
671 Clear 4 1020 81 10000 4.1 110 07:28 17.01.2020
672 Clear 4 1018 95 0 2.95 172 06:55 17.01.2020
673 Clear 4 1018 85 0 0.89 270 06:35 17.01.2020
674 Clear 4 1019 86 0 0.45 270 04:32 17.01.2020
675 Clear 4 1021 85 0 2.58 176 03:38 17.01.2020
676 Clear 5 1020 84 0 0.89 292 02:39 17.01.2020
677 Clear 5 1020 85 0 1.34 270 01:45 17.01.2020
678 Clear 5 1022 88 0 2.56 164 01:27 17.01.2020
679 Clear 5 1021 98 0 2.38 162 00:40 17.01.2020
680 Clear 6 1023 90 0 2.38 162 00:19 17.01.2020
681 Clear 5 1021 98 0 2.38 162 23:41 16.01.2020
682 Clear 6 1021 84 0 0.89 270 23:22 16.01.2020
683 Clear 5 1024 86 10000 2.1 110 22:42 16.01.2020
684 Clear 5 1024 86 10000 2.1 110 22:22 16.01.2020
685 Clear 5 1025 93 10000 2.1 110 21:57 16.01.2020
686 Clear 4 1025 93 10000 2.1 110 21:38 16.01.2020
687 Clear 5 1025 93 10000 2.1 110 21:19 16.01.2020
688 Clear 5 1025 93 10000 2.1 120 20:58 16.01.2020
689 Clear 5 1025 93 10000 2.1 120 20:39 16.01.2020
690 Clear 5 1025 93 10000 2.1 120 20:19 16.01.2020
691 Clouds 5 1025 86 10000 2.1 120 19:56 16.01.2020
692 Clouds 5 1025 86 10000 2.1 120 19:37 16.01.2020
693 Clouds 6 1025 81 10000 2.1 140 19:19 16.01.2020
694 Clouds 6 1025 81 10000 2.6 140 18:55 16.01.2020
695 Clouds 6 1026 81 10000 2.5 155 18:37 16.01.2020
696 Clouds 6 1026 81 10000 2.5 155 18:18 16.01.2020
697 Clouds 6 1026 75 10000 1.5 110 17:42 16.01.2020
698 Clouds 7 1026 75 10000 1.5 120 17:23 16.01.2020
699 Clouds 8 1026 70 10000 2.6 120 16:57 16.01.2020
700 Clouds 8 1026 70 10000 2.6 120 16:39 16.01.2020
701 Clouds 9 1026 61 10000 2.6 140 16:19 16.01.2020
702 Clouds 10 1026 61 10000 3.1 140 15:44 16.01.2020
703 Clouds 10 1026 61 10000 3.1 140 15:23 16.01.2020
704 Clouds 10 1027 62 10000 2.6 140 14:57 16.01.2020
705 Clouds 10 1027 62 10000 2.6 140 14:57 16.01.2020
706 Clouds 10 1027 62 10000 2.6 140 14:39 16.01.2020
707 Clear 10 1027 66 10000 3.1 140 14:20 16.01.2020
708 Clear 10 1027 66 10000 2.6 190 13:45 16.01.2020
709 Clear 10 1027 61 10000 2.6 240 13:26 16.01.2020
710 Clear 9 1027 70 10000 3.6 240 12:47 16.01.2020
711 Clear 9 1028 66 10000 3.6 250 12:29 16.01.2020
712 Clear 8 1028 70 10000 2.6 250 11:59 16.01.2020
713 Clear 8 1028 70 10000 2.6 250 11:41 16.01.2020
714 Clear 8 1028 70 10000 2.6 250 11:41 16.01.2020
715 Clear 7 1028 70 10000 2.1 220 11:23 16.01.2020
716 Clear 6 1028 75 10000 1.5 170 10:55 16.01.2020
717 Clear 6 1027 81 10000 2.6 180 10:36 16.01.2020
718 Clear 5 1027 81 10000 2.6 180 10:18 16.01.2020
719 Clear 4 1027 80 10000 2.6 170 09:42 16.01.2020
720 Clear 4 1027 86 10000 2.6 180 09:24 16.01.2020
721 Clear 3 1026 86 10000 1.5 0 08:58 16.01.2020
722 Clear 3 1026 86 10000 1.5 0 08:39 16.01.2020
723 Clouds 4 1026 86 10000 1.5 0 08:18 16.01.2020
724 Clouds 3 1026 86 10000 1.5 210 07:42 16.01.2020
725 Clouds 4 1026 86 10000 2.1 220 07:23 16.01.2020
726 Clouds 4 1024 91 0 0.45 270 06:50 16.01.2020
727 Clouds 3 1024 92 0 0.45 270 06:32 16.01.2020
728 Clouds 5 1024 90 0 3.26 212 05:49 16.01.2020
729 Clouds 5 1023 88 0 3.03 233 04:46 16.01.2020
730 Clouds 6 1023 87 0 0.45 270 03:56 16.01.2020
731 Clouds 8 1023 82 0 2.24 254 02:47 16.01.2020
732 Rain 8 1020 89 0 5.85 273 01:34 16.01.2020
733 Clouds 9 1020 88 0 6.78 276 00:43 16.01.2020
734 Clouds 9 1020 88 0 6.78 276 00:43 16.01.2020
735 Clouds 10 1019 85 0 0.89 270 00:23 16.01.2020
736 Clouds 10 1018 79 0 1.79 225 23:44 15.01.2020
737 Clouds 10 1018 79 0 1.79 225 23:44 15.01.2020
738 Clouds 11 1016 62 10000 4.6 240 23:22 15.01.2020
739 Clouds 11 1016 62 10000 4.6 240 22:56 15.01.2020
740 Clouds 11 1016 62 10000 4.6 240 22:38 15.01.2020
741 Clouds 11 1016 62 10000 4.6 240 22:18 15.01.2020
742 Clouds 11 1016 58 10000 5.1 230 21:56 15.01.2020
743 Clouds 11 1015 58 10000 5.7 220 21:37 15.01.2020
744 Clouds 11 1015 58 10000 5.7 220 21:18 15.01.2020
745 Rain 11 1015 58 10000 6.7 210 20:55 15.01.2020
746 Rain 11 1014 54 10000 5.7 210 20:37 15.01.2020
747 Clouds 11 1014 54 10000 5.7 210 20:18 15.01.2020
748 Clouds 11 1014 54 10000 6.2 220 19:54 15.01.2020
749 Clouds 11 1014 57 10000 6.2 220 19:36 15.01.2020
750 Clouds 10 1014 57 10000 6.2 220 19:18 15.01.2020
751 Clouds 11 1013 50 10000 5.7 220 18:55 15.01.2020
752 Clouds 11 1013 50 10000 5.7 220 18:55 15.01.2020
753 Clouds 11 1013 50 10000 5.7 220 18:55 15.01.2020
754 Clouds 10 1013 50 10000 5.7 220 18:37 15.01.2020
755 Clouds 10 1013 50 10000 5.7 220 18:37 15.01.2020
756 Clouds 11 1013 50 10000 5.7 220 18:19 15.01.2020
757 Clouds 11 1013 50 10000 5.7 220 18:19 15.01.2020
758 Clouds 11 1012 50 10000 7.7 210 17:41 15.01.2020
759 Clouds 11 1012 50 10000 6.7 210 17:23 15.01.2020
760 Clouds 11 1012 47 10000 6.7 210 16:59 15.01.2020
761 Clouds 11 1012 47 10000 6.7 210 16:39 15.01.2020
762 Clouds 12 1012 47 10000 7.7 210 16:21 15.01.2020
763 Clouds 12 1012 44 10000 7.7 210 15:44 15.01.2020
764 Clouds 13 1012 44 10000 7.2 230 15:21 15.01.2020
765 Clouds 12 1012 47 10000 7.2 220 14:59 15.01.2020
766 Clouds 12 1012 47 10000 7.2 220 14:41 15.01.2020
767 Clouds 13 1011 50 10000 9.8 220 14:18 15.01.2020
768 Clouds 13 1012 47 10000 8.2 230 13:46 15.01.2020
769 Clouds 13 1012 50 10000 6.2 230 13:26 15.01.2020
770 Clouds 13 1012 50 10000 8.2 230 12:59 15.01.2020
771 Clouds 13 1012 50 10000 8.2 230 12:39 15.01.2020
772 Clouds 12 1012 54 10000 8.2 210 12:19 15.01.2020
773 Clouds 12 1012 54 10000 5.7 210 11:56 15.01.2020
774 Clouds 12 1012 62 10000 6.7 220 11:37 15.01.2020
775 Clouds 12 1012 62 10000 6.7 220 11:19 15.01.2020
776 Clouds 12 1012 62 10000 6.7 220 11:19 15.01.2020
777 Clouds 11 1013 62 10000 7.2 210 10:43 15.01.2020
778 Clouds 11 1012 66 10000 7.2 220 10:25 15.01.2020
779 Clouds 10 1012 66 10000 7.7 210 09:44 15.01.2020
780 Clouds 10 1012 58 10000 8.2 210 09:23 15.01.2020
781 Clouds 10 1011 58 10000 6.7 220 08:56 15.01.2020
782 Clouds 10 1011 58 10000 6.7 220 08:38 15.01.2020
783 Rain 10 1011 58 10000 4.6 210 08:19 15.01.2020
784 Rain 10 1011 62 10000 4.6 210 07:51 15.01.2020
785 Rain 11 1011 58 10000 6.2 220 07:31 15.01.2020
786 Rain 11 1010 73 0 2.24 225 06:45 15.01.2020
787 Rain 10 1010 71 0 2.24 270 06:20 15.01.2020
788 Clouds 11 1010 72 0 2.24 270 04:42 15.01.2020
789 Clouds 11 1009 72 0 3.13 270 02:38 15.01.2020
790 Clouds 10 1009 72 0 3.13 225 01:28 15.01.2020
791 Clouds 10 1009 72 0 3.13 270 00:46 15.01.2020
792 Clouds 10 1009 73 0 3.58 270 00:27 15.01.2020
793 Clouds 10 1009 73 0 3.58 270 23:56 14.01.2020
794 Clouds 10 1009 74 0 3.13 270 23:38 14.01.2020
795 Clouds 10 1008 57 10000 6.7 220 23:19 14.01.2020
796 Clouds 10 1008 57 10000 6.7 220 22:41 14.01.2020
797 Clouds 10 1008 57 10000 6.7 220 22:19 14.01.2020
798 Clouds 10 1008 57 10000 7.2 220 21:58 14.01.2020
799 Clouds 10 1008 57 10000 7.7 210 21:40 14.01.2020
800 Clouds 10 1008 57 10000 7.7 210 21:21 14.01.2020
801 Clouds 10 1008 57 10000 7.2 220 20:59 14.01.2020
802 Clouds 10 1008 57 10000 7.2 220 20:40 14.01.2020
803 Clouds 10 1008 57 10000 7.2 220 20:40 14.01.2020
804 Clouds 10 1008 57 10000 6.7 220 20:20 14.01.2020
805 Clouds 10 1008 57 10000 6.7 220 20:20 14.01.2020
806 Clouds 10 1008 57 10000 6.7 220 19:56 14.01.2020
807 Clouds 10 1008 57 10000 6.7 220 19:38 14.01.2020
808 Clouds 10 1008 57 10000 5.1 220 19:19 14.01.2020
809 Clouds 10 1008 61 10000 5.1 210 18:56 14.01.2020
810 Clouds 10 1008 57 10000 5.7 200 18:37 14.01.2020
811 Clouds 10 1008 57 10000 5.7 200 18:19 14.01.2020
812 Clouds 10 1008 57 10000 5.7 200 17:39 14.01.2020
813 Clouds 10 1008 61 10000 4.1 210 17:19 14.01.2020
814 Clouds 10 1008 62 10000 4.1 210 16:55 14.01.2020
815 Clouds 10 1008 62 10000 4.6 210 16:37 14.01.2020
816 Clouds 10 1008 62 10000 4.6 210 16:19 14.01.2020
817 Clouds 10 1008 62 10000 4.1 220 15:43 14.01.2020
818 Clouds 10 1008 66 10000 6.2 240 15:19 14.01.2020
819 Clouds 10 1008 62 10000 6.7 220 14:59 14.01.2020
820 Clouds 10 1008 62 10000 6.7 220 14:41 14.01.2020
821 Clouds 10 1008 62 10000 6.7 210 14:19 14.01.2020
822 Clouds 10 1008 62 10000 7.2 230 13:42 14.01.2020
823 Rain 10 1008 62 10000 7.7 230 13:20 14.01.2020
824 Clouds 10 1008 62 10000 8.2 230 12:56 14.01.2020
825 Clouds 10 1008 62 10000 8.2 230 12:56 14.01.2020
826 Clouds 10 1008 62 10000 8.2 230 12:38 14.01.2020
827 Clouds 10 1008 62 10000 8.2 230 12:20 14.01.2020
828 Rain 10 1007 62 10000 8.7 230 11:41 14.01.2020
829 Clouds 10 1007 62 10000 7.7 220 11:22 14.01.2020
830 Clouds 10 1007 66 10000 7.2 220 10:57 14.01.2020
831 Clouds 9 1007 66 10000 7.2 220 10:38 14.01.2020
832 Clouds 9 1007 66 10000 6.2 210 10:19 14.01.2020
833 Rain 9 1006 66 10000 7.7 210 09:56 14.01.2020
834 Rain 9 1006 66 10000 7.7 210 09:37 14.01.2020
835 Rain 9 1006 66 10000 6.2 210 09:19 14.01.2020
836 Rain 9 1007 66 10000 7.2 210 08:41 14.01.2020
837 Rain 9 1007 66 10000 7.7 220 08:22 14.01.2020
838 Clouds 9 1007 57 10000 7.2 210 07:53 14.01.2020
839 Clouds 9 1007 66 10000 8.2 210 07:26 14.01.2020
840 Clouds 8 1006 78 0 2.68 292 06:50 14.01.2020
841 Clouds 8 1006 80 0 2.24 270 06:18 14.01.2020
842 Clouds 8 1006 80 0 2.68 270 04:56 14.01.2020
843 Clouds 8 1010 81 0 0.45 96 03:48 14.01.2020
844 Clouds 7 1013 90 0 6.83 201 02:41 14.01.2020
845 Clouds 6 1009 83 0 0.45 292 01:34 14.01.2020
846 Clouds 5 1009 86 0 1.34 292 00:49 14.01.2020
847 Clouds 5 1011 95 0 5.31 200 00:27 14.01.2020
848 Clouds 5 1010 86 0 1.79 225 23:47 13.01.2020
849 Clouds 5 1013 80 10000 3.1 140 23:19 13.01.2020
850 Clouds 5 1013 80 10000 3.1 140 22:59 13.01.2020
851 Clouds 5 1013 80 10000 3.1 140 22:40 13.01.2020
852 Clouds 5 1013 80 10000 3.1 140 22:20 13.01.2020
853 Clouds 5 1014 80 10000 2.6 160 21:56 13.01.2020
854 Clouds 5 1014 80 10000 2.6 140 21:37 13.01.2020
855 Clouds 5 1014 80 10000 2.6 140 21:18 13.01.2020
856 Clouds 5 1014 80 10000 2.6 140 20:57 13.01.2020
857 Clouds 5 1014 80 10000 2.6 140 20:57 13.01.2020
858 Clouds 5 1014 80 10000 2.6 140 20:38 13.01.2020
859 Clouds 5 1015 80 10000 2.1 150 20:20 13.01.2020
860 Clouds 5 1015 80 10000 1.5 0 19:56 13.01.2020
861 Clouds 5 1015 80 10000 1.5 0 19:38 13.01.2020
862 Clouds 5 1016 86 10000 1.5 160 19:18 13.01.2020
863 Clear 6 1016 89 10000 2.56 186 18:56 13.01.2020
864 Clear 6 1016 89 10000 2.56 186 18:56 13.01.2020
865 Clear 6 1016 80 10000 2.1 200 18:37 13.01.2020
866 Clear 6 1016 80 10000 2.1 200 18:37 13.01.2020
867 Clear 6 1016 80 10000 2.1 200 18:18 13.01.2020
868 Clouds 6 1017 80 10000 1.5 210 17:40 13.01.2020
869 Clouds 6 1017 80 10000 1.5 210 17:40 13.01.2020
870 Clear 6 1016 75 10000 0.5 200 17:22 13.01.2020
871 Clear 6 1016 75 10000 0.5 200 17:22 13.01.2020
872 Clear 6 1016 70 10000 3.1 200 16:56 13.01.2020
873 Clear 6 1015 82 0 0.45 270 16:38 13.01.2020
874 Clear 6 1015 83 0 0.89 270 16:19 13.01.2020
875 Clear 7 1015 82 0 0.45 292 15:44 13.01.2020
876 Clear 7 1015 80 0 0.45 270 15:23 13.01.2020
877 Clear 7 1015 89 0 2.51 192 14:58 13.01.2020
878 Clear 7 1016 82 0 0.45 270 14:38 13.01.2020
879 Clouds 7 1016 83 0 0.89 225 14:19 13.01.2020
880 Clouds 7 1021 87 0 4.31 217 13:42 13.01.2020
881 Clouds 7 1017 83 0 1.34 270 13:24 13.01.2020
882 Clouds 7 1017 85 0 0.89 270 12:59 13.01.2020
883 Clouds 7 1020 75 10000 3.6 220 12:41 13.01.2020
884 Clouds 7 1020 75 10000 3.6 220 12:23 13.01.2020
885 Clouds 7 1020 75 10000 3.6 220 11:57 13.01.2020
886 Clouds 6 1020 81 10000 3.6 210 11:37 13.01.2020
887 Clouds 6 1020 81 10000 3.6 210 11:19 13.01.2020
888 Clouds 6 1020 87 10000 5.1 210 10:56 13.01.2020
889 Clouds 6 1020 87 10000 3.6 220 10:37 13.01.2020
890 Clouds 6 1020 87 10000 3.6 220 10:37 13.01.2020
891 Clouds 6 1020 87 10000 3.6 220 10:19 13.01.2020
892 Clouds 6 1020 87 10000 3.6 220 09:43 13.01.2020
893 Drizzle 5 1020 87 10000 4.1 210 09:24 13.01.2020
894 Clouds 5 1020 81 10000 4.6 220 08:57 13.01.2020
895 Clouds 5 1020 87 10000 4.1 210 08:37 13.01.2020
896 Clouds 5 1020 87 10000 4.1 210 08:18 13.01.2020
897 Clouds 5 1020 87 10000 4.1 220 07:43 13.01.2020
898 Clouds 5 1020 87 10000 3.6 210 07:24 13.01.2020
899 Clouds 5 1019 94 0 0.45 270 06:37 13.01.2020
900 Clouds 5 1019 94 0 0.45 270 06:37 13.01.2020
901 Clouds 5 1019 92 0 0.45 270 05:37 13.01.2020
902 Clouds 5 1019 92 0 4.24 230 05:18 13.01.2020
903 Clouds 6 1019 92 0 0.45 270 03:44 13.01.2020
904 Clouds 6 1020 91 0 0.45 225 02:51 13.01.2020
905 Clouds 6 1019 91 0 0.45 270 02:30 13.01.2020
906 Clouds 6 1019 90 0 0.89 270 01:33 13.01.2020
907 Clouds 6 1019 90 0 1.34 270 00:48 13.01.2020
908 Clouds 6 1021 91 0 0.45 231 00:26 13.01.2020
909 Clouds 6 1019 95 0 1.34 278 23:59 12.01.2020
910 Clouds 6 1019 95 0 0.45 159 23:40 12.01.2020
911 Clouds 6 1019 91 0 1.34 270 23:21 12.01.2020
912 Clouds 6 1018 95 0 0.45 302 22:56 12.01.2020
913 Clouds 5 1019 91 0 1.34 270 22:37 12.01.2020
914 Clouds 6 1019 90 0 1.34 270 22:19 12.01.2020
915 Clouds 6 1019 89 0 1.34 270 21:54 12.01.2020
916 Clouds 6 1018 89 0 1.34 270 21:36 12.01.2020
917 Clouds 6 1018 89 0 1.79 270 21:18 12.01.2020
918 Clouds 5 1018 89 0 1.79 225 20:54 12.01.2020
919 Clouds 5 1018 86 10000 7.2 220 20:36 12.01.2020
920 Clouds 5 1018 86 10000 7.2 220 20:18 12.01.2020
921 Clouds 5 1018 86 10000 7.2 220 19:54 12.01.2020
922 Clouds 5 1018 80 10000 7.2 220 19:36 12.01.2020
923 Clouds 5 1018 80 10000 7.2 220 19:18 12.01.2020
924 Clouds 5 1018 80 10000 7.7 220 18:54 12.01.2020
925 Clouds 5 1018 80 10000 7.7 240 18:36 12.01.2020
926 Clouds 5 1018 80 10000 7.7 240 18:18 12.01.2020
927 Clouds 5 1018 75 10000 7.7 240 17:41 12.01.2020
928 Rain 5 1018 75 10000 6.7 230 17:19 12.01.2020
929 Rain 4 1018 75 10000 6.7 230 16:57 12.01.2020
930 Clouds 5 1018 78 10000 6.2 220 16:37 12.01.2020
931 Clouds 5 1018 78 10000 6.2 220 16:19 12.01.2020
932 Clouds 5 1018 78 10000 7.2 230 15:43 12.01.2020
933 Clouds 5 1017 78 10000 6.2 230 15:25 12.01.2020
934 Clouds 5 1018 78 10000 6.7 230 14:59 12.01.2020
935 Clouds 5 1018 78 10000 6.7 230 14:41 12.01.2020
936 Clouds 5 1018 74 10000 8.2 240 14:21 12.01.2020
937 Clouds 5 1019 74 10000 6.2 230 13:55 12.01.2020
938 Clouds 5 1019 74 10000 6.2 230 13:36 12.01.2020
939 Clouds 4 1019 72 10000 6.2 230 13:18 12.01.2020
940 Clouds 4 1020 69 10000 6.2 230 12:43 12.01.2020
941 Clouds 4 1020 69 10000 7.7 230 12:21 12.01.2020
942 Clouds 4 1020 69 10000 6.7 230 11:59 12.01.2020
943 Clouds 3 1020 69 10000 6.7 230 11:40 12.01.2020
944 Clouds 3 1020 74 10000 7.2 230 11:21 12.01.2020
945 Clouds 3 1020 74 10000 6.2 230 10:43 12.01.2020
946 Clouds 3 1021 74 10000 6.2 220 10:23 12.01.2020
947 Clouds 2 1021 74 10000 5.7 230 09:59 12.01.2020
948 Clouds 2 1021 74 10000 5.7 230 09:41 12.01.2020
949 Clouds 2 1021 74 10000 5.7 230 09:21 12.01.2020
950 Clouds 2 1020 89 0 1.34 270 08:47 12.01.2020
951 Clouds 2 1026 85 0 5.55 218 08:21 12.01.2020
952 Clouds 2 1021 90 0 0.45 270 07:45 12.01.2020
953 Clouds 1 1021 96 0 5.55 218 07:25 12.01.2020
954 Clouds 2 1023 93 0 5.55 218 06:50 12.01.2020
955 Clouds 2 1021 95 0 5.55 218 06:32 12.01.2020
956 Clouds 2 1021 94 0 5.55 218 05:49 12.01.2020
957 Clouds 2 1022 87 0 0.45 270 04:53 12.01.2020
958 Clouds 2 1022 85 0 0.89 270 03:33 12.01.2020
959 Clouds 2 1023 86 0 0.89 292 02:43 12.01.2020
960 Clouds 2 1023 88 0 0.45 270 02:24 12.01.2020
961 Clouds 2 1023 87 0 0.45 292 01:31 12.01.2020
962 Clouds 2 1024 85 0 0.45 292 00:46 12.01.2020
963 Clouds 3 1029 81 0 5.45 225 00:22 12.01.2020
964 Clouds 3 1024 92 0 5.45 225 23:56 11.01.2020
965 Clouds 3 1025 85 0 0.45 292 23:38 11.01.2020
966 Clouds 3 1025 84 0 1.34 270 23:18 11.01.2020
967 Clouds 3 1025 91 0 5.17 217 22:56 11.01.2020
968 Clouds 3 1025 84 0 1.79 292 22:37 11.01.2020
969 Clouds 3 1025 83 0 1.79 270 22:18 11.01.2020
970 Clouds 3 1027 79 10000 5.1 220 21:44 11.01.2020
971 Clouds 4 1027 79 10000 5.1 220 21:19 11.01.2020
972 Clouds 4 1027 79 10000 5.1 220 20:56 11.01.2020
973 Clouds 4 1027 65 10000 5.7 230 20:37 11.01.2020
974 Clouds 4 1027 65 10000 5.7 230 20:19 11.01.2020
975 Clouds 4 1027 65 10000 5.1 230 19:55 11.01.2020
976 Clouds 4 1028 82 10000 5.1 220 19:37 11.01.2020
977 Clouds 4 1028 82 10000 5.1 220 19:19 11.01.2020
978 Clouds 4 1028 82 10000 4.1 230 18:55 11.01.2020
979 Clouds 4 1028 82 10000 4.6 230 18:36 11.01.2020
980 Clouds 4 1028 82 10000 4.6 230 18:18 11.01.2020
981 Clouds 4 1028 82 10000 4.1 230 17:56 11.01.2020
982 Clouds 4 1028 82 10000 4.1 230 17:56 11.01.2020
983 Clouds 4 1028 82 10000 3.6 230 17:37 11.01.2020
984 Clouds 5 1028 78 10000 3.6 230 17:18 11.01.2020
985 Clouds 5 1029 78 10000 4.6 250 16:43 11.01.2020
986 Clouds 5 1029 78 10000 4.1 240 16:24 11.01.2020
987 Clouds 5 1029 78 10000 4.6 240 15:56 11.01.2020
988 Clouds 5 1029 78 10000 6.2 220 15:37 11.01.2020
989 Clouds 5 1029 78 10000 6.2 220 15:19 11.01.2020
990 Clouds 6 1029 70 10000 5.1 220 14:44 11.01.2020
991 Clouds 6 1030 65 10000 5.7 220 14:24 11.01.2020
992 Clouds 6 1030 70 10000 6.2 230 13:56 11.01.2020
993 Clouds 6 1030 70 10000 5.7 220 13:37 11.01.2020
994 Clouds 6 1030 70 10000 5.7 220 13:19 11.01.2020
995 Clouds 6 1031 75 10000 4.6 230 12:44 11.01.2020
996 Clouds 6 1031 75 10000 5.1 230 12:26 11.01.2020
997 Clouds 5 1031 75 10000 5.1 230 11:56 11.01.2020
998 Clouds 5 1031 75 10000 5.1 230 11:38 11.01.2020
999 Clouds 4 1032 80 10000 3.6 230 11:18 11.01.2020
1000 Clouds 4 1031 80 10000 4.1 230 10:44 11.01.2020
1001 Clouds 3 1031 86 10000 3.6 240 10:24 11.01.2020
1002 Clear 3 1031 93 10000 3.1 230 09:43 11.01.2020
1003 Clear 2 1030 88 10000 2.1 230 09:21 11.01.2020
1004 Clear 2 1029 92 0 0.45 225 08:43 11.01.2020
1005 Clear 2 1029 93 0 0.45 292 08:23 11.01.2020
1006 Clouds 2 1030 95 0 2.97 240 07:59 11.01.2020
1007 Clouds 2 1029 94 0 2.97 240 07:41 11.01.2020
1008 Clouds 2 1029 88 0 3.58 247 07:22 11.01.2020
1009 Clouds 3 1027 96 0 0.45 306 06:42 11.01.2020
1010 Clouds 3 1029 92 0 2.97 240 05:29 11.01.2020
1011 Clouds 3 1026 96 0 3.9 268 04:40 11.01.2020
1012 Clouds 3 1028 91 0 3.9 268 04:21 11.01.2020
1013 Clouds 4 1027 91 0 3.9 268 02:46 11.01.2020
1014 Clouds 4 1027 92 0 5.31 284 01:47 11.01.2020
1015 Clouds 4 1026 92 0 5.31 284 01:25 11.01.2020
1016 Clouds 4 1026 91 0 5.16 284 00:52 11.01.2020
1017 Clouds 4 1026 90 0 5.16 284 00:25 11.01.2020
1018 Clouds 4 1025 90 0 5.16 284 23:58 10.01.2020
1019 Clouds 4 1025 90 0 5.16 284 23:39 10.01.2020
1020 Clouds 4 1023 80 10000 5.1 290 23:20 10.01.2020
1021 Clouds 4 1023 80 10000 5.1 290 22:41 10.01.2020
1022 Clouds 4 1023 80 10000 5.1 290 22:22 10.01.2020
1023 Clouds 4 1023 80 10000 5.7 310 21:59 10.01.2020
1024 Clouds 4 1023 80 10000 5.7 310 21:41 10.01.2020
1025 Rain 5 1022 80 10000 4.6 310 21:20 10.01.2020
1026 Clouds 5 1022 80 10000 6.2 300 20:58 10.01.2020
1027 Clouds 5 1022 80 10000 6.2 300 20:40 10.01.2020
1028 Clouds 5 1022 80 10000 6.2 300 20:40 10.01.2020
1029 Clouds 5 1021 80 10000 6.2 290 20:22 10.01.2020
1030 Clouds 5 1020 70 10000 8.2 300 19:41 10.01.2020
1031 Clouds 5 1020 70 10000 8.2 300 19:21 10.01.2020
1032 Clouds 6 1019 75 10000 9.8 300 18:57 10.01.2020
1033 Clouds 6 1019 75 10000 9.8 300 18:39 10.01.2020
1034 Clouds 6 1018 81 10000 7.7 300 18:18 10.01.2020
1035 Rain 7 1018 87 8000 8.2 280 17:56 10.01.2020
1036 Clouds 7 1016 81 10000 5.1 260 17:38 10.01.2020
1037 Clouds 7 1016 81 10000 5.1 260 17:19 10.01.2020
1038 Clouds 8 1016 87 10000 5.1 250 16:55 10.01.2020
1039 Clouds 8 1015 87 10000 5.7 250 16:36 10.01.2020
1040 Clouds 8 1015 87 10000 5.7 250 16:18 10.01.2020
1041 Drizzle 8 1015 87 10000 6.2 250 15:55 10.01.2020
1042 Clouds 8 1014 81 10000 6.2 250 15:36 10.01.2020
1043 Clouds 8 1014 81 10000 6.2 250 15:18 10.01.2020
1044 Clouds 8 1014 76 10000 5.7 260 14:42 10.01.2020
1045 Clouds 8 1014 81 10000 3.6 250 14:20 10.01.2020
1046 Clouds 9 1014 76 10000 4.6 240 13:58 10.01.2020
1047 Clouds 9 1014 76 10000 4.6 240 13:58 10.01.2020
1048 Clouds 9 1014 76 10000 4.6 240 13:40 10.01.2020
1049 Drizzle 9 1014 76 10000 3.6 260 13:22 10.01.2020
1050 Clouds 9 1014 76 10000 4.6 260 12:57 10.01.2020
1051 Rain 9 1014 76 10000 5.7 250 12:38 10.01.2020
1052 Rain 9 1014 76 10000 5.7 250 12:18 10.01.2020
1053 Clouds 9 1014 76 10000 6.2 240 11:54 10.01.2020
1054 Rain 9 1013 76 10000 5.1 240 11:36 10.01.2020
1055 Rain 9 1013 76 10000 5.1 240 11:18 10.01.2020
1056 Rain 9 1013 81 10000 5.1 250 10:39 10.01.2020
1057 Rain 8 1013 76 10000 5.7 250 10:21 10.01.2020
1058 Rain 8 1012 76 10000 5.1 250 09:56 10.01.2020
1059 Clouds 8 1012 81 10000 6.2 250 09:37 10.01.2020
1060 Clouds 8 1012 81 10000 6.2 250 09:19 10.01.2020
1061 Clouds 9 1011 81 10000 6.7 230 08:41 10.01.2020
1062 Clouds 9 1011 81 10000 5.7 230 08:23 10.01.2020
1063 Clouds 9 1011 81 10000 4.6 220 07:44 10.01.2020
1064 Clouds 9 1011 87 10000 3.6 220 07:26 10.01.2020
1065 Rain 9 1009 99 0 5.16 227 06:46 10.01.2020
1066 Rain 9 1009 10 0 5.16 227 06:26 10.01.2020
1067 Rain 9 1011 96 0 0.89 230 05:48 10.01.2020
1068 Rain 10 1009 92 0 1.34 247 03:37 10.01.2020
1069 Rain 10 1008 99 0 5.79 221 03:18 10.01.2020
1070 Rain 10 1011 97 0 0.45 216 02:47 10.01.2020
1071 Rain 10 1008 89 0 2.68 270 01:44 10.01.2020
1072 Rain 10 1008 90 0 1.34 270 01:26 10.01.2020
1073 Rain 10 1008 90 0 1.34 247 00:40 10.01.2020
1074 Rain 10 1008 91 0 0.89 270 23:58 09.01.2020
1075 Rain 10 1008 93 0 0.45 225 23:39 09.01.2020
1076 Clouds 11 1010 81 10000 4.1 230 23:20 09.01.2020
1077 Clouds 11 1010 81 10000 4.1 230 22:57 09.01.2020
1078 Clouds 11 1010 81 10000 4.1 230 22:39 09.01.2020
1079 Clouds 11 1010 81 10000 4.1 230 22:19 09.01.2020
1080 Clouds 11 1010 81 10000 4.1 230 22:19 09.01.2020
1081 Clouds 11 1010 81 10000 4.1 230 21:57 09.01.2020
1082 Clouds 11 1010 81 10000 4.1 230 21:38 09.01.2020
1083 Clouds 11 1010 81 10000 4.6 230 21:19 09.01.2020
1084 Clouds 11 1010 81 10000 4.1 230 20:58 09.01.2020
1085 Clouds 11 1010 81 10000 4.1 230 20:39 09.01.2020
1086 Clouds 11 1010 81 10000 4.1 230 20:39 09.01.2020
1087 Clouds 11 1010 81 10000 5.1 240 20:20 09.01.2020
1088 Clouds 11 1010 81 10000 5.1 240 19:58 09.01.2020
1089 Clouds 11 1010 81 10000 5.7 230 19:38 09.01.2020
1090 Clouds 11 1010 81 10000 5.7 230 19:19 09.01.2020
1091 Clouds 11 1010 81 10000 5.7 230 18:55 09.01.2020
1092 Clouds 11 1010 81 10000 5.7 230 18:55 09.01.2020
1093 Clouds 11 1010 87 10000 5.7 220 18:37 09.01.2020
1094 Clouds 11 1010 87 10000 5.7 220 18:19 09.01.2020
1095 Clouds 10 1010 81 10000 5.1 220 17:41 09.01.2020
1096 Clouds 10 1010 81 10000 5.1 220 17:41 09.01.2020
1097 Rain 10 1011 81 10000 5.1 220 17:18 09.01.2020
1098 Rain 10 1011 81 10000 5.1 220 16:56 09.01.2020
1099 Rain 10 1011 81 10000 5.7 220 16:36 09.01.2020
1100 Rain 10 1011 81 10000 5.1 220 16:18 09.01.2020
1101 Drizzle 10 1011 87 10000 4.6 220 15:41 09.01.2020
1102 Drizzle 10 1011 87 10000 4.6 220 15:41 09.01.2020
1103 Drizzle 10 1011 87 10000 4.6 210 15:20 09.01.2020
1104 Drizzle 10 1011 87 10000 4.6 210 14:55 09.01.2020
1105 Rain 10 1011 87 10000 5.1 210 14:36 09.01.2020
1106 Drizzle 10 1012 81 10000 5.7 210 14:18 09.01.2020
1107 Drizzle 10 1012 81 10000 5.7 210 13:54 09.01.2020
1108 Drizzle 10 1012 81 10000 3.6 210 13:36 09.01.2020
1109 Drizzle 10 1013 81 10000 4.6 200 13:18 09.01.2020
1110 Drizzle 9 1013 81 10000 4.6 210 12:42 09.01.2020
1111 Drizzle 10 1013 81 10000 4.6 210 12:23 09.01.2020
1112 Drizzle 10 1013 81 10000 3.1 190 11:59 09.01.2020
1113 Clouds 9 1014 81 10000 3.1 190 11:41 09.01.2020
1114 Clouds 9 1014 81 10000 3.1 190 11:22 09.01.2020
1115 Clouds 9 1015 87 10000 2.6 180 10:56 09.01.2020
1116 Clouds 9 1015 87 10000 2.6 180 10:37 09.01.2020
1117 Clouds 9 1015 93 10000 2.1 120 10:19 09.01.2020
1118 Clouds 9 1015 93 10000 2.1 120 10:19 09.01.2020
1119 Clouds 8 1016 87 10000 1.5 0 09:41 09.01.2020
1120 Clouds 8 1016 87 10000 2.6 170 09:22 09.01.2020
1121 Clouds 8 1016 87 10000 2.6 170 08:56 09.01.2020
1122 Clouds 8 1016 93 10000 2.1 160 08:38 09.01.2020
1123 Drizzle 8 1017 93 10000 2.1 140 08:19 09.01.2020
1124 Drizzle 8 1017 93 10000 2.1 150 07:45 09.01.2020
1125 Drizzle 8 1017 93 10000 2.1 150 07:27 09.01.2020
1126 Rain 8 1016 95 0 0.45 292 06:39 09.01.2020
1127 Rain 8 1017 95 0 0.45 292 06:21 09.01.2020
1128 Rain 8 1017 96 0 0.89 292 05:50 09.01.2020
1129 Rain 8 1018 96 0 0.45 292 04:54 09.01.2020
1130 Rain 7 1019 96 0 0.45 270 04:36 09.01.2020
1131 Rain 7 1020 96 0 0.45 270 03:26 09.01.2020
1132 Rain 7 1020 96 0 0.45 270 02:33 09.01.2020
1133 Rain 7 1020 10 0 3.26 214 01:41 09.01.2020
1134 Rain 7 1021 95 0 0.45 270 00:56 09.01.2020
1135 Rain 7 1021 95 0 3.18 203 00:36 09.01.2020
1136 Rain 7 1021 95 0 0.45 270 00:18 09.01.2020
1137 Rain 7 1021 94 0 0.45 270 23:38 08.01.2020
1138 Clouds 7 1022 87 10000 4.1 230 23:20 08.01.2020
1139 Clouds 7 1022 87 10000 4.1 230 22:40 08.01.2020
1140 Clouds 8 1022 87 10000 4.1 230 22:21 08.01.2020
1141 Clouds 8 1022 87 10000 4.1 230 21:58 08.01.2020
1142 Clouds 7 1022 93 10000 4.1 230 21:40 08.01.2020
1143 Clouds 7 1022 93 10000 4.1 230 21:40 08.01.2020
1144 Clouds 7 1022 93 10000 4.1 230 21:20 08.01.2020
1145 Clouds 7 1022 93 10000 4.1 230 20:59 08.01.2020
1146 Clouds 7 1022 87 10000 4.1 230 20:41 08.01.2020
1147 Clouds 7 1023 87 10000 4.1 230 20:21 08.01.2020
1148 Clouds 7 1023 87 10000 4.1 230 19:58 08.01.2020
1149 Clouds 7 1022 87 10000 3.6 220 19:38 08.01.2020
1150 Clouds 7 1022 93 10000 4.1 230 19:19 08.01.2020
1151 Clouds 7 1022 93 10000 4.1 230 18:58 08.01.2020
1152 Clouds 7 1022 87 10000 5.1 230 18:39 08.01.2020
1153 Drizzle 7 1022 87 6000 5.1 230 18:19 08.01.2020
1154 Drizzle 7 1022 87 6000 5.1 230 17:56 08.01.2020
1155 Clouds 7 1022 87 10000 4.1 240 17:38 08.01.2020
1156 Clouds 7 1022 87 10000 5.1 230 17:19 08.01.2020
1157 Clouds 7 1022 87 10000 5.1 230 17:19 08.01.2020
1158 Clouds 7 1022 87 10000 5.1 230 16:55 08.01.2020
1159 Clouds 7 1022 87 10000 5.7 240 16:37 08.01.2020
1160 Clouds 7 1021 87 10000 6.2 240 16:18 08.01.2020
1161 Clouds 7 1021 87 10000 6.2 240 15:44 08.01.2020
1162 Clouds 7 1021 87 10000 6.2 240 15:44 08.01.2020
1163 Clouds 7 1021 87 10000 6.7 240 15:21 08.01.2020
1164 Clouds 7 1021 87 10000 6.7 240 14:58 08.01.2020
1165 Clouds 7 1021 87 10000 6.2 240 14:40 08.01.2020
1166 Clouds 7 1021 87 10000 6.2 240 14:21 08.01.2020
1167 Clouds 7 1021 81 10000 7.2 240 13:41 08.01.2020
1168 Clouds 7 1021 81 8000 6.7 240 13:21 08.01.2020
1169 Clouds 7 1021 81 8000 6.7 240 12:55 08.01.2020
1170 Clouds 6 1021 81 10000 5.7 230 12:36 08.01.2020
1171 Clouds 6 1021 81 10000 5.1 230 12:18 08.01.2020
1172 Clouds 6 1021 81 10000 6.7 230 11:47 08.01.2020
1173 Clouds 6 1021 81 10000 6.7 230 11:19 08.01.2020
1174 Clouds 6 1021 81 10000 6.7 230 11:19 08.01.2020
1175 Clouds 6 1021 81 10000 6.7 230 10:58 08.01.2020
1176 Clouds 6 1021 81 10000 4.6 240 10:40 08.01.2020
1177 Clouds 6 1021 81 10000 4.6 240 10:40 08.01.2020
1178 Clouds 6 1021 81 10000 4.6 240 10:20 08.01.2020
1179 Clouds 5 1021 81 10000 6.2 240 09:43 08.01.2020
1180 Clouds 6 1021 81 10000 6.2 240 09:20 08.01.2020
1181 Clouds 6 1021 81 10000 6.2 240 08:58 08.01.2020
1182 Clouds 6 1021 81 10000 4.6 230 08:40 08.01.2020
1183 Clouds 6 1020 81 10000 5.1 230 08:21 08.01.2020
1184 Clouds 6 1020 75 10000 5.7 240 07:52 08.01.2020
1185 Clouds 6 1020 75 10000 5.7 240 07:33 08.01.2020
1186 Clouds 6 1021 75 10000 6.2 230 06:58 08.01.2020
1187 Rain 6 1021 94 0 5.87 219 06:40 08.01.2020
1188 Rain 6 1023 91 0 5.87 219 05:55 08.01.2020
1189 Rain 6 1020 84 0 2.24 270 05:25 08.01.2020
1190 Clouds 6 1020 84 0 2.68 247 04:36 08.01.2020
1191 Clouds 5 1022 87 0 1.34 292 02:46 08.01.2020
1192 Clouds 5 1023 99 0 6.06 213 02:28 08.01.2020
1193 Clouds 5 1022 87 0 0.89 292 01:56 08.01.2020
1194 Clouds 6 1022 88 0 1.34 270 01:30 08.01.2020
1195 Clouds 5 1028 94 0 5.62 219 00:51 08.01.2020
1196 Clouds 5 1028 94 0 5.62 219 00:22 08.01.2020
1197 Clouds 5 1024 88 0 1.34 270 23:46 07.01.2020
1198 Clouds 5 1028 92 0 3.97 202 23:21 07.01.2020
1199 Clouds 5 1023 88 0 1.79 270 22:56 07.01.2020
1200 Clouds 5 1025 75 10000 2.6 170 22:37 07.01.2020
1201 Clouds 5 1025 75 10000 2.6 170 22:18 07.01.2020
1202 Clouds 4 1025 75 10000 2.6 170 21:42 07.01.2020
1203 Clouds 4 1025 75 10000 3.1 190 21:22 07.01.2020
1204 Clouds 4 1025 75 10000 3.1 190 20:58 07.01.2020
1205 Clouds 3 1025 80 10000 2.6 180 20:40 07.01.2020
1206 Clouds 3 1024 91 0 0.89 270 20:21 07.01.2020
1207 Clouds 4 1025 10 0 4.6 227 19:57 07.01.2020
1208 Clouds 4 1026 80 10000 3.6 220 19:38 07.01.2020
1209 Clouds 4 1027 80 10000 3.6 230 19:19 07.01.2020
1210 Clouds 4 1027 80 10000 3.6 230 18:56 07.01.2020
1211 Clouds 4 1026 86 10000 3.6 220 18:38 07.01.2020
1212 Clouds 4 1026 80 10000 3.1 220 18:18 07.01.2020
1213 Clouds 4 1026 80 10000 3.1 220 18:18 07.01.2020
1214 Clouds 4 1026 80 10000 3.1 220 17:55 07.01.2020
1215 Clouds 4 1027 86 10000 4.1 230 17:36 07.01.2020
1216 Clouds 4 1027 86 10000 3.6 220 17:18 07.01.2020
1217 Clouds 5 1027 86 10000 3.6 220 16:55 07.01.2020
1218 Clouds 5 1026 87 10000 3.6 230 16:36 07.01.2020
1219 Clouds 5 1026 87 10000 3.1 220 16:18 07.01.2020
1220 Clouds 5 1026 81 10000 5.1 240 15:43 07.01.2020
1221 Clouds 5 1026 81 10000 5.1 240 15:24 07.01.2020
1222 Clouds 5 1026 81 10000 4.1 240 14:58 07.01.2020
1223 Clouds 5 1025 81 10000 4.1 240 14:40 07.01.2020
1224 Clouds 5 1025 87 9000 4.1 240 14:21 07.01.2020
1225 Clouds 5 1025 87 8000 4.6 250 13:46 07.01.2020
1226 Clouds 5 1025 87 8000 4.6 240 13:21 07.01.2020
1227 Clouds 5 1025 87 8000 4.6 240 12:56 07.01.2020
1228 Clouds 4 1025 86 10000 4.6 240 12:38 07.01.2020
1229 Clouds 4 1025 86 10000 4.6 240 12:19 07.01.2020
1230 Clouds 4 1025 86 10000 4.6 250 11:42 07.01.2020
1231 Clouds 4 1025 86 10000 4.6 250 11:23 07.01.2020
1232 Clouds 4 1025 93 10000 4.6 250 10:58 07.01.2020
1233 Clouds 4 1025 86 10000 5.1 250 10:39 07.01.2020
1234 Clouds 3 1024 93 10000 4.1 270 10:21 07.01.2020
1235 Clouds 3 1024 93 10000 4.1 270 09:55 07.01.2020
1236 Clouds 3 1024 93 8000 3.1 250 09:37 07.01.2020
1237 Drizzle 2 1023 93 6000 3.6 250 09:19 07.01.2020
1238 Drizzle 2 1023 93 4700 3.6 240 08:41 07.01.2020
1239 Drizzle 2 1022 93 3100 3.6 240 08:18 07.01.2020
1240 Drizzle 2 1022 93 3000 3.6 240 07:47 07.01.2020
1241 Drizzle 2 1022 93 3000 3.6 240 07:23 07.01.2020
1242 Drizzle 2 1021 93 7000 3.6 240 06:50 07.01.2020
1243 Drizzle 2 1021 93 7000 3.6 240 06:30 07.01.2020
1244 Clouds 1 1020 95 0 2.24 35 05:41 07.01.2020
1245 Clouds 1 1019 87 0 1.34 270 03:52 07.01.2020
1246 Clouds 1 1019 87 0 1.34 270 03:52 07.01.2020
1247 Clouds 1 1019 96 0 0.89 134 03:25 07.01.2020
1248 Clouds 1 1019 86 0 1.34 270 02:20 07.01.2020
1249 Clouds 0 1019 86 0 1.34 225 01:40 07.01.2020
1250 Clouds 0 1019 86 0 1.34 225 01:40 07.01.2020
1251 Clouds 0 1019 86 0 1.34 225 01:40 07.01.2020
1252 Clouds 0 1018 86 0 1.34 270 01:18 07.01.2020
1253 Clouds 0 1023 82 0 4.17 223 00:21 07.01.2020
1254 Clouds 0 1018 99 0 4.17 223 23:58 06.01.2020
1255 Clouds 0 1020 86 10000 2.1 100 23:38 06.01.2020
1256 Clear -1 1020 86 10000 2.1 100 23:20 06.01.2020
1257 Clear 0 1020 86 10000 2.1 100 22:55 06.01.2020
1258 Clear 0 1020 86 10000 2.1 100 22:37 06.01.2020
1259 Clear 0 1020 86 10000 1.5 0 22:18 06.01.2020
1260 Clear 0 1020 86 10000 1.5 0 21:54 06.01.2020
1261 Clear 0 1021 81 10000 1 110 21:36 06.01.2020
1262 Clear 0 1021 81 10000 1 0 21:18 06.01.2020
1263 Clear 0 1021 81 10000 1 0 20:54 06.01.2020
1264 Clear 0 1022 81 10000 1.5 140 20:36 06.01.2020
1265 Clear 0 1022 80 10000 1.5 120 20:18 06.01.2020
1266 Clouds 0 1022 80 10000 1.5 120 20:18 06.01.2020
1267 Clouds 0 1022 80 10000 1.5 120 19:54 06.01.2020
1268 Clouds 0 1022 74 10000 1.5 110 19:36 06.01.2020
1269 Clouds 1 1022 74 10000 1.5 0 19:18 06.01.2020
1270 Clouds 2 1023 69 10000 3.1 210 18:41 06.01.2020
1271 Clouds 2 1023 88 10000 4.1 190 18:19 06.01.2020
1272 Clouds 3 1024 88 10000 2.6 190 17:39 06.01.2020
1273 Clouds 4 1024 81 10000 2.1 210 17:19 06.01.2020
1274 Clouds 4 1024 81 10000 2.1 210 16:55 06.01.2020
1275 Clouds 4 1024 81 10000 4.1 220 16:36 06.01.2020
1276 Clouds 4 1024 75 10000 3.1 220 16:18 06.01.2020
1277 Clouds 4 1024 75 10000 3.6 220 15:42 06.01.2020
1278 Clouds 5 1025 75 10000 3.6 220 15:21 06.01.2020
1279 Clouds 5 1025 75 10000 3.6 220 14:59 06.01.2020
1280 Clouds 5 1025 75 10000 3.1 220 14:41 06.01.2020
1281 Clouds 5 1025 75 10000 3.1 230 14:21 06.01.2020
1282 Clouds 5 1025 75 10000 3.1 230 14:21 06.01.2020
1283 Clouds 5 1025 75 10000 3.1 230 13:58 06.01.2020
1284 Clouds 5 1026 75 10000 3.6 220 13:38 06.01.2020
1285 Clouds 5 1026 75 10000 3.6 230 13:20 06.01.2020
1286 Clouds 5 1026 75 10000 3.1 220 12:44 06.01.2020
1287 Clouds 4 1027 75 10000 4.6 220 12:21 06.01.2020
1288 Clouds 4 1027 75 10000 4.6 220 11:59 06.01.2020
1289 Clouds 5 1027 75 10000 4.1 240 11:41 06.01.2020
1290 Clouds 5 1027 75 10000 4.1 240 11:23 06.01.2020
1291 Clouds 5 1027 75 10000 3.6 230 10:58 06.01.2020
1292 Clouds 4 1028 75 10000 3.6 240 10:40 06.01.2020
1293 Clouds 4 1028 75 10000 4.1 230 10:20 06.01.2020
1294 Clouds 4 1028 75 10000 3.6 230 09:39 06.01.2020
1295 Clouds 4 1028 75 10000 3.1 230 09:20 06.01.2020
1296 Clouds 5 1028 75 10000 2.6 250 08:48 06.01.2020
1297 Clouds 5 1028 75 10000 2.6 250 08:48 06.01.2020
1298 Clouds 4 1028 75 10000 2.6 250 08:30 06.01.2020
1299 Clouds 4 1028 75 10000 3.6 240 07:56 06.01.2020
1300 Clouds 4 1028 75 10000 3.6 240 07:33 06.01.2020
1301 Clouds 4 1027 88 0 4.08 232 06:46 06.01.2020
1302 Clouds 4 1027 87 0 4.08 232 06:23 06.01.2020
1303 Clouds 4 1029 97 0 4.08 232 05:45 06.01.2020
1304 Clouds 4 1032 89 0 4.9 245 04:52 06.01.2020
1305 Clouds 4 1028 88 0 0.45 270 04:19 06.01.2020
1306 Clouds 4 1028 10 0 0.89 283 02:56 06.01.2020
1307 Clouds 4 1028 89 0 0.89 270 02:24 06.01.2020
1308 Clouds 4 1029 91 0 0.45 270 01:45 06.01.2020
1309 Clouds 4 1028 10 0 4.01 243 01:26 06.01.2020
1310 Clouds 4 1029 94 0 0.45 270 00:42 06.01.2020
1311 Clouds 4 1029 95 0 0.45 270 00:23 06.01.2020
1312 Clouds 4 1030 95 0 0.45 270 23:43 05.01.2020
1313 Clouds 4 1030 95 0 0.45 270 23:23 05.01.2020
1314 Clouds 4 1031 97 0 4.01 238 22:58 05.01.2020
1315 Clouds 4 1030 95 0 0.45 270 22:39 05.01.2020
1316 Clouds 4 1030 95 0 0.89 270 22:20 05.01.2020
1317 Clouds 4 1031 97 0 4.01 238 21:55 05.01.2020
1318 Clouds 4 1032 80 10000 4.1 230 21:37 05.01.2020
1319 Clouds 4 1032 80 10000 4.1 230 21:37 05.01.2020
1320 Clouds 4 1032 80 10000 4.1 230 21:19 05.01.2020
1321 Clouds 4 1032 80 10000 4.1 230 20:55 05.01.2020
1322 Clouds 4 1032 86 10000 4.1 220 20:37 05.01.2020
1323 Clouds 4 1032 86 10000 4.1 220 20:19 05.01.2020
1324 Clouds 4 1032 86 10000 4.1 220 19:56 05.01.2020
1325 Clouds 4 1032 86 10000 4.1 230 19:37 05.01.2020
1326 Clouds 4 1032 86 10000 3.6 240 19:19 05.01.2020
1327 Clouds 4 1032 86 10000 3.6 240 18:55 05.01.2020
1328 Clouds 4 1032 93 10000 3.6 250 18:36 05.01.2020
1329 Clouds 4 1032 86 10000 3.1 240 18:18 05.01.2020
1330 Clouds 4 1032 86 10000 3.1 240 17:57 05.01.2020
1331 Clouds 4 1032 93 10000 2.6 240 17:37 05.01.2020
1332 Clouds 3 1033 93 10000 2.1 210 17:19 05.01.2020
1333 Clouds 4 1033 93 10000 2.1 210 16:55 05.01.2020
1334 Clouds 3 1033 93 10000 2.6 200 16:37 05.01.2020
1335 Clouds 3 1033 93 10000 2.6 200 16:19 05.01.2020
1336 Clouds 3 1033 93 10000 2.6 200 16:19 05.01.2020
1337 Clouds 4 1033 93 10000 2.6 210 15:37 05.01.2020
1338 Mist 4 1033 93 4200 2.1 210 15:18 05.01.2020
1339 Mist 4 1033 93 4200 2.1 210 14:55 05.01.2020
1340 Mist 4 1033 86 4000 2.6 230 14:36 05.01.2020
1341 Clouds 3 1033 80 10000 3.1 200 14:18 05.01.2020
1342 Clouds 4 1033 75 10000 2.6 180 13:40 05.01.2020
1343 Clouds 4 1034 75 10000 1.5 0 13:21 05.01.2020
1344 Clouds 3 1034 75 10000 1.5 0 12:58 05.01.2020
1345 Clouds 3 1034 80 10000 2.1 220 12:39 05.01.2020
1346 Clouds 3 1034 80 10000 2.1 220 12:39 05.01.2020
1347 Clouds 3 1034 79 10000 2.6 210 12:21 05.01.2020
1348 Clouds 3 1034 79 10000 2.6 210 11:58 05.01.2020
1349 Clouds 3 1034 79 10000 1.5 0 11:39 05.01.2020
1350 Clouds 3 1034 79 10000 1.5 0 11:39 05.01.2020
1351 Clouds 2 1034 83 10000 2.1 240 11:19 05.01.2020
1352 Clouds 2 1034 83 10000 2.1 240 11:19 05.01.2020
1353 Clouds 2 1034 83 10000 2.1 240 10:56 05.01.2020
1354 Clear 1 1034 80 10000 2.68 224 10:36 05.01.2020
1355 Clear 1 1034 80 10000 2.68 224 10:18 05.01.2020
1356 Clouds 0 1034 86 10000 2.68 224 09:41 05.01.2020
1357 Clouds 0 1033 86 10000 0.5 240 09:21 05.01.2020
1358 Clear 0 1032 94 0 2.68 224 08:48 05.01.2020
1359 Clear 0 1032 95 0 2.68 224 08:29 05.01.2020
1360 Clouds 0 1032 94 0 3 248 07:55 05.01.2020
1361 Clouds 0 1031 95 0 3 248 07:36 05.01.2020
1362 Clouds 0 1031 94 0 3 248 07:18 05.01.2020
1363 Clouds 1 1031 94 0 3 248 05:59 05.01.2020
1364 Clouds 1 1030 92 0 3 248 05:30 05.01.2020
1365 Clouds 2 1031 92 0 3.76 274 04:43 05.01.2020
1366 Clouds 2 1031 93 0 3.76 274 03:52 05.01.2020
1367 Clouds 2 1031 94 0 3.76 274 02:46 05.01.2020
1368 Clouds 2 1031 94 0 3.76 274 02:24 05.01.2020
1369 Clouds 2 1030 94 0 4.06 282 01:48 05.01.2020
1370 Clouds 2 1030 95 0 4.01 284 01:18 05.01.2020
1371 Clouds 1 1027 94 0 0.45 116 00:41 05.01.2020
1372 Clouds 2 1029 94 0 4.01 284 00:23 05.01.2020
1373 Clouds 2 1027 91 0 4.01 284 23:59 04.01.2020
1374 Clouds 2 1028 94 0 4.01 284 23:40 04.01.2020
1375 Clear 2 1028 93 0 4.45 283 23:19 04.01.2020
1376 Clear 2 1028 94 0 4.45 283 22:40 04.01.2020
1377 Clear 2 1027 95 0 4.45 283 22:22 04.01.2020
1378 Clear 2 1027 95 0 4.45 283 21:58 04.01.2020
1379 Clear 2 1030 88 0 4.45 283 21:39 04.01.2020
1380 Clear 2 1027 93 0 4.45 283 21:20 04.01.2020
1381 Clear 3 1027 95 0 0.89 288 20:59 04.01.2020
1382 Clear 3 1024 92 0 4.45 283 20:40 04.01.2020
1383 Rain 3 1026 91 0 4.91 292 20:21 04.01.2020
1384 Rain 3 1026 96 0 4.91 292 19:57 04.01.2020
1385 Rain 3 1026 96 0 4.91 292 19:57 04.01.2020
1386 Rain 3 1023 94 0 0.89 328 19:38 04.01.2020
1387 Clouds 3 1023 86 10000 5.1 300 19:20 04.01.2020
1388 Clouds 3 1023 86 10000 5.1 300 18:55 04.01.2020
1389 Clouds 3 1023 86 10000 5.1 300 18:36 04.01.2020
1390 Clouds 3 1023 86 10000 5.1 300 18:18 04.01.2020
1391 Rain 4 1022 86 10000 5.7 290 17:41 04.01.2020
1392 Clouds 3 1022 86 10000 5.1 290 17:23 04.01.2020
1393 Clouds 4 1022 86 10000 5.1 290 16:58 04.01.2020
1394 Clouds 4 1021 93 10000 5.1 280 16:39 04.01.2020
1395 Clouds 4 1021 93 10000 5.1 280 16:39 04.01.2020
1396 Clouds 4 1021 86 10000 4.1 320 16:21 04.01.2020
1397 Clouds 5 1021 86 10000 4.1 320 15:54 04.01.2020
1398 Rain 5 1021 86 6000 8.2 310 15:36 04.01.2020
1399 Rain 5 1019 87 9000 9.3 270 15:18 04.01.2020
1400 Rain 5 1019 87 10000 9.3 270 14:42 04.01.2020
1401 Drizzle 5 1020 87 10000 8.2 280 14:20 04.01.2020
1402 Drizzle 5 1020 87 10000 8.2 280 13:59 04.01.2020
1403 Drizzle 5 1020 87 10000 8.2 280 13:59 04.01.2020
1404 Clouds 5 1020 87 10000 8.7 270 13:38 04.01.2020
1405 Rain 5 1020 93 9000 8.2 270 13:19 04.01.2020
1406 Rain 5 1020 93 9000 8.2 270 12:57 04.01.2020
1407 Clouds 5 1020 86 10000 8.2 270 12:39 04.01.2020
1408 Drizzle 5 1020 86 10000 8.7 260 12:18 04.01.2020
1409 Drizzle 5 1020 86 10000 8.7 260 11:57 04.01.2020
1410 Drizzle 5 1020 86 10000 7.7 260 11:37 04.01.2020
1411 Clouds 5 1021 86 10000 7.7 260 11:18 04.01.2020
1412 Rain 5 1021 86 10000 7.2 270 10:41 04.01.2020
1413 Clouds 5 1021 80 10000 7.2 260 10:22 04.01.2020
1414 Clouds 5 1022 80 10000 6.2 260 09:48 04.01.2020
1415 Clouds 5 1022 80 10000 6.2 260 09:26 04.01.2020
1416 Clouds 5 1022 80 10000 6.2 260 08:49 04.01.2020
1417 Clouds 5 1022 80 10000 6.2 260 08:29 04.01.2020
1418 Clouds 4 1022 86 10000 6.7 250 07:59 04.01.2020
1419 Clouds 4 1022 86 10000 6.2 260 07:40 04.01.2020
1420 Clouds 4 1023 93 0 2.68 252 06:46 04.01.2020
1421 Clouds 4 1022 88 0 1.34 270 05:59 04.01.2020
1422 Clouds 4 1022 88 0 1.34 270 05:18 04.01.2020
1423 Clouds 4 1022 90 0 1.34 270 04:33 04.01.2020
1424 Clouds 4 1022 90 0 0.45 270 03:39 04.01.2020
1425 Clouds 4 1022 91 0 7.42 264 03:18 04.01.2020
1426 Clouds 4 1022 91 0 5.01 267 02:21 04.01.2020
1427 Clouds 5 1022 91 0 0.45 270 01:53 04.01.2020
1428 Clouds 5 1022 92 0 0.45 270 01:30 04.01.2020
1429 Clouds 5 1022 92 0 4.58 264 00:41 04.01.2020
1430 Clouds 5 1022 92 0 0.45 270 00:22 04.01.2020
1431 Clouds 5 1022 96 0 3.13 287 23:41 03.01.2020
1432 Clouds 5 1021 94 0 4.58 264 23:23 03.01.2020
1433 Rain 5 1019 87 10000 5.7 310 22:41 03.01.2020
1434 Rain 5 1019 87 10000 5.7 310 22:20 03.01.2020
1435 Rain 6 1019 87 10000 5.7 310 21:58 03.01.2020
1436 Rain 6 1017 87 10000 7.2 320 21:38 03.01.2020
1437 Rain 6 1016 93 10000 5.7 290 21:19 03.01.2020
1438 Rain 6 1016 93 10000 5.7 290 21:19 03.01.2020
1439 Rain 7 1016 93 10000 5.7 290 20:58 03.01.2020
1440 Rain 7 1015 87 10000 5.7 270 20:40 03.01.2020
1441 Rain 7 1014 93 7000 6.2 240 20:18 03.01.2020
1442 Rain 7 1014 93 7000 6.2 240 19:56 03.01.2020
1443 Rain 7 1014 87 8000 6.2 230 19:37 03.01.2020
1444 Rain 7 1014 87 10000 5.7 220 19:19 03.01.2020
1445 Clouds 7 1013 87 10000 6.2 240 18:43 03.01.2020
1446 Clouds 7 1013 87 10000 6.2 240 18:24 03.01.2020
1447 Clouds 7 1013 87 10000 6.2 240 17:56 03.01.2020
1448 Clouds 7 1014 81 10000 5.7 220 17:37 03.01.2020
1449 Clouds 7 1014 81 10000 5.7 220 17:19 03.01.2020
1450 Clouds 6 1014 81 10000 6.2 230 16:42 03.01.2020
1451 Clouds 7 1014 81 10000 6.2 230 16:24 03.01.2020
1452 Clouds 7 1014 81 10000 6.2 230 15:57 03.01.2020
1453 Clouds 7 1014 81 10000 6.2 230 15:38 03.01.2020
1454 Clouds 7 1014 75 10000 6.2 230 15:18 03.01.2020
1455 Clouds 7 1014 81 10000 6.7 240 14:38 03.01.2020
1456 Clouds 7 1014 81 10000 6.7 240 14:38 03.01.2020
1457 Clouds 7 1014 81 10000 6.7 230 14:19 03.01.2020
1458 Clouds 7 1014 75 10000 6.7 230 13:44 03.01.2020
1459 Clouds 7 1014 75 10000 6.7 230 13:44 03.01.2020
1460 Clouds 7 1014 75 10000 6.7 230 13:44 03.01.2020
1461 Clouds 7 1014 75 10000 6.7 230 13:24 03.01.2020
1462 Clouds 7 1015 75 10000 6.7 230 12:59 03.01.2020
1463 Clouds 7 1015 75 10000 5.7 230 12:39 03.01.2020
1464 Clouds 6 1015 75 10000 5.7 230 12:21 03.01.2020
1465 Clouds 6 1016 75 10000 6.2 220 11:47 03.01.2020
1466 Clouds 6 1016 75 10000 6.2 220 11:23 03.01.2020
1467 Clouds 6 1016 81 10000 6.2 220 10:47 03.01.2020
1468 Clouds 6 1016 81 10000 6.2 220 10:27 03.01.2020
1469 Clouds 6 1016 81 10000 6.7 220 09:59 03.01.2020
1470 Clouds 5 1016 81 10000 5.7 220 09:40 03.01.2020
1471 Clouds 5 1016 75 10000 6.2 220 09:22 03.01.2020
1472 Clouds 5 1016 75 10000 6.2 220 08:57 03.01.2020
1473 Clouds 5 1016 75 10000 5.7 220 08:38 03.01.2020
1474 Clouds 5 1017 75 10000 5.7 220 08:19 03.01.2020
1475 Clouds 5 1017 75 10000 5.1 220 07:40 03.01.2020
1476 Clouds 5 1017 75 10000 5.7 220 07:19 03.01.2020
1477 Clouds 4 1018 94 0 5.77 221 06:51 03.01.2020
1478 Clouds 4 1017 91 0 0.89 270 06:33 03.01.2020
1479 Clouds 4 1017 92 0 1.34 270 05:47 03.01.2020
1480 Clouds 3 1017 92 0 1.34 270 04:27 03.01.2020
1481 Clouds 3 1018 91 0 1.79 292 02:59 03.01.2020
1482 Clouds 3 1019 91 0 1.79 270 02:41 03.01.2020
1483 Clear 3 1019 91 0 1.34 270 01:45 03.01.2020
1484 Clear 3 1020 97 0 0.45 304 00:56 03.01.2020
1485 Clear 3 1022 93 0 4.38 213 00:31 03.01.2020
1486 Clear 3 1020 96 0 0.45 294 23:58 02.01.2020
1487 Clear 3 1021 96 0 0.45 295 23:39 02.01.2020
1488 Clouds 2 1022 86 10000 4.1 210 23:19 02.01.2020
1489 Clouds 2 1022 86 10000 4.1 210 22:58 02.01.2020
1490 Clouds 2 1022 86 10000 4.1 210 22:39 02.01.2020
1491 Clouds 2 1022 86 10000 4.1 210 22:19 02.01.2020
1492 Clouds 2 1022 86 10000 4.1 210 21:54 02.01.2020
1493 Clouds 2 1023 88 10000 3.6 230 21:36 02.01.2020
1494 Clouds 2 1023 88 10000 3.6 230 21:36 02.01.2020
1495 Clouds 2 1023 80 10000 2.1 200 21:18 02.01.2020
1496 Clouds 2 1023 80 10000 2.1 180 20:40 02.01.2020
1497 Clouds 2 1024 80 10000 1.5 0 20:21 02.01.2020
1498 Clouds 2 1024 80 10000 1.5 0 19:56 02.01.2020
1499 Clouds 2 1024 80 10000 1.5 0 19:56 02.01.2020
1500 Clouds 1 1024 80 10000 3.6 220 19:38 02.01.2020
1501 Clouds 1 1024 80 10000 4.1 240 19:19 02.01.2020
1502 Clouds 1 1024 80 10000 4.1 240 18:59 02.01.2020
1503 Clouds 1 1024 90 10000 4.1 250 18:40 02.01.2020
1504 Clouds 1 1024 90 10000 5.7 240 18:22 02.01.2020
1505 Clouds 1 1024 90 10000 5.7 240 17:57 02.01.2020
1506 Clear 0 1024 90 10000 5.1 240 17:38 02.01.2020
1507 Clear 0 1024 74 10000 5.7 240 17:19 02.01.2020
1508 Clear 0 1024 74 10000 5.7 240 16:57 02.01.2020
1509 Clear 1 1023 69 10000 7.2 240 16:39 02.01.2020
1510 Clear 1 1023 69 10000 7.2 250 16:20 02.01.2020
1511 Clear 1 1023 69 10000 7.2 250 15:56 02.01.2020
1512 Clear 2 1024 64 10000 6.2 250 15:37 02.01.2020
1513 Clear 2 1024 64 10000 5.7 250 15:19 02.01.2020
1514 Clear 3 1024 65 10000 4.6 270 14:55 02.01.2020
1515 Clear 3 1024 65 10000 4.6 270 14:36 02.01.2020
1516 Clear 3 1024 60 10000 4.6 260 14:18 02.01.2020
1517 Clear 4 1025 65 10000 4.6 250 13:47 02.01.2020
1518 Clear 4 1025 65 10000 4.6 250 13:29 02.01.2020
1519 Clear 4 1025 65 10000 4.6 250 12:45 02.01.2020
1520 Clear 4 1025 65 10000 4.6 250 12:25 02.01.2020
1521 Clear 3 1026 69 10000 3.1 260 11:57 02.01.2020
1522 Clear 3 1026 69 10000 3.1 260 11:37 02.01.2020
1523 Clear 2 1026 64 10000 2.1 230 11:19 02.01.2020
1524 Clear 1 1026 50 10000 1.91 223 10:43 02.01.2020
1525 Clear 0 1026 50 10000 1.91 223 10:25 02.01.2020
1526 Clear -1 1027 85 10000 2.1 100 09:46 02.01.2020
1527 Clear -1 1027 85 10000 2.1 100 09:28 02.01.2020
1528 Clear -1 1027 79 10000 1.5 230 08:45 02.01.2020
1529 Clear -1 1027 79 10000 1.5 230 08:27 02.01.2020
1530 Clear -2 1027 85 10000 2.1 110 07:51 02.01.2020
1531 Clear -2 1027 85 10000 2.1 110 07:30 02.01.2020
1532 Clear -2 1026 75 0 0.45 270 06:45 02.01.2020
1533 Clear -2 1027 60 0 1.79 38 06:26 02.01.2020
1534 Clear -2 1026 71 0 0.45 270 05:21 02.01.2020
1535 Clear -1 1026 48 0 0.76 206 04:31 02.01.2020
1536 Clear -1 1027 75 0 0.45 270 02:37 02.01.2020
1537 Clear -2 1027 63 0 1.91 213 01:59 02.01.2020
1538 Clear -1 1027 74 0 0.89 270 01:33 02.01.2020
1539 Clear -2 1027 75 0 1.34 270 00:57 02.01.2020
1540 Clear -2 1028 73 0 0.89 270 00:33 02.01.2020
1541 Clear -1 1033 79 0 1.76 206 23:52 01.01.2020
1542 Clear -1 1028 72 0 1.76 206 23:28 01.01.2020
1543 Clear -1 1028 71 0 2.22 217 22:56 01.01.2020
1544 Clear -1 1028 74 0 1.34 270 22:38 01.01.2020
1545 Clear -1 1028 74 0 0.89 270 22:19 01.01.2020
1546 Clear -1 1028 75 0 1.34 270 21:56 01.01.2020
1547 Clear -1 1028 77 0 0.89 292 21:37 01.01.2020
1548 Clear -1 1028 78 0 0.89 270 21:18 01.01.2020
1549 Clear 0 1028 76 0 1.34 270 20:54 01.01.2020
1550 Clear 0 1029 75 0 0.89 270 20:36 01.01.2020
1551 Clear 0 1030 72 0 2.68 35 20:18 01.01.2020
1552 Clear 0 1029 78 0 0.89 292 19:54 01.01.2020
1553 Clear 0 1029 78 0 0.89 292 19:54 01.01.2020
1554 Clear 0 1029 80 0 1.34 270 19:36 01.01.2020
1555 Clear 0 1030 77 0 2.24 40 19:18 01.01.2020
1556 Clear 0 1029 78 0 0.89 270 18:54 01.01.2020
1557 Clear 0 1029 79 0 0.89 270 18:36 01.01.2020
1558 Clear 0 1029 81 0 1.34 270 18:18 01.01.2020
1559 Clear 0 1030 82 0 1.63 216 17:55 01.01.2020
1560 Clear 0 1029 83 0 1.34 270 17:36 01.01.2020
1561 Clear 1 1029 83 0 0.89 292 17:18 01.01.2020
1562 Clear 1 1029 82 0 0.89 270 16:39 01.01.2020
1563 Clear 2 1029 81 0 1.79 270 16:20 01.01.2020
1564 Clear 3 1031 82 0 0.9 202 15:57 01.01.2020
1565 Clear 3 1030 78 0 0.89 270 15:39 01.01.2020
1566 Clear 3 1030 76 0 0.89 292 15:20 01.01.2020
1567 Clear 4 1030 75 0 0.89 270 14:57 01.01.2020
1568 Clear 4 1030 77 0 0.45 270 14:39 01.01.2020
1569 Clouds 4 1030 78 0 0.89 270 14:20 01.01.2020
1570 Clouds 4 1030 78 0 0.55 121 13:56 01.01.2020
1571 Clouds 4 1030 81 0 0.89 270 13:37 01.01.2020
1572 Clouds 4 1030 81 0 0.89 270 13:37 01.01.2020
1573 Clear 4 1030 81 0 1.34 270 13:18 01.01.2020
1574 Clear 3 1031 85 0 1.01 107 12:55 01.01.2020
1575 Clear 3 1031 82 0 1.34 270 12:37 01.01.2020
1576 Clear 2 1031 85 0 0.89 270 12:18 01.01.2020
1577 Clear 2 1032 87 0 0.89 270 11:43 01.01.2020
1578 Clouds 1 1032 90 0 0.89 270 11:22 01.01.2020
1579 Clouds 0 1032 92 0 0.89 292 10:58 01.01.2020
1580 Clouds 0 1032 94 0 0.89 270 10:40 01.01.2020
1581 Clouds -1 1032 94 0 0.45 270 10:20 01.01.2020
1582 Clouds -1 1032 99 0 0.91 214 09:55 01.01.2020
1583 Clouds -1 1032 96 0 0.45 270 09:36 01.01.2020
1584 Clouds -1 1032 96 0 0.91 214 09:18 01.01.2020
1585 Clouds -2 1032 96 0 0.91 214 08:54 01.01.2020
1586 Clouds -2 1032 96 0 0.45 270 08:36 01.01.2020
1587 Clear -2 1032 97 0 1.37 224 08:18 01.01.2020
1588 Clear -2 1032 96 0 1.37 224 07:45 01.01.2020
1589 Clear -2 1032 99 0 1.37 224 07:26 01.01.2020
1590 Clear -2 1032 96 0 1.37 224 06:44 01.01.2020
1591 Clear -2 1032 96 0 1.37 224 06:20 01.01.2020
1592 Clear -1 1032 96 0 1.7 237 04:44 01.01.2020
1593 Clear -1 1032 95 0 1.7 237 03:43 01.01.2020
1594 Clear -1 1032 94 0 1.7 237 03:22 01.01.2020
1595 Clear 0 1031 98 0 1.7 237 02:56 01.01.2020
1596 Clear 0 1032 94 0 1.7 237 02:33 01.01.2020
1597 Clouds 0 1032 94 0 2.7 240 01:45 01.01.2020
1598 Clouds 1 1033 95 0 2.7 240 01:25 01.01.2020
1599 Clouds 0 1033 93 0 2.75 242 00:57 01.01.2020
1600 Clouds 1 1033 93 0 2.75 242 00:38 01.01.2020
1601 Clouds 1 1033 93 0 2.75 242 00:20 01.01.2020
1602 Clouds 1 1033 94 0 2.75 242 23:40 31.12.2019
1603 Clouds 1 1033 93 0 2.97 256 23:21 31.12.2019
1604 Clouds 1 1032 99 0 2.97 256 22:57 31.12.2019
1605 Clouds 2 1033 93 0 2.97 256 22:38 31.12.2019
1606 Clouds 2 1033 93 0 2.97 256 22:19 31.12.2019
1607 Clouds 2 1033 92 0 2.97 256 21:56 31.12.2019
1608 Clouds 3 1033 91 0 2.97 256 21:37 31.12.2019
1609 Clouds 3 1033 91 0 2.97 256 21:19 31.12.2019
1610 Clouds 3 1033 91 0 2.97 256 21:19 31.12.2019
1611 Clouds 4 1033 91 0 2.97 256 20:54 31.12.2019
1612 Clouds 4 1033 90 0 2.97 256 20:36 31.12.2019
1613 Clouds 4 1033 90 0 3.16 249 20:18 31.12.2019
1614 Clouds 4 1033 89 0 3.16 249 19:41 31.12.2019
1615 Clouds 4 1032 88 0 3.16 249 19:22 31.12.2019
1616 Clouds 4 1031 95 0 3.16 249 18:59 31.12.2019
1617 Clouds 4 1032 87 0 3.16 249 18:40 31.12.2019
1618 Clouds 5 1032 87 0 3.16 249 18:20 31.12.2019
1619 Clouds 5 1031 95 0 3.16 249 17:57 31.12.2019
1620 Clouds 5 1032 87 0 3.16 249 17:38 31.12.2019
1621 Clouds 5 1032 87 0 3.54 272 17:19 31.12.2019
1622 Clouds 5 1030 94 0 3.54 272 16:57 31.12.2019
1623 Clouds 5 1032 87 0 3.54 272 16:38 31.12.2019
1624 Clouds 5 1031 88 0 3.54 272 16:19 31.12.2019
1625 Clouds 5 1030 89 0 3.54 272 15:57 31.12.2019
1626 Clouds 6 1031 87 0 3.54 272 15:39 31.12.2019
1627 Clouds 6 1031 87 0 3.54 272 15:21 31.12.2019
1628 Clouds 6 1034 90 0 3.54 272 14:58 31.12.2019
1629 Clouds 6 1031 89 0 3.54 272 14:39 31.12.2019
1630 Clouds 6 1030 89 0 4.84 295 14:19 31.12.2019
1631 Clouds 6 1029 88 0 4.84 295 13:58 31.12.2019
1632 Clouds 6 1031 89 0 4.84 295 13:40 31.12.2019
1633 Clouds 5 1030 90 0 5.12 296 13:21 31.12.2019
1634 Clouds 5 1030 90 0 5.12 296 12:58 31.12.2019
1635 Clouds 5 1031 96 0 5.12 296 12:40 31.12.2019
1636 Clouds 5 1028 89 0 5.12 296 12:40 31.12.2019
1637 Clouds 5 1030 91 0 5.12 296 12:20 31.12.2019
1638 Clouds 5 1030 92 0 5.12 296 11:56 31.12.2019
1639 Clouds 5 1030 94 0 5.12 296 11:38 31.12.2019
1640 Clouds 5 1030 94 0 5.12 296 11:38 31.12.2019
1641 Clouds 4 1030 94 0 4.84 272 11:20 31.12.2019
1642 Clouds 4 1030 94 0 4.84 272 10:58 31.12.2019
1643 Clouds 4 1030 94 0 4.84 272 10:38 31.12.2019
1644 Clouds 4 1029 93 0 4.84 272 10:20 31.12.2019
1645 Clouds 4 1029 93 0 4.84 272 09:59 31.12.2019
1646 Clouds 4 1029 94 0 4.84 272 09:39 31.12.2019
1647 Clouds 4 1029 94 0 4.84 272 09:20 31.12.2019
1648 Clouds 4 1029 93 0 4.84 272 08:57 31.12.2019
1649 Clouds 4 1028 93 0 4.84 272 08:39 31.12.2019
1650 Clouds 4 1028 93 0 4.77 265 08:19 31.12.2019
1651 Clouds 4 1028 91 0 4.58 266 07:43 31.12.2019
1652 Clouds 4 1027 90 0 4.58 266 07:20 31.12.2019
1653 Clouds 4 1027 88 0 4.58 266 06:50 31.12.2019
1654 Clouds 4 1023 66 0 0.89 307 05:57 31.12.2019
1655 Clear 4 1022 54 0 0.89 302 04:29 31.12.2019
1656 Clear 4 1025 54 0 0.45 292 03:28 31.12.2019
1657 Clear 3 1025 50 0 0.45 270 02:54 31.12.2019
1658 Clouds 3 1024 47 0 0.45 292 02:18 31.12.2019
1659 Clouds 3 1025 60 0 7.06 242 01:42 31.12.2019
1660 Clear 3 1024 41 0 0.89 292 01:23 31.12.2019
1661 Clear 3 1022 40 0 6.68 242 00:46 31.12.2019
1662 Clear 3 1025 56 0 2.24 40 00:22 31.12.2019
1663 Clear 3 1024 39 0 0.89 292 23:56 30.12.2019
1664 Clear 3 1024 42 0 1.34 270 23:38 30.12.2019
1665 Clear 3 1023 41 0 0.89 270 23:20 30.12.2019
1666 Clear 3 1024 36 0 0.89 292 22:57 30.12.2019
1667 Clear 2 1028 66 0 6.3 234 22:38 30.12.2019
1668 Clear 3 1028 66 0 6.3 234 22:20 30.12.2019
1669 Clear 3 1028 68 0 6.3 234 21:56 30.12.2019
1670 Clear 2 1028 67 0 6.3 234 21:38 30.12.2019
1671 Clear 2 1028 67 0 6.3 234 21:38 30.12.2019
1672 Clear 1 1026 52 0 0.89 43 21:19 30.12.2019
1673 Clear 1 1026 55 0 1.79 40 20:56 30.12.2019
1674 Clear 2 1028 60 0 6.3 234 20:38 30.12.2019
1675 Clouds 3 1027 55 0 2.24 40 20:20 30.12.2019
1676 Clouds 4 1025 37 0 0.89 270 19:57 30.12.2019
1677 Clouds 4 1025 37 0 0.45 270 19:37 30.12.2019
1678 Clouds 4 1025 35 0 0.89 270 19:19 30.12.2019
1679 Clouds 4 1025 35 0 0.89 270 19:19 30.12.2019
1680 Clouds 4 1025 35 0 6.13 227 18:56 30.12.2019
1681 Clouds 4 1026 33 10000 4.6 240 18:38 30.12.2019
1682 Clouds 4 1026 33 10000 4.6 240 18:20 30.12.2019
1683 Clouds 4 1026 33 10000 4.6 240 17:55 30.12.2019
1684 Clouds 5 1026 33 10000 4.6 240 17:37 30.12.2019
1685 Clouds 5 1026 33 10000 5.7 240 17:18 30.12.2019
1686 Clouds 5 1026 33 10000 5.7 240 16:57 30.12.2019
1687 Clouds 6 1026 31 10000 5.7 240 16:36 30.12.2019
1688 Clouds 6 1026 31 10000 5.7 240 16:18 30.12.2019
1689 Clouds 6 1026 31 10000 5.7 240 15:55 30.12.2019
1690 Clouds 6 1027 31 10000 5.7 230 15:37 30.12.2019
1691 Clouds 6 1027 33 10000 5.1 240 15:18 30.12.2019
1692 Clouds 6 1027 31 10000 7.2 240 14:42 30.12.2019
1693 Clouds 7 1027 31 10000 6.7 240 14:20 30.12.2019
1694 Clouds 7 1027 31 10000 6.7 240 13:57 30.12.2019
1695 Clouds 7 1028 26 10000 6.7 240 13:39 30.12.2019
1696 Clouds 7 1028 26 10000 6.2 240 13:21 30.12.2019
1697 Clouds 7 1028 26 10000 6.2 240 12:56 30.12.2019
1698 Clouds 7 1028 26 10000 6.7 240 12:36 30.12.2019
1699 Clouds 6 1029 30 10000 6.2 240 12:18 30.12.2019
1700 Clouds 5 1029 30 10000 6.2 240 11:40 30.12.2019
1701 Clouds 5 1029 33 10000 5.1 240 11:19 30.12.2019
1702 Clouds 5 1029 33 10000 5.1 240 10:57 30.12.2019
1703 Clouds 5 1029 33 10000 4.6 230 10:38 30.12.2019
1704 Clouds 4 1030 35 10000 4.1 240 10:18 30.12.2019
1705 Clouds 4 1030 41 10000 4.1 250 09:41 30.12.2019
1706 Clouds 4 1030 38 10000 3.6 250 09:20 30.12.2019
1707 Clouds 3 1030 38 10000 3.6 250 08:55 30.12.2019
1708 Clouds 3 1030 38 0 1.79 270 08:36 30.12.2019
1709 Clouds 3 1030 38 0 1.79 292 08:18 30.12.2019
1710 Clouds 3 1030 38 0 1.79 292 08:18 30.12.2019
1711 Clouds 3 1032 54 0 0.45 38 07:40 30.12.2019
1712 Clouds 2 1030 44 0 1.79 270 06:58 30.12.2019
1713 Clouds 3 1030 43 0 2.24 292 06:23 30.12.2019
1714 Clouds 3 1030 43 0 2.24 292 06:23 30.12.2019
1715 Clouds 2 1031 44 0 1.79 270 04:23 30.12.2019
1716 Clouds 2 1031 54 0 1.79 292 03:39 30.12.2019
1717 Clouds 2 1032 53 0 1.34 292 02:41 30.12.2019
1718 Clouds 2 1034 65 0 4.14 219 02:20 30.12.2019
1719 Clouds 2 1032 58 0 4.14 219 01:25 30.12.2019
1720 Clouds 1 1034 29 0 3.97 219 00:46 30.12.2019
1721 Clouds 1 1034 30 0 3.97 219 00:23 30.12.2019
1722 Clouds 2 1034 31 0 3.97 219 23:40 29.12.2019
1723 Clouds 1 1035 32 0 3.43 211 23:22 29.12.2019
1724 Clouds 2 1035 32 0 3.43 211 22:56 29.12.2019
1725 Clouds 2 1035 32 0 3.43 211 22:38 29.12.2019
1726 Clouds 1 1035 34 0 3.43 211 22:19 29.12.2019
1727 Clouds 1 1035 49 0 3.43 211 21:54 29.12.2019
1728 Clouds 1 1035 48 0 3.43 211 21:36 29.12.2019
1729 Clouds 2 1035 42 0 3.43 211 21:18 29.12.2019
1730 Clouds 2 1035 34 0 3.43 211 20:40 29.12.2019
1731 Clouds 1 1035 41 0 2.64 211 20:22 29.12.2019
1732 Clouds 2 1035 49 0 2.2 209 20:00 29.12.2019
1733 Clouds 2 1035 50 0 2.2 209 19:40 29.12.2019
1734 Clouds 1 1035 62 0 2.2 209 19:22 29.12.2019
1735 Clouds 1 1035 54 0 2.2 209 18:59 29.12.2019
1736 Clouds 1 1035 54 0 2.2 209 18:59 29.12.2019
1737 Clouds 1 1036 74 10000 0.5 0 18:40 29.12.2019
1738 Clouds 1 1036 74 10000 0.5 0 18:21 29.12.2019
1739 Clouds 1 1036 74 10000 0.5 0 17:58 29.12.2019
1740 Clouds 1 1036 74 10000 0.5 0 17:39 29.12.2019
1741 Clouds 1 1036 74 10000 2.6 150 17:20 29.12.2019
1742 Clouds 1 1036 74 10000 2.6 150 16:57 29.12.2019
1743 Clouds 1 1036 80 10000 1 340 16:39 29.12.2019
1744 Clouds 1 1036 80 10000 1 340 16:39 29.12.2019
1745 Clouds 1 1036 74 10000 1 0 16:21 29.12.2019
1746 Clouds 1 1036 74 10000 1 0 16:21 29.12.2019
1747 Clouds 1 1036 74 10000 1 0 15:59 29.12.2019
1748 Clouds 1 1036 74 10000 1.5 0 15:40 29.12.2019
1749 Clouds 1 1036 69 10000 1.5 0 15:20 29.12.2019
1750 Clouds 2 1036 69 10000 1.5 0 14:58 29.12.2019
1751 Clouds 2 1036 69 10000 1 0 14:39 29.12.2019
1752 Clouds 2 1037 74 10000 1 0 14:19 29.12.2019
1753 Clouds 2 1037 74 10000 1 0 13:59 29.12.2019
1754 Clouds 2 1037 74 10000 1.5 0 13:40 29.12.2019
1755 Clouds 2 1037 74 10000 2.1 130 13:22 29.12.2019
1756 Clouds 2 1037 74 10000 2.1 130 12:56 29.12.2019
1757 Clouds 2 1038 74 10000 0.96 195 12:38 29.12.2019
1758 Clouds 1 1038 74 10000 1 0 12:20 29.12.2019
1759 Clouds 1 1038 45 10000 1.5 0 11:41 29.12.2019
1760 Clouds 0 1038 80 10000 1 0 11:21 29.12.2019
1761 Clouds 0 1038 80 10000 1 0 10:57 29.12.2019
1762 Clouds -1 1038 86 10000 1.02 194 10:38 29.12.2019
1763 Clouds -2 1039 85 10000 1.02 194 10:18 29.12.2019
1764 Clouds -3 1038 85 10000 2.1 120 09:46 29.12.2019
1765 Clouds -4 1038 85 10000 2.1 120 09:28 29.12.2019
1766 Clouds -4 1038 85 10000 2.1 120 08:56 29.12.2019
1767 Clouds -4 1038 85 0 1.02 194 08:38 29.12.2019
1768 Clouds -4 1038 85 0 0.83 244 08:20 29.12.2019
1769 Clouds -4 1038 86 0 0.83 244 07:44 29.12.2019
1770 Clouds -4 1037 85 0 0.83 244 07:25 29.12.2019
1771 Clouds -4 1037 85 0 0.83 244 06:38 29.12.2019
1772 Clouds -4 1037 85 0 0.83 244 06:18 29.12.2019
1773 Clouds -4 1037 85 0 0.83 244 05:44 29.12.2019
1774 Clouds -4 1038 83 0 0.61 171 04:32 29.12.2019
1775 Clouds -4 1038 76 0 0.61 171 03:35 29.12.2019
1776 Clouds -3 1038 72 0 0.45 225 02:27 29.12.2019
1777 Clouds -3 1038 72 0 0.34 147 01:52 29.12.2019
1778 Clouds -3 1038 71 0 0.36 257 01:29 29.12.2019
1779 Clouds -2 1038 71 0 2.24 225 00:45 29.12.2019
1780 Clouds -2 1038 71 0 2.68 248 00:24 29.12.2019
1781 Clouds -2 1039 71 0 2.68 248 23:55 28.12.2019
1782 Clouds -2 1039 77 0 2.24 248 23:37 28.12.2019
1783 Clouds -2 1039 84 0 2.68 248 23:18 28.12.2019
1784 Clouds -2 1041 87 0 1.38 146 22:37 28.12.2019
1785 Clouds -2 1039 84 0 0.89 270 22:18 28.12.2019
1786 Clouds -2 1040 91 0 1.38 146 21:56 28.12.2019
1787 Clouds -2 1040 91 0 1.38 146 21:56 28.12.2019
1788 Clouds -2 1039 84 0 0.89 270 21:37 28.12.2019
1789 Clouds -2 1040 87 0 1.38 146 21:19 28.12.2019
1790 Clouds -2 1039 84 0 0.89 270 20:54 28.12.2019
1791 Clouds -2 1039 82 0 1.38 146 20:36 28.12.2019
1792 Clouds -2 1039 82 0 0.94 146 20:18 28.12.2019
1793 Clouds -2 1039 80 0 0.89 180 19:41 28.12.2019
1794 Clouds -2 1039 86 0 1.39 136 19:23 28.12.2019
1795 Clouds -2 1039 91 0 1.39 136 18:59 28.12.2019
1796 Clouds -2 1042 86 10000 1 90 18:40 28.12.2019
1797 Clouds -1 1042 86 10000 1 90 18:20 28.12.2019
1798 Clouds -1 1042 86 10000 1 90 17:59 28.12.2019
1799 Clouds -1 1042 86 10000 1 90 17:39 28.12.2019
1800 Clouds -1 1042 86 10000 1 100 17:20 28.12.2019
1801 Clouds -1 1042 86 10000 2.1 100 16:49 28.12.2019
1802 Clouds -1 1042 86 10000 2.1 100 16:27 28.12.2019
1803 Clouds 0 1042 81 10000 2.6 90 15:57 28.12.2019
1804 Clouds 0 1042 81 10000 2.6 90 15:57 28.12.2019
1805 Clouds 0 1041 81 10000 2.6 90 15:39 28.12.2019
1806 Clouds 0 1041 80 10000 2.1 90 15:21 28.12.2019
1807 Clouds 1 1041 80 10000 2.1 90 14:46 28.12.2019
1808 Clouds 1 1041 80 10000 2.1 90 14:24 28.12.2019
1809 Clouds 1 1042 80 10000 1.5 100 13:58 28.12.2019
1810 Clouds 1 1042 80 10000 1.5 100 13:58 28.12.2019
1811 Clouds 1 1042 80 10000 2.1 90 13:39 28.12.2019
1812 Clouds 1 1042 71 10000 1.5 100 13:19 28.12.2019
1813 Clouds 0 1042 71 10000 1.5 100 12:55 28.12.2019
1814 Clouds 0 1042 71 10000 0.5 120 12:36 28.12.2019
1815 Clouds 0 1042 92 10000 1.5 110 12:18 28.12.2019
1816 Clouds 0 1042 92 10000 1.5 100 11:40 28.12.2019
1817 Clouds -1 1042 92 10000 1.22 95 11:21 28.12.2019
1818 Clouds -1 1042 86 10000 1.22 95 10:47 28.12.2019
1819 Clouds -2 1042 86 10000 1.22 95 10:23 28.12.2019
1820 Clouds -2 1042 92 10000 1 80 10:00 28.12.2019
1821 Clouds -2 1042 92 10000 1 80 09:59 28.12.2019
1822 Clouds -2 1041 92 10000 1.22 95 09:41 28.12.2019
1823 Clouds -2 1041 92 10000 1.22 95 09:23 28.12.2019
1824 Clouds -3 1041 92 10000 1.22 95 08:57 28.12.2019
1825 Clouds -3 1039 96 0 1.22 95 08:38 28.12.2019
1826 Clouds -3 1038 96 0 1.04 89 08:19 28.12.2019
1827 Clouds -3 1037 97 0 1.04 89 07:41 28.12.2019
1828 Clouds -2 1038 96 0 1.04 89 06:55 28.12.2019
1829 Clouds -2 1037 96 0 1.04 89 05:43 28.12.2019
1830 Clouds -1 1037 96 0 1.16 93 03:48 28.12.2019
1831 Clouds -1 1037 95 0 1.16 93 02:50 28.12.2019
1832 Clouds -1 1037 95 0 0.27 147 02:20 28.12.2019
1833 Clouds -1 1036 95 0 0.27 147 01:53 28.12.2019
1834 Clouds -1 1036 95 0 0.27 147 01:22 28.12.2019
1835 Clouds 0 1035 92 0 0.21 197 00:42 28.12.2019
1836 Clouds 0 1036 94 0 0.21 197 00:23 28.12.2019
1837 Clouds 1 1034 90 0 0.21 197 23:56 27.12.2019
1838 Clouds 1 1035 93 0 0.21 197 23:36 27.12.2019
1839 Clouds 1 1035 92 0 0.48 69 23:18 27.12.2019
1840 Clouds 1 1035 92 0 0.48 69 22:55 27.12.2019
1841 Clouds 1 1035 84 0 0.48 69 22:37 27.12.2019
1842 Clouds 1 1034 87 0 0.48 69 22:19 27.12.2019
1843 Clouds 1 1033 86 0 0.48 69 21:41 27.12.2019
1844 Clouds 1 1036 88 0 0.48 69 21:23 27.12.2019
1845 Clouds 2 1034 85 0 0.48 69 20:44 27.12.2019
1846 Clouds 2 1034 86 0 0.48 69 20:26 27.12.2019
1847 Clouds 2 1033 87 0 0.35 326 19:57 27.12.2019
1848 Clouds 2 1033 87 0 0.35 326 19:57 27.12.2019
1849 Clouds 2 1033 87 0 0.35 326 19:38 27.12.2019
1850 Clouds 2 1033 87 0 0.35 326 19:38 27.12.2019
1851 Clouds 2 1033 87 0 0.35 326 19:19 27.12.2019
1852 Clouds 2 1033 87 0 0.35 326 18:55 27.12.2019
1853 Clouds 2 1033 80 10000 0.35 326 18:36 27.12.2019
1854 Clouds 2 1033 80 10000 0.35 326 18:18 27.12.2019
1855 Clouds 2 1033 80 10000 0.35 326 17:42 27.12.2019
1856 Clouds 2 1033 74 10000 1 0 17:20 27.12.2019
1857 Clouds 3 1033 74 10000 1 0 16:59 27.12.2019
1858 Clouds 3 1033 74 10000 0.5 0 16:41 27.12.2019
1859 Clouds 3 1033 74 10000 0.5 0 16:41 27.12.2019
1860 Clouds 3 1032 80 10000 1.5 0 16:22 27.12.2019
1861 Clouds 3 1032 80 10000 1.5 0 15:57 27.12.2019
1862 Clouds 3 1032 80 10000 1.5 0 15:37 27.12.2019
1863 Clouds 3 1031 74 10000 1.5 0 15:18 27.12.2019
1864 Clouds 4 1031 74 10000 1.5 0 14:55 27.12.2019
1865 Clouds 3 1031 74 10000 2.1 10 14:37 27.12.2019
1866 Clouds 3 1031 74 10000 1.5 0 14:19 27.12.2019
1867 Clouds 4 1030 69 10000 1 0 13:44 27.12.2019
1868 Clouds 4 1030 69 10000 1 0 13:22 27.12.2019
1869 Clouds 4 1030 69 10000 2.1 40 12:49 27.12.2019
1870 Clouds 3 1030 69 10000 2.1 40 12:29 27.12.2019
1871 Clouds 3 1030 85 10000 2.6 0 11:59 27.12.2019
1872 Clouds 3 1029 85 10000 2.1 50 11:41 27.12.2019
1873 Clouds 3 1029 86 10000 2.1 40 11:20 27.12.2019
1874 Clouds 2 1028 86 10000 1.5 0 10:47 27.12.2019
1875 Clouds 2 1028 86 10000 1.5 0 10:24 27.12.2019
1876 Clouds 1 1027 86 10000 1.5 0 09:58 27.12.2019
1877 Clouds 1 1027 93 6000 1 0 09:38 27.12.2019
1878 Clouds 1 1027 93 6000 1 0 09:38 27.12.2019
1879 Mist 0 1026 86 4500 1.5 0 09:20 27.12.2019
1880 Clear 0 1024 95 0 1.19 62 08:49 27.12.2019
1881 Clear 0 1023 88 0 1.19 62 08:30 27.12.2019
1882 Clouds 0 1023 95 0 1.63 99 07:48 27.12.2019
1883 Clouds 0 1021 88 0 1.63 99 07:25 27.12.2019
1884 Clouds 0 1022 94 0 1.63 99 06:33 27.12.2019
1885 Clouds 1 1021 94 0 1.69 120 04:48 27.12.2019
1886 Clouds 2 1021 92 0 1.69 120 02:35 27.12.2019
1887 Clouds 2 1020 96 0 1.24 134 01:56 27.12.2019
1888 Clouds 3 1020 89 0 1.24 134 01:23 27.12.2019
1889 Clouds 3 1020 90 0 1.25 142 00:52 27.12.2019
1890 Clouds 3 1020 90 0 1.25 142 00:34 27.12.2019
1891 Clouds 3 1020 90 0 1.25 142 00:34 27.12.2019
1892 Clouds 3 1021 96 0 1.25 142 23:59 26.12.2019
1893 Clouds 3 1021 92 0 1.25 142 23:40 26.12.2019
1894 Clouds 3 1020 99 0 1.19 176 23:21 26.12.2019
1895 Clouds 3 1020 10 0 1.19 176 22:43 26.12.2019
1896 Clouds 3 1021 92 0 1.19 176 22:21 26.12.2019
1897 Clouds 3 1021 93 0 1.19 176 21:56 26.12.2019
1898 Clouds 3 1021 92 0 1.19 176 21:37 26.12.2019
1899 Clouds 3 1021 92 0 1.19 176 21:19 26.12.2019
1900 Clouds 3 1021 92 0 1.19 176 20:45 26.12.2019
1901 Clouds 3 1021 92 0 1.36 215 20:22 26.12.2019
1902 Clouds 3 1021 99 0 1.36 215 19:58 26.12.2019
1903 Clouds 3 1022 95 0 1.36 215 19:39 26.12.2019
1904 Clouds 4 1021 92 0 1.36 215 19:20 26.12.2019
1905 Clouds 4 1021 92 0 1.36 215 18:57 26.12.2019
1906 Clouds 4 1022 95 0 1.36 215 18:38 26.12.2019
1907 Clouds 4 1021 92 0 1.36 215 18:19 26.12.2019
1908 Clouds 4 1021 92 0 1.36 215 17:43 26.12.2019
1909 Clouds 4 1020 98 0 1.78 261 17:22 26.12.2019
1910 Clouds 4 1021 91 0 1.78 261 16:58 26.12.2019
1911 Clouds 5 1021 91 0 1.78 261 16:40 26.12.2019
1912 Clouds 5 1022 93 0 1.78 261 16:21 26.12.2019
1913 Clouds 5 1021 90 0 1.78 261 15:41 26.12.2019
1914 Clouds 6 1021 90 0 1.78 261 15:22 26.12.2019
1915 Clouds 6 1021 89 0 1.78 261 14:59 26.12.2019
1916 Clouds 6 1024 91 0 1.78 261 14:39 26.12.2019
1917 Clouds 6 1022 88 0 0.45 270 14:20 26.12.2019
1918 Clouds 6 1022 87 0 0.45 270 13:43 26.12.2019
1919 Clouds 6 1022 89 0 4.25 256 13:21 26.12.2019
1920 Clouds 6 1022 89 0 4.25 256 12:58 26.12.2019
1921 Clouds 5 1022 90 0 4.25 256 12:38 26.12.2019
1922 Clouds 5 1022 90 0 0.45 270 12:19 26.12.2019
1923 Clouds 6 1022 91 0 4.25 256 11:57 26.12.2019
1924 Clouds 5 1024 96 0 4.25 256 11:38 26.12.2019
1925 Clouds 5 1024 97 0 3.81 253 11:19 26.12.2019
1926 Clouds 5 1023 93 0 3.81 253 10:42 26.12.2019
1927 Clouds 4 1023 94 0 3.81 253 10:19 26.12.2019
1928 Clouds 4 1023 94 0 3.81 253 09:50 26.12.2019
1929 Clouds 4 1023 94 0 3.81 253 09:31 26.12.2019
1930 Clouds 3 1022 94 0 3.81 253 08:43 26.12.2019
1931 Clouds 3 1021 10 0 3.81 253 08:25 26.12.2019
1932 Clouds 3 1022 95 0 2.66 267 07:53 26.12.2019
1933 Clouds 3 1021 10 0 2.66 267 07:28 26.12.2019
1934 Clouds 4 1021 10 0 2.66 267 06:54 26.12.2019
1935 Clouds 3 1023 97 0 2.66 267 06:32 26.12.2019
1936 Clouds 3 1022 95 0 2.66 267 05:45 26.12.2019
1937 Clouds 3 1022 96 0 3.5 274 04:59 26.12.2019
1938 Clouds 4 1021 99 0 3.5 274 04:30 26.12.2019
1939 Clouds 4 1022 95 0 3.5 274 03:18 26.12.2019
1940 Clouds 4 1022 95 0 3.5 274 02:38 26.12.2019
1941 Rain 4 1022 95 0 3.36 272 02:19 26.12.2019
1942 Rain 4 1020 99 0 0.45 23 01:41 26.12.2019
1943 Clouds 5 1022 95 0 3.8 275 01:22 26.12.2019
1944 Clouds 5 1022 97 0 3.8 275 00:41 26.12.2019
1945 Clouds 5 1021 95 0 3.8 275 00:22 26.12.2019
1946 Clouds 5 1021 95 0 3.8 275 23:42 25.12.2019
1947 Rain 5 1021 96 0 4.06 285 23:21 25.12.2019
1948 Rain 5 1021 95 0 4.06 285 22:59 25.12.2019
1949 Rain 5 1021 95 0 4.06 285 22:40 25.12.2019
1950 Rain 5 1025 99 0 4.06 285 22:22 25.12.2019
1951 Rain 5 1021 95 0 4.06 285 21:59 25.12.2019
1952 Rain 5 1021 95 0 4.06 285 21:40 25.12.2019
1953 Rain 5 1020 95 0 4.06 285 21:21 25.12.2019
1954 Rain 5 1020 95 0 4.06 285 21:21 25.12.2019
1955 Rain 5 1020 95 0 4.06 285 20:57 25.12.2019
1956 Rain 5 1020 94 0 4.06 285 20:39 25.12.2019
1957 Rain 5 1020 94 0 4.26 286 20:18 25.12.2019
1958 Rain 5 1020 94 0 4.51 285 20:18 25.12.2019
1959 Rain 5 1020 93 0 4.26 286 19:43 25.12.2019
1960 Rain 5 1020 93 0 4.26 286 19:43 25.12.2019
1961 Rain 6 1020 93 0 4.26 286 19:25 25.12.2019
1962 Rain 6 1019 92 0 4.26 286 18:59 25.12.2019
1963 Rain 6 1019 91 0 4.26 286 18:38 25.12.2019
1964 Rain 6 1019 91 0 4.26 286 18:38 25.12.2019
1965 Rain 6 1019 92 0 4.26 286 18:19 25.12.2019
1966 Rain 6 1019 96 0 1.34 286 17:42 25.12.2019
1967 Rain 6 1018 94 0 3.29 292 17:20 25.12.2019
1968 Rain 6 1018 94 0 3.29 292 16:59 25.12.2019
1969 Rain 6 1018 96 0 3.29 292 16:39 25.12.2019
1970 Rain 6 1018 94 0 3.29 292 16:19 25.12.2019
1971 Rain 6 1018 96 0 3.29 292 15:57 25.12.2019
1972 Rain 6 1017 94 0 3.29 292 15:39 25.12.2019
1973 Rain 6 1017 94 0 3.29 292 15:20 25.12.2019
1974 Rain 6 1016 93 0 3.29 292 14:58 25.12.2019
1975 Rain 6 1016 93 0 3.29 292 14:39 25.12.2019
1976 Rain 6 1016 93 0 3.29 292 14:39 25.12.2019
1977 Rain 6 1016 93 0 2.42 325 14:21 25.12.2019
1978 Rain 6 1015 92 0 2.42 325 13:55 25.12.2019
1979 Rain 6 1015 92 0 2.42 325 13:36 25.12.2019
1980 Rain 6 1015 92 0 2.42 325 13:18 25.12.2019
1981 Rain 6 1015 95 0 2.68 311 12:39 25.12.2019
1982 Rain 6 1014 93 0 3.46 317 12:20 25.12.2019
1983 Rain 6 1012 10 0 0.45 360 11:55 25.12.2019
1984 Rain 6 1014 96 0 2.68 295 11:37 25.12.2019
1985 Rain 6 1013 97 0 2.24 271 11:18 25.12.2019
1986 Rain 5 1012 95 0 3.48 341 10:38 25.12.2019
1987 Rain 5 1012 95 0 3.48 341 10:19 25.12.2019
1988 Rain 5 1012 95 0 3.48 341 10:19 25.12.2019
1989 Rain 5 1012 97 0 2.68 259 09:50 25.12.2019
1990 Rain 5 1011 94 0 3.48 341 09:32 25.12.2019
1991 Rain 6 1010 94 0 3.48 341 08:51 25.12.2019
1992 Rain 6 1010 94 0 3.48 341 08:30 25.12.2019
1993 Rain 6 1009 93 0 3.49 311 07:50 25.12.2019
1994 Rain 6 1007 10 0 0.45 302 07:32 25.12.2019
1995 Rain 7 1009 92 0 3.49 311 06:51 25.12.2019
1996 Rain 7 1013 99 0 3.49 311 06:22 25.12.2019
1997 Rain 7 1009 97 0 5.42 274 05:18 25.12.2019
1998 Rain 7 1008 91 0 0.45 270 04:39 25.12.2019
1999 Rain 7 1008 94 0 0.45 270 04:20 25.12.2019
2000 Rain 7 1008 94 0 5.42 274 03:41 25.12.2019
2001 Rain 7 1007 94 0 5.42 274 02:53 25.12.2019
2002 Rain 7 1007 94 0 0.45 225 02:20 25.12.2019
2003 Rain 7 1007 94 0 8.16 267 01:25 25.12.2019
2004 Rain 7 1006 94 0 8.16 267 00:54 25.12.2019
2005 Rain 7 1006 94 0 8.16 267 00:54 25.12.2019
2006 Rain 7 1006 95 0 0.45 225 00:32 25.12.2019
2007 Rain 7 1006 95 0 8.16 267 23:57 24.12.2019
2008 Rain 7 1007 97 0 2.68 246 23:38 24.12.2019
2009 Rain 7 1006 94 0 0.45 270 23:20 24.12.2019
2010 Rain 7 1005 93 0 0.89 270 22:41 24.12.2019
2011 Rain 7 1005 93 0 0.89 270 22:41 24.12.2019
2012 Rain 7 1005 91 0 0.45 270 22:21 24.12.2019
2013 Rain 7 1005 88 0 0.89 270 21:44 24.12.2019
2014 Rain 7 1005 88 0 0.89 270 21:44 24.12.2019
2015 Rain 7 1005 88 0 1.34 292 21:23 24.12.2019
2016 Rain 7 1004 88 0 1.34 270 20:59 24.12.2019
2017 Rain 7 1004 89 0 1.79 270 20:41 24.12.2019
2018 Rain 7 1006 97 0 8.01 266 20:19 24.12.2019
2019 Rain 7 1006 97 0 8.01 266 20:19 24.12.2019
2020 Rain 7 1004 90 0 0.89 270 19:45 24.12.2019
2021 Rain 7 1004 90 0 1.79 270 19:21 24.12.2019
2022 Rain 7 1003 10 0 0.89 336 18:58 24.12.2019
2023 Rain 7 1002 10 0 0.89 270 18:40 24.12.2019
2024 Rain 7 1003 94 0 1.34 270 18:18 24.12.2019
2025 Rain 6 1002 10 0 0.45 211 17:42 24.12.2019
2026 Rain 6 1005 96 0 3.17 199 17:21 24.12.2019
2027 Rain 6 1005 96 0 3.17 199 16:57 24.12.2019
2028 Rain 6 1003 94 0 0.89 270 16:38 24.12.2019
2029 Rain 5 1003 94 0 0.89 292 16:20 24.12.2019
2030 Rain 6 1002 94 0 0.89 270 15:56 24.12.2019
2031 Rain 5 1002 93 0 0.89 270 15:36 24.12.2019
2032 Rain 6 1003 93 0 1.34 292 15:18 24.12.2019
2033 Rain 6 1006 92 0 3.17 199 14:57 24.12.2019
2034 Rain 6 1006 70 10000 3.6 180 14:39 24.12.2019
2035 Rain 6 1006 70 10000 3.6 180 14:21 24.12.2019
2036 Rain 6 1006 70 10000 3.6 180 13:55 24.12.2019
2037 Rain 6 1006 70 10000 3.6 180 13:37 24.12.2019
2038 Clouds 6 1005 90 0 1.34 270 13:19 24.12.2019
2039 Clouds 6 1005 94 0 3.3 190 12:55 24.12.2019
2040 Clouds 7 1005 86 0 0.45 225 12:36 24.12.2019
2041 Clouds 7 1006 86 0 1.34 270 12:18 24.12.2019
2042 Clouds 7 1006 87 0 0.45 270 11:55 24.12.2019
2043 Clouds 7 1007 88 0 0.45 292 11:37 24.12.2019
2044 Clouds 6 1007 87 0 1.34 270 11:19 24.12.2019
2045 Clouds 6 1008 88 0 0.45 292 10:56 24.12.2019
2046 Clouds 6 1008 88 0 0.89 270 10:37 24.12.2019
2047 Clouds 6 1008 88 0 0.89 270 10:37 24.12.2019
2048 Clouds 6 1008 88 0 0.89 225 10:19 24.12.2019
2049 Clouds 6 1009 88 0 0.89 270 09:55 24.12.2019
2050 Clouds 5 1009 89 0 0.89 270 09:37 24.12.2019
2051 Clouds 5 1009 90 0 1.34 270 09:18 24.12.2019
2052 Clouds 5 1010 90 0 0.89 292 08:45 24.12.2019
2053 Clouds 5 1010 89 0 0.45 225 08:21 24.12.2019
2054 Clouds 5 1010 88 0 1.34 270 07:46 24.12.2019
2055 Clouds 5 1010 88 0 1.34 270 07:46 24.12.2019
2056 Clouds 5 1010 88 0 1.34 270 07:26 24.12.2019
2057 Clouds 5 1011 88 0 0.89 270 06:58 24.12.2019
2058 Clouds 5 1011 88 0 0.89 270 06:38 24.12.2019
2059 Clouds 5 1011 88 0 0.89 270 06:38 24.12.2019
2060 Clouds 6 1011 88 0 0.89 292 06:19 24.12.2019
2061 Clouds 6 1011 98 0 4.76 226 05:40 24.12.2019
2062 Clouds 6 1012 89 0 0.45 270 05:18 24.12.2019
2063 Clouds 6 1013 100 0 5.92 243 03:50 24.12.2019
2064 Clouds 6 1012 91 0 0.45 292 03:25 24.12.2019
2065 Clouds 6 1012 90 0 0.45 270 02:25 24.12.2019
2066 Rain 6 1011 91 0 0.89 270 01:52 24.12.2019
2067 Rain 6 1011 91 0 6 252 01:23 24.12.2019
2068 Rain 6 1011 90 0 0.45 270 00:47 24.12.2019
2069 Rain 6 1011 90 0 0.89 270 00:26 24.12.2019
2070 Rain 6 1009 99 0 6.41 250 23:59 23.12.2019
2071 Rain 6 1010 88 0 0.89 270 23:41 23.12.2019
2072 Rain 6 1010 88 0 0.89 270 23:23 23.12.2019
2073 Rain 6 1010 88 0 0.89 270 23:23 23.12.2019
2074 Rain 7 1011 96 0 6.32 262 22:56 23.12.2019
2075 Rain 7 1011 96 0 6.32 262 22:37 23.12.2019
2076 Rain 7 1009 91 0 0.45 270 22:19 23.12.2019
2077 Rain 7 1009 91 0 0.45 270 21:55 23.12.2019
2078 Rain 7 1009 91 0 0.45 270 21:55 23.12.2019
2079 Rain 7 1009 91 0 0.89 270 21:36 23.12.2019
2080 Rain 7 1009 92 0 1.34 270 21:18 23.12.2019
2081 Rain 7 1009 92 0 0.89 225 20:57 23.12.2019
2082 Rain 7 1008 93 0 0.45 225 20:39 23.12.2019
2083 Rain 7 1008 93 0 0.45 225 20:39 23.12.2019
2084 Rain 7 1008 93 0 0.45 270 20:18 23.12.2019
2085 Rain 6 1008 91 0 0.45 270 19:56 23.12.2019
2086 Rain 6 1008 90 0 0.45 270 19:38 23.12.2019
2087 Rain 6 1009 95 0 6.13 248 19:19 23.12.2019
2088 Rain 7 1007 91 0 0.45 270 18:58 23.12.2019
2089 Clouds 7 1007 81 10000 6.2 250 18:39 23.12.2019
2090 Clouds 6 1007 81 10000 6.2 250 18:20 23.12.2019
2091 Clouds 6 1007 81 10000 6.2 250 17:57 23.12.2019
2092 Clouds 6 1007 81 10000 6.2 250 17:38 23.12.2019
2093 Clouds 6 1006 81 10000 5.1 250 17:19 23.12.2019
2094 Clouds 6 1006 81 10000 5.1 250 17:19 23.12.2019
2095 Clouds 6 1006 81 10000 5.1 250 17:19 23.12.2019
2096 Clouds 6 1006 81 10000 5.1 250 16:55 23.12.2019
2097 Rain 7 1006 81 10000 5.1 260 16:37 23.12.2019
2098 Rain 7 1006 81 10000 4.1 250 16:18 23.12.2019
2099 Rain 7 1006 81 10000 4.1 250 15:55 23.12.2019
2100 Clouds 7 1005 75 10000 4.1 250 15:36 23.12.2019
2101 Clouds 7 1005 75 10000 4.6 270 15:18 23.12.2019
2102 Clouds 7 1005 75 10000 4.6 270 14:55 23.12.2019
2103 Clouds 8 1004 81 10000 4.6 270 14:36 23.12.2019
2104 Clouds 7 1004 81 10000 6.2 280 14:18 23.12.2019
2105 Clouds 8 1003 81 10000 6.7 270 13:41 23.12.2019
2106 Clouds 8 1003 81 10000 6.7 270 13:23 23.12.2019
2107 Clouds 8 1003 81 10000 6.2 260 12:59 23.12.2019
2108 Clouds 7 1002 81 10000 5.1 260 12:40 23.12.2019
2109 Clouds 7 1002 76 10000 5.1 270 12:21 23.12.2019
2110 Clouds 8 1002 76 10000 5.1 270 11:56 23.12.2019
2111 Clouds 7 1002 75 10000 5.1 260 11:38 23.12.2019
2112 Clouds 7 1001 75 10000 5.1 270 11:20 23.12.2019
2113 Clouds 7 1001 75 10000 5.1 270 11:20 23.12.2019
2114 Clouds 7 1001 75 10000 5.1 270 10:55 23.12.2019
2115 Clouds 7 1001 75 10000 5.1 270 10:55 23.12.2019
2116 Clouds 7 1001 81 10000 5.7 260 10:37 23.12.2019
2117 Clouds 7 1000 81 10000 4.6 260 10:18 23.12.2019
2118 Clouds 7 1000 81 10000 4.6 260 09:54 23.12.2019
2119 Clouds 7 1000 81 10000 4.1 250 09:36 23.12.2019
2120 Clouds 6 1000 75 10000 4.1 250 09:18 23.12.2019
2121 Clouds 6 999 92 0 5.8 258 08:41 23.12.2019
2122 Rain 6 1003 96 0 7.34 265 08:22 23.12.2019
2123 Rain 6 1000 95 0 7.34 265 07:56 23.12.2019
2124 Rain 6 998 91 0 7.34 265 07:37 23.12.2019
2125 Rain 6 998 91 0 7.34 265 07:18 23.12.2019
2126 Rain 6 997 90 0 0.89 225 06:39 23.12.2019
2127 Rain 6 997 90 0 0.89 270 06:21 23.12.2019
2128 Rain 7 996 88 0 0.45 270 05:44 23.12.2019
2129 Rain 7 995 93 0 0.89 270 04:40 23.12.2019
2130 Rain 7 994 94 0 0.45 270 03:58 23.12.2019
2131 Rain 7 993 92 0 0.45 270 02:47 23.12.2019
2132 Rain 7 992 92 0 0.45 270 02:19 23.12.2019
2133 Rain 7 991 92 0 0.89 225 01:50 23.12.2019
2134 Rain 7 992 92 0 4.92 228 01:31 23.12.2019
2135 Rain 7 992 92 0 4.02 255 00:48 23.12.2019
2136 Rain 7 990 87 0 1.34 270 00:27 23.12.2019
2137 Rain 7 991 92 0 4.47 246 23:57 22.12.2019
2138 Rain 7 989 84 0 1.79 270 23:37 22.12.2019
2139 Rain 7 990 94 0 4.02 274 23:19 22.12.2019
2140 Rain 7 988 89 0 3.13 270 22:55 22.12.2019
2141 Rain 7 988 92 0 1.34 270 22:37 22.12.2019
2142 Rain 8 987 94 0 0.89 292 22:18 22.12.2019
2143 Rain 8 987 93 0 2.23 207 21:54 22.12.2019
2144 Rain 8 987 93 0 0.45 270 21:36 22.12.2019
2145 Rain 8 987 92 0 0.45 225 21:18 22.12.2019
2146 Rain 8 986 89 0 0.45 292 20:40 22.12.2019
2147 Clouds 7 986 89 0 1.34 270 20:19 22.12.2019
2148 Clouds 7 987 92 0 0.45 61 19:58 22.12.2019
2149 Clouds 7 986 88 0 0.89 270 19:39 22.12.2019
2150 Clouds 7 986 87 10000 2.6 120 19:20 22.12.2019
2151 Clouds 7 986 87 10000 2.6 120 18:58 22.12.2019
2152 Clouds 7 986 87 10000 2.6 120 18:38 22.12.2019
2153 Clouds 7 986 87 10000 2.6 120 18:19 22.12.2019
2154 Clouds 7 986 87 10000 2.6 120 17:55 22.12.2019
2155 Clouds 8 986 87 10000 2.6 100 17:36 22.12.2019
2156 Clouds 7 986 87 10000 2.6 90 17:18 22.12.2019
2157 Clouds 8 986 87 10000 2.6 90 16:42 22.12.2019
2158 Clouds 8 986 87 10000 2.6 90 16:23 22.12.2019
2159 Clouds 8 986 87 10000 2.6 90 16:23 22.12.2019
2160 Clouds 8 985 81 10000 2.6 90 15:58 22.12.2019
2161 Clouds 8 985 81 10000 2.6 90 15:39 22.12.2019
2162 Clouds 8 985 81 10000 3.1 100 15:21 22.12.2019
2163 Clouds 8 985 81 10000 3.1 100 14:59 22.12.2019
2164 Clouds 8 986 87 10000 3.1 100 14:39 22.12.2019
2165 Clouds 7 986 93 10000 2.1 110 14:19 22.12.2019
2166 Clouds 7 986 93 10000 2.1 110 13:56 22.12.2019
2167 Clouds 7 986 93 10000 2.1 110 13:38 22.12.2019
2168 Clouds 7 986 86 10000 0.5 100 13:19 22.12.2019
2169 Clouds 7 986 86 10000 0.5 100 12:57 22.12.2019
2170 Clouds 7 986 86 10000 1 130 12:39 22.12.2019
2171 Clouds 6 986 86 10000 1.5 90 12:20 22.12.2019
2172 Clouds 6 986 86 10000 1.5 90 11:59 22.12.2019
2173 Clouds 6 986 93 10000 2.6 120 11:39 22.12.2019
2174 Clouds 6 986 93 10000 2.6 120 11:20 22.12.2019
2175 Clouds 5 986 93 10000 2.6 120 10:58 22.12.2019
2176 Rain 5 986 93 10000 2.1 100 10:40 22.12.2019
2177 Rain 5 986 93 10000 2.1 100 10:40 22.12.2019
2178 Rain 5 986 93 10000 1.5 0 10:20 22.12.2019
2179 Rain 5 986 93 10000 1.5 0 09:58 22.12.2019
2180 Rain 5 986 93 10000 2.6 100 09:40 22.12.2019
2181 Rain 5 986 86 10000 2.6 120 09:21 22.12.2019
2182 Rain 5 986 86 10000 2.6 120 08:55 22.12.2019
2183 Clouds 5 984 86 0 0.89 270 08:37 22.12.2019
2184 Clouds 5 984 86 0 0.45 292 08:18 22.12.2019
2185 Clouds 5 983 86 0 0.45 292 07:36 22.12.2019
2186 Clouds 5 983 87 0 0.89 225 07:18 22.12.2019
2187 Clouds 4 983 87 0 1.34 270 06:40 22.12.2019
2188 Clouds 4 985 89 0 0.89 107 05:49 22.12.2019
2189 Clouds 4 983 84 0 0.89 292 05:21 22.12.2019
2190 Clouds 4 983 98 0 0.89 115 04:28 22.12.2019
2191 Clouds 4 983 86 0 2.56 134 03:45 22.12.2019
2192 Clouds 4 984 85 0 0.45 270 02:38 22.12.2019
2193 Clouds 4 984 85 0 0.45 270 02:38 22.12.2019
2194 Clouds 4 985 96 0 2.57 153 01:42 22.12.2019
2195 Clear 4 985 83 0 0.89 270 01:22 22.12.2019
2196 Clear 4 985 83 0 0.89 270 00:45 22.12.2019
2197 Clear 4 985 85 0 0.45 270 00:22 22.12.2019
2198 Clear 4 986 85 0 0.45 247 23:55 21.12.2019
2199 Clear 5 986 85 0 2.38 150 23:37 21.12.2019
2200 Clear 5 986 87 0 0.45 292 23:18 21.12.2019
2201 Clear 4 989 80 10000 2.1 130 22:40 21.12.2019
2202 Clear 4 989 80 10000 2.1 130 22:40 21.12.2019
2203 Clear 4 989 80 10000 2.1 130 22:19 21.12.2019
2204 Clear 4 989 80 10000 2.1 130 21:57 21.12.2019
2205 Clear 4 989 80 10000 2.1 130 21:37 21.12.2019
2206 Clear 5 990 75 10000 3.6 140 21:19 21.12.2019
2207 Clear 5 990 75 10000 3.6 140 20:58 21.12.2019
2208 Clear 5 990 75 10000 3.6 140 20:58 21.12.2019
2209 Clear 5 990 80 10000 3.6 150 20:39 21.12.2019
2210 Clear 5 988 85 0 0.45 270 20:21 21.12.2019
2211 Clear 5 988 85 0 0.89 292 19:58 21.12.2019
2212 Clear 5 988 84 0 0.45 270 19:40 21.12.2019
2213 Clear 5 991 80 10000 2.6 110 19:19 21.12.2019
2214 Clear 5 991 80 10000 2.6 110 18:44 21.12.2019
2215 Clear 5 991 80 10000 2.6 110 18:24 21.12.2019
2216 Clear 6 991 80 10000 2.6 110 17:57 21.12.2019
2217 Clear 6 991 75 10000 2.1 130 17:39 21.12.2019
2218 Clear 6 991 75 10000 2.1 130 17:39 21.12.2019
2219 Clear 6 991 75 10000 2.6 150 17:21 21.12.2019
2220 Clear 6 991 75 10000 2.6 150 16:58 21.12.2019
2221 Clear 6 992 70 10000 2.6 160 16:40 21.12.2019
2222 Clear 7 992 70 10000 2.6 160 16:18 21.12.2019
2223 Clear 7 992 70 10000 2.6 160 16:18 21.12.2019
2224 Clear 7 992 70 10000 2.6 160 15:57 21.12.2019
2225 Clear 7 992 70 10000 2.6 160 15:57 21.12.2019
2226 Clouds 8 992 66 10000 4.1 210 15:38 21.12.2019
2227 Clouds 8 992 66 10000 4.1 210 15:19 21.12.2019
2228 Clouds 8 992 66 10000 4.1 210 14:56 21.12.2019
2229 Clouds 9 992 70 10000 4.6 230 14:37 21.12.2019
2230 Clear 9 992 70 10000 5.7 220 14:18 21.12.2019
2231 Clear 9 992 70 10000 5.7 220 13:55 21.12.2019
2232 Clouds 9 993 70 10000 4.6 210 13:37 21.12.2019
2233 Clouds 9 993 70 10000 5.7 220 13:18 21.12.2019
2234 Clouds 8 993 70 10000 5.7 220 12:54 21.12.2019
2235 Clear 9 993 70 10000 4.6 220 12:36 21.12.2019
2236 Clear 8 993 70 10000 5.1 200 12:18 21.12.2019
2237 Clear 8 993 70 10000 3.6 200 11:41 21.12.2019
2238 Clear 8 993 70 10000 3.6 200 11:23 21.12.2019
2239 Clouds 8 993 70 10000 2.6 210 10:54 21.12.2019
2240 Clouds 7 993 70 10000 2.6 200 10:36 21.12.2019
2241 Clouds 7 993 75 10000 2.6 210 10:18 21.12.2019
2242 Clouds 6 993 75 10000 3.1 200 09:42 21.12.2019
2243 Clouds 6 993 75 10000 2.6 200 09:21 21.12.2019
2244 Clouds 6 993 75 10000 2.6 200 08:57 21.12.2019
2245 Clear 7 992 86 0 0.45 270 08:37 21.12.2019
2246 Clouds 7 992 87 0 0.45 270 08:18 21.12.2019
2247 Clouds 7 991 87 0 0.45 270 07:41 21.12.2019
2248 Clouds 7 991 85 0 0.45 270 07:22 21.12.2019
2249 Clouds 7 992 84 0 1.34 270 06:44 21.12.2019
2250 Clouds 7 990 90 0 0.45 229 06:25 21.12.2019
2251 Clouds 7 992 85 0 1.34 270 05:47 21.12.2019
2252 Clouds 7 993 88 0 4.12 222 04:58 21.12.2019
2253 Clouds 7 991 87 0 1.34 270 03:57 21.12.2019
2254 Clouds 8 995 94 0 4.12 222 02:52 21.12.2019
2255 Rain 8 990 92 0 0.89 270 01:59 21.12.2019
2256 Rain 8 989 90 0 0.45 229 01:28 21.12.2019
2257 Rain 9 990 94 0 0.45 270 00:53 21.12.2019
2258 Rain 9 990 93 0 0.89 270 00:33 21.12.2019
2259 Rain 9 988 93 0 4.49 234 23:59 20.12.2019
2260 Rain 9 989 91 0 0.89 225 23:38 20.12.2019
2261 Rain 10 989 81 10000 5.1 230 23:18 20.12.2019
2262 Rain 10 989 81 10000 5.1 230 22:41 20.12.2019
2263 Rain 10 989 81 10000 5.1 230 22:21 20.12.2019
2264 Rain 10 989 81 10000 5.1 230 21:59 20.12.2019
2265 Clouds 10 989 81 10000 4.6 210 21:40 20.12.2019
2266 Clouds 10 988 76 10000 4.1 200 21:20 20.12.2019
2267 Clouds 10 988 76 10000 4.1 200 21:20 20.12.2019
2268 Clouds 11 988 76 10000 5.1 190 20:41 20.12.2019
2269 Clouds 11 988 66 10000 4.6 180 20:22 20.12.2019
2270 Clouds 11 988 66 10000 4.6 180 19:59 20.12.2019
2271 Rain 11 988 66 10000 3.6 180 19:40 20.12.2019
2272 Rain 11 988 71 10000 3.1 140 19:20 20.12.2019
2273 Rain 10 988 71 10000 3.1 140 18:56 20.12.2019
2274 Clouds 10 988 81 10000 3.1 110 18:38 20.12.2019
2275 Clouds 9 988 81 10000 3.1 120 18:20 20.12.2019
2276 Clouds 9 989 81 10000 2.1 100 17:42 20.12.2019
2277 Clouds 9 989 81 10000 2.1 100 17:22 20.12.2019
2278 Clouds 9 989 81 10000 2.6 120 16:59 20.12.2019
2279 Clouds 9 989 81 10000 2.6 120 16:40 20.12.2019
2280 Clouds 9 989 76 10000 2.1 90 16:20 20.12.2019
2281 Clouds 9 989 81 10000 0.5 0 15:57 20.12.2019
2282 Clouds 9 989 81 10000 0.5 0 15:39 20.12.2019
2283 Clouds 9 990 76 10000 2.41 195 15:20 20.12.2019
2284 Clouds 9 990 70 10000 2.1 180 14:58 20.12.2019
2285 Clouds 9 990 70 10000 2.1 180 14:39 20.12.2019
2286 Clouds 9 990 70 10000 3.6 180 14:21 20.12.2019
2287 Clouds 9 991 71 10000 1.5 110 13:42 20.12.2019
2288 Clouds 9 990 71 10000 2.6 100 13:21 20.12.2019
2289 Clouds 8 992 75 10000 4.6 250 12:59 20.12.2019
2290 Clouds 8 992 75 10000 4.6 250 12:41 20.12.2019
2291 Clouds 8 992 70 10000 1.5 0 12:19 20.12.2019
2292 Clouds 8 992 75 10000 3.1 110 11:59 20.12.2019
2293 Clouds 8 992 75 10000 3.1 110 11:40 20.12.2019
2294 Clouds 7 993 81 10000 2.6 110 11:21 20.12.2019
2295 Clouds 6 994 93 10000 1.5 100 10:59 20.12.2019
2296 Clouds 6 994 93 10000 1.5 100 10:41 20.12.2019
2297 Clouds 5 994 93 10000 0.5 0 10:20 20.12.2019
2298 Clouds 4 995 93 10000 1 0 09:56 20.12.2019
2299 Clouds 4 995 63 10000 2.6 90 09:38 20.12.2019
2300 Clouds 3 995 63 10000 2.6 90 09:19 20.12.2019
2301 Clouds 3 996 93 10000 2.1 110 08:43 20.12.2019
2302 Clouds 3 996 100 10000 3.1 110 08:24 20.12.2019
2303 Clouds 2 996 56 10000 3.1 90 07:58 20.12.2019
2304 Clouds 2 996 56 10000 3.1 90 07:40 20.12.2019
2305 Clear 2 997 56 6000 3.1 100 07:19 20.12.2019
2306 Clouds 3 998 56 10000 3.44 161 06:52 20.12.2019
2307 Clouds 3 998 93 10000 1.5 0 06:32 20.12.2019
2308 Clouds 3 998 56 10000 3.44 161 05:53 20.12.2019
2309 Clouds 3 996 87 0 3.44 161 05:35 20.12.2019
2310 Clouds 3 997 87 0 2.28 163 04:33 20.12.2019
2311 Clouds 3 999 85 0 0.89 270 03:30 20.12.2019
2312 Clouds 3 1000 87 0 2.28 163 02:43 20.12.2019
2313 Clouds 4 1002 85 0 0.89 270 01:52 20.12.2019
2314 Clouds 4 1002 86 0 0.89 270 01:33 20.12.2019
2315 Clear 3 1003 86 0 0.45 270 00:44 20.12.2019
2316 Clear 3 1002 89 0 0.45 270 00:25 20.12.2019
2317 Clear 4 1003 87 0 1.79 270 23:44 19.12.2019
2318 Clear 4 1003 84 0 1.79 270 23:26 19.12.2019
2319 Clouds 4 1006 93 10000 1 90 22:59 19.12.2019
2320 Clouds 5 1006 93 10000 1 90 22:37 19.12.2019
2321 Clouds 5 1006 93 10000 1 90 22:19 19.12.2019
2322 Clouds 5 1006 93 10000 1.5 100 21:55 19.12.2019
2323 Clouds 5 1007 86 10000 0.5 0 21:37 19.12.2019
2324 Clouds 5 1007 86 10000 0.5 0 21:18 19.12.2019
2325 Clouds 5 1008 86 10000 1 0 20:55 19.12.2019
2326 Clouds 6 1008 93 10000 4.1 100 20:36 19.12.2019
2327 Clouds 6 1008 93 10000 4.1 100 20:18 19.12.2019
2328 Clouds 6 1009 87 10000 2.6 100 19:56 19.12.2019
2329 Clouds 7 1009 87 10000 2.1 90 19:37 19.12.2019
2330 Clouds 7 1009 87 10000 2.1 90 19:19 19.12.2019
2331 Clouds 7 1010 87 10000 0.5 0 18:41 19.12.2019
2332 Clouds 7 1010 87 10000 1.39 168 18:22 19.12.2019
2333 Clouds 7 1010 87 10000 1.5 0 17:58 19.12.2019
2334 Clouds 7 1010 87 10000 1.5 0 17:39 19.12.2019
2335 Clouds 8 1010 87 10000 3.1 100 17:19 19.12.2019
2336 Clouds 8 1010 81 10000 2.6 140 16:58 19.12.2019
2337 Clouds 8 1010 81 10000 2.6 140 16:40 19.12.2019
2338 Clouds 8 1010 81 10000 1.5 110 16:22 19.12.2019
2339 Clouds 8 1010 76 10000 2.6 90 15:59 19.12.2019
2340 Clouds 8 1010 76 10000 2.6 90 15:59 19.12.2019
2341 Clouds 9 1010 76 10000 2.6 90 15:40 19.12.2019
2342 Clouds 9 1011 71 10000 2.1 90 15:20 19.12.2019
2343 Clouds 9 1011 76 10000 2.6 100 14:59 19.12.2019
2344 Clouds 9 1011 76 10000 2.6 100 14:41 19.12.2019
2345 Clouds 9 1011 76 10000 2.6 100 14:41 19.12.2019
2346 Clear 10 1012 76 10000 2.6 110 14:19 19.12.2019
2347 Clear 9 1012 81 10000 3.6 110 13:57 19.12.2019
2348 Clear 10 1013 81 10000 2.6 110 13:38 19.12.2019
2349 Clear 9 1013 81 10000 2.6 110 13:19 19.12.2019
2350 Clear 9 1014 81 10000 3.1 110 12:55 19.12.2019
2351 Clear 8 1014 81 10000 2.6 110 12:37 19.12.2019
2352 Clear 9 1014 81 10000 2.6 110 12:18 19.12.2019
2353 Clear 8 1014 93 10000 2.6 120 11:57 19.12.2019
2354 Clear 8 1014 93 10000 2.6 120 11:39 19.12.2019
2355 Clear 7 1015 93 10000 2.6 110 11:18 19.12.2019
2356 Clear 7 1015 93 10000 2.6 110 11:18 19.12.2019
2357 Clear 7 1015 93 10000 2.6 110 10:55 19.12.2019
2358 Clear 6 1015 93 10000 2.1 110 10:36 19.12.2019
2359 Clear 6 1015 93 10000 2.1 110 10:18 19.12.2019
2360 Clear 5 1015 100 10000 2.6 120 09:39 19.12.2019
2361 Clear 5 1015 100 10000 2.6 120 09:39 19.12.2019
2362 Clear 4 1015 100 10000 2.6 120 09:20 19.12.2019
2363 Clear 4 1015 100 10000 2.6 120 09:20 19.12.2019
2364 Clear 4 1015 100 10000 2.6 120 09:20 19.12.2019
2365 Clear 4 1015 93 10000 3.1 110 08:58 19.12.2019
2366 Clear 5 1015 93 10000 3.1 110 08:40 19.12.2019
2367 Clear 4 1016 93 9000 2.1 100 08:19 19.12.2019
2368 Clear 4 1016 93 10000 2.6 110 07:57 19.12.2019
2369 Clear 4 1016 93 10000 2.1 110 07:38 19.12.2019
2370 Clear 4 1016 93 10000 2.1 110 07:19 19.12.2019
2371 Clear 4 1016 93 0 1.79 38 06:49 19.12.2019
2372 Clear 4 1014 87 0 1.34 292 06:29 19.12.2019
2373 Clear 4 1014 87 0 0.89 225 05:55 19.12.2019
2374 Clear 4 1014 88 0 0.89 270 05:33 19.12.2019
2375 Clear 4 1014 88 0 1.34 270 04:51 19.12.2019
2376 Clear 4 1015 89 0 0.89 270 02:54 19.12.2019
2377 Clouds 3 1019 83 10000 2.1 90 01:51 19.12.2019
2378 Clouds 3 1019 83 10000 2.1 90 01:22 19.12.2019
2379 Clouds 3 1019 86 10000 2.1 90 00:41 19.12.2019
2380 Clouds 3 1019 86 10000 2.6 90 00:22 19.12.2019
2381 Clouds 3 1019 86 10000 2.1 100 23:57 18.12.2019
2382 Clouds 3 1019 86 10000 1.5 100 23:38 18.12.2019
2383 Clouds 3 1019 87 10000 1.5 100 23:18 18.12.2019
2384 Clouds 3 1019 87 10000 1.5 100 22:55 18.12.2019
2385 Clouds 3 1019 100 8000 1.5 110 22:36 18.12.2019
2386 Clouds 3 1019 100 8000 1.5 110 22:18 18.12.2019
2387 Clouds 3 1019 93 10000 2.1 110 21:56 18.12.2019
2388 Clouds 3 1019 93 10000 2.1 110 21:56 18.12.2019
2389 Clouds 3 1019 87 9000 2.1 120 21:37 18.12.2019
2390 Clouds 2 1019 87 9000 2.1 120 21:19 18.12.2019
2391 Clouds 3 1019 93 10000 2.1 110 20:55 18.12.2019
2392 Clouds 3 1019 93 10000 2.1 120 20:37 18.12.2019
2393 Clear 4 1019 93 10000 2.1 120 20:18 18.12.2019
2394 Clear 4 1019 93 10000 2.1 90 19:55 18.12.2019
2395 Clear 3 1019 93 10000 1.5 110 19:37 18.12.2019
2396 Clear 3 1019 93 10000 1.5 110 19:18 18.12.2019
2397 Clear 4 1019 93 10000 1.5 90 18:44 18.12.2019
2398 Clear 4 1019 86 10000 1.5 90 18:25 18.12.2019
2399 Clear 4 1019 87 10000 2.08 159 17:57 18.12.2019
2400 Clear 5 1019 81 10000 2.08 159 17:39 18.12.2019
2401 Clear 6 1019 81 10000 2.1 225 17:19 18.12.2019
2402 Clouds 6 1018 81 10000 2.1 225 16:55 18.12.2019
2403 Clouds 6 1018 81 10000 2.1 225 16:37 18.12.2019
2404 Clouds 7 1018 75 10000 2.1 225 16:18 18.12.2019
2405 Clouds 7 1018 75 10000 2.1 225 15:55 18.12.2019
2406 Clouds 8 1018 75 10000 2.1 260 15:37 18.12.2019
2407 Clouds 9 1018 76 10000 3.1 260 15:18 18.12.2019
2408 Clouds 9 1017 70 10000 3.6 240 14:40 18.12.2019
2409 Clouds 9 1017 70 10000 4.1 240 14:21 18.12.2019
2410 Clouds 9 1017 70 10000 4.1 240 13:57 18.12.2019
2411 Clouds 9 1017 70 10000 4.1 240 13:57 18.12.2019
2412 Clouds 9 1017 70 10000 4.1 240 13:57 18.12.2019
2413 Clouds 9 1017 70 10000 3.6 230 13:37 18.12.2019
2414 Clouds 9 1017 70 10000 3.6 230 13:19 18.12.2019
2415 Clouds 9 1017 70 10000 3.6 230 12:57 18.12.2019
2416 Clouds 9 1017 70 10000 2.6 220 12:38 18.12.2019
2417 Clouds 9 1017 75 10000 2.6 210 12:19 18.12.2019
2418 Clouds 8 1017 75 10000 2.6 210 11:55 18.12.2019
2419 Clouds 8 1017 75 10000 2.6 210 11:55 18.12.2019
2420 Clouds 8 1017 75 10000 2.6 230 11:37 18.12.2019
2421 Clouds 8 1016 81 10000 2.6 250 11:19 18.12.2019
2422 Clouds 8 1016 81 10000 2.6 250 10:55 18.12.2019
2423 Clouds 8 1016 81 10000 2.1 250 10:37 18.12.2019
2424 Clouds 7 1015 87 10000 1.5 250 10:19 18.12.2019
2425 Clouds 7 1015 87 10000 1.5 230 09:50 18.12.2019
2426 Clouds 7 1014 87 10000 2.6 250 09:18 18.12.2019
2427 Clouds 7 1014 87 10000 1.5 0 08:41 18.12.2019
2428 Clouds 7 1013 81 10000 3.6 290 08:22 18.12.2019
2429 Clouds 7 1012 81 10000 4.1 300 07:43 18.12.2019
2430 Clouds 8 1012 81 10000 4.6 290 07:23 18.12.2019
2431 Clouds 8 1012 81 10000 4.6 290 06:56 18.12.2019
2432 Clouds 8 1012 81 10000 5.7 290 06:27 18.12.2019
2433 Clouds 9 1008 94 0 4.17 266 05:54 18.12.2019
2434 Rain 9 1010 90 0 2.24 236 04:57 18.12.2019
2435 Rain 12 1006 79 0 1.79 225 02:55 18.12.2019
2436 Rain 12 1006 78 0 0.89 225 02:36 18.12.2019
2437 Clouds 12 1005 77 0 1.79 292 02:18 18.12.2019
2438 Clouds 12 1004 77 0 1.79 270 01:40 18.12.2019
2439 Clouds 12 1005 73 0 2.68 270 01:21 18.12.2019
2440 Clouds 12 1004 75 0 7.05 238 00:41 18.12.2019
2441 Clouds 12 1008 90 0 7.05 238 00:23 18.12.2019
2442 Clouds 12 1004 72 0 1.34 270 23:57 17.12.2019
2443 Clouds 12 1003 69 0 2.24 270 23:38 17.12.2019
2444 Clouds 12 1004 58 10000 3.1 160 23:19 17.12.2019
2445 Clouds 12 1004 58 10000 3.1 160 22:56 17.12.2019
2446 Clouds 12 1004 58 10000 3.1 160 22:38 17.12.2019
2447 Clouds 12 1004 58 10000 3.1 160 22:18 17.12.2019
2448 Clouds 12 1004 58 10000 3.1 160 21:55 17.12.2019
2449 Clouds 12 1004 62 10000 3.1 160 21:37 17.12.2019
2450 Clouds 12 1004 62 10000 3.1 160 21:37 17.12.2019
2451 Clouds 12 1004 62 10000 3.6 160 21:19 17.12.2019
2452 Clouds 12 1004 62 10000 3.6 160 20:56 17.12.2019
2453 Clouds 12 1004 58 10000 3.6 160 20:38 17.12.2019
2454 Clouds 12 1005 58 10000 2.6 160 20:18 17.12.2019
2455 Clouds 12 1005 58 10000 2.6 160 19:55 17.12.2019
2456 Clouds 12 1005 62 10000 3.1 170 19:37 17.12.2019
2457 Clouds 12 1004 58 10000 2.6 150 19:18 17.12.2019
2458 Clouds 11 1005 58 10000 2.1 170 18:42 17.12.2019
2459 Clouds 11 1005 58 10000 2.1 170 18:42 17.12.2019
2460 Clouds 11 1005 58 10000 2.1 170 18:22 17.12.2019
2461 Clouds 11 1003 77 0 3.82 181 17:59 17.12.2019
2462 Clouds 11 1003 70 0 3.82 181 17:41 17.12.2019
2463 Clouds 11 1003 70 0 3.82 181 17:41 17.12.2019
2464 Clouds 12 1004 54 10000 3.6 180 17:19 17.12.2019
2465 Clouds 12 1004 54 10000 3.6 180 16:56 17.12.2019
2466 Clouds 12 1004 54 10000 3.6 190 16:38 17.12.2019
2467 Clouds 11 1003 69 0 0.89 270 16:19 17.12.2019
2468 Clouds 12 1004 51 10000 3.1 210 15:58 17.12.2019
2469 Clouds 12 1003 51 10000 3.6 190 15:37 17.12.2019
2470 Clouds 13 1003 51 10000 4.1 200 15:19 17.12.2019
2471 Clouds 13 1003 51 10000 4.1 200 14:55 17.12.2019
2472 Clouds 13 1003 51 10000 4.1 200 14:55 17.12.2019
2473 Clouds 13 1003 51 10000 5.7 210 14:37 17.12.2019
2474 Clouds 14 1003 48 10000 6.2 220 14:18 17.12.2019
2475 Clouds 14 1003 48 10000 6.2 220 14:18 17.12.2019
2476 Clouds 13 1003 48 10000 6.2 220 13:55 17.12.2019
2477 Clouds 14 1003 51 10000 3.6 230 13:37 17.12.2019
2478 Clouds 14 1003 51 10000 3.6 230 13:18 17.12.2019
2479 Clouds 13 1003 51 10000 3.6 230 12:55 17.12.2019
2480 Clouds 13 1003 54 10000 3.6 230 12:37 17.12.2019
2481 Clouds 13 1003 58 10000 4.6 220 12:18 17.12.2019
2482 Clouds 12 1003 58 10000 4.6 220 11:54 17.12.2019
2483 Clouds 12 1003 58 10000 4.6 220 11:36 17.12.2019
2484 Clouds 12 1004 58 10000 4.6 210 11:18 17.12.2019
2485 Clouds 12 1003 58 10000 5.1 200 10:54 17.12.2019
2486 Clouds 11 1003 58 10000 5.1 200 10:36 17.12.2019
2487 Clouds 10 1003 71 10000 3.1 250 10:18 17.12.2019
2488 Clouds 10 1003 66 10000 2.1 290 09:42 17.12.2019
2489 Clouds 10 1002 75 10000 1 0 09:21 17.12.2019
2490 Clouds 10 1002 75 10000 1 0 09:21 17.12.2019
2491 Clouds 9 1002 75 10000 1 0 08:58 17.12.2019
2492 Clouds 9 1002 76 10000 5.31 218 08:39 17.12.2019
2493 Clouds 8 1002 81 10000 1.5 100 08:21 17.12.2019
2494 Clouds 8 1002 81 10000 1.5 100 07:56 17.12.2019
2495 Clouds 7 1002 93 10000 2.1 80 07:38 17.12.2019
2496 Clouds 7 1002 93 10000 2.6 110 07:18 17.12.2019
2497 Clouds 8 1001 98 0 5.8 222 06:35 17.12.2019
2498 Clouds 8 1003 81 0 5.8 222 05:57 17.12.2019
2499 Clouds 8 1001 74 0 1.34 292 05:38 17.12.2019
2500 Clouds 7 1002 96 0 4.87 201 04:46 17.12.2019
2501 Clouds 7 1004 90 0 4.87 201 02:47 17.12.2019
2502 Clouds 6 1002 99 0 3.07 178 01:56 17.12.2019
2503 Clouds 6 1002 99 0 3.07 178 01:56 17.12.2019
2504 Clouds 6 1004 100 10000 2.1 90 01:20 17.12.2019
2505 Clouds 6 1004 100 10000 2.1 90 00:38 17.12.2019
2506 Clouds 6 1004 100 10000 2.1 90 00:20 17.12.2019
2507 Clouds 6 1005 93 5000 1.5 100 23:42 16.12.2019
2508 Clouds 6 1005 93 5000 1.5 100 23:42 16.12.2019
2509 Clouds 6 1005 93 10000 2.6 100 23:19 16.12.2019
2510 Clouds 6 1005 93 10000 2.6 100 22:58 16.12.2019
2511 Clouds 6 1005 93 10000 2.6 110 22:38 16.12.2019
2512 Clouds 6 1005 93 10000 2.1 110 22:20 16.12.2019
2513 Clouds 6 1005 93 10000 2.1 110 22:20 16.12.2019
2514 Clouds 6 1005 93 10000 2.1 110 21:56 16.12.2019
2515 Clouds 7 1006 93 10000 2.1 120 21:38 16.12.2019
2516 Clouds 7 1006 93 10000 1 110 21:20 16.12.2019
2517 Clouds 7 1006 93 10000 1 110 20:58 16.12.2019
2518 Clouds 7 1006 87 10000 1.5 140 20:38 16.12.2019
2519 Clouds 7 1006 93 10000 1.5 150 20:19 16.12.2019
2520 Clouds 8 1006 93 10000 1.5 150 19:56 16.12.2019
2521 Clouds 8 1006 87 10000 2.1 160 19:37 16.12.2019
2522 Clouds 8 1006 93 10000 2.1 160 19:19 16.12.2019
2523 Clouds 8 1006 93 10000 2.1 160 18:56 16.12.2019
2524 Clouds 8 1006 93 10000 2.1 160 18:56 16.12.2019
2525 Clouds 8 1006 93 10000 2.1 160 18:38 16.12.2019
2526 Clouds 8 1006 93 10000 1.5 110 18:20 16.12.2019
2527 Clouds 8 1006 93 10000 1.5 110 17:57 16.12.2019
2528 Clouds 8 1006 93 10000 1.5 110 17:57 16.12.2019
2529 Clouds 8 1006 93 10000 2.1 100 17:38 16.12.2019
2530 Clouds 8 1006 87 10000 1.5 120 17:20 16.12.2019
2531 Clouds 8 1006 87 10000 1.5 120 16:57 16.12.2019
2532 Clouds 8 1006 93 10000 1.5 140 16:38 16.12.2019
2533 Clouds 8 1006 87 10000 1.5 120 16:19 16.12.2019
2534 Clouds 8 1006 87 10000 1.5 120 15:58 16.12.2019
2535 Drizzle 8 1006 81 10000 1.97 182 15:38 16.12.2019
2536 Clouds 8 1006 76 10000 1 100 15:20 16.12.2019
2537 Clouds 8 1006 76 10000 1 100 14:55 16.12.2019
2538 Clouds 9 1006 76 10000 1.97 182 14:37 16.12.2019
2539 Rain 9 1006 76 10000 1.5 0 14:19 16.12.2019
2540 Rain 9 1006 76 10000 1.5 0 13:56 16.12.2019
2541 Rain 9 1007 76 10000 1.5 150 13:37 16.12.2019
2542 Rain 8 1007 81 10000 2.1 150 13:19 16.12.2019
2543 Rain 8 1007 81 10000 2.1 150 12:57 16.12.2019
2544 Rain 8 1007 75 10000 2.1 180 12:39 16.12.2019
2545 Rain 8 1007 75 10000 3.1 170 12:18 16.12.2019
2546 Rain 8 1007 75 10000 3.1 170 11:57 16.12.2019
2547 Rain 8 1007 81 10000 4.1 160 11:39 16.12.2019
2548 Clouds 8 1008 81 10000 2.6 160 11:19 16.12.2019
2549 Clouds 8 1008 75 10000 1.5 0 10:55 16.12.2019
2550 Clouds 7 1008 75 10000 1.5 0 10:36 16.12.2019
2551 Clouds 7 1008 81 10000 1.5 0 10:18 16.12.2019
2552 Clouds 7 1007 81 10000 2.1 160 09:44 16.12.2019
2553 Clouds 7 1007 81 10000 2.1 160 09:44 16.12.2019
2554 Clouds 7 1007 81 10000 2.1 160 09:26 16.12.2019
2555 Clouds 6 1007 80 10000 2.1 150 08:41 16.12.2019
2556 Clouds 5 1007 80 10000 2.1 160 08:21 16.12.2019
2557 Clouds 5 1007 80 10000 2.1 160 07:57 16.12.2019
2558 Clouds 5 1007 75 10000 2.6 150 07:38 16.12.2019
2559 Clouds 6 1007 75 10000 2.1 140 07:19 16.12.2019
2560 Clouds 5 1008 93 0 2.66 179 06:40 16.12.2019
2561 Clouds 5 1008 94 0 2.66 179 06:22 16.12.2019
2562 Clouds 5 1008 94 0 2.66 179 06:22 16.12.2019
2563 Clouds 4 1006 88 0 0.89 270 05:44 16.12.2019
2564 Clouds 4 1006 95 0 2.66 179 05:26 16.12.2019
2565 Clouds 4 1008 93 0 3.1 200 03:41 16.12.2019
2566 Clouds 4 1006 93 0 4.68 219 01:57 16.12.2019
2567 Clouds 4 1007 82 0 0.89 292 01:39 16.12.2019
2568 Clouds 4 1006 92 0 4.82 215 00:41 16.12.2019
2569 Clouds 4 1011 83 0 4.82 215 00:23 16.12.2019
2570 Clouds 4 1006 93 0 4.82 215 23:58 15.12.2019
2571 Clouds 4 1008 92 0 0.89 30 23:38 15.12.2019
2572 Clouds 5 1008 92 0 0.45 31 23:19 15.12.2019
2573 Clouds 5 1006 78 0 0.89 292 22:55 15.12.2019
2574 Clouds 5 1006 79 0 0.89 270 22:37 15.12.2019
2575 Clouds 5 1006 80 0 0.89 270 22:18 15.12.2019
2576 Clouds 5 1006 80 0 0.45 270 21:55 15.12.2019
2577 Clouds 5 1006 80 0 0.45 292 21:37 15.12.2019
2578 Clouds 5 1005 79 0 0.45 270 21:19 15.12.2019
2579 Clouds 6 1005 79 0 0.45 270 20:55 15.12.2019
2580 Clouds 6 1005 79 0 0.45 270 20:55 15.12.2019
2581 Clouds 6 1004 76 10000 5.1 220 20:37 15.12.2019
2582 Clouds 6 1004 76 10000 5.1 220 20:18 15.12.2019
2583 Clear 6 1004 77 10000 5.1 220 19:56 15.12.2019
2584 Clouds 6 1004 76 10000 5.1 220 19:38 15.12.2019
2585 Clouds 6 1003 76 10000 6.2 230 19:18 15.12.2019
2586 Clear 6 1003 77 10000 6.2 230 18:55 15.12.2019
2587 Clouds 6 1003 76 10000 6.7 230 18:37 15.12.2019
2588 Clear 6 1002 77 10000 6.2 240 18:18 15.12.2019
2589 Clouds 6 1002 76 10000 5.7 230 17:56 15.12.2019
2590 Clouds 6 1002 76 10000 5.7 230 17:36 15.12.2019
2591 Clear 6 1001 72 10000 5.7 230 17:18 15.12.2019
2592 Clear 6 1001 72 10000 5.7 230 17:18 15.12.2019
2593 Clear 6 1001 72 10000 6.2 230 16:54 15.12.2019
2594 Clear 6 1001 72 10000 6.2 230 16:36 15.12.2019
2595 Clear 7 1001 72 10000 7.2 240 16:18 15.12.2019
2596 Clear 7 1001 72 10000 7.2 240 15:54 15.12.2019
2597 Clear 7 1000 72 10000 8.2 240 15:36 15.12.2019
2598 Clear 8 999 72 10000 8.7 250 15:18 15.12.2019
2599 Clear 8 999 72 10000 8.7 250 14:54 15.12.2019
2600 Clear 8 999 57 10000 8.7 250 14:36 15.12.2019
2601 Clouds 8 998 61 10000 8.7 250 14:18 15.12.2019
2602 Clouds 8 998 61 10000 8.7 250 14:18 15.12.2019
2603 Clouds 9 998 61 10000 8.7 250 13:54 15.12.2019
2604 Clouds 9 998 61 10000 8.2 250 13:36 15.12.2019
2605 Clouds 8 997 61 10000 9.8 250 13:18 15.12.2019
2606 Clouds 8 997 61 10000 9.8 250 12:54 15.12.2019
2607 Clouds 8 997 66 10000 8.7 250 12:36 15.12.2019
2608 Clouds 8 997 61 10000 8.7 250 12:18 15.12.2019
2609 Clouds 8 996 66 10000 7.7 240 11:38 15.12.2019
2610 Clouds 8 996 66 10000 7.7 240 11:38 15.12.2019
2611 Clouds 8 996 66 10000 7.7 240 11:38 15.12.2019
2612 Rain 8 996 70 10000 7.7 240 11:19 15.12.2019
2613 Clouds 7 994 75 10000 7.7 230 10:56 15.12.2019
2614 Clouds 7 994 75 10000 7.7 230 10:38 15.12.2019
2615 Clouds 7 994 75 10000 7.7 230 10:38 15.12.2019
2616 Rain 7 994 81 10000 9.8 240 10:19 15.12.2019
2617 Rain 7 994 81 10000 9.8 240 09:57 15.12.2019
2618 Rain 8 993 81 7000 6.7 220 09:37 15.12.2019
2619 Clouds 8 993 81 10000 4.1 180 09:19 15.12.2019
2620 Clouds 8 993 81 10000 4.1 180 08:54 15.12.2019
2621 Rain 7 992 91 0 1.34 270 08:36 15.12.2019
2622 Clouds 7 992 91 0 1.34 292 08:18 15.12.2019
2623 Clouds 7 994 93 0 4.38 189 07:43 15.12.2019
2624 Clouds 7 992 90 0 1.34 270 07:25 15.12.2019
2625 Clouds 6 993 89 0 1.34 292 06:26 15.12.2019
2626 Clouds 5 998 95 0 4.38 189 05:42 15.12.2019
2627 Clouds 5 994 87 0 0.89 270 05:21 15.12.2019
2628 Clouds 4 995 85 0 0.89 270 04:20 15.12.2019
2629 Clouds 4 997 91 0 3.39 190 02:55 15.12.2019
2630 Clouds 4 997 90 0 3.39 190 02:32 15.12.2019
2631 Clouds 3 998 89 0 0.45 288 01:41 15.12.2019
2632 Clouds 4 1000 88 0 6.45 230 01:19 15.12.2019
2633 Clouds 4 1000 87 0 6.45 230 00:49 15.12.2019
2634 Clouds 4 998 89 0 1.34 266 00:31 15.12.2019
2635 Clouds 4 998 82 0 1.79 270 23:54 14.12.2019
2636 Clouds 4 1000 84 0 1.79 259 23:36 14.12.2019
2637 Rain 4 998 86 0 0.89 270 23:18 14.12.2019
2638 Rain 4 996 93 0 0.89 276 22:41 14.12.2019
2639 Rain 4 1002 86 0 11.51 270 22:22 14.12.2019
2640 Rain 4 997 94 0 2.68 259 21:58 14.12.2019
2641 Rain 4 994 88 0 1.79 320 21:40 14.12.2019
2642 Rain 4 995 90 0 2.24 270 21:20 14.12.2019
2643 Rain 5 994 89 0 2.24 270 20:59 14.12.2019
2644 Rain 5 993 86 0 4.02 270 20:41 14.12.2019
2645 Rain 5 992 89 0 2.24 270 20:20 14.12.2019
2646 Rain 5 992 92 0 2.24 270 19:59 14.12.2019
2647 Clouds 5 992 94 10000 5.1 220 19:39 14.12.2019
2648 Clouds 4 992 94 10000 5.1 220 19:21 14.12.2019
2649 Clouds 4 992 94 10000 5.1 220 18:56 14.12.2019
2650 Clouds 4 992 94 10000 5.1 220 18:38 14.12.2019
2651 Clouds 5 992 70 10000 6.2 240 18:20 14.12.2019
2652 Clouds 5 992 94 10000 5.7 230 17:54 14.12.2019
2653 Clouds 5 992 94 10000 5.7 230 17:36 14.12.2019
2654 Clouds 5 991 70 10000 6.2 240 17:18 14.12.2019
2655 Clouds 5 991 70 10000 7.2 240 16:40 14.12.2019
2656 Clouds 5 990 70 10000 8.2 250 16:19 14.12.2019
2657 Clouds 5 990 70 10000 8.2 250 15:55 14.12.2019
2658 Rain 5 989 80 10000 8.7 260 15:36 14.12.2019
2659 Rain 5 989 80 10000 8.7 260 15:18 14.12.2019
2660 Clouds 6 988 80 10000 8.2 250 14:40 14.12.2019
2661 Clouds 5 988 80 10000 8.2 250 14:22 14.12.2019
2662 Clouds 5 988 80 10000 8.2 250 13:59 14.12.2019
2663 Clouds 5 988 81 10000 7.2 250 13:41 14.12.2019
2664 Clouds 5 988 81 10000 7.2 250 13:41 14.12.2019
2665 Clouds 5 987 80 10000 7.2 260 13:19 14.12.2019
2666 Clouds 5 987 80 10000 7.2 260 12:57 14.12.2019
2667 Clouds 5 987 86 10000 7.2 250 12:38 14.12.2019
2668 Rain 4 986 86 10000 6.7 250 12:20 14.12.2019
2669 Rain 4 986 86 10000 6.7 250 12:20 14.12.2019
2670 Rain 4 985 86 10000 5.1 250 11:56 14.12.2019
2671 Rain 4 985 86 10000 5.1 250 11:38 14.12.2019
2672 Rain 4 985 86 10000 4.6 240 11:19 14.12.2019
2673 Rain 4 984 86 10000 4.1 250 10:56 14.12.2019
2674 Rain 4 984 86 10000 4.1 250 10:38 14.12.2019
2675 Rain 4 983 93 10000 1 0 10:19 14.12.2019
2676 Rain 3 983 86 10000 1.5 210 09:43 14.12.2019
2677 Rain 3 983 80 10000 3.1 200 09:23 14.12.2019
2678 Rain 3 983 80 10000 3.1 200 08:57 14.12.2019
2679 Rain 3 981 93 0 0.89 270 08:38 14.12.2019
2680 Rain 3 981 93 0 0.89 270 08:38 14.12.2019
2681 Clouds 3 982 94 0 4.55 215 08:19 14.12.2019
2682 Rain 3 981 98 0 4.19 214 07:40 14.12.2019
2683 Rain 4 981 90 0 1.34 270 07:21 14.12.2019
2684 Rain 4 981 89 0 0.89 270 06:55 14.12.2019
2685 Rain 4 981 89 0 1.34 270 06:36 14.12.2019
2686 Rain 4 981 89 0 2.24 270 05:50 14.12.2019
2687 Rain 4 982 92 0 1.34 270 04:29 14.12.2019
2688 Rain 3 983 95 0 1.34 270 02:24 14.12.2019
2689 Rain 3 983 95 0 0.45 270 01:44 14.12.2019
2690 Rain 2 984 96 0 4.9 249 01:22 14.12.2019
2691 Rain 2 983 94 0 0.45 270 00:43 14.12.2019
2692 Rain 2 982 94 0 4.9 249 00:24 14.12.2019
2693 Rain 2 984 95 0 4.9 249 23:42 13.12.2019
2694 Rain 2 982 94 0 0.45 270 23:20 13.12.2019
2695 Rain 2 983 95 0 0.45 269 22:59 13.12.2019
2696 Rain 2 982 94 0 0.45 270 22:40 13.12.2019
2697 Clouds 2 982 80 10000 2.1 160 22:19 13.12.2019
2698 Clouds 2 982 80 10000 2.1 160 21:55 13.12.2019
2699 Clouds 2 982 80 10000 2.1 160 21:36 13.12.2019
2700 Clouds 2 982 80 10000 2.1 160 21:18 13.12.2019
2701 Clouds 2 982 80 10000 2.1 160 20:40 13.12.2019
2702 Clouds 2 981 89 10000 0.76 194 20:21 13.12.2019
2703 Clouds 2 981 89 10000 0.76 194 19:58 13.12.2019
2704 Clouds 2 981 89 10000 0.76 194 19:40 13.12.2019
2705 Clouds 2 981 80 10000 2.1 130 19:20 13.12.2019
2706 Clouds 2 980 89 10000 3.1 110 18:57 13.12.2019
2707 Clouds 2 980 89 10000 3.1 100 18:39 13.12.2019
2708 Clouds 2 980 89 10000 3.1 100 18:18 13.12.2019
2709 Clouds 2 980 89 10000 3.6 110 17:41 13.12.2019
2710 Drizzle 2 980 88 10000 3.6 110 17:19 13.12.2019
2711 Drizzle 2 980 88 10000 3.6 110 17:19 13.12.2019
2712 Clouds 2 980 88 10000 3.6 100 16:59 13.12.2019
2713 Drizzle 2 979 80 10000 3.6 100 16:39 13.12.2019
2714 Drizzle 2 979 80 10000 3.6 100 16:20 13.12.2019
2715 Snow 2 979 80 8000 3.1 100 15:43 13.12.2019
2716 Snow 2 979 80 8000 3.6 100 15:23 13.12.2019
2717 Snow 2 979 80 8000 3.1 90 14:59 13.12.2019
2718 Snow 2 979 80 8000 3.1 90 14:41 13.12.2019
2719 Snow 3 979 80 10000 5.1 100 14:20 13.12.2019
2720 Clouds 3 978 80 10000 5.7 110 13:57 13.12.2019
2721 Clouds 3 978 80 10000 5.7 110 13:37 13.12.2019
2722 Clouds 3 978 80 10000 5.7 110 13:19 13.12.2019
2723 Clouds 3 978 80 10000 5.7 110 12:42 13.12.2019
2724 Clouds 3 979 80 10000 5.1 100 12:20 13.12.2019
2725 Clouds 3 979 74 10000 5.7 110 11:57 13.12.2019
2726 Clouds 3 979 74 10000 5.7 110 11:57 13.12.2019
2727 Clouds 2 979 80 10000 4.6 100 11:39 13.12.2019
2728 Clouds 2 979 80 10000 4.6 100 11:39 13.12.2019
2729 Clouds 2 979 80 10000 4.6 100 11:20 13.12.2019
2730 Clouds 2 980 80 10000 4.1 100 10:42 13.12.2019
2731 Clouds 2 980 80 10000 4.1 100 10:42 13.12.2019
2732 Clouds 2 980 80 10000 4.1 100 10:42 13.12.2019
2733 Clouds 2 980 80 10000 5.1 100 10:23 13.12.2019
2734 Clouds 2 980 80 10000 5.7 100 09:56 13.12.2019
2735 Clouds 1 980 73 10000 3.6 100 09:38 13.12.2019
2736 Clouds 1 980 73 10000 3.6 100 09:18 13.12.2019
2737 Clouds 1 980 73 10000 3.6 100 09:18 13.12.2019
2738 Clouds 1 981 73 10000 3.6 100 08:41 13.12.2019
2739 Clouds 1 981 80 10000 4.6 110 08:23 13.12.2019
2740 Clear 1 982 72 10000 3.6 100 07:45 13.12.2019
2741 Clear 1 982 72 10000 3.1 90 07:21 13.12.2019
2742 Clear 1 979 73 0 0.45 292 06:54 13.12.2019
2743 Clear 1 979 72 0 0.89 292 06:28 13.12.2019
2744 Clear 1 980 72 0 0.89 292 05:46 13.12.2019
2745 Clear 1 980 72 0 1.34 292 05:26 13.12.2019
2746 Clear 1 981 74 0 0.89 292 04:35 13.12.2019
2747 Clear 1 983 79 0 0.89 292 03:46 13.12.2019
2748 Clear 1 985 81 0 0.89 270 02:34 13.12.2019
2749 Clouds 1 991 77 10000 3.1 110 01:44 13.12.2019
2750 Clear 1 991 77 10000 3.1 110 00:56 13.12.2019
2751 Clear 1 988 84 0 0.45 315 00:37 13.12.2019
2752 Clear 2 989 85 0 0.45 292 23:59 12.12.2019
2753 Clear 2 989 85 0 0.45 292 23:59 12.12.2019
2754 Clear 2 990 84 0 0.45 225 23:39 12.12.2019
2755 Clouds 2 995 85 10000 2.6 120 23:21 12.12.2019
2756 Clouds 2 995 85 10000 2.6 120 22:56 12.12.2019
2757 Clouds 2 995 85 10000 2.6 120 22:37 12.12.2019
2758 Clouds 2 995 85 10000 2.6 120 22:18 12.12.2019
2759 Clouds 3 995 86 10000 2.6 140 21:55 12.12.2019
2760 Clouds 3 996 86 10000 2.1 130 21:36 12.12.2019
2761 Clouds 3 996 86 10000 2.1 130 21:36 12.12.2019
2762 Clouds 3 996 86 10000 2.1 130 21:18 12.12.2019
2763 Clouds 3 996 86 10000 2.1 130 20:55 12.12.2019
2764 Clouds 3 997 80 10000 2.6 140 20:37 12.12.2019
2765 Clouds 3 997 80 10000 2.6 140 20:19 12.12.2019
2766 Clouds 3 997 80 10000 2.1 170 19:42 12.12.2019
2767 Clouds 3 998 75 10000 2.6 160 19:23 12.12.2019
2768 Clouds 3 998 80 10000 2.1 160 18:58 12.12.2019
2769 Clouds 3 998 80 10000 2.1 160 18:40 12.12.2019
2770 Clouds 4 998 75 10000 2.1 180 18:21 12.12.2019
2771 Clouds 4 998 75 10000 3.6 200 17:58 12.12.2019
2772 Clouds 4 998 75 10000 3.6 200 17:40 12.12.2019
2773 Clouds 4 999 75 10000 4.1 190 17:21 12.12.2019
2774 Clouds 4 999 80 10000 4.6 200 16:58 12.12.2019
2775 Clouds 4 999 80 10000 4.6 200 16:40 12.12.2019
2776 Clouds 4 999 80 10000 3.6 200 16:21 12.12.2019
2777 Clouds 4 999 80 10000 3.6 200 16:21 12.12.2019
2778 Clouds 4 1000 75 10000 3.6 200 15:57 12.12.2019
2779 Clouds 4 1000 75 10000 3.6 200 15:39 12.12.2019
2780 Clouds 4 1000 80 10000 2.6 200 15:18 12.12.2019
2781 Clouds 4 1000 80 10000 3.1 200 14:56 12.12.2019
2782 Clouds 4 1000 75 10000 3.6 200 14:36 12.12.2019
2783 Clouds 4 1000 75 10000 3.6 200 14:18 12.12.2019
2784 Clouds 4 1001 75 10000 4.6 210 13:54 12.12.2019
2785 Clouds 4 1001 75 10000 4.1 200 13:36 12.12.2019
2786 Clouds 4 1001 75 10000 4.1 200 13:18 12.12.2019
2787 Clouds 4 1001 75 10000 5.1 220 12:41 12.12.2019
2788 Clouds 4 1001 75 10000 5.1 220 12:40 12.12.2019
2789 Clouds 4 1001 80 10000 4.1 210 12:22 12.12.2019
2790 Clouds 4 1002 86 10000 3.6 210 11:59 12.12.2019
2791 Clouds 4 1002 80 10000 3.6 210 11:39 12.12.2019
2792 Clouds 4 1002 80 10000 3.6 210 11:39 12.12.2019
2793 Clouds 4 1002 80 10000 3.6 210 11:21 12.12.2019
2794 Clouds 3 1002 80 10000 3.1 200 10:58 12.12.2019
2795 Clouds 3 1002 80 10000 3.1 200 10:40 12.12.2019
2796 Clouds 3 1002 86 10000 2.6 180 10:21 12.12.2019
2797 Clouds 2 1002 86 10000 2.1 160 09:56 12.12.2019
2798 Clouds 2 1002 86 10000 2.1 170 09:38 12.12.2019
2799 Clouds 2 1002 86 10000 2.1 170 09:19 12.12.2019
2800 Clouds 2 1002 86 10000 2.1 200 08:47 12.12.2019
2801 Clouds 2 1002 88 10000 1 0 08:28 12.12.2019
2802 Clouds 2 1002 86 10000 2.6 210 07:54 12.12.2019
2803 Clouds 2 1002 86 10000 2.6 200 07:36 12.12.2019
2804 Clouds 2 1002 86 10000 2.6 200 07:18 12.12.2019
2805 Clouds 2 1002 97 0 3.58 219 06:41 12.12.2019
2806 Clouds 2 1001 95 0 0.45 270 06:21 12.12.2019
2807 Clouds 2 1000 10 0 3.58 219 05:26 12.12.2019
2808 Clouds 2 1001 99 0 2.67 222 04:31 12.12.2019
2809 Clouds 1 1001 99 0 2.67 222 02:41 12.12.2019
2810 Clouds 1 1001 96 0 0.45 270 02:23 12.12.2019
2811 Rain 1 1002 96 0 0.45 292 01:58 12.12.2019
2812 Rain 1 1002 96 0 0.45 292 01:35 12.12.2019
2813 Rain 1 1002 96 0 0.45 270 00:49 12.12.2019
2814 Rain 1 1003 96 0 3.18 236 00:22 12.12.2019
2815 Rain 1 1002 96 0 3.18 236 23:58 11.12.2019
2816 Rain 1 1002 96 0 0.45 270 23:36 11.12.2019
2817 Rain 1 1004 90 10000 3.1 230 23:18 11.12.2019
2818 Rain 1 1004 90 10000 3.1 230 22:55 11.12.2019
2819 Rain 1 1004 90 10000 3.1 230 22:37 11.12.2019
2820 Rain 1 1004 90 10000 3.1 230 22:18 11.12.2019
2821 Clouds 1 1004 90 10000 3.1 240 21:54 11.12.2019
2822 Clouds 1 1005 90 10000 3.6 230 21:36 11.12.2019
2823 Clouds 1 1005 90 10000 3.6 230 21:18 11.12.2019
2824 Clouds 1 1005 90 10000 4.1 230 20:54 11.12.2019
2825 Clouds 1 1005 93 10000 2.1 210 20:36 11.12.2019
2826 Clouds 1 1005 93 10000 2.1 210 20:18 11.12.2019
2827 Clouds 1 1005 93 10000 2.6 210 19:41 11.12.2019
2828 Rain 1 1005 91 10000 3.1 210 19:23 11.12.2019
2829 Rain 1 1005 93 10000 2.6 220 18:59 11.12.2019
2830 Rain 1 1006 91 10000 4.1 220 18:39 11.12.2019
2831 Rain 1 1006 91 10000 4.1 220 18:19 11.12.2019
2832 Rain 2 1006 86 10000 3.1 200 17:56 11.12.2019
2833 Rain 2 1006 86 10000 3.1 200 17:38 11.12.2019
2834 Rain 2 1006 86 10000 3.1 200 17:18 11.12.2019
2835 Rain 2 1006 86 10000 3.6 200 16:55 11.12.2019
2836 Clouds 2 1006 86 10000 3.1 200 16:37 11.12.2019
2837 Clouds 2 1006 86 10000 3.1 200 16:18 11.12.2019
2838 Drizzle 2 1007 86 8000 3.1 200 15:56 11.12.2019
2839 Drizzle 2 1007 86 7000 3.1 210 15:37 11.12.2019
2840 Drizzle 2 1007 86 7000 3.1 210 15:18 11.12.2019
2841 Drizzle 2 1007 86 8000 3.1 200 14:54 11.12.2019
2842 Rain 2 1008 93 10000 2.6 200 14:36 11.12.2019
2843 Rain 2 1008 93 10000 2.6 200 14:36 11.12.2019
2844 Rain 2 1008 93 10000 2.6 200 14:18 11.12.2019
2845 Rain 2 1008 93 10000 3.1 200 13:42 11.12.2019
2846 Clouds 3 1008 93 10000 2.6 180 13:22 11.12.2019
2847 Drizzle 3 1009 93 8000 3.1 190 12:58 11.12.2019
2848 Rain 3 1009 86 9000 3.6 190 12:39 11.12.2019
2849 Rain 3 1009 86 9000 3.6 190 12:21 11.12.2019
2850 Rain 3 1009 86 9000 4.1 200 11:58 11.12.2019
2851 Rain 3 1010 86 9000 3.6 200 11:39 11.12.2019
2852 Rain 3 1010 86 9000 3.6 200 11:19 11.12.2019
2853 Rain 3 1010 86 9000 3.6 200 11:19 11.12.2019
2854 Rain 3 1010 86 9000 3.6 200 10:59 11.12.2019
2855 Rain 3 1010 86 9000 3.6 200 10:39 11.12.2019
2856 Rain 3 1010 86 9000 3.6 200 10:21 11.12.2019
2857 Rain 3 1010 86 9000 3.1 200 09:56 11.12.2019
2858 Rain 3 1010 86 8000 3.6 210 09:38 11.12.2019
2859 Rain 3 1010 86 8000 3.6 210 09:19 11.12.2019
2860 Rain 3 1010 80 10000 2.6 200 08:55 11.12.2019
2861 Drizzle 3 1011 74 10000 4.1 220 08:36 11.12.2019
2862 Drizzle 3 1011 69 10000 4.1 220 08:18 11.12.2019
2863 Rain 3 1011 65 10000 6.7 220 07:42 11.12.2019
2864 Rain 3 1011 60 10000 6.2 220 07:22 11.12.2019
2865 Rain 4 1009 82 0 2.68 292 06:46 11.12.2019
2866 Rain 4 1009 79 0 2.68 292 06:24 11.12.2019
2867 Rain 4 1010 77 0 3.13 247 05:54 11.12.2019
2868 Rain 4 1010 76 0 3.58 270 05:34 11.12.2019
2869 Clouds 4 1010 79 0 3.13 270 04:49 11.12.2019
2870 Clouds 5 1011 74 0 2.68 270 03:26 11.12.2019
2871 Clouds 4 1012 75 0 3.58 270 02:35 11.12.2019
2872 Clouds 4 1013 78 0 2.68 247 01:22 11.12.2019
2873 Clouds 4 1014 80 0 3.58 225 00:38 11.12.2019
2874 Clouds 4 1014 79 0 1.79 225 00:19 11.12.2019
2875 Clouds 3 1015 80 0 2.68 270 23:44 10.12.2019
2876 Clouds 3 1018 84 0 6.16 204 23:23 10.12.2019
2877 Clear 3 1015 80 0 1.34 270 22:56 10.12.2019
2878 Clear 3 1018 69 10000 3.1 170 22:38 10.12.2019
2879 Clear 3 1018 69 10000 3.1 170 22:20 10.12.2019
2880 Clear 3 1018 69 10000 3.1 170 21:54 10.12.2019
2881 Clear 3 1019 74 10000 3.1 160 21:36 10.12.2019
2882 Clear 3 1019 74 10000 3.1 160 21:18 10.12.2019
2883 Clear 3 1019 74 10000 2.6 180 20:55 10.12.2019
2884 Clear 3 1020 69 10000 3.6 180 20:36 10.12.2019
2885 Clouds 2 1020 69 10000 3.6 180 20:18 10.12.2019
2886 Clouds 2 1020 69 10000 3.6 180 20:18 10.12.2019
2887 Clouds 2 1020 74 10000 3.1 170 19:44 10.12.2019
2888 Clouds 2 1020 74 10000 3.6 170 19:25 10.12.2019
2889 Clouds 2 1021 74 10000 2.6 170 18:57 10.12.2019
2890 Clouds 2 1021 74 10000 2.6 170 18:39 10.12.2019
2891 Clouds 2 1021 74 10000 2.6 170 18:19 10.12.2019
2892 Clouds 2 1021 74 10000 3.1 170 17:54 10.12.2019
2893 Clouds 2 1022 69 10000 2.6 200 17:36 10.12.2019
2894 Clouds 3 1022 69 10000 2.6 200 17:18 10.12.2019
2895 Clouds 3 1023 82 10000 2.6 200 16:42 10.12.2019
2896 Clouds 3 1022 82 10000 3.6 210 16:20 10.12.2019
2897 Clouds 4 1023 82 10000 4.6 210 15:54 10.12.2019
2898 Clouds 4 1023 82 10000 4.1 220 15:36 10.12.2019
2899 Clouds 5 1023 82 10000 4.1 220 15:18 10.12.2019
2900 Clouds 5 1023 82 10000 4.1 220 15:18 10.12.2019
2901 Clouds 5 1023 70 10000 4.1 240 14:54 10.12.2019
2902 Clouds 5 1023 70 10000 5.1 250 14:36 10.12.2019
2903 Clouds 5 1023 70 10000 5.1 250 14:18 10.12.2019
2904 Clouds 5 1023 70 10000 5.1 250 14:18 10.12.2019
2905 Clouds 5 1023 75 10000 4.6 250 13:54 10.12.2019
2906 Clouds 5 1023 75 10000 4.6 250 13:36 10.12.2019
2907 Clouds 5 1023 75 10000 4.6 250 13:18 10.12.2019
2908 Clouds 5 1024 75 10000 4.1 260 12:38 10.12.2019
2909 Clouds 5 1024 75 10000 4.1 260 12:20 10.12.2019
2910 Clouds 4 1023 80 10000 4.1 250 11:42 10.12.2019
2911 Clouds 4 1023 80 10000 4.1 250 11:23 10.12.2019
2912 Clouds 3 1023 86 10000 3.6 260 10:56 10.12.2019
2913 Clouds 3 1023 86 10000 3.6 260 10:56 10.12.2019
2914 Clouds 3 1023 82 10000 3.6 260 10:37 10.12.2019
2915 Clouds 3 1023 82 10000 3.6 260 10:19 10.12.2019
2916 Snow 2 1022 82 10000 3.1 270 09:55 10.12.2019
2917 Snow 2 1022 82 10000 3.6 260 09:37 10.12.2019
2918 Snow 2 1022 82 10000 3.6 260 09:18 10.12.2019
2919 Clouds 2 1022 86 10000 3.6 280 08:54 10.12.2019
2920 Rain 2 1022 86 10000 4.6 280 08:36 10.12.2019
2921 Rain 2 1022 86 10000 4.6 280 08:18 10.12.2019
2922 Clouds 2 1021 86 10000 5.1 280 07:42 10.12.2019
2923 Clouds 3 1020 86 10000 4.1 280 07:24 10.12.2019
2924 Snow 3 1020 90 0 4.98 275 06:46 10.12.2019
2925 Snow 3 1022 88 0 4.98 275 06:19 10.12.2019
2926 Snow 3 1019 88 0 4.98 275 05:54 10.12.2019
2927 Clouds 3 1021 88 0 5.58 277 04:52 10.12.2019
2928 Clouds 3 1020 88 0 5.58 277 03:38 10.12.2019
2929 Clouds 3 1015 87 0 5.58 277 02:46 10.12.2019
2930 Snow 3 1015 87 0 5.76 279 01:45 10.12.2019
2931 Clouds 3 1017 86 0 6.46 278 01:21 10.12.2019
2932 Clouds 4 1014 92 0 3.13 289 00:42 10.12.2019
2933 Clouds 4 1015 87 0 6.46 278 00:21 10.12.2019
2934 Clouds 4 1012 88 0 6.46 278 23:42 09.12.2019
2935 Clouds 4 1012 88 0 6.46 278 23:42 09.12.2019
2936 Clouds 4 1011 89 0 6.46 278 23:23 09.12.2019
2937 Clouds 4 1011 89 0 6.46 278 23:23 09.12.2019
2938 Rain 4 1013 86 0 6.66 308 22:58 09.12.2019
2939 Clouds 4 1008 81 10000 5.1 290 22:40 09.12.2019
2940 Clouds 5 1008 81 10000 5.1 290 22:20 09.12.2019
2941 Clouds 5 1008 81 10000 5.1 290 21:57 09.12.2019
2942 Clouds 5 1008 81 10000 5.1 290 21:38 09.12.2019
2943 Clouds 5 1007 87 10000 5.1 300 21:19 09.12.2019
2944 Clouds 5 1006 87 10000 5.1 310 20:57 09.12.2019
2945 Clouds 5 1006 87 10000 5.1 310 20:57 09.12.2019
2946 Clouds 5 1005 87 10000 5.7 300 20:39 09.12.2019
2947 Clouds 5 1005 87 10000 5.7 300 20:20 09.12.2019
2948 Clouds 5 1004 87 10000 6.2 290 19:56 09.12.2019
2949 Clouds 6 1003 87 10000 5.1 280 19:38 09.12.2019
2950 Clouds 6 1003 87 10000 5.1 280 19:19 09.12.2019
2951 Clouds 6 1002 87 10000 4.6 280 18:58 09.12.2019
2952 Clouds 6 1002 87 10000 4.6 280 18:39 09.12.2019
2953 Clouds 6 1001 87 10000 4.6 280 18:20 09.12.2019
2954 Clouds 6 1001 87 10000 5.1 280 17:58 09.12.2019
2955 Clouds 6 1001 87 10000 5.1 280 17:39 09.12.2019
2956 Clouds 6 1000 87 10000 4.6 280 17:20 09.12.2019
2957 Clouds 6 999 87 10000 5.1 280 16:56 09.12.2019
2958 Rain 6 998 87 10000 5.7 270 16:38 09.12.2019
2959 Rain 6 998 87 10000 5.7 270 16:19 09.12.2019
2960 Rain 6 998 93 10000 5.7 260 15:55 09.12.2019
2961 Rain 6 997 81 10000 5.1 260 15:37 09.12.2019
2962 Rain 6 997 81 10000 5.1 260 15:19 09.12.2019
2963 Rain 6 997 75 10000 7.7 250 14:57 09.12.2019
2964 Rain 6 997 75 10000 7.7 250 14:39 09.12.2019
2965 Clouds 7 996 75 10000 6.2 240 14:18 09.12.2019
2966 Clouds 7 996 66 10000 7.2 230 13:40 09.12.2019
2967 Clouds 7 996 66 10000 7.2 230 13:40 09.12.2019
2968 Clouds 8 996 70 10000 4.6 210 13:20 09.12.2019
2969 Clouds 8 996 70 10000 7.2 220 12:58 09.12.2019
2970 Clouds 8 996 70 10000 7.2 220 12:40 09.12.2019
2971 Clouds 8 996 70 10000 5.1 220 12:21 09.12.2019
2972 Clouds 8 996 65 10000 6.7 220 11:59 09.12.2019
2973 Clouds 8 996 65 10000 6.7 220 11:39 09.12.2019
2974 Clouds 7 996 65 10000 6.2 220 11:21 09.12.2019
2975 Clouds 7 996 65 10000 6.2 220 10:57 09.12.2019
2976 Clouds 7 996 65 10000 5.7 220 10:38 09.12.2019
2977 Clouds 7 996 65 10000 5.7 220 10:19 09.12.2019
2978 Clouds 7 996 65 10000 5.1 210 09:41 09.12.2019
2979 Clouds 7 996 70 10000 5.1 200 09:23 09.12.2019
2980 Clouds 6 996 70 10000 5.1 210 08:55 09.12.2019
2981 Clouds 7 996 70 10000 5.7 210 08:37 09.12.2019
2982 Rain 6 996 70 10000 5.7 210 08:19 09.12.2019
2983 Rain 6 996 70 10000 4.6 220 07:44 09.12.2019
2984 Clouds 7 996 70 10000 5.1 220 07:25 09.12.2019
2985 Rain 6 996 75 10000 4.6 220 06:55 09.12.2019
2986 Rain 6 996 81 10000 7.7 230 06:28 09.12.2019
2987 Rain 7 998 79 0 4.72 218 05:30 09.12.2019
2988 Clear 7 995 79 0 1.79 270 04:55 09.12.2019
2989 Clear 6 996 79 0 1.34 225 04:25 09.12.2019
2990 Clear 7 998 89 0 6.23 230 02:28 09.12.2019
2991 Clouds 7 996 82 0 2.24 270 01:45 09.12.2019
2992 Clouds 7 996 83 0 3.13 225 00:57 09.12.2019
2993 Clouds 7 998 88 0 8.46 241 00:32 09.12.2019
2994 Clouds 7 995 85 0 2.24 270 23:54 08.12.2019
2995 Clouds 7 996 81 0 1.34 270 23:36 08.12.2019
2996 Clouds 7 998 84 0 8.23 240 23:18 08.12.2019
2997 Clouds 7 996 78 0 1.34 270 22:56 08.12.2019
2998 Clouds 8 996 77 0 2.68 270 22:37 08.12.2019
2999 Clouds 8 999 82 0 8.23 240 22:18 08.12.2019
3000 Clouds 8 996 77 0 1.34 270 21:55 08.12.2019
3001 Clouds 8 996 79 0 2.24 270 21:36 08.12.2019
3002 Clouds 8 999 86 0 8.23 240 21:18 08.12.2019
3003 Clouds 8 997 80 0 1.34 270 20:54 08.12.2019
3004 Clouds 8 997 81 0 1.34 225 20:36 08.12.2019
3005 Clouds 8 997 70 10000 9.3 260 20:18 08.12.2019
3006 Clouds 8 997 70 10000 9.3 260 19:54 08.12.2019
3007 Clouds 8 997 70 10000 9.3 260 19:36 08.12.2019
3008 Clouds 8 997 70 10000 9.3 260 19:18 08.12.2019
3009 Clouds 9 997 76 10000 8.2 260 18:54 08.12.2019
3010 Clouds 9 997 76 10000 6.7 250 18:36 08.12.2019
3011 Clouds 9 997 76 10000 6.7 250 18:18 08.12.2019
3012 Clouds 9 997 81 10000 5.7 250 17:54 08.12.2019
3013 Clouds 9 997 87 10000 4.6 260 17:36 08.12.2019
3014 Clouds 9 997 87 10000 4.6 260 17:18 08.12.2019
3015 Clouds 9 997 81 10000 8.7 240 16:42 08.12.2019
3016 Rain 9 997 87 10000 6.7 240 16:23 08.12.2019
3017 Rain 10 997 87 10000 7.2 230 15:58 08.12.2019
3018 Rain 10 997 81 10000 7.7 230 15:37 08.12.2019
3019 Rain 10 997 81 10000 7.7 230 15:18 08.12.2019
3020 Rain 10 997 81 10000 7.7 230 15:18 08.12.2019
3021 Clouds 10 998 81 10000 8.2 230 14:46 08.12.2019
3022 Clouds 10 998 81 10000 8.7 230 14:25 08.12.2019
3023 Clouds 10 998 71 10000 8.2 230 13:59 08.12.2019
3024 Clouds 10 998 71 10000 8.2 230 13:41 08.12.2019
3025 Clouds 10 998 71 10000 8.2 230 13:22 08.12.2019
3026 Clouds 10 999 71 10000 7.2 220 12:59 08.12.2019
3027 Clouds 10 999 71 10000 7.2 220 12:40 08.12.2019
3028 Clouds 10 999 71 10000 7.7 230 12:20 08.12.2019
3029 Rain 10 1000 76 10000 7.7 230 11:58 08.12.2019
3030 Rain 10 1000 66 10000 6.7 230 11:38 08.12.2019
3031 Rain 9 1000 66 10000 6.7 230 11:19 08.12.2019
3032 Clouds 9 1000 70 10000 6.2 220 10:57 08.12.2019
3033 Clouds 9 1001 70 10000 5.7 220 10:38 08.12.2019
3034 Clouds 9 1001 70 10000 5.7 220 10:19 08.12.2019
3035 Clouds 9 1002 66 10000 6.7 220 09:55 08.12.2019
3036 Clouds 9 1002 70 10000 7.2 230 09:37 08.12.2019
3037 Clouds 8 1002 70 10000 7.2 230 09:18 08.12.2019
3038 Clouds 8 1005 84 0 9.88 227 08:43 08.12.2019
3039 Clouds 8 1005 84 0 9.88 227 08:43 08.12.2019
3040 Clouds 8 1002 81 0 2.68 270 08:23 08.12.2019
3041 Clouds 8 1005 82 0 7.13 221 07:58 08.12.2019
3042 Clouds 8 1006 82 0 7.13 221 07:40 08.12.2019
3043 Clouds 8 1006 82 0 7.13 221 07:19 08.12.2019
3044 Clouds 8 1007 83 0 7.13 221 06:41 08.12.2019
3045 Clouds 8 1007 84 0 7.13 221 06:21 08.12.2019
3046 Clouds 8 1005 80 0 2.24 270 05:27 08.12.2019
3047 Clouds 8 1005 81 0 1.79 292 04:57 08.12.2019
3048 Clouds 7 1009 87 0 6.75 231 03:41 08.12.2019
3049 Clouds 7 1010 84 0 6.75 231 02:52 08.12.2019
3050 Clouds 7 1011 85 0 6.75 231 02:28 08.12.2019
3051 Clouds 7 1011 85 0 5.89 233 01:48 08.12.2019
3052 Clouds 7 1012 84 0 6.23 232 00:59 08.12.2019
3053 Clouds 7 1012 84 0 6.23 232 00:38 08.12.2019
3054 Clouds 7 1013 84 0 6.23 232 00:19 08.12.2019
3055 Clouds 7 1010 91 0 6.23 232 23:40 07.12.2019
3056 Clouds 7 1010 91 0 6.23 232 23:40 07.12.2019
3057 Clouds 7 1013 87 0 7.75 243 23:20 07.12.2019
3058 Clouds 7 1010 88 0 0.89 270 22:56 07.12.2019
3059 Clouds 7 1013 88 0 7.75 243 22:38 07.12.2019
3060 Clouds 7 1011 81 10000 6.7 250 22:20 07.12.2019
3061 Clouds 7 1011 81 10000 6.7 250 21:56 07.12.2019
3062 Clouds 7 1011 81 10000 6.7 250 21:38 07.12.2019
3063 Clouds 7 1011 81 10000 6.7 250 21:19 07.12.2019
3064 Clouds 7 1011 81 10000 6.7 250 20:55 07.12.2019
3065 Clouds 7 1011 91 0 1.34 270 20:36 07.12.2019
3066 Rain 7 1011 81 10000 6.2 250 20:18 07.12.2019
3067 Rain 7 1011 81 10000 6.2 250 19:55 07.12.2019
3068 Rain 7 1011 81 10000 6.2 250 19:36 07.12.2019
3069 Rain 7 1011 81 10000 6.2 250 19:18 07.12.2019
3070 Rain 7 1011 81 10000 6.2 260 18:44 07.12.2019
3071 Clouds 8 1011 81 10000 5.1 260 18:19 07.12.2019
3072 Clouds 7 1011 81 10000 5.1 270 17:58 07.12.2019
3073 Clouds 8 1011 81 10000 5.1 270 17:39 07.12.2019
3074 Clouds 8 1010 76 10000 6.7 270 17:21 07.12.2019
3075 Clouds 8 1010 76 10000 6.7 270 16:56 07.12.2019
3076 Clouds 8 1010 76 10000 6.7 270 16:38 07.12.2019
3077 Clouds 8 1010 76 10000 6.7 270 16:19 07.12.2019
3078 Clouds 8 1009 81 10000 7.2 250 15:56 07.12.2019
3079 Clouds 8 1009 87 10000 4.6 270 15:38 07.12.2019
3080 Clouds 8 1009 87 10000 4.6 270 15:18 07.12.2019
3081 Clouds 8 1009 81 10000 6.7 270 14:42 07.12.2019
3082 Clouds 8 1009 81 10000 6.7 270 14:19 07.12.2019
3083 Clouds 8 1008 81 10000 7.2 270 13:41 07.12.2019
3084 Clouds 8 1008 81 10000 5.7 270 13:21 07.12.2019
3085 Clouds 8 1008 87 10000 7.2 260 12:59 07.12.2019
3086 Clouds 8 1008 87 10000 7.2 260 12:40 07.12.2019
3087 Clouds 8 1008 93 7000 7.2 270 12:22 07.12.2019
3088 Clouds 8 1008 81 10000 7.2 270 11:58 07.12.2019
3089 Clouds 8 1008 81 10000 7.2 270 11:40 07.12.2019
3090 Clouds 8 1008 81 10000 7.2 270 11:21 07.12.2019
3091 Clouds 8 1007 81 10000 7.2 270 10:38 07.12.2019
3092 Clouds 8 1007 81 10000 7.2 270 10:20 07.12.2019
3093 Clouds 8 1006 81 10000 7.7 260 09:58 07.12.2019
3094 Clouds 8 1006 87 10000 7.7 270 09:37 07.12.2019
3095 Clouds 8 1006 87 10000 7.7 270 09:18 07.12.2019
3096 Clouds 7 1009 90 0 9.34 259 08:41 07.12.2019
3097 Rain 7 1009 90 0 9.26 261 08:21 07.12.2019
3098 Rain 8 1005 92 0 1.34 270 07:46 07.12.2019
3099 Rain 8 1005 92 0 1.34 270 07:26 07.12.2019
3100 Rain 7 1007 93 0 9.26 261 06:50 07.12.2019
3101 Rain 7 1004 91 0 1.34 270 06:25 07.12.2019
3102 Rain 7 1004 93 0 1.79 270 05:34 07.12.2019
3103 Rain 6 1004 95 0 2.24 227 04:19 07.12.2019
3104 Rain 6 1002 93 0 3.58 270 03:44 07.12.2019
3105 Rain 6 1004 95 0 2.24 206 02:21 07.12.2019
3106 Rain 6 1002 91 0 1.79 270 01:35 07.12.2019
3107 Rain 6 1002 91 0 1.79 270 00:57 07.12.2019
3108 Rain 5 1006 92 0 7.23 220 00:21 07.12.2019
3109 Rain 5 1003 92 0 1.79 225 23:56 06.12.2019
3110 Rain 5 1006 92 0 7.23 220 23:38 06.12.2019
3111 Clouds 5 1004 81 10000 9.3 230 23:18 06.12.2019
3112 Clouds 5 1004 81 10000 9.3 230 22:39 06.12.2019
3113 Clouds 5 1004 81 10000 9.3 230 22:20 06.12.2019
3114 Clouds 5 1004 81 10000 7.7 230 21:58 06.12.2019
3115 Clouds 5 1004 81 10000 7.7 230 21:39 06.12.2019
3116 Clouds 5 1004 81 10000 6.7 230 21:20 06.12.2019
3117 Clouds 5 1004 75 10000 6.7 220 20:45 06.12.2019
3118 Clouds 5 1004 75 10000 6.7 220 20:26 06.12.2019
3119 Clouds 4 1005 80 10000 6.2 220 19:59 06.12.2019
3120 Clouds 4 1005 80 10000 6.2 220 19:40 06.12.2019
3121 Clouds 4 1005 80 10000 6.7 220 19:22 06.12.2019
3122 Clouds 4 1005 80 10000 6.7 220 19:22 06.12.2019
3123 Clouds 5 1005 80 10000 7.2 230 18:58 06.12.2019
3124 Clouds 4 1005 80 10000 7.2 230 18:40 06.12.2019
3125 Clouds 4 1005 75 10000 5.7 220 18:21 06.12.2019
3126 Clouds 4 1006 75 10000 6.7 210 17:58 06.12.2019
3127 Clouds 3 1006 75 10000 6.7 210 17:40 06.12.2019
3128 Drizzle 3 1006 80 10000 6.7 220 17:21 06.12.2019
3129 Clouds 3 1006 79 10000 6.2 220 16:56 06.12.2019
3130 Clouds 3 1006 79 10000 7.2 220 16:37 06.12.2019
3131 Clouds 3 1006 79 10000 7.2 220 16:18 06.12.2019
3132 Drizzle 3 1007 79 10000 6.7 220 15:41 06.12.2019
3133 Drizzle 3 1007 79 10000 6.7 220 15:41 06.12.2019
3134 Drizzle 3 1007 79 10000 6.7 220 15:22 06.12.2019
3135 Drizzle 3 1007 69 10000 5.1 230 14:57 06.12.2019
3136 Drizzle 3 1007 69 10000 5.1 230 14:39 06.12.2019
3137 Drizzle 3 1008 74 10000 5.1 220 14:19 06.12.2019
3138 Drizzle 2 1008 74 10000 6.7 230 13:45 06.12.2019
3139 Drizzle 2 1008 74 10000 6.7 230 13:45 06.12.2019
3140 Drizzle 2 1009 77 10000 6.7 220 13:26 06.12.2019
3141 Clouds 2 1009 77 10000 6.2 230 12:56 06.12.2019
3142 Rain 2 1010 77 10000 7.2 230 12:38 06.12.2019
3143 Rain 2 1010 77 10000 7.2 230 12:20 06.12.2019
3144 Rain 2 1010 77 10000 5.7 230 11:42 06.12.2019
3145 Clouds 2 1010 77 10000 6.7 220 11:23 06.12.2019
3146 Clouds 2 1010 64 10000 6.7 230 10:55 06.12.2019
3147 Rain 2 1010 64 10000 5.1 230 10:37 06.12.2019
3148 Rain 3 1010 64 10000 5.1 230 10:19 06.12.2019
3149 Rain 2 1010 64 10000 5.7 240 09:55 06.12.2019
3150 Rain 2 1011 80 10000 6.7 240 09:36 06.12.2019
3151 Rain 2 1011 80 10000 6.7 240 09:36 06.12.2019
3152 Rain 2 1011 80 10000 6.7 240 09:18 06.12.2019
3153 Rain 2 1011 74 10000 7.2 230 08:40 06.12.2019
3154 Rain 1 1011 74 10000 7.2 240 08:22 06.12.2019
3155 Rain 1 1011 74 10000 7.2 240 07:38 06.12.2019
3156 Rain 1 1011 74 10000 6.7 230 07:20 06.12.2019
3157 Clouds 1 1011 74 10000 8.2 230 06:48 06.12.2019
3158 Clouds 1 1011 74 10000 6.2 230 06:25 06.12.2019
3159 Clouds 1 1013 90 0 0.45 38 05:48 06.12.2019
3160 Clouds 1 1012 87 0 2.24 270 02:46 06.12.2019
3161 Clouds 1 1016 60 0 6 223 01:45 06.12.2019
3162 Clouds 1 1017 65 0 5.75 222 00:51 06.12.2019
3163 Clouds 3 1012 78 0 3.13 257 00:23 06.12.2019
3164 Clouds 1 1017 65 0 5.75 222 23:51 05.12.2019
3165 Clouds 3 1020 82 0 4.26 211 23:21 05.12.2019
3166 Clouds 2 1020 84 0 4.26 211 22:59 05.12.2019
3167 Clouds 2 1016 74 10000 4.1 240 22:39 05.12.2019
3168 Clouds 1 1016 74 10000 4.1 240 22:20 05.12.2019
3169 Clouds 1 1016 74 10000 4.1 240 21:58 05.12.2019
3170 Clouds 2 1016 74 10000 4.1 240 21:40 05.12.2019
3171 Clouds 2 1016 74 10000 4.1 240 21:22 05.12.2019
3172 Clouds 2 1016 74 10000 4.1 240 20:58 05.12.2019
3173 Clouds 1 1016 74 10000 4.1 240 20:39 05.12.2019
3174 Clear 1 1017 80 10000 5.1 240 20:19 05.12.2019
3175 Clear 1 1017 80 10000 3.1 260 19:43 05.12.2019
3176 Clear 2 1017 80 10000 3.1 260 19:25 05.12.2019
3177 Clear 2 1017 74 10000 3.1 220 18:59 05.12.2019
3178 Clear 3 1018 74 10000 4.6 240 18:39 05.12.2019
3179 Clear 2 1018 80 10000 3.6 230 18:21 05.12.2019
3180 Clear 2 1018 80 10000 3.6 230 17:59 05.12.2019
3181 Clear 1 1018 80 10000 3.6 240 17:38 05.12.2019
3182 Clear 1 1018 74 10000 3.1 220 17:19 05.12.2019
3183 Clear 2 1018 74 10000 3.1 220 16:55 05.12.2019
3184 Clear 2 1018 74 10000 3.1 240 16:37 05.12.2019
3185 Clear 3 1018 74 10000 3.6 250 16:18 05.12.2019
3186 Clear 3 1018 74 10000 3.6 250 15:55 05.12.2019
3187 Clear 3 1018 65 10000 3.1 250 15:37 05.12.2019
3188 Clear 4 1018 65 10000 4.6 240 15:18 05.12.2019
3189 Clear 4 1018 65 10000 4.6 240 14:54 05.12.2019
3190 Clear 4 1018 65 10000 6.2 240 14:36 05.12.2019
3191 Clear 4 1018 65 10000 4.6 250 14:18 05.12.2019
3192 Clear 4 1018 65 10000 4.6 250 13:55 05.12.2019
3193 Clear 4 1018 65 10000 4.6 240 13:36 05.12.2019
3194 Clear 4 1018 65 10000 5.1 230 13:18 05.12.2019
3195 Clear 4 1019 65 10000 3.6 220 12:42 05.12.2019
3196 Clear 4 1019 65 10000 3.6 220 12:23 05.12.2019
3197 Clear 4 1019 69 10000 3.6 230 11:56 05.12.2019
3198 Clear 3 1019 69 10000 3.6 240 11:38 05.12.2019
3199 Clear 2 1020 74 10000 3.1 250 11:20 05.12.2019
3200 Clear 2 1020 74 10000 3.1 250 10:56 05.12.2019
3201 Clear 2 1020 80 10000 2.6 270 10:38 05.12.2019
3202 Clear 1 1020 86 10000 1.5 280 10:18 05.12.2019
3203 Clear 1 1020 66 10000 2.1 260 09:45 05.12.2019
3204 Clear 1 1020 92 10000 2.1 270 09:21 05.12.2019
3205 Clear 1 1020 92 10000 2.1 270 08:58 05.12.2019
3206 Clear 1 1019 92 10000 2.89 241 08:38 05.12.2019
3207 Clear 0 1019 92 10000 2.07 228 08:19 05.12.2019
3208 Clear 0 1019 92 10000 2.16 232 08:19 05.12.2019
3209 Clear 0 1019 92 10000 1.5 110 07:49 05.12.2019
3210 Clear 0 1019 92 10000 1.5 110 07:49 05.12.2019
3211 Clear 0 1019 92 10000 1.5 110 07:31 05.12.2019
3212 Clear 0 1019 92 10000 2.16 232 06:57 05.12.2019
3213 Clear -1 1017 88 0 2.16 232 06:38 05.12.2019
3214 Clear -1 1021 94 0 2.16 232 06:19 05.12.2019
3215 Clear 0 1019 93 0 2.24 42 05:47 05.12.2019
3216 Clear 0 1023 83 0 1.36 215 05:22 05.12.2019
3217 Clear 0 1017 97 0 1.36 215 03:59 05.12.2019
3218 Clear 0 1019 91 0 0.45 223 02:43 05.12.2019
3219 Clear -1 1018 93 0 0.45 270 02:24 05.12.2019
3220 Clear -1 1021 94 0 1.21 225 01:52 05.12.2019
3221 Clear -1 1018 97 0 1.21 225 01:24 05.12.2019
3222 Clear 0 1022 94 0 1.1 226 00:51 05.12.2019
3223 Clear -1 1018 96 0 1.1 226 00:32 05.12.2019
3224 Clear -1 1018 96 0 1.1 226 23:58 04.12.2019
3225 Clear -1 1019 97 0 1.1 226 23:39 04.12.2019
3226 Clear -1 1021 76 7000 1 80 23:21 04.12.2019
3227 Clear -1 1021 76 7000 1 80 22:55 04.12.2019
3228 Clear 0 1021 76 7000 1 80 22:36 04.12.2019
3229 Clear 0 1021 76 7000 1 80 22:18 04.12.2019
3230 Clear 0 1021 76 7000 1 80 21:54 04.12.2019
3231 Clear 0 1021 76 7000 0.43 190 21:36 04.12.2019
3232 Clear 0 1021 76 7000 0.43 190 21:18 04.12.2019
3233 Clear 0 1021 76 7000 0.43 190 20:56 04.12.2019
3234 Clear 0 1021 76 9000 0.43 190 20:37 04.12.2019
3235 Clear 0 1021 79 8000 0.62 203 20:19 04.12.2019
3236 Clear 0 1021 79 10000 0.62 203 19:40 04.12.2019
3237 Clear 1 1022 79 10000 0.62 203 19:22 04.12.2019
3238 Clear 1 1022 79 10000 0.62 203 18:58 04.12.2019
3239 Clear 1 1022 79 10000 2.1 260 18:40 04.12.2019
3240 Clear 1 1022 86 10000 1.5 260 18:22 04.12.2019
3241 Clear 1 1022 86 10000 1.5 260 17:57 04.12.2019
3242 Clear 1 1022 80 10000 1.5 280 17:38 04.12.2019
3243 Clear 2 1022 80 10000 1.5 280 17:18 04.12.2019
3244 Clouds 3 1022 75 10000 1 250 16:40 04.12.2019
3245 Clouds 3 1022 75 10000 1 250 16:40 04.12.2019
3246 Clouds 3 1022 75 10000 2.6 250 16:20 04.12.2019
3247 Clouds 3 1022 75 10000 2.6 250 15:57 04.12.2019
3248 Clouds 3 1022 65 10000 3.6 250 15:39 04.12.2019
3249 Clouds 4 1022 70 10000 4.6 240 15:20 04.12.2019
3250 Clouds 4 1022 70 10000 4.6 240 14:59 04.12.2019
3251 Clouds 4 1022 70 10000 4.6 250 14:40 04.12.2019
3252 Clouds 5 1022 70 10000 4.1 240 14:21 04.12.2019
3253 Clouds 5 1022 70 10000 4.1 240 13:55 04.12.2019
3254 Clouds 5 1022 70 10000 3.6 240 13:36 04.12.2019
3255 Clear 5 1023 70 10000 3.6 250 13:18 04.12.2019
3256 Clear 5 1023 75 10000 3.6 250 12:41 04.12.2019
3257 Clear 5 1023 75 10000 3.6 250 12:41 04.12.2019
3258 Clear 5 1023 75 10000 3.6 240 12:23 04.12.2019
3259 Clear 5 1023 75 10000 3.6 240 11:44 04.12.2019
3260 Clear 4 1023 75 10000 3.6 240 11:25 04.12.2019
3261 Clear 3 1023 80 10000 3.6 250 10:58 04.12.2019
3262 Clear 3 1023 80 10000 3.6 230 10:40 04.12.2019
3263 Clear 2 1023 80 10000 3.1 230 10:21 04.12.2019
3264 Clear 2 1023 81 10000 2.6 230 09:44 04.12.2019
3265 -273 0 0 0 0 0 09:24 04.12.2019
3266 Clear 2 1023 81 10000 2.6 230 09:24 04.12.2019
3267 Clear 2 1023 86 10000 3.6 230 08:54 04.12.2019
3268 Clear 2 1023 81 10000 3.1 230 08:36 04.12.2019
3269 Clear 1 1023 88 10000 3.1 230 08:18 04.12.2019
3270 Clear 2 1023 86 10000 3.1 230 07:41 04.12.2019
3271 Clear 1 1023 86 10000 3.6 230 07:22 04.12.2019
3272 Clear 2 1023 86 10000 3.6 230 06:33 04.12.2019
3273 Clear 2 1022 93 0 2.57 219 05:47 04.12.2019
3274 Clear 2 1021 10 0 3.12 214 04:43 04.12.2019
3275 Clear 2 1025 93 0 3.12 214 03:53 04.12.2019
3276 Clouds 3 1025 93 0 3.62 224 02:19 04.12.2019
3277 Clouds 4 1026 92 0 3.72 223 00:50 04.12.2019
3278 Clouds 4 1028 88 0 3.72 223 00:23 04.12.2019
3279 Clouds 4 1025 97 0 3.72 223 23:56 03.12.2019
3280 Clouds 4 1024 93 0 3.72 223 23:37 03.12.2019
3281 Clouds 4 1025 86 10000 4.1 250 23:18 03.12.2019
3282 Clouds 4 1025 86 10000 4.1 250 23:18 03.12.2019
3283 Clouds 4 1025 86 10000 4.1 250 22:40 03.12.2019
3284 Clouds 4 1025 86 10000 4.1 250 22:40 03.12.2019
3285 Clouds 5 1025 86 10000 4.1 250 22:19 03.12.2019
3286 Clouds 5 1025 86 10000 4.1 250 21:58 03.12.2019
3287 Clouds 5 1025 86 10000 4.1 240 21:37 03.12.2019
3288 Clouds 5 1025 81 10000 4.1 240 21:19 03.12.2019
3289 Clouds 5 1025 81 10000 4.1 240 20:57 03.12.2019
3290 Clouds 5 1025 81 10000 4.1 240 20:38 03.12.2019
3291 Clouds 5 1025 86 10000 3.6 240 20:18 03.12.2019
3292 Clouds 5 1025 86 10000 3.6 240 19:54 03.12.2019
3293 Clouds 5 1025 87 10000 4.6 240 19:36 03.12.2019
3294 Clouds 5 1025 87 10000 4.6 240 19:18 03.12.2019
3295 Clouds 5 1025 87 10000 4.6 240 18:55 03.12.2019
3296 Clouds 5 1025 87 10000 4.1 230 18:37 03.12.2019
3297 Clouds 5 1025 87 10000 3.6 220 18:19 03.12.2019
3298 Clouds 5 1026 87 10000 3.1 230 17:40 03.12.2019
3299 Drizzle 5 1026 87 10000 3.6 240 17:19 03.12.2019
3300 Drizzle 5 1026 87 10000 3.6 240 16:59 03.12.2019
3301 Drizzle 5 1026 93 10000 3.1 230 16:40 03.12.2019
3302 Drizzle 5 1026 93 9000 3.6 240 16:21 03.12.2019
3303 Drizzle 5 1026 93 9000 3.6 240 15:59 03.12.2019
3304 Drizzle 5 1026 93 3300 3.6 260 15:40 03.12.2019
3305 Clouds 5 1026 87 10000 4.1 250 15:20 03.12.2019
3306 Clouds 5 1026 87 10000 4.1 250 15:20 03.12.2019
3307 Clouds 5 1026 87 10000 4.1 250 14:58 03.12.2019
3308 Clouds 5 1026 87 10000 4.1 260 14:40 03.12.2019
3309 Clouds 6 1026 87 10000 5.1 260 14:19 03.12.2019
3310 Clouds 6 1026 87 10000 4.6 260 13:39 03.12.2019
3311 Clouds 6 1026 87 10000 4.6 260 13:39 03.12.2019
3312 Clouds 6 1026 93 10000 4.6 260 13:20 03.12.2019
3313 Clouds 6 1026 93 10000 4.6 260 13:20 03.12.2019
3314 Clouds 6 1026 93 10000 4.6 260 12:59 03.12.2019
3315 Clouds 6 1026 87 9000 5.1 260 12:38 03.12.2019
3316 Clouds 6 1026 87 9000 5.1 260 12:38 03.12.2019
3317 Clouds 6 1026 87 9000 5.1 260 12:18 03.12.2019
3318 Clouds 5 1026 87 9000 5.1 260 11:58 03.12.2019
3319 Clouds 5 1027 93 8000 4.1 250 11:38 03.12.2019
3320 Clouds 5 1027 100 8000 3.6 250 11:20 03.12.2019
3321 Clouds 5 1027 100 8000 3.6 250 10:56 03.12.2019
3322 Clouds 5 1027 93 7000 3.1 260 10:38 03.12.2019
3323 Mist 5 1027 93 5000 3.1 250 10:19 03.12.2019
3324 Mist 4 1027 93 4600 3.1 250 09:45 03.12.2019
3325 Mist 4 1027 93 4600 3.1 250 09:25 03.12.2019
3326 Mist 4 1027 100 3300 3.1 250 08:58 03.12.2019
3327 Mist 4 1027 93 1100 2.1 250 08:39 03.12.2019
3328 Mist 4 1026 93 1600 2.6 270 08:21 03.12.2019
3329 Mist 4 1026 93 1200 2.6 270 07:52 03.12.2019
3330 Mist 4 1026 93 1200 2.6 270 07:29 03.12.2019
3331 Mist 4 1026 93 2200 2.1 290 06:56 03.12.2019
3332 Clouds 4 1028 94 0 2.85 236 06:20 03.12.2019
3333 Clouds 4 1025 96 0 2.85 236 05:55 03.12.2019
3334 Rain 3 1025 96 0 2.82 234 03:44 03.12.2019
3335 Rain 3 1028 93 0 2.82 234 03:23 03.12.2019
3336 Rain 3 1025 96 0 2.82 234 02:57 03.12.2019
3337 Rain 3 1027 94 0 2.82 234 02:39 03.12.2019
3338 Rain 3 1028 93 0 3.31 246 02:21 03.12.2019
3339 Rain 3 1027 93 0 3.31 246 01:40 03.12.2019
3340 Rain 3 1027 93 0 3.36 242 01:20 03.12.2019
3341 Rain 3 1027 93 0 3.36 242 00:42 03.12.2019
3342 Rain 3 1024 96 0 3.36 242 00:23 03.12.2019
3343 Rain 3 1024 96 0 3.36 242 23:44 02.12.2019
3344 Clouds 3 1024 86 10000 3.6 280 23:22 02.12.2019
3345 Clouds 3 1024 86 10000 3.6 280 22:59 02.12.2019
3346 Clouds 3 1024 86 10000 3.6 280 22:39 02.12.2019
3347 Clouds 3 1024 86 10000 3.6 280 22:21 02.12.2019
3348 Clouds 4 1024 86 10000 3.6 280 21:57 02.12.2019
3349 Rain 3 1024 93 10000 3.1 280 21:36 02.12.2019
3350 Rain 3 1024 86 10000 3.6 280 21:18 02.12.2019
3351 Rain 3 1024 86 10000 3.6 280 20:55 02.12.2019
3352 Rain 3 1024 93 10000 3.6 290 20:37 02.12.2019
3353 Rain 3 1024 93 10000 3.6 290 20:18 02.12.2019
3354 Clouds 3 1023 93 10000 3.6 280 19:41 02.12.2019
3355 Rain 3 1023 86 10000 3.6 290 19:21 02.12.2019
3356 Rain 4 1023 86 10000 3.6 290 18:56 02.12.2019
3357 Clouds 4 1023 86 10000 5.7 290 18:37 02.12.2019
3358 Rain 4 1022 86 10000 5.1 280 18:18 02.12.2019
3359 Clouds 4 1022 86 10000 4.1 280 17:41 02.12.2019
3360 Clouds 3 1022 86 10000 4.6 280 17:21 02.12.2019
3361 Clouds 3 1022 86 10000 4.6 280 16:59 02.12.2019
3362 Clouds 4 1022 80 10000 4.6 280 16:39 02.12.2019
3363 Clouds 4 1022 86 10000 4.1 280 16:19 02.12.2019
3364 Clouds 4 1022 86 10000 4.1 280 15:57 02.12.2019
3365 Clouds 4 1021 86 10000 3.6 280 15:39 02.12.2019
3366 Clouds 4 1021 86 10000 4.6 280 15:21 02.12.2019
3367 Clouds 3 1021 86 10000 4.6 280 14:56 02.12.2019
3368 Clouds 3 1021 86 10000 4.6 280 14:56 02.12.2019
3369 Clouds 3 1021 86 10000 5.1 280 14:37 02.12.2019
3370 Clouds 3 1021 86 10000 5.1 280 14:37 02.12.2019
3371 Rain 4 1021 86 10000 5.1 270 14:19 02.12.2019
3372 Rain 4 1021 86 10000 5.1 270 13:56 02.12.2019
3373 Clouds 4 1021 86 10000 5.1 260 13:38 02.12.2019
3374 Clouds 4 1021 80 9000 4.1 270 13:19 02.12.2019
3375 Clouds 4 1021 80 9000 4.1 270 12:54 02.12.2019
3376 Clouds 4 1021 80 9000 4.1 270 12:54 02.12.2019
3377 Clouds 4 1021 80 10000 4.6 270 12:36 02.12.2019
3378 Clouds 4 1021 86 10000 5.1 260 12:18 02.12.2019
3379 Clouds 3 1021 86 10000 4.1 270 11:38 02.12.2019
3380 Clouds 3 1022 86 10000 3.6 270 11:20 02.12.2019
3381 Clouds 3 1022 86 10000 3.6 270 11:20 02.12.2019
3382 Clouds 3 1022 86 10000 3.6 270 10:58 02.12.2019
3383 Clouds 3 1021 93 10000 3.6 280 10:40 02.12.2019
3384 Clouds 2 1021 86 10000 3.6 270 10:21 02.12.2019
3385 Clouds 2 1021 86 10000 3.6 270 09:56 02.12.2019
3386 Clouds 1 1021 93 10000 3.1 270 09:38 02.12.2019
3387 Clouds 1 1020 93 10000 3.6 270 09:18 02.12.2019
3388 Clouds 1 1020 93 10000 3.6 270 08:55 02.12.2019
3389 Clouds 1 1020 87 8000 3.1 270 08:37 02.12.2019
3390 Clouds 1 1020 88 8000 3.6 280 08:18 02.12.2019
3391 Clouds 1 1020 93 6000 3.6 280 07:39 02.12.2019
3392 Mist 1 1020 100 4000 4.6 280 07:20 02.12.2019
3393 Mist 1 1020 100 4300 4.1 270 06:42 02.12.2019
3394 Clouds 0 1022 95 0 3.75 236 06:20 02.12.2019
3395 Clouds 0 1022 94 0 2.67 241 05:19 02.12.2019
3396 Clouds 0 1022 95 0 2.67 241 04:19 02.12.2019
3397 Clouds 0 1022 94 0 2.67 241 02:51 02.12.2019
3398 Clouds 0 1019 95 0 1.68 263 01:50 02.12.2019
3399 Clouds 0 1019 95 0 1.84 265 01:21 02.12.2019
3400 Clouds 0 1017 82 0 0.45 4 00:41 02.12.2019
3401 Clouds 0 1019 94 0 1.84 265 00:22 02.12.2019
3402 Clouds 0 1019 97 0 1.84 265 23:43 01.12.2019
3403 Clouds 0 1022 95 0 0.39 213 23:22 01.12.2019
3404 Clouds 0 1019 97 0 0.39 213 22:57 01.12.2019
3405 Clouds 0 1022 95 0 0.39 213 22:38 01.12.2019
3406 Clouds 0 1022 94 0 0.39 213 22:19 01.12.2019
3407 Clouds 0 1018 86 0 0.39 213 21:56 01.12.2019
3408 Clouds 0 1019 92 0 0.39 213 21:38 01.12.2019
3409 Clouds 0 1022 94 0 0.39 213 21:20 01.12.2019
3410 Clouds 0 1022 94 0 0.39 213 20:58 01.12.2019
3411 Clouds 0 1022 94 0 0.39 213 20:39 01.12.2019
3412 Mist 0 1020 93 1700 1 130 20:21 01.12.2019
3413 Mist 0 1020 93 1700 1 130 19:58 01.12.2019
3414 Mist 0 1020 93 1700 1 130 19:39 01.12.2019
3415 Mist 0 1020 93 1700 1 130 19:20 01.12.2019
3416 Mist 0 1020 93 1700 1 130 18:56 01.12.2019
3417 Mist 0 1020 93 2000 1 100 18:38 01.12.2019
3418 Mist 0 1020 93 2000 1 100 18:38 01.12.2019
3419 Mist 0 1021 93 3800 1 0 18:19 01.12.2019
3420 Mist 0 1021 93 3800 1 0 17:56 01.12.2019
3421 Clouds 0 1021 93 6000 1.5 0 17:38 01.12.2019
3422 Clouds 0 1021 93 5000 1.67 65 17:20 01.12.2019
3423 Clouds 1 1021 93 5000 1.67 65 16:54 01.12.2019
3424 Clouds 1 1021 93 6000 1 110 16:36 01.12.2019
3425 Clouds 1 1021 100 9000 1.67 65 16:18 01.12.2019
3426 Clouds 1 1021 100 9000 1.67 65 15:44 01.12.2019
3427 Clouds 1 1021 100 9000 1.67 65 15:26 01.12.2019
3428 Clouds 1 1021 100 9000 1.67 65 15:26 01.12.2019
3429 Clouds 1 1021 100 9000 1.67 65 15:26 01.12.2019
3430 Clouds 1 1021 100 9000 1.67 65 15:26 01.12.2019
3431 Clouds 1 1021 100 9000 1.67 65 15:26 01.12.2019
3432 Clouds 1 1021 93 7000 1.67 65 14:39 01.12.2019
3433 Mist 1 1021 93 5000 1 0 14:19 01.12.2019
3434 Mist 1 1022 70 2500 1.53 80 13:43 01.12.2019
3435 Mist 1 1022 70 2500 1.53 80 13:25 01.12.2019
3436 Mist 1 1022 71 2500 1.43 86 13:25 01.12.2019
3437 Mist 1 1022 71 2500 1.43 86 13:25 01.12.2019
3438 Mist 1 1022 71 2500 1.43 86 13:25 01.12.2019
3439 Fog 1 1022 71 800 1 0 12:59 01.12.2019
3440 Fog 1 1022 71 300 1 0 12:41 01.12.2019
3441 Fog 0 1022 71 300 1.5 0 11:55 01.12.2019
3442 Fog 0 1022 71 200 1.5 120 11:37 01.12.2019
3443 Fog 0 1022 92 300 1 120 11:18 01.12.2019
3444 Fog 0 1022 92 300 1 120 11:18 01.12.2019
3445 Clouds -1 1022 92 6000 1 100 10:43 01.12.2019
3446 Clouds -1 1022 92 8000 0.5 100 10:20 01.12.2019
3447 Clouds -2 1022 92 8000 1 100 09:42 01.12.2019
3448 Clouds -2 1022 92 8000 1 100 09:23 01.12.2019
3449 Clouds -2 1022 92 8000 1 90 08:57 01.12.2019
3450 Clouds -2 1023 94 0 0.74 139 08:38 01.12.2019
3451 Clouds -3 1020 95 0 1.22 129 08:19 01.12.2019
3452 Clouds -3 1020 95 0 1.22 129 08:19 01.12.2019
3453 Clouds -2 1019 96 0 1.22 129 07:48 01.12.2019
3454 Clouds -2 1019 10 0 1.22 129 07:28 01.12.2019
3455 Clouds -2 1022 94 0 1.22 129 06:52 01.12.2019
3456 Clouds -2 1023 94 0 1.22 129 06:19 01.12.2019
3457 Clouds -2 1020 99 0 1.22 129 05:42 01.12.2019
3458 Clear -2 1024 94 0 0.45 260 04:29 01.12.2019
3459 Clear -2 1021 96 0 0.32 175 02:46 01.12.2019
3460 Clear -2 1021 96 0 0.32 175 02:28 01.12.2019
3461 Clear -1 1020 10 0 1.5 225 01:55 01.12.2019
3462 Clear -1 1021 96 0 1.5 225 01:37 01.12.2019
3463 Clear -1 1025 93 0 1.45 220 00:50 01.12.2019
3464 Clear -1 1022 95 0 0.45 36 00:28 01.12.2019
3465 Clear -1 1021 99 0 1.45 220 23:59 30.11.2019
3466 Clear -1 1024 93 0 1.45 220 23:40 30.11.2019
3467 Clear -1 1025 93 0 1.39 220 23:21 30.11.2019
3468 Clear -1 1021 95 0 1.39 220 22:47 30.11.2019
3469 Clear -1 1021 99 0 1.39 220 22:29 30.11.2019
3470 Clear 0 1021 99 0 1.39 220 21:55 30.11.2019
3471 Clear 0 1021 95 0 1.39 220 21:37 30.11.2019
3472 Clear 0 1024 92 0 1.39 220 21:19 30.11.2019
3473 Clear 0 1021 95 0 1.39 220 20:55 30.11.2019
3474 Clear 0 1021 95 0 1.39 220 20:36 30.11.2019
3475 Clouds 0 1022 93 0 2.4 222 20:18 30.11.2019
3476 Clouds 1 1021 95 0 2.4 222 19:54 30.11.2019
3477 Clouds 1 1021 94 0 2.4 222 19:36 30.11.2019
3478 Clouds 1 1023 89 10000 2.6 270 19:18 30.11.2019
3479 Clouds 1 1023 89 10000 2.6 270 18:54 30.11.2019
3480 Clouds 1 1023 89 10000 2.6 270 18:36 30.11.2019
3481 Clouds 2 1023 89 10000 2.6 270 18:18 30.11.2019
3482 Clouds 2 1023 89 10000 2.6 270 17:55 30.11.2019
3483 Clouds 2 1023 86 10000 2.6 260 17:36 30.11.2019
3484 Clouds 3 1023 86 10000 2.6 250 17:18 30.11.2019
3485 Clouds 4 1023 80 10000 3.1 260 16:41 30.11.2019
3486 Clouds 4 1023 80 10000 3.1 260 16:41 30.11.2019
3487 Clouds 4 1022 80 10000 4.1 260 16:22 30.11.2019
3488 Clouds 4 1022 80 10000 4.1 260 15:55 30.11.2019
3489 Clouds 5 1022 80 10000 3.6 280 15:36 30.11.2019
3490 Clouds 5 1022 80 10000 4.1 290 15:18 30.11.2019
3491 Clouds 5 1022 80 10000 4.1 290 14:55 30.11.2019
3492 Clouds 5 1022 75 10000 4.1 280 14:37 30.11.2019
3493 Clouds 5 1022 75 10000 4.1 280 14:37 30.11.2019
3494 Clouds 5 1022 75 10000 4.6 280 14:18 30.11.2019
3495 Clouds 5 1022 75 10000 5.1 270 13:45 30.11.2019
3496 Clouds 5 1022 75 10000 5.1 270 13:25 30.11.2019
3497 Clouds 5 1022 75 10000 4.1 280 12:58 30.11.2019
3498 Clouds 5 1022 80 10000 5.1 270 12:40 30.11.2019
3499 Clouds 5 1022 80 10000 4.6 270 12:21 30.11.2019
3500 Clouds 5 1022 80 10000 4.6 270 11:42 30.11.2019
3501 Clouds 4 1022 86 10000 4.1 270 11:19 30.11.2019
3502 Clouds 4 1022 86 10000 4.1 270 10:56 30.11.2019
3503 Clouds 3 1021 86 10000 3.6 270 10:37 30.11.2019
3504 Clouds 3 1021 93 10000 2.1 270 10:19 30.11.2019
3505 Clouds 3 1021 85 10000 3.1 260 09:46 30.11.2019
3506 Clouds 3 1021 85 10000 3.1 260 09:24 30.11.2019
3507 Clouds 2 1019 92 0 0.45 270 08:44 30.11.2019
3508 Rain 2 1022 92 0 3.62 247 08:22 30.11.2019
3509 Rain 2 1018 98 0 3.62 247 07:58 30.11.2019
3510 Rain 2 1022 92 0 3.62 247 07:39 30.11.2019
3511 Rain 3 1019 92 0 0.45 270 06:56 30.11.2019
3512 Rain 3 1021 91 0 3.62 247 06:29 30.11.2019
3513 Rain 2 1021 91 0 3.62 247 05:52 30.11.2019
3514 Clouds 2 1018 94 0 3.11 243 03:53 30.11.2019
3515 Clouds 3 1017 94 0 0.89 270 02:47 30.11.2019
3516 Rain 3 1019 91 0 3.25 246 02:22 30.11.2019
3517 Rain 3 1014 98 0 3.25 246 01:25 30.11.2019
3518 Rain 3 1018 90 0 2.48 256 00:51 30.11.2019
3519 Rain 4 1016 95 0 0.45 287 00:32 30.11.2019
3520 Rain 4 1017 89 0 2.48 256 23:59 29.11.2019
3521 Rain 3 1013 96 0 2.48 256 23:41 29.11.2019
3522 Clouds 3 1017 89 0 2.25 251 23:22 29.11.2019
3523 Clouds 3 1015 83 10000 0.5 310 22:46 29.11.2019
3524 Clouds 3 1015 83 10000 0.5 310 22:26 29.11.2019
3525 Clouds 3 1014 83 10000 1.5 280 21:45 29.11.2019
3526 Clouds 3 1014 83 10000 1.5 280 21:25 29.11.2019
3527 Clouds 2 1014 86 10000 2.6 270 20:59 29.11.2019
3528 Clouds 3 1013 83 10000 2.6 270 20:39 29.11.2019
3529 Clouds 3 1013 79 10000 2.6 280 20:20 29.11.2019
3530 Clouds 3 1013 79 10000 2.6 280 19:58 29.11.2019
3531 Clouds 3 1013 93 10000 2.6 290 19:39 29.11.2019
3532 Clouds 3 1013 93 10000 2.6 290 19:39 29.11.2019
3533 Clouds 3 1012 79 10000 3.1 280 19:20 29.11.2019
3534 Clouds 3 1012 79 10000 3.1 280 18:58 29.11.2019
3535 Clouds 3 1012 86 10000 3.6 280 18:39 29.11.2019
3536 Clouds 3 1011 86 10000 3.6 290 18:20 29.11.2019
3537 Clouds 3 1010 93 10000 4.1 290 17:44 29.11.2019
3538 Clouds 4 1010 93 10000 4.1 290 17:25 29.11.2019
3539 Rain 4 1010 86 10000 4.1 290 16:58 29.11.2019
3540 Clouds 5 1009 86 10000 4.1 290 16:39 29.11.2019
3541 Clouds 5 1008 86 10000 4.6 290 16:19 29.11.2019
3542 Clouds 5 1007 80 10000 4.6 290 15:41 29.11.2019
3543 Clouds 5 1007 80 10000 4.6 290 15:23 29.11.2019
3544 Clouds 5 1007 80 10000 4.6 290 15:23 29.11.2019
3545 Rain 5 1007 86 10000 5.1 290 14:57 29.11.2019
3546 Clouds 6 1007 80 10000 8.2 300 14:38 29.11.2019
3547 Clouds 6 1006 75 10000 6.2 290 14:20 29.11.2019
3548 Clouds 6 1006 75 10000 6.2 290 13:55 29.11.2019
3549 Clouds 6 1005 75 10000 7.7 290 13:36 29.11.2019
3550 Clouds 6 1005 75 10000 5.7 290 13:18 29.11.2019
3551 Rain 6 1005 75 10000 7.7 290 12:40 29.11.2019
3552 Clouds 6 1004 70 10000 8.2 290 12:22 29.11.2019
3553 Clouds 6 1004 70 10000 8.2 290 11:55 29.11.2019
3554 Clouds 6 1004 75 10000 6.7 280 11:36 29.11.2019
3555 Clouds 6 1003 70 10000 7.7 280 11:18 29.11.2019
3556 Clouds 6 1003 70 10000 7.7 280 10:56 29.11.2019
3557 Clouds 5 1003 75 10000 7.2 280 10:38 29.11.2019
3558 Clouds 5 1002 75 10000 6.7 270 10:19 29.11.2019
3559 Clouds 5 1002 75 10000 6.7 270 09:56 29.11.2019
3560 Clouds 4 1002 75 10000 5.7 280 09:37 29.11.2019
3561 Rain 4 1001 75 10000 6.2 270 09:19 29.11.2019
3562 Clouds 4 1001 75 10000 6.2 270 08:40 29.11.2019
3563 Clouds 4 1000 80 10000 5.7 260 08:22 29.11.2019
3564 Clouds 4 1000 80 10000 5.7 260 07:58 29.11.2019
3565 Clouds 4 1000 80 10000 6.2 270 07:40 29.11.2019
3566 Clouds 4 999 75 10000 6.7 270 07:22 29.11.2019
3567 Clouds 4 999 75 10000 6.7 270 06:43 29.11.2019
3568 Clouds 5 998 75 10000 5.7 270 05:48 29.11.2019
3569 Clouds 5 998 75 10000 5.7 270 05:25 29.11.2019
3570 Clouds 6 997 70 10000 5.7 280 04:35 29.11.2019
3571 Rain 6 999 88 0 7.73 286 03:23 29.11.2019
3572 Clouds 7 995 87 10000 5.7 280 02:32 29.11.2019
3573 Clouds 7 995 87 10000 5.7 280 01:57 29.11.2019
3574 Clouds 8 995 87 10000 5.7 280 01:27 29.11.2019
3575 Clouds 8 994 87 10000 6.2 280 00:50 29.11.2019
3576 Rain 8 998 10 0 6.39 277 00:22 29.11.2019
3577 Rain 8 993 94 0 0.89 270 23:57 28.11.2019
3578 Rain 8 993 94 0 0.89 270 23:57 28.11.2019
3579 Rain 8 995 93 0 6.39 277 23:39 28.11.2019
3580 Rain 8 992 87 10000 6.7 250 23:20 28.11.2019
3581 Rain 9 992 87 10000 6.7 250 22:54 28.11.2019
3582 Rain 9 992 87 10000 6.7 250 22:36 28.11.2019
3583 Rain 9 992 87 10000 6.7 250 22:18 28.11.2019
3584 Clouds 9 992 87 10000 6.7 260 21:42 28.11.2019
3585 Rain 8 991 87 10000 6.7 250 21:21 28.11.2019
3586 Rain 8 991 87 10000 6.7 250 20:58 28.11.2019
3587 Rain 8 991 87 6000 6.2 250 20:40 28.11.2019
3588 Rain 8 990 87 10000 6.7 250 20:21 28.11.2019
3589 Rain 8 990 87 10000 6.7 250 19:57 28.11.2019
3590 Rain 8 990 87 8000 7.2 240 19:37 28.11.2019
3591 Clouds 9 990 87 10000 7.7 250 19:19 28.11.2019
3592 Clouds 9 990 87 10000 7.7 250 18:57 28.11.2019
3593 Clouds 9 990 81 10000 7.7 240 18:38 28.11.2019
3594 Clouds 8 989 87 10000 7.2 240 18:18 28.11.2019
3595 Clouds 9 989 81 10000 7.2 240 17:43 28.11.2019
3596 Clouds 8 989 81 10000 7.2 240 17:25 28.11.2019
3597 Rain 9 989 81 10000 8.7 240 16:59 28.11.2019
3598 Clouds 9 989 76 10000 6.2 230 16:40 28.11.2019
3599 Rain 9 989 76 10000 8.2 240 16:19 28.11.2019
3600 Rain 9 989 76 10000 8.2 240 15:57 28.11.2019
3601 Clouds 9 988 81 10000 7.2 240 15:38 28.11.2019
3602 Rain 9 988 81 10000 6.7 230 15:19 28.11.2019
3603 Rain 9 988 81 10000 6.7 230 14:57 28.11.2019
3604 Rain 9 988 81 10000 6.7 230 14:57 28.11.2019
3605 Clouds 10 988 71 10000 6.7 220 14:38 28.11.2019
3606 Clouds 10 988 71 10000 6.7 220 14:38 28.11.2019
3607 Clouds 10 988 71 10000 6.7 220 14:19 28.11.2019
3608 Clouds 10 989 76 10000 7.2 220 13:42 28.11.2019
3609 Clouds 10 989 76 10000 7.2 220 13:23 28.11.2019
3610 Clouds 10 989 71 10000 8.2 220 12:56 28.11.2019
3611 Clouds 10 989 71 10000 7.7 230 12:37 28.11.2019
3612 Clouds 11 989 71 10000 8.2 220 12:19 28.11.2019
3613 Clouds 10 989 71 10000 8.2 220 11:54 28.11.2019
3614 Clouds 10 989 71 10000 8.2 210 11:36 28.11.2019
3615 Clouds 10 989 71 10000 8.2 210 11:36 28.11.2019
3616 Clouds 10 989 71 10000 7.2 220 11:18 28.11.2019
3617 Clouds 10 989 71 10000 6.7 210 10:42 28.11.2019
3618 Clouds 10 989 76 10000 6.2 210 10:21 28.11.2019
3619 Clouds 10 989 76 10000 6.2 210 09:56 28.11.2019
3620 Clouds 10 989 76 10000 6.2 210 09:56 28.11.2019
3621 Clouds 10 989 76 10000 6.2 210 09:38 28.11.2019
3622 Clouds 10 989 76 10000 6.2 220 09:18 28.11.2019
3623 Clouds 10 989 76 10000 5.1 220 08:40 28.11.2019
3624 Clouds 10 989 76 10000 5.1 220 08:21 28.11.2019
3625 Clouds 10 989 76 10000 5.1 220 07:56 28.11.2019
3626 Clouds 10 989 76 10000 5.7 220 07:38 28.11.2019
3627 Clouds 10 988 76 10000 6.7 220 07:18 28.11.2019
3628 Clouds 10 987 84 0 0.89 277 06:40 28.11.2019
3629 Clouds 10 988 81 0 3.58 270 05:53 28.11.2019
3630 Clouds 10 988 81 0 3.13 292 05:34 28.11.2019
3631 Rain 10 991 91 0 7.62 218 03:52 28.11.2019
3632 Rain 10 992 89 0 7.62 218 02:32 28.11.2019
3633 Rain 10 988 90 0 5.22 215 01:25 28.11.2019
3634 Rain 10 991 89 0 0.89 188 00:39 28.11.2019
3635 Rain 10 988 85 0 1.79 270 00:18 28.11.2019
3636 Rain 10 991 85 0 5.22 215 23:39 27.11.2019
3637 Clouds 10 990 76 10000 3.1 150 23:20 27.11.2019
3638 Clouds 10 990 76 10000 3.1 150 22:56 27.11.2019
3639 Clouds 10 990 76 10000 3.1 150 22:38 27.11.2019
3640 Clouds 10 990 76 10000 3.1 150 22:18 27.11.2019
3641 Clouds 10 990 76 10000 3.1 150 21:55 27.11.2019
3642 Clouds 10 990 81 10000 3.1 140 21:36 27.11.2019
3643 Clouds 10 990 81 10000 2.6 150 21:18 27.11.2019
3644 Clouds 9 990 81 10000 2.6 150 20:56 27.11.2019
3645 Clouds 9 990 81 10000 2.6 150 20:56 27.11.2019
3646 Clouds 9 991 81 10000 2.1 130 20:37 27.11.2019
3647 Clouds 9 991 76 10000 3.6 150 20:18 27.11.2019
3648 Clouds 9 991 76 10000 3.6 150 19:55 27.11.2019
3649 Clouds 9 991 87 10000 2.6 140 19:37 27.11.2019
3650 Clouds 9 992 87 10000 3.1 120 19:18 27.11.2019
3651 Clouds 8 992 87 10000 3.1 120 18:54 27.11.2019
3652 Clouds 8 992 81 10000 2.6 90 18:36 27.11.2019
3653 Clouds 9 992 81 10000 2.1 130 18:18 27.11.2019
3654 Clouds 9 992 81 10000 2.6 150 17:41 27.11.2019
3655 Clouds 9 992 87 10000 2.1 130 17:23 27.11.2019
3656 Clouds 9 992 87 10000 2.1 130 17:23 27.11.2019
3657 Clouds 9 992 87 10000 2.1 130 17:23 27.11.2019
3658 -273 0 0 0 0 0 17:23 27.11.2019
3659 Clouds 9 992 87 10000 2.1 130 16:58 27.11.2019
3660 Clouds 9 992 87 10000 2.1 130 16:58 27.11.2019
3661 Clouds 9 992 81 10000 3.1 140 16:40 27.11.2019
3662 Clouds 10 992 81 10000 2.6 150 16:21 27.11.2019
3663 Clouds 10 992 81 10000 2.6 150 15:59 27.11.2019
3664 Clouds 10 992 81 10000 2.6 120 15:40 27.11.2019
3665 Clouds 10 993 87 10000 2.6 160 15:21 27.11.2019
3666 Clouds 10 993 87 10000 2.6 160 14:59 27.11.2019
3667 Clouds 10 993 87 10000 1.5 0 14:41 27.11.2019
3668 Drizzle 10 993 87 10000 1.5 0 14:23 27.11.2019
3669 Drizzle 9 993 87 10000 1.5 0 13:58 27.11.2019
3670 Drizzle 9 994 93 10000 2.1 150 13:40 27.11.2019
3671 Drizzle 9 994 87 10000 3.1 170 13:19 27.11.2019
3672 Drizzle 9 994 87 10000 3.1 170 12:59 27.11.2019
3673 Rain 9 994 87 10000 2.6 150 12:40 27.11.2019
3674 Rain 9 994 87 10000 2.6 150 12:40 27.11.2019
3675 Rain 9 994 87 10000 1.5 180 12:20 27.11.2019
3676 Rain 8 994 81 10000 3.1 140 11:54 27.11.2019
3677 Rain 8 994 81 10000 3.1 140 11:36 27.11.2019
3678 Clouds 8 994 81 10000 3.1 130 11:18 27.11.2019
3679 Clouds 8 994 87 10000 1.5 130 10:41 27.11.2019
3680 Clouds 8 994 87 10000 2.6 120 10:23 27.11.2019
3681 Clouds 7 994 87 10000 3.6 110 09:45 27.11.2019
3682 Clouds 7 994 87 10000 3.6 110 09:26 27.11.2019
3683 Clouds 7 994 87 10000 3.6 90 08:59 27.11.2019
3684 Clouds 7 995 93 10000 2.6 90 08:41 27.11.2019
3685 Clouds 7 995 93 10000 3.1 110 08:22 27.11.2019
3686 Clouds 7 995 87 10000 2.1 130 07:47 27.11.2019
3687 Clouds 7 995 87 10000 2.1 130 07:28 27.11.2019
3688 Clouds 7 995 92 0 1.42 185 06:49 27.11.2019
3689 Clouds 7 996 91 0 1.42 185 06:30 27.11.2019
3690 Clouds 7 993 87 0 0.45 225 05:43 27.11.2019
3691 Clouds 7 996 92 0 1.53 160 05:19 27.11.2019
3692 Clouds 7 997 93 0 1.53 160 04:43 27.11.2019
3693 Clouds 7 996 89 0 0.45 225 03:55 27.11.2019
3694 Clouds 7 996 89 0 0.45 270 03:24 27.11.2019
3695 Clouds 8 997 88 0 0.45 292 02:55 27.11.2019
3696 Clouds 8 1000 92 0 1.91 168 01:48 27.11.2019
3697 Clouds 8 998 88 0 0.89 292 00:46 27.11.2019
3698 Clouds 8 1000 91 0 0.45 78 00:27 27.11.2019
3699 Clouds 8 1001 91 0 0.89 86 23:50 26.11.2019
3700 Clouds 8 1001 92 0 2 171 23:29 26.11.2019
3701 Clouds 8 1000 10 0 2.17 169 22:59 26.11.2019
3702 Clouds 8 1003 87 10000 2.6 160 22:39 26.11.2019
3703 Clouds 8 1003 87 10000 2.6 160 22:19 26.11.2019
3704 Clouds 8 1003 87 10000 2.6 160 21:59 26.11.2019
3705 Clouds 8 1003 87 10000 2.6 160 21:38 26.11.2019
3706 Clouds 8 1003 93 10000 2.1 150 21:19 26.11.2019
3707 Clouds 8 1003 93 10000 2.1 150 20:55 26.11.2019
3708 Clouds 8 1003 87 10000 2.6 140 20:37 26.11.2019
3709 Clouds 8 1003 93 10000 2.6 140 20:19 26.11.2019
3710 Clouds 8 1004 87 10000 2.1 140 19:55 26.11.2019
3711 Clouds 8 1004 87 10000 2.1 140 19:37 26.11.2019
3712 Clouds 8 1004 81 10000 2.6 170 19:19 26.11.2019
3713 Clouds 8 1004 87 10000 2.1 140 18:56 26.11.2019
3714 Clouds 8 1004 87 10000 2.1 140 18:38 26.11.2019
3715 Clouds 8 1004 87 10000 2.6 130 18:20 26.11.2019
3716 Clouds 8 1004 87 10000 2.6 130 18:20 26.11.2019
3717 Clouds 8 1004 87 10000 2.1 130 17:56 26.11.2019
3718 Clouds 8 1004 87 10000 2.1 130 17:56 26.11.2019
3719 Clouds 8 1004 87 10000 2.1 130 17:37 26.11.2019
3720 Clouds 8 1004 87 10000 2.1 130 17:19 26.11.2019
3721 Clouds 8 1004 81 10000 2.1 150 16:56 26.11.2019
3722 Clouds 8 1004 81 10000 2.1 150 16:37 26.11.2019
3723 Clouds 8 1004 81 10000 2.1 120 16:18 26.11.2019
3724 Clouds 8 1004 81 10000 2.1 120 15:57 26.11.2019
3725 Clouds 9 1005 81 10000 2.1 140 15:37 26.11.2019
3726 Clouds 9 1005 81 10000 2.1 140 15:19 26.11.2019
3727 Clouds 9 1005 81 10000 2.6 160 14:45 26.11.2019
3728 Clouds 9 1005 81 10000 2.6 160 14:24 26.11.2019
3729 Clouds 8 1005 87 10000 1.5 0 13:45 26.11.2019
3730 Clouds 8 1005 87 10000 2.1 160 13:25 26.11.2019
3731 Clouds 8 1005 87 10000 2.1 160 12:58 26.11.2019
3732 Clouds 8 1006 81 10000 2.6 180 12:38 26.11.2019
3733 Clouds 8 1006 87 10000 2.6 160 12:19 26.11.2019
3734 Clouds 8 1006 87 9000 2.1 160 11:56 26.11.2019
3735 Clouds 8 1006 87 9000 2.1 160 11:38 26.11.2019
3736 Clouds 7 1007 93 9000 2.6 160 11:19 26.11.2019
3737 Clouds 7 1007 86 9000 2.1 150 10:56 26.11.2019
3738 Clouds 7 1007 86 9000 2.1 150 10:38 26.11.2019
3739 Clouds 6 1007 93 9000 2.1 160 10:20 26.11.2019
3740 Clouds 6 1007 93 9000 2.1 150 09:43 26.11.2019
3741 Clouds 6 1007 93 9000 2.1 150 09:25 26.11.2019
3742 Clouds 6 1007 93 7000 1.5 0 08:59 26.11.2019
3743 Clouds 6 1007 93 7000 3.1 150 08:38 26.11.2019
3744 Clouds 5 1007 93 7000 2.1 120 08:20 26.11.2019
3745 Clouds 5 1007 93 7000 2.1 120 07:43 26.11.2019
3746 Clouds 5 1007 93 8000 2.1 160 07:24 26.11.2019
3747 Clouds 5 1007 93 8000 1.5 0 06:54 26.11.2019
3748 Clouds 5 1007 93 8000 2.1 150 06:21 26.11.2019
3749 Clouds 5 1007 93 7000 3.1 140 05:38 26.11.2019
3750 Clouds 4 1006 10 0 1.77 205 03:43 26.11.2019
3751 Clouds 4 1006 95 0 0.89 270 01:55 26.11.2019
3752 Clouds 4 1008 98 0 1.48 212 01:29 26.11.2019
3753 Clouds 4 1007 95 0 0.45 270 00:48 26.11.2019
3754 Clouds 4 1010 95 0 1.32 196 00:23 26.11.2019
3755 Clouds 4 1011 95 0 1.32 196 23:39 25.11.2019
3756 Clouds 4 1010 95 0 0.44 176 23:20 25.11.2019
3757 Clouds 4 1008 97 0 0.45 270 22:58 25.11.2019
3758 Clouds 4 1010 93 6000 2.6 150 22:37 25.11.2019
3759 Clouds 4 1010 93 6000 2.6 150 22:18 25.11.2019
3760 Clouds 4 1010 93 6000 2.6 150 21:58 25.11.2019
3761 Clouds 4 1010 93 6000 2.6 150 21:39 25.11.2019
3762 Clouds 4 1010 93 7000 2.1 150 21:19 25.11.2019
3763 Clouds 4 1010 93 7000 2.1 150 20:56 25.11.2019
3764 Clouds 4 1010 93 7000 1.5 0 20:37 25.11.2019
3765 Mist 4 1010 93 5000 1.5 150 20:19 25.11.2019
3766 Mist 4 1010 93 5000 2.6 120 19:55 25.11.2019
3767 Mist 4 1010 93 5000 2.6 120 19:37 25.11.2019
3768 Mist 4 1011 100 5000 3.1 140 19:18 25.11.2019
3769 Mist 4 1010 93 4000 2.6 110 18:56 25.11.2019
3770 Mist 4 1010 93 4000 2.6 110 18:37 25.11.2019
3771 Mist 4 1010 100 3000 2.1 120 18:18 25.11.2019
3772 Mist 4 1010 100 2500 2.1 170 17:56 25.11.2019
3773 Mist 4 1010 100 2500 2.1 170 17:37 25.11.2019
3774 Mist 4 1010 100 2000 2.1 160 17:18 25.11.2019
3775 Mist 4 1010 100 2000 2.6 140 16:55 25.11.2019
3776 Mist 4 1010 100 2000 2.6 140 16:37 25.11.2019
3777 Mist 4 1010 93 1400 2.1 150 16:18 25.11.2019
3778 Mist 4 1010 93 1600 2.1 160 15:41 25.11.2019
3779 Mist 4 1010 93 2300 2.1 180 15:21 25.11.2019
3780 Mist 4 1010 93 2300 2.1 180 14:57 25.11.2019
3781 Mist 4 1010 93 2600 2.1 130 14:39 25.11.2019
3782 Mist 4 1010 93 2600 2.1 150 14:20 25.11.2019
3783 Mist 4 1011 93 4300 2.1 150 13:40 25.11.2019
3784 Mist 4 1011 93 5000 2.6 110 13:21 25.11.2019
3785 Mist 4 1011 93 5000 2.6 110 12:59 25.11.2019
3786 Mist 4 1011 93 5000 2.1 120 12:40 25.11.2019
3787 Clouds 4 1011 93 6000 3.6 100 12:21 25.11.2019
3788 Clouds 4 1011 93 6000 3.6 100 11:58 25.11.2019
3789 Mist 4 1011 93 5000 4.1 100 11:39 25.11.2019
3790 Mist 4 1011 93 5000 4.1 110 11:20 25.11.2019
3791 Mist 4 1011 93 4200 4.1 110 10:46 25.11.2019
3792 Mist 4 1011 93 4200 4.1 110 10:27 25.11.2019
3793 Mist 3 1011 100 2800 3.6 110 09:59 25.11.2019
3794 Mist 3 1011 100 3200 5.1 100 09:40 25.11.2019
3795 Mist 3 1011 93 1800 4.1 110 09:22 25.11.2019
3796 Mist 3 1011 93 2400 4.1 110 08:41 25.11.2019
3797 Mist 3 1011 93 2700 3.1 110 08:22 25.11.2019
3798 Mist 3 1010 93 1500 3.1 110 07:45 25.11.2019
3799 Mist 3 1010 93 1800 2.1 100 07:24 25.11.2019
3800 Clouds 3 1011 95 0 0.16 205 06:51 25.11.2019
3801 Clouds 3 1011 95 0 0.16 205 06:22 25.11.2019
3802 Clouds 3 1011 95 0 0.16 205 05:49 25.11.2019
3803 Clouds 3 1007 10 0 0.16 205 05:28 25.11.2019
3804 Clouds 4 1011 95 0 1.19 108 03:49 25.11.2019
3805 Clouds 4 1013 97 0 1.19 108 02:32 25.11.2019
3806 Clouds 4 1011 95 0 0.1 260 01:42 25.11.2019
3807 Clouds 4 1009 98 0 0.23 208 01:23 25.11.2019
3808 Clouds 4 1009 98 0 0.23 208 00:37 25.11.2019
3809 Clouds 4 1008 98 0 0.23 208 00:18 25.11.2019
3810 Clouds 4 1008 98 0 0.23 208 00:18 25.11.2019
3811 Clouds 4 1008 98 0 0.23 208 23:43 24.11.2019
3812 Clouds 4 1011 95 0 0.45 81 23:20 24.11.2019
3813 Clouds 4 1008 98 0 0.45 81 22:56 24.11.2019
3814 Clouds 4 1008 98 0 0.45 81 22:37 24.11.2019
3815 Clouds 4 1011 95 0 0.45 81 22:19 24.11.2019
3816 Clouds 4 1007 10 0 0.45 81 21:56 24.11.2019
3817 Clouds 4 1008 97 0 0.45 81 21:36 24.11.2019
3818 Clouds 4 1008 98 0 0.45 81 21:18 24.11.2019
3819 Clouds 4 1007 10 0 0.45 81 20:55 24.11.2019
3820 Clouds 4 1008 98 0 0.45 81 20:37 24.11.2019
3821 Clouds 4 1010 93 6000 4.1 100 20:18 24.11.2019
3822 Clouds 5 1010 93 6000 4.1 100 19:54 24.11.2019
3823 Clouds 5 1010 93 6000 4.1 100 19:36 24.11.2019
3824 Clouds 5 1010 93 6000 4.1 100 19:18 24.11.2019
3825 Clouds 5 1010 93 6000 4.1 110 18:54 24.11.2019
3826 Clouds 4 1010 93 6000 4.1 110 18:36 24.11.2019
3827 Clouds 4 1010 93 6000 4.1 110 18:18 24.11.2019
3828 Clouds 4 1010 93 6000 4.6 110 17:54 24.11.2019
3829 Clouds 4 1010 93 6000 4.6 110 17:54 24.11.2019
3830 Clouds 4 1010 93 6000 4.6 110 17:36 24.11.2019
3831 Clouds 4 1010 93 7000 2.6 110 17:18 24.11.2019
3832 Clouds 5 1009 93 6000 3.1 100 16:41 24.11.2019
3833 Clouds 5 1009 93 6000 3.6 100 16:23 24.11.2019
3834 Clouds 5 1009 93 6000 3.6 100 15:59 24.11.2019
3835 Clouds 5 1009 93 6000 4.1 120 15:41 24.11.2019
3836 Clouds 5 1009 93 6000 4.1 120 15:22 24.11.2019
3837 Clouds 5 1009 93 6000 4.1 120 14:55 24.11.2019
3838 Clouds 5 1009 93 6000 4.6 110 14:37 24.11.2019
3839 Clouds 5 1009 93 5000 4.1 100 14:18 24.11.2019
3840 Clouds 5 1009 93 5000 4.1 110 13:39 24.11.2019
3841 Mist 5 1009 93 5000 4.6 110 13:20 24.11.2019
3842 Mist 5 1009 93 5000 4.6 110 12:57 24.11.2019
3843 Clouds 5 1009 86 5000 5.1 110 12:39 24.11.2019
3844 Mist 5 1009 86 4800 4.1 110 12:18 24.11.2019
3845 Mist 5 1009 86 4900 5.1 110 11:55 24.11.2019
3846 Mist 5 1009 86 4900 5.1 110 11:36 24.11.2019
3847 Mist 4 1009 86 4900 5.1 110 11:18 24.11.2019
3848 Mist 4 1009 86 4900 5.1 110 10:45 24.11.2019
3849 Mist 4 1009 86 4900 5.1 110 10:27 24.11.2019
3850 Mist 4 1009 93 4400 5.1 110 09:55 24.11.2019
3851 Mist 4 1008 93 4400 5.1 100 09:36 24.11.2019
3852 Mist 4 1008 93 4400 5.1 100 09:18 24.11.2019
3853 Mist 3 1008 93 4500 5.1 110 08:43 24.11.2019
3854 Clouds 3 1005 97 0 3.71 108 08:21 24.11.2019
3855 Clouds 3 1009 90 0 3.71 108 07:53 24.11.2019
3856 Clouds 3 1005 97 0 3.71 108 07:34 24.11.2019
3857 Clouds 4 1003 95 0 3.71 108 06:57 24.11.2019
3858 Clouds 4 1007 94 0 3.71 108 05:59 24.11.2019
3859 Clouds 4 1007 94 0 3.71 108 05:59 24.11.2019
3860 Clouds 4 1002 95 0 3.92 106 04:47 24.11.2019
3861 Clouds 4 1006 95 0 3.92 106 02:50 24.11.2019
3862 Clouds 4 1002 96 0 3.71 115 01:58 24.11.2019
3863 Clouds 4 1006 95 0 3.71 115 01:39 24.11.2019
3864 Clouds 4 1006 95 0 3.71 115 01:20 24.11.2019
3865 Clouds 5 1004 89 0 3.84 112 00:46 24.11.2019
3866 Clouds 5 1005 95 0 3.84 112 00:23 24.11.2019
3867 Clouds 5 1003 89 0 0.45 53 23:44 23.11.2019
3868 Clouds 5 1005 95 0 3.72 105 23:22 23.11.2019
3869 Clouds 5 1002 96 0 3.72 105 22:58 23.11.2019
3870 Clouds 5 1002 96 0 3.72 105 22:58 23.11.2019
3871 Clouds 5 1005 95 0 3.72 105 22:39 23.11.2019
3872 Clouds 5 1005 94 0 2.68 105 22:21 23.11.2019
3873 Clouds 5 1007 89 0 3.72 105 21:58 23.11.2019
3874 Clouds 5 1005 87 9000 4.1 90 21:40 23.11.2019
3875 Clouds 5 1005 87 9000 4.1 90 21:21 23.11.2019
3876 Clouds 5 1005 87 9000 4.1 90 20:55 23.11.2019
3877 Clouds 6 1005 87 9000 4.1 90 20:36 23.11.2019
3878 Clouds 6 1005 87 8000 4.1 90 20:18 23.11.2019
3879 Clouds 6 1005 87 8000 4.1 90 19:54 23.11.2019
3880 Clouds 6 1004 94 0 4.02 105 19:36 23.11.2019
3881 Clouds 6 1004 94 0 4.02 105 19:36 23.11.2019
3882 Clouds 6 1001 97 0 4.05 104 19:18 23.11.2019
3883 Clouds 6 1004 87 10000 6.2 100 18:39 23.11.2019
3884 Clouds 6 1004 87 10000 6.2 100 18:20 23.11.2019
3885 Clouds 6 1004 87 10000 6.2 100 17:54 23.11.2019
3886 Clouds 6 1004 87 10000 6.2 100 17:54 23.11.2019
3887 Clouds 6 1004 87 10000 6.2 100 17:36 23.11.2019
3888 Clouds 7 1005 81 10000 6.2 100 17:18 23.11.2019
3889 Clouds 7 1004 87 10000 5.1 100 16:54 23.11.2019
3890 Clouds 7 1004 87 10000 5.1 100 16:36 23.11.2019
3891 Clouds 7 1004 87 10000 4.6 100 16:18 23.11.2019
3892 Clouds 7 1004 87 10000 5.7 90 15:54 23.11.2019
3893 Clouds 7 1004 87 10000 4.6 100 15:54 23.11.2019
3894 Clouds 8 1004 87 10000 5.7 90 15:36 23.11.2019
3895 Clouds 8 1004 87 10000 5.7 100 15:18 23.11.2019
3896 Clouds 8 1004 87 10000 4.6 100 14:42 23.11.2019
3897 Clouds 8 1004 87 10000 6.2 90 14:21 23.11.2019
3898 Clouds 8 1004 87 10000 6.2 90 14:21 23.11.2019
3899 Clouds 7 1004 87 10000 6.2 90 13:57 23.11.2019
3900 Clouds 7 1004 87 10000 5.7 90 13:39 23.11.2019
3901 Clouds 7 1004 87 10000 5.1 100 13:18 23.11.2019
3902 Clouds 7 1004 87 10000 5.7 100 12:44 23.11.2019
3903 Clouds 7 1005 81 10000 6.7 110 12:24 23.11.2019
3904 Clouds 7 1005 87 10000 6.7 110 11:45 23.11.2019
3905 Clouds 7 1005 87 10000 5.7 100 11:24 23.11.2019
3906 Clouds 6 1005 87 9000 6.2 110 10:57 23.11.2019
3907 Clouds 6 1005 87 9000 6.2 110 10:39 23.11.2019
3908 Clouds 5 1005 93 8000 5.1 100 10:18 23.11.2019
3909 Clouds 6 1005 93 7000 4.6 100 09:41 23.11.2019
3910 Clouds 5 1005 87 7000 4.1 110 09:19 23.11.2019
3911 Clouds 5 1005 94 0 4.78 100 08:41 23.11.2019
3912 Clouds 5 1005 94 0 4.78 100 08:41 23.11.2019
3913 Clouds 5 1005 94 0 4.78 100 08:41 23.11.2019
3914 Clouds 5 1005 94 0 4.78 100 08:41 23.11.2019
3915 Clouds 4 1004 94 0 3.62 110 08:19 23.11.2019
3916 Clouds 4 1005 94 0 3.62 110 07:42 23.11.2019
3917 Clouds 4 1003 89 0 3.62 110 07:21 23.11.2019
3918 Clouds 4 1005 94 0 3.62 110 06:42 23.11.2019
3919 Clouds 4 1005 94 0 3.62 110 06:19 23.11.2019
3920 Clouds 5 1005 94 0 3.62 110 05:45 23.11.2019
3921 Clouds 5 1003 97 0 1.79 103 05:26 23.11.2019
3922 Clear 4 1005 94 0 4.14 105 04:40 23.11.2019
3923 Clear 4 1005 94 0 4.14 105 04:21 23.11.2019
3924 Clear 4 1006 94 0 4.14 105 02:39 23.11.2019
3925 Clouds 4 1006 93 0 2.8 119 01:42 23.11.2019
3926 Clouds 4 1007 93 0 2.54 121 00:54 23.11.2019
3927 Clouds 4 1006 97 0 3.13 105 00:36 23.11.2019
3928 Clouds 4 1007 93 5000 2.6 100 00:18 23.11.2019
3929 Clouds 3 1007 93 5000 2.6 100 23:38 22.11.2019
3930 Clouds 3 1007 93 5000 2.6 100 23:20 22.11.2019
3931 Clouds 3 1008 93 7000 3.1 110 22:57 22.11.2019
3932 Clouds 3 1008 93 7000 3.1 110 22:38 22.11.2019
3933 Clouds 3 1008 93 6000 2.6 90 22:19 22.11.2019
3934 Clouds 4 1008 93 6000 2.6 90 21:57 22.11.2019
3935 Clouds 3 1008 93 5000 2.6 110 21:38 22.11.2019
3936 Clouds 4 1008 93 5000 2.1 100 21:18 22.11.2019
3937 Clouds 4 1008 93 6000 1 110 20:42 22.11.2019
3938 Clouds 4 1008 93 8000 1 0 20:22 22.11.2019
3939 Clouds 4 1008 93 8000 1 0 19:54 22.11.2019
3940 Clouds 4 1008 93 7000 2.1 130 19:36 22.11.2019
3941 Clouds 5 1008 93 7000 3.1 120 19:18 22.11.2019
3942 Clouds 4 1008 93 6000 4.6 100 18:39 22.11.2019
3943 Mist 4 1008 93 5000 4.6 100 18:21 22.11.2019
3944 Mist 5 1009 93 5000 4.6 110 17:43 22.11.2019
3945 Mist 5 1009 93 5000 4.6 110 17:24 22.11.2019
3946 Mist 5 1008 93 5000 4.1 110 16:59 22.11.2019
3947 Mist 5 1008 93 4800 4.1 110 16:40 22.11.2019
3948 Clouds 6 1008 93 8000 4.1 110 16:22 22.11.2019
3949 Clouds 6 1008 93 10000 4.1 110 15:41 22.11.2019
3950 Clouds 6 1008 93 8000 2.1 60 15:23 22.11.2019
3951 Clouds 7 1008 93 8000 2.1 60 14:56 22.11.2019
3952 Clouds 7 1008 100 7000 2.1 10 14:37 22.11.2019
3953 Clouds 7 1008 100 7000 2.1 10 14:37 22.11.2019
3954 Clouds 7 1008 100 10000 2.1 30 14:19 22.11.2019
3955 Clouds 7 1008 100 10000 2.1 30 13:55 22.11.2019
3956 Clouds 7 1009 93 10000 2.1 310 13:36 22.11.2019
3957 Clouds 6 1009 93 10000 1.5 0 13:18 22.11.2019
3958 Clouds 6 1009 93 10000 2.6 270 12:40 22.11.2019
3959 Clouds 6 1009 93 10000 2.1 100 12:20 22.11.2019
3960 Clouds 6 1009 93 10000 2.1 100 11:59 22.11.2019
3961 Clouds 6 1009 100 10000 1.5 0 11:38 22.11.2019
3962 Clouds 5 1009 93 10000 1 0 11:20 22.11.2019
3963 Clouds 5 1009 93 10000 1 0 10:58 22.11.2019
3964 Fog 5 1009 93 800 1.5 100 10:39 22.11.2019
3965 Fog 4 1009 93 700 1 90 10:21 22.11.2019
3966 Fog 4 1009 93 700 1 90 09:55 22.11.2019
3967 Fog 3 1009 100 650 2.6 110 09:37 22.11.2019
3968 Fog 3 1009 100 550 2.1 100 09:18 22.11.2019
3969 Fog 3 1009 100 450 1.5 110 08:44 22.11.2019
3970 Fog 3 1009 100 450 1.5 110 08:24 22.11.2019
3971 Fog 2 1009 100 500 1.5 120 07:45 22.11.2019
3972 Fog 3 1009 93 450 2.1 140 07:23 22.11.2019
3973 Fog 3 1008 93 550 1.5 120 06:49 22.11.2019
3974 Fog 3 1008 93 550 1.5 120 06:30 22.11.2019
3975 Clouds 3 1007 91 0 0.45 270 05:45 22.11.2019
3976 Clouds 4 1008 95 0 0.45 38 04:22 22.11.2019
3977 Clouds 4 1008 96 0 1.27 198 02:53 22.11.2019
3978 Clouds 4 1009 94 0 1.27 198 02:30 22.11.2019
3979 Clouds 5 1006 89 0 1.34 270 01:45 22.11.2019
3980 Clouds 5 1009 94 0 1.71 191 01:20 22.11.2019
3981 Clouds 5 1007 96 0 0.45 26 00:51 22.11.2019
3982 Clouds 5 1006 88 0 0.89 225 00:24 22.11.2019
3983 Clouds 5 1009 94 0 1.71 191 23:49 21.11.2019
3984 Clouds 5 1006 90 0 0.89 292 23:31 21.11.2019
3985 Mist 5 1008 93 4500 1.5 0 22:59 21.11.2019
3986 Mist 5 1008 93 4500 1.5 0 22:39 21.11.2019
3987 Mist 5 1008 93 4500 1.5 0 22:21 21.11.2019
3988 Mist 5 1008 93 4500 1.5 0 21:57 21.11.2019
3989 Mist 5 1008 93 3400 2.6 180 21:37 21.11.2019
3990 Mist 5 1008 100 3000 1.5 0 21:19 21.11.2019
3991 Mist 6 1008 100 3000 1.5 0 20:58 21.11.2019
3992 Mist 6 1008 100 1600 0.5 0 20:38 21.11.2019
3993 Mist 6 1008 100 1200 1 180 20:19 21.11.2019
3994 Mist 6 1008 100 1200 1 180 19:59 21.11.2019
3995 Mist 6 1008 100 1200 1 180 19:59 21.11.2019
3996 Mist 5 1009 100 1500 1 200 19:40 21.11.2019
3997 Mist 5 1008 100 5000 0.44 243 19:22 21.11.2019
3998 Mist 5 1008 100 5000 0.44 243 18:57 21.11.2019
3999 Mist 6 1009 100 5000 1 170 18:38 21.11.2019
4000 Mist 6 1009 100 5000 1.5 120 18:19 21.11.2019
4001 Mist 6 1009 100 5000 1.5 120 17:57 21.11.2019
4002 Mist 6 1009 100 5000 2.6 110 17:38 21.11.2019
4003 Clouds 6 1009 100 6000 3.1 110 17:19 21.11.2019
4004 Clouds 6 1009 100 7000 2.6 120 16:41 21.11.2019
4005 Clouds 6 1009 100 7000 2.6 120 16:21 21.11.2019
4006 Clouds 6 1009 100 7000 2.6 120 15:57 21.11.2019
4007 Clouds 6 1009 100 6000 2.1 120 15:38 21.11.2019
4008 Mist 6 1009 100 4500 2.1 110 15:19 21.11.2019
4009 Mist 6 1009 100 4500 2.1 110 14:56 21.11.2019
4010 Mist 6 1009 100 4500 2.1 110 14:56 21.11.2019
4011 Drizzle 6 1009 93 900 2.6 90 14:36 21.11.2019
4012 Drizzle 6 1010 93 900 2.1 90 14:18 21.11.2019
4013 Drizzle 6 1010 93 3200 2.6 100 13:39 21.11.2019
4014 Drizzle 6 1010 93 3200 2.6 100 13:39 21.11.2019
4015 Drizzle 6 1010 100 2000 2.6 90 13:20 21.11.2019
4016 Drizzle 5 1010 100 2000 2.6 90 12:57 21.11.2019
4017 Drizzle 5 1010 100 1200 2.6 100 12:38 21.11.2019
4018 Drizzle 5 1011 100 1200 2.1 80 12:19 21.11.2019
4019 Drizzle 5 1011 93 4000 1.5 0 11:41 21.11.2019
4020 Drizzle 5 1012 93 6000 1.5 0 11:22 21.11.2019
4021 Drizzle 5 1012 93 6000 1.5 0 10:59 21.11.2019
4022 Drizzle 4 1012 93 6000 1.5 0 10:41 21.11.2019
4023 Drizzle 4 1012 100 4500 1.5 0 10:22 21.11.2019
4024 Drizzle 4 1012 100 4500 1.5 0 09:57 21.11.2019
4025 Drizzle 4 1012 100 4600 1.5 80 09:38 21.11.2019
4026 Drizzle 4 1012 100 3600 1.5 0 09:19 21.11.2019
4027 Drizzle 4 1012 100 3600 1.5 0 09:19 21.11.2019
4028 Drizzle 4 1012 93 4000 1 0 08:41 21.11.2019
4029 Drizzle 4 1012 93 3100 0.5 0 08:20 21.11.2019
4030 Drizzle 4 1012 93 3600 1 0 07:42 21.11.2019
4031 Drizzle 4 1012 93 3000 1.5 0 07:18 21.11.2019
4032 Drizzle 4 1012 93 3000 1.5 0 06:57 21.11.2019
4033 Clouds 4 1010 95 0 1.91 99 06:34 21.11.2019
4034 Clouds 3 1010 95 0 1.91 99 05:37 21.11.2019
4035 Clouds 3 1011 96 0 1.83 103 03:34 21.11.2019
4036 Clouds 3 1012 96 0 1.83 103 02:42 21.11.2019
4037 Clouds 3 1012 96 0 1.64 112 02:20 21.11.2019
4038 Clouds 3 1013 91 0 0.45 38 01:42 21.11.2019
4039 Clouds 3 1012 96 0 1.73 115 00:55 21.11.2019
4040 Clouds 3 1015 94 0 1.73 115 00:22 21.11.2019
4041 Clouds 3 1013 92 0 0.45 38 23:59 20.11.2019
4042 Clouds 3 1016 94 0 1.73 115 23:40 20.11.2019
4043 Mist 2 1016 93 1300 1.11 129 23:21 20.11.2019
4044 Mist 2 1016 93 1300 1.11 129 22:55 20.11.2019
4045 Mist 2 1016 93 1300 1.11 129 22:37 20.11.2019
4046 Mist 2 1016 93 1300 1.11 129 22:18 20.11.2019
4047 Mist 2 1016 93 1300 1.11 129 21:57 20.11.2019
4048 Fog 2 1016 93 700 1.11 129 21:37 20.11.2019
4049 Fog 2 1016 93 400 1.11 129 21:19 20.11.2019
4050 Fog 2 1016 93 400 1.11 129 20:55 20.11.2019
4051 Fog 2 1016 93 500 1.11 129 20:37 20.11.2019
4052 Fog 2 1016 93 500 1.11 129 20:37 20.11.2019
4053 Fog 2 1016 93 400 1 0 20:18 20.11.2019
4054 Fog 2 1016 93 400 1 0 19:55 20.11.2019
4055 Fog 2 1016 93 500 1 0 19:36 20.11.2019
4056 Fog 2 1016 93 500 1 0 19:36 20.11.2019
4057 Mist 2 1017 93 5000 1 0 19:18 20.11.2019
4058 Mist 2 1017 93 5000 1 0 18:57 20.11.2019
4059 Clouds 2 1017 93 6000 0.99 117 18:37 20.11.2019
4060 Clouds 2 1017 93 6000 0.99 117 18:19 20.11.2019
4061 Clouds 3 1017 93 6000 0.99 117 17:55 20.11.2019
4062 Clouds 3 1017 93 7000 0.99 117 17:36 20.11.2019
4063 Clouds 3 1017 93 7000 0.62 79 17:18 20.11.2019
4064 Clouds 4 1017 93 7000 1 0 16:41 20.11.2019
4065 Clouds 4 1017 86 6000 0.62 79 16:20 20.11.2019
4066 Clouds 5 1017 86 6000 0.62 79 15:58 20.11.2019
4067 Clouds 4 1017 86 6000 0.62 79 15:39 20.11.2019
4068 Clouds 4 1017 86 9000 0.5 0 15:20 20.11.2019
4069 Clouds 4 1017 86 9000 0.5 0 14:57 20.11.2019
4070 Clouds 5 1017 86 10000 1 360 14:38 20.11.2019
4071 Clouds 5 1018 86 10000 0.5 0 14:19 20.11.2019
4072 Clouds 5 1018 86 10000 0.5 0 13:56 20.11.2019
4073 Clouds 5 1018 86 8000 1 0 13:37 20.11.2019
4074 Clouds 5 1018 86 9000 1.5 0 13:18 20.11.2019
4075 Clouds 4 1018 86 10000 1 0 12:42 20.11.2019
4076 Clouds 5 1018 86 8000 1 0 12:23 20.11.2019
4077 Clouds 4 1018 86 8000 1 0 11:57 20.11.2019
4078 Drizzle 4 1018 93 4000 1 0 11:37 20.11.2019
4079 Rain 4 1019 93 3300 1 310 11:18 20.11.2019
4080 Rain 3 1019 93 3300 1 310 10:55 20.11.2019
4081 Drizzle 3 1019 93 4000 1 0 10:36 20.11.2019
4082 Drizzle 3 1019 93 4300 1 0 10:18 20.11.2019
4083 Drizzle 3 1019 93 2800 1 360 09:42 20.11.2019
4084 Rain 3 1019 93 2700 2.1 350 09:21 20.11.2019
4085 Rain 3 1019 93 3700 1 0 08:48 20.11.2019
4086 Rain 2 1019 93 3700 1 0 08:28 20.11.2019
4087 Rain 2 1019 93 3600 1.5 0 07:59 20.11.2019
4088 Drizzle 2 1019 93 4300 1 0 07:38 20.11.2019
4089 Drizzle 2 1019 93 4200 1.5 0 07:20 20.11.2019
4090 Clouds 2 1017 93 0 0.93 192 06:45 20.11.2019
4091 Clouds 2 1017 93 0 0.93 192 06:45 20.11.2019
4092 Clouds 2 1020 93 0 0.93 192 06:19 20.11.2019
4093 Clouds 3 1020 93 0 1.03 237 04:51 20.11.2019
4094 Clouds 3 1017 94 0 1.03 237 02:48 20.11.2019
4095 Clouds 3 1022 83 0 0.96 224 01:52 20.11.2019
4096 Clouds 3 1020 92 0 0.99 227 01:20 20.11.2019
4097 Clouds 3 1017 91 0 0.99 227 00:35 20.11.2019
4098 Clouds 2 1017 93 0 0.99 227 23:46 19.11.2019
4099 Clouds 3 1017 93 0 0.99 227 23:25 19.11.2019
4100 Clouds 3 1019 93 10000 1.5 100 22:57 19.11.2019
4101 Clouds 3 1019 93 10000 1.5 100 22:38 19.11.2019
4102 Clouds 3 1019 93 10000 1.5 100 22:19 19.11.2019
4103 Clouds 3 1019 93 10000 1.5 100 21:55 19.11.2019
4104 Clouds 3 1018 93 10000 1 0 21:37 19.11.2019
4105 Clouds 2 1018 86 10000 2.1 280 21:19 19.11.2019
4106 Clouds 3 1018 86 10000 2.1 280 20:55 19.11.2019
4107 Clouds 3 1018 80 10000 1.5 270 20:36 19.11.2019
4108 Clouds 3 1018 80 10000 1.5 270 20:36 19.11.2019
4109 Clouds 3 1018 80 10000 1.5 270 20:36 19.11.2019
4110 Clouds 3 1018 80 10000 1.5 270 20:36 19.11.2019
4111 Clouds 3 1018 80 10000 1.5 270 20:36 19.11.2019
4112 Clouds 3 1018 86 10000 1.5 0 20:18 19.11.2019
4113 Clouds 4 1018 86 10000 1.5 0 19:55 19.11.2019
4114 Clouds 4 1018 86 10000 1.5 250 19:36 19.11.2019
4115 Clouds 4 1018 86 10000 1.77 210 19:18 19.11.2019
4116 Clouds 4 1018 86 10000 0.5 0 18:41 19.11.2019
4117 Clouds 4 1018 86 10000 0.5 0 18:41 19.11.2019
4118 Clouds 4 1018 86 10000 0.5 0 18:41 19.11.2019
4119 Clouds 5 1017 86 10000 1 0 18:21 19.11.2019
4120 Clouds 4 1017 86 10000 1 0 17:59 19.11.2019
4121 Clouds 5 1017 86 10000 2.1 300 17:41 19.11.2019
4122 Clouds 5 1017 86 10000 2.1 300 17:41 19.11.2019
4123 Clouds 5 1017 80 10000 2.6 280 17:21 19.11.2019
4124 Clouds 5 1017 80 10000 2.6 280 16:59 19.11.2019
4125 Clouds 5 1016 80 10000 2.1 260 16:40 19.11.2019
4126 Clouds 5 1016 81 10000 2.6 280 16:21 19.11.2019
4127 Clouds 6 1016 70 10000 4.6 240 15:47 19.11.2019
4128 Clouds 6 1016 70 10000 4.6 240 15:27 19.11.2019
4129 Clouds 6 1016 70 10000 4.6 240 15:27 19.11.2019
4130 Clouds 6 1016 70 10000 4.6 250 14:58 19.11.2019
4131 Clouds 6 1016 70 10000 5.1 240 14:39 19.11.2019
4132 Clouds 7 1015 70 10000 5.1 240 14:21 19.11.2019
4133 Clouds 7 1015 70 10000 5.1 240 13:57 19.11.2019
4134 Clouds 7 1015 70 10000 5.7 230 13:38 19.11.2019
4135 Clouds 7 1015 70 10000 5.1 240 13:18 19.11.2019
4136 Clouds 6 1015 70 10000 4.6 230 12:39 19.11.2019
4137 Clouds 6 1015 70 10000 6.2 230 12:21 19.11.2019
4138 Clouds 6 1015 70 10000 6.2 230 11:56 19.11.2019
4139 Clouds 6 1014 75 10000 6.2 220 11:37 19.11.2019
4140 Clouds 6 1014 75 10000 6.2 220 11:37 19.11.2019
4141 Clouds 6 1014 81 10000 6.2 240 11:19 19.11.2019
4142 Clouds 6 1014 81 10000 4.1 220 10:44 19.11.2019
4143 Clouds 6 1014 81 10000 4.1 220 10:21 19.11.2019
4144 Clouds 5 1014 81 10000 4.1 220 09:56 19.11.2019
4145 Clouds 5 1013 81 10000 3.6 230 09:38 19.11.2019
4146 Clouds 5 1012 81 10000 4.6 230 09:18 19.11.2019
4147 Clouds 4 1012 86 10000 4.6 220 08:40 19.11.2019
4148 Rain 4 1011 86 7000 5.1 230 08:22 19.11.2019
4149 Rain 4 1011 86 7000 5.1 230 07:56 19.11.2019
4150 Rain 4 1011 86 7000 5.1 230 07:37 19.11.2019
4151 Rain 4 1010 87 8000 6.7 220 07:19 19.11.2019
4152 Drizzle 4 1010 86 10000 6.7 220 06:44 19.11.2019
4153 Drizzle 5 1010 86 10000 6.7 220 06:24 19.11.2019
4154 Rain 4 1012 92 0 9.71 238 05:19 19.11.2019
4155 Rain 4 1010 93 0 9.71 238 03:41 19.11.2019
4156 Rain 3 1010 93 0 9.71 238 03:20 19.11.2019
4157 Rain 3 1010 93 0 9.71 238 02:51 19.11.2019
4158 Rain 3 1006 97 0 6.26 211 01:58 19.11.2019
4159 Clouds 4 1006 75 10000 4.1 180 00:51 19.11.2019
4160 Clouds 4 1007 75 10000 5.1 190 00:21 19.11.2019
4161 Clouds 4 1007 75 10000 5.7 190 23:41 18.11.2019
4162 Clouds 4 1006 75 10000 3.1 190 23:20 18.11.2019
4163 Clouds 4 1006 75 10000 3.1 190 23:20 18.11.2019
4164 Clouds 4 1006 75 10000 3.1 190 22:59 18.11.2019
4165 Clouds 4 1006 75 10000 3.1 190 22:41 18.11.2019
4166 Clouds 4 1006 75 10000 3.1 190 22:23 18.11.2019
4167 Clouds 4 1006 75 10000 3.1 190 21:54 18.11.2019
4168 Clouds 5 1006 75 10000 4.1 190 21:36 18.11.2019
4169 Clouds 5 1006 75 10000 3.1 190 21:18 18.11.2019
4170 Clouds 5 1006 81 10000 3.1 170 20:41 18.11.2019
4171 Clouds 5 1006 81 10000 2.6 170 20:20 18.11.2019
4172 Clouds 5 1006 81 10000 2.6 170 19:58 18.11.2019
4173 Clouds 5 1006 81 10000 2.6 170 19:58 18.11.2019
4174 Clouds 5 1006 87 10000 2.1 150 19:39 18.11.2019
4175 Clouds 5 1006 87 10000 2.1 170 19:21 18.11.2019
4176 Clouds 5 1006 87 10000 2.1 170 18:57 18.11.2019
4177 Clouds 5 1006 87 10000 4.1 190 18:38 18.11.2019
4178 Clouds 5 1006 93 10000 2.1 160 18:19 18.11.2019
4179 Clouds 5 1006 93 10000 2.1 160 17:59 18.11.2019
4180 Clouds 5 1006 93 10000 2.6 200 17:38 18.11.2019
4181 Clouds 5 1006 93 10000 2.1 210 17:19 18.11.2019
4182 Drizzle 6 1005 93 10000 2.1 220 16:43 18.11.2019
4183 Drizzle 6 1005 93 10000 2.1 220 16:25 18.11.2019
4184 Drizzle 6 1006 93 10000 3.1 220 15:59 18.11.2019
4185 Drizzle 6 1006 93 10000 3.1 220 15:59 18.11.2019
4186 Rain 6 1005 93 10000 3.1 220 15:41 18.11.2019
4187 Rain 6 1005 93 8000 3.6 230 15:22 18.11.2019
4188 Rain 6 1005 93 8000 3.6 230 14:58 18.11.2019
4189 Rain 6 1005 93 8000 3.6 230 14:58 18.11.2019
4190 Rain 6 1005 87 10000 4.1 220 14:40 18.11.2019
4191 Clouds 6 1005 93 10000 3.6 230 14:22 18.11.2019
4192 Clouds 6 1005 93 10000 4.1 220 13:44 18.11.2019
4193 Clouds 6 1005 93 10000 4.1 220 13:26 18.11.2019
4194 Clouds 6 1005 87 10000 3.6 230 12:57 18.11.2019
4195 Clouds 6 1005 93 10000 3.1 230 12:37 18.11.2019
4196 Clouds 6 1005 93 10000 3.1 230 12:18 18.11.2019
4197 Clouds 6 1005 100 9000 2.6 240 11:42 18.11.2019
4198 Clouds 6 1005 100 9000 2.6 240 11:24 18.11.2019
4199 Clouds 6 1005 93 7000 3.1 260 10:44 18.11.2019
4200 Clouds 6 1005 93 7000 3.1 260 10:26 18.11.2019
4201 Clouds 6 1004 93 7000 2.6 250 09:59 18.11.2019
4202 Fog 5 1005 93 700 1.5 220 09:39 18.11.2019
4203 Fog 5 1005 93 700 1.5 220 09:20 18.11.2019
4204 Fog 5 1005 93 700 1.5 220 08:58 18.11.2019
4205 Fog 5 1004 100 450 1.5 250 08:40 18.11.2019
4206 Fog 5 1003 100 500 1.58 246 08:19 18.11.2019
4207 Clouds 5 1003 100 500 0.5 270 07:45 18.11.2019
4208 Clouds 5 1003 100 500 0.5 270 07:26 18.11.2019
4209 Rain 5 1001 97 0 0.45 270 06:49 18.11.2019
4210 Rain 5 1000 10 0 1.58 246 06:28 18.11.2019
4211 Rain 5 1001 97 0 1.58 246 05:45 18.11.2019
4212 Clouds 5 1000 99 0 1.34 285 04:35 18.11.2019
4213 Clouds 5 1001 97 0 2.07 73 01:49 18.11.2019
4214 Clouds 5 1000 98 0 2.07 73 01:30 18.11.2019
4215 Clouds 5 1005 94 0 1.75 99 00:22 18.11.2019
4216 Clouds 5 1005 94 0 1.75 99 23:43 17.11.2019
4217 Clouds 5 1002 97 0 1.75 99 23:24 17.11.2019
4218 Clouds 5 1001 97 0 3.03 59 22:58 17.11.2019
4219 Clouds 4 1005 94 0 3.03 59 22:40 17.11.2019
4220 Clouds 4 1005 94 0 3.03 59 22:21 17.11.2019
4221 Clouds 4 1003 97 0 3.03 59 21:57 17.11.2019
4222 Clouds 4 1003 97 0 3.03 59 21:39 17.11.2019
4223 Clouds 4 1003 97 0 3.03 59 21:19 17.11.2019
4224 Clouds 4 1004 97 0 0.45 90 20:56 17.11.2019
4225 Clouds 4 1004 97 0 3.03 59 20:37 17.11.2019
4226 Clouds 4 1008 93 7000 0.5 0 20:19 17.11.2019
4227 Clouds 4 1008 93 7000 0.5 0 19:56 17.11.2019
4228 Clouds 4 1008 93 7000 0.5 0 19:37 17.11.2019
4229 Clouds 4 1008 93 7000 0.5 0 19:19 17.11.2019
4230 Clouds 4 1008 93 7000 0.5 0 18:55 17.11.2019
4231 Clouds 4 1008 93 7000 1.5 0 18:36 17.11.2019
4232 Drizzle 4 1008 93 6000 2.6 0 18:18 17.11.2019
4233 Drizzle 4 1008 93 6000 2.6 0 18:18 17.11.2019
4234 Drizzle 4 1008 93 6000 2.6 0 17:57 17.11.2019
4235 Drizzle 4 1008 93 6000 2.6 0 17:38 17.11.2019
4236 Drizzle 4 1009 93 3700 2.1 50 17:19 17.11.2019
4237 Drizzle 4 1009 93 3700 2.1 50 16:57 17.11.2019
4238 Drizzle 4 1009 93 4400 2.1 10 16:39 17.11.2019
4239 Drizzle 4 1009 93 3800 2.1 30 16:21 17.11.2019
4240 Drizzle 4 1009 93 3800 2.1 30 15:55 17.11.2019
4241 Clouds 4 1010 86 10000 2.1 30 15:36 17.11.2019
4242 Clouds 4 1010 86 10000 2.1 30 15:18 17.11.2019
4243 Clouds 4 1010 86 10000 2.1 30 14:55 17.11.2019
4244 Clouds 3 1011 86 10000 1.5 0 14:37 17.11.2019
4245 Clouds 4 1011 86 10000 2.1 50 14:18 17.11.2019
4246 Clouds 4 1011 86 10000 2.1 50 13:54 17.11.2019
4247 Clouds 3 1011 86 10000 1.5 0 13:36 17.11.2019
4248 Clouds 3 1012 80 10000 1.5 0 13:18 17.11.2019
4249 Clouds 3 1012 80 10000 1.5 0 12:39 17.11.2019
4250 Clouds 3 1012 86 9000 3.18 46 12:21 17.11.2019
4251 Clouds 3 1012 86 9000 3.18 46 12:21 17.11.2019
4252 Clouds 3 1012 86 9000 3.18 46 11:56 17.11.2019
4253 Clouds 3 1013 86 10000 1 0 11:38 17.11.2019
4254 Clouds 2 1013 86 10000 1 0 11:19 17.11.2019
4255 Clouds 2 1013 84 10000 2.6 90 10:43 17.11.2019
4256 Clouds 1 1014 84 10000 3.1 100 10:23 17.11.2019
4257 Clouds 1 1014 84 10000 3.1 100 09:57 17.11.2019
4258 Clouds 1 1013 84 10000 3.1 100 09:39 17.11.2019
4259 Clouds 1 1013 92 8000 2.1 100 09:19 17.11.2019
4260 Clouds 0 1011 96 0 2.19 69 08:38 17.11.2019
4261 Clouds 0 1014 94 0 1.6 78 08:19 17.11.2019
4262 Clouds 0 1011 96 0 1.6 78 07:45 17.11.2019
4263 Clouds 0 1014 93 0 1.6 78 07:22 17.11.2019
4264 Clouds 0 1010 10 0 1.6 78 06:56 17.11.2019
4265 Clouds 0 1012 96 0 0.45 38 06:30 17.11.2019
4266 Clouds 0 1011 95 0 1.6 78 05:39 17.11.2019
4267 Clouds 0 1012 96 0 1.79 38 04:20 17.11.2019
4268 Clouds 1 1011 94 0 1.5 162 03:43 17.11.2019
4269 Clouds 1 1014 93 0 1.5 162 03:23 17.11.2019
4270 Clouds 0 1012 94 0 1.5 162 02:25 17.11.2019
4271 Clouds 1 1012 94 0 2.15 181 01:25 17.11.2019
4272 Clouds 0 1015 93 0 2.02 194 00:49 17.11.2019
4273 Clouds 0 1014 93 0 2.02 194 00:22 17.11.2019
4274 Clouds 1 1014 92 0 2.02 194 23:43 16.11.2019
4275 Clear 1 1014 92 0 2.61 187 23:20 16.11.2019
4276 Clear 1 1011 90 0 2.61 187 22:59 16.11.2019
4277 Clear 1 1014 92 0 2.61 187 22:40 16.11.2019
4278 Clear 1 1011 92 0 0.45 270 22:18 16.11.2019
4279 Clear 1 1011 99 0 2.61 187 21:42 16.11.2019
4280 Clear 1 1012 95 0 2.24 40 21:23 16.11.2019
4281 Clear 1 1010 99 0 2.61 187 20:59 16.11.2019
4282 Clear 2 1014 92 0 2.61 187 20:41 16.11.2019
4283 Clouds 2 1014 91 0 3.03 205 20:20 16.11.2019
4284 Clouds 2 1010 99 0 3.03 205 19:57 16.11.2019
4285 Clouds 2 1010 91 0 3.03 205 19:39 16.11.2019
4286 Clouds 2 1010 80 10000 3.1 190 19:20 16.11.2019
4287 Clouds 3 1010 80 10000 3.1 190 18:45 16.11.2019
4288 Clouds 3 1010 80 10000 3.1 190 18:27 16.11.2019
4289 Clouds 3 1010 80 10000 3.1 190 17:56 16.11.2019
4290 Clouds 3 1010 80 10000 3.6 210 17:38 16.11.2019
4291 Clouds 4 1009 75 10000 4.6 230 17:19 16.11.2019
4292 Clouds 5 1009 75 10000 5.1 230 16:47 16.11.2019
4293 Clouds 5 1009 75 10000 5.1 230 16:29 16.11.2019
4294 Clouds 5 1009 75 10000 3.6 230 15:58 16.11.2019
4295 Clouds 5 1008 81 10000 4.1 250 15:39 16.11.2019
4296 Clouds 6 1008 81 10000 5.1 260 15:20 16.11.2019
4297 Clouds 6 1008 81 10000 5.1 260 15:20 16.11.2019
4298 Clouds 6 1008 81 10000 5.1 260 14:57 16.11.2019
4299 Clouds 6 1007 81 10000 6.2 260 14:38 16.11.2019
4300 Clouds 6 1006 87 10000 5.7 260 14:19 16.11.2019
4301 Clouds 6 1006 87 10000 5.7 260 13:54 16.11.2019
4302 Clouds 6 1006 87 10000 5.7 260 13:54 16.11.2019
4303 Clouds 6 1006 87 10000 5.7 260 13:36 16.11.2019
4304 Mist 6 1006 93 4500 4.6 250 13:18 16.11.2019
4305 Mist 5 1006 86 3600 4.1 240 12:42 16.11.2019
4306 Clouds 5 1006 93 7000 5.1 250 12:22 16.11.2019
4307 Clouds 5 1006 93 7000 5.1 250 11:55 16.11.2019
4308 Rain 5 1006 93 8000 6.2 250 11:37 16.11.2019
4309 Rain 5 1005 93 6000 5.7 250 11:18 16.11.2019
4310 Rain 4 1004 93 4300 5.1 260 10:42 16.11.2019
4311 Rain 4 1004 93 4300 5.1 260 10:24 16.11.2019
4312 Rain 4 1004 93 4300 5.1 260 09:58 16.11.2019
4313 Rain 4 1004 93 4300 5.1 260 09:40 16.11.2019
4314 Rain 4 1004 93 4200 5.7 260 09:19 16.11.2019
4315 Rain 4 1004 97 0 5.96 244 08:41 16.11.2019
4316 Rain 4 1003 93 4100 3.6 260 08:20 16.11.2019
4317 Rain 4 1003 93 4100 3.6 260 07:44 16.11.2019
4318 Rain 4 1003 93 4100 3.6 260 07:22 16.11.2019
4319 Rain 4 1003 93 4100 3.6 260 06:59 16.11.2019
4320 Rain 4 1000 99 0 5.4 265 06:41 16.11.2019
4321 Rain 4 1002 95 0 5.4 265 06:19 16.11.2019
4322 Clouds 4 1002 95 0 2.75 260 04:34 16.11.2019
4323 Clouds 4 1002 96 0 2.75 260 03:26 16.11.2019
4324 Clouds 4 1002 96 0 2.75 260 03:26 16.11.2019
4325 Clouds 4 1002 96 0 2.75 260 03:26 16.11.2019
4326 Clouds 4 1002 96 0 2.75 260 02:36 16.11.2019
4327 Clouds 4 1003 96 0 0.88 233 01:38 16.11.2019
4328 Clouds 4 1003 96 0 1.54 259 00:49 16.11.2019
4329 Clouds 4 1000 96 0 1.54 259 00:30 16.11.2019
4330 Clouds 4 1002 95 0 1.54 259 23:56 15.11.2019
4331 Clouds 4 1001 96 0 1.54 259 23:38 15.11.2019
4332 Clouds 4 1004 93 5000 1 0 23:20 15.11.2019
4333 Clouds 4 1004 93 5000 1 0 22:40 15.11.2019
4334 Clouds 4 1004 93 5000 1 0 22:20 15.11.2019
4335 Clouds 4 1004 93 5000 1 0 22:20 15.11.2019
4336 Clouds 4 1004 93 5000 1 0 21:57 15.11.2019
4337 Clouds 4 1003 86 5000 1 0 21:38 15.11.2019
4338 Clouds 4 1004 93 6000 2.25 258 21:20 15.11.2019
4339 Clouds 4 1004 93 6000 2.25 258 20:56 15.11.2019
4340 Clouds 4 1003 93 5000 1 0 20:38 15.11.2019
4341 Clouds 5 1004 87 9000 0.83 102 20:20 15.11.2019
4342 Clouds 5 1004 87 9000 1.22 122 19:57 15.11.2019
4343 Clouds 5 1004 93 10000 1.5 90 19:38 15.11.2019
4344 Clouds 5 1004 93 10000 1.5 0 19:19 15.11.2019
4345 Clouds 6 1004 93 10000 1.5 0 18:55 15.11.2019
4346 Clouds 6 1003 87 8000 2.6 80 18:37 15.11.2019
4347 Clouds 6 1003 87 10000 2.6 80 18:19 15.11.2019
4348 Clouds 6 1003 87 10000 2.1 80 17:41 15.11.2019
4349 Clouds 6 1003 87 10000 2.6 80 17:23 15.11.2019
4350 Clouds 6 1003 87 10000 2.6 80 16:56 15.11.2019
4351 Clouds 6 1003 87 10000 2.1 80 16:37 15.11.2019
4352 Clouds 6 1003 81 10000 2.6 70 16:19 15.11.2019
4353 Clouds 7 1003 81 10000 4.6 100 15:38 15.11.2019
4354 Clouds 7 1003 81 10000 3.6 90 15:20 15.11.2019
4355 Clouds 7 1003 81 10000 3.6 90 14:57 15.11.2019
4356 Clouds 7 1002 81 10000 3.6 80 14:38 15.11.2019
4357 Clouds 7 1003 81 10000 3.6 80 14:19 15.11.2019
4358 Clouds 7 1003 81 10000 3.6 80 13:57 15.11.2019
4359 Clouds 7 1002 81 10000 4.6 90 13:39 15.11.2019
4360 Clouds 7 1002 81 10000 4.6 90 13:39 15.11.2019
4361 Clouds 7 1002 81 10000 5.1 90 13:20 15.11.2019
4362 Clouds 7 1002 81 10000 5.1 90 12:57 15.11.2019
4363 Clouds 6 1002 87 10000 4.1 80 12:39 15.11.2019
4364 Clouds 6 1003 81 10000 4.1 80 12:20 15.11.2019
4365 Clouds 6 1003 81 10000 4.1 80 11:56 15.11.2019
4366 Clouds 6 1003 86 9000 4.6 90 11:38 15.11.2019
4367 Clouds 6 1003 86 9000 4.6 90 11:19 15.11.2019
4368 Clouds 5 1003 86 9000 4.1 90 10:41 15.11.2019
4369 Clouds 5 1003 86 6000 5.7 80 10:22 15.11.2019
4370 Clouds 5 1003 86 6000 5.7 80 09:58 15.11.2019
4371 Clouds 4 1003 86 6000 5.7 80 09:40 15.11.2019
4372 Clouds 4 1003 86 6000 5.1 90 09:19 15.11.2019
4373 Clouds 4 1003 86 7000 5.1 90 08:44 15.11.2019
4374 Clouds 4 1004 80 7000 4.1 90 08:22 15.11.2019
4375 Clouds 4 1004 80 7000 4.6 90 07:48 15.11.2019
4376 Clouds 4 1004 80 7000 4.6 90 07:28 15.11.2019
4377 Clouds 3 1004 80 8000 5.7 90 06:44 15.11.2019
4378 -273 0 0 0 0 0 06:25 15.11.2019
4379 Clouds 3 999 95 0 1.34 82 05:40 15.11.2019
4380 Clouds 3 1003 88 0 4.61 86 05:22 15.11.2019
4381 Clouds 3 1004 89 0 4.61 86 03:53 15.11.2019
4382 Clouds 3 1006 85 0 4.61 86 03:23 15.11.2019
4383 Clouds 3 1005 93 0 3.13 115 02:19 15.11.2019
4384 Clouds 3 1001 88 0 4.78 81 01:33 15.11.2019
4385 Clouds 3 1001 88 0 4.78 81 01:33 15.11.2019
4386 Clouds 3 1002 90 0 4.78 81 00:54 15.11.2019
4387 Clouds 3 1001 88 0 1.79 102 00:33 15.11.2019
4388 Clouds 3 1005 86 0 4.78 81 23:53 14.11.2019
4389 Clouds 3 1003 91 0 4.78 81 23:29 14.11.2019
4390 Clouds 3 1007 87 10000 2.6 80 22:59 14.11.2019
4391 Clouds 3 1007 87 10000 2.6 80 22:40 14.11.2019
4392 Clouds 3 1007 87 10000 2.6 80 22:21 14.11.2019
4393 Clouds 3 1007 87 10000 2.6 80 22:21 14.11.2019
4394 Clouds 3 1007 87 10000 2.6 80 21:56 14.11.2019
4395 Clouds 3 1007 87 10000 4.1 90 21:38 14.11.2019
4396 Clouds 3 1007 86 10000 3.1 70 21:19 14.11.2019
4397 Clouds 3 1007 80 10000 3.6 80 20:42 14.11.2019
4398 Clouds 3 1007 80 10000 3.6 80 20:42 14.11.2019
4399 Clear 4 1007 80 10000 3.6 90 20:24 14.11.2019
4400 Clouds 4 1007 80 10000 3.6 90 19:59 14.11.2019
4401 Clouds 4 1008 88 10000 2.6 100 19:41 14.11.2019
4402 Clouds 4 1007 75 10000 4.1 80 19:18 14.11.2019
4403 Clouds 4 1008 75 10000 3.1 80 18:56 14.11.2019
4404 Clouds 4 1008 75 10000 3.1 80 18:38 14.11.2019
4405 Clouds 4 1007 75 10000 4.1 90 18:20 14.11.2019
4406 Clouds 4 1007 75 10000 4.1 90 18:20 14.11.2019
4407 Clouds 5 1007 75 10000 4.1 90 17:55 14.11.2019
4408 Clouds 5 1007 75 10000 4.1 90 17:37 14.11.2019
4409 Clouds 5 1007 75 10000 4.1 100 17:19 14.11.2019
4410 Clouds 6 1007 75 10000 4.6 100 16:57 14.11.2019
4411 Clouds 6 1007 75 10000 4.6 100 16:36 14.11.2019
4412 Clouds 6 1007 70 10000 5.1 100 16:18 14.11.2019
4413 Clouds 7 1007 70 10000 5.1 100 15:56 14.11.2019
4414 Clouds 7 1007 70 10000 5.7 100 15:37 14.11.2019
4415 Clouds 7 1006 70 10000 5.7 110 15:19 14.11.2019
4416 Clouds 8 1006 70 10000 5.1 110 14:44 14.11.2019
4417 Clouds 8 1007 70 10000 4.6 110 14:22 14.11.2019
4418 Clouds 8 1007 70 10000 4.6 110 13:57 14.11.2019
4419 Clouds 8 1007 70 10000 3.6 110 13:38 14.11.2019
4420 Clouds 8 1006 61 10000 4.1 130 13:19 14.11.2019
4421 Clouds 8 1006 61 10000 4.1 130 12:55 14.11.2019
4422 Clouds 8 1007 61 10000 3.6 140 12:36 14.11.2019
4423 Clouds 7 1007 70 10000 3.6 130 12:18 14.11.2019
4424 Clouds 7 1007 65 10000 2.6 130 11:39 14.11.2019
4425 Clear 7 1007 75 10000 1.5 0 11:20 14.11.2019
4426 Clear 7 1007 75 10000 1.5 0 11:20 14.11.2019
4427 Clear 7 1007 75 10000 1.5 0 11:20 14.11.2019
4428 Clear 7 1007 75 10000 1.5 0 11:20 14.11.2019
4429 Clear 7 1007 75 10000 1.5 0 10:58 14.11.2019
4430 Clear 6 1007 80 10000 1 0 10:40 14.11.2019
4431 Clear 5 1006 86 10000 1 120 10:20 14.11.2019
4432 Clear 5 1006 86 10000 1 120 09:56 14.11.2019
4433 Clear 5 1006 93 10000 2.1 100 09:38 14.11.2019
4434 Clear 0 1005 76 10000 1.5 110 09:19 14.11.2019
4435 Clear 0 1005 76 10000 1.5 110 08:47 14.11.2019
4436 Clear 0 1005 76 10000 1.5 110 08:25 14.11.2019
4437 Clouds 0 1005 88 10000 2.1 90 07:57 14.11.2019
4438 Clouds 0 1005 88 10000 1 100 07:37 14.11.2019
4439 Clouds 1 1004 88 10000 1 90 07:19 14.11.2019
4440 Clouds 1 1006 88 0 1.81 157 06:42 14.11.2019
4441 Clouds 1 1006 88 0 1.81 157 06:18 14.11.2019
4442 Clouds 2 1004 89 0 2.08 186 04:42 14.11.2019
4443 Clouds 2 1004 89 0 2.08 186 04:22 14.11.2019
4444 Clouds 2 1004 89 0 2.08 186 02:47 14.11.2019
4445 Clouds 2 1004 89 0 2.08 186 02:25 14.11.2019
4446 Clouds 3 1004 89 0 2.51 201 01:33 14.11.2019
4447 Clouds 4 1005 87 0 2.76 204 00:53 14.11.2019
4448 Clouds 4 1005 87 0 2.76 204 00:30 14.11.2019
4449 Clouds 4 1005 87 0 2.76 204 23:44 13.11.2019
4450 Clouds 4 1005 87 0 2.76 204 23:25 13.11.2019
4451 Clouds 5 1002 80 10000 3.1 230 22:59 13.11.2019
4452 Clouds 5 1002 80 10000 3.1 230 22:41 13.11.2019
4453 Clouds 5 1002 80 10000 3.1 230 22:22 13.11.2019
4454 Clouds 4 1002 80 10000 3.1 230 21:56 13.11.2019
4455 Clouds 4 1002 80 10000 3.1 210 21:38 13.11.2019
4456 Clouds 5 1002 80 10000 3.6 200 21:20 13.11.2019
4457 Clouds 5 1002 80 10000 3.6 200 20:57 13.11.2019
4458 Clouds 5 1002 80 10000 3.1 200 20:37 13.11.2019
4459 Clouds 5 1002 80 10000 3.1 200 20:37 13.11.2019
4460 Clouds 5 1002 80 10000 3.1 220 20:19 13.11.2019
4461 Clouds 5 1002 80 10000 3.1 220 19:56 13.11.2019
4462 Clouds 5 1002 75 10000 4.1 220 19:37 13.11.2019
4463 Clouds 5 1002 75 10000 3.6 210 19:18 13.11.2019
4464 Clouds 5 1002 75 10000 3.6 210 18:55 13.11.2019
4465 Clouds 5 1002 75 10000 5.1 230 18:36 13.11.2019
4466 Clouds 5 1002 75 10000 4.1 220 18:18 13.11.2019
4467 Clouds 5 1002 75 10000 4.1 220 17:56 13.11.2019
4468 Clouds 5 1002 75 10000 3.6 220 17:36 13.11.2019
4469 Clouds 5 1001 70 10000 3.6 200 17:18 13.11.2019
4470 Clouds 5 1001 70 10000 3.6 200 16:56 13.11.2019
4471 Clouds 5 1001 75 10000 3.6 220 16:37 13.11.2019
4472 Clouds 6 1001 65 10000 3.6 200 16:18 13.11.2019
4473 Clouds 6 1001 65 10000 3.6 200 15:55 13.11.2019
4474 Clouds 6 1001 65 10000 4.6 200 15:36 13.11.2019
4475 Clouds 6 1001 65 10000 4.6 220 15:18 13.11.2019
4476 Clouds 6 1000 65 10000 4.6 220 14:41 13.11.2019
4477 Clouds 6 1000 65 10000 4.1 230 14:20 13.11.2019
4478 Clouds 6 1000 65 10000 4.1 230 14:20 13.11.2019
4479 -273 0 0 0 0 0 13:38 13.11.2019
4480 Clouds 6 1000 70 10000 4.6 220 13:20 13.11.2019
4481 Clouds 6 1000 70 10000 4.6 220 12:58 13.11.2019
4482 Clouds 6 1001 73 10000 5.7 230 12:40 13.11.2019
4483 Clouds 6 1001 73 10000 5.7 210 12:21 13.11.2019
4484 Clouds 6 1001 73 10000 5.7 210 11:55 13.11.2019
4485 Clouds 5 1001 73 10000 5.7 240 11:37 13.11.2019
4486 Clouds 5 1001 75 10000 4.1 230 11:18 13.11.2019
4487 Clouds 5 1001 75 10000 4.1 230 10:55 13.11.2019
4488 Clouds 4 1001 75 10000 4.1 230 10:37 13.11.2019
4489 Clouds 4 1001 69 10000 2.6 190 10:19 13.11.2019
4490 Clouds 3 1001 74 10000 1.5 0 09:42 13.11.2019
4491 Clouds 3 1001 74 10000 2.6 160 09:20 13.11.2019
4492 Clouds 3 1001 74 10000 3.1 170 08:41 13.11.2019
4493 Clouds 2 1001 80 10000 3.1 160 08:23 13.11.2019
4494 Clouds 2 1001 80 10000 3.1 160 07:59 13.11.2019
4495 Clouds 2 1001 80 10000 2.6 160 07:39 13.11.2019
4496 Clouds 2 1001 80 10000 2.6 160 07:18 13.11.2019
4497 Clouds 2 999 98 0 2.63 191 06:42 13.11.2019
4498 Clouds 2 999 87 0 1.34 292 06:19 13.11.2019
4499 Clouds 2 999 88 0 0.89 270 05:48 13.11.2019
4500 Clouds 2 998 88 0 0.45 270 05:22 13.11.2019
4501 Clouds 3 1001 93 0 0.45 121 03:57 13.11.2019
4502 Rain 3 1001 92 0 2.5 198 01:52 13.11.2019
4503 Clouds 3 999 96 0 2.22 195 01:27 13.11.2019
4504 Rain 3 999 96 0 2.5 198 01:27 13.11.2019
4505 Rain 3 999 96 0 2.5 198 01:27 13.11.2019
4506 Clouds 3 999 96 0 2.22 195 00:43 13.11.2019
4507 Clouds 4 999 88 0 0.89 270 23:57 12.11.2019
4508 Clouds 4 1000 87 0 0.89 292 23:39 12.11.2019
4509 Clouds 4 1002 70 10000 3.1 200 23:19 12.11.2019
4510 Clouds 5 1002 70 10000 3.1 200 22:43 12.11.2019
4511 Clouds 5 1002 70 10000 3.1 200 22:19 12.11.2019
4512 Clouds 5 1002 70 10000 3.1 200 21:58 12.11.2019
4513 Clouds 5 1002 70 10000 2.6 180 21:39 12.11.2019
4514 Clouds 5 1002 70 10000 2.6 160 21:21 12.11.2019
4515 Clouds 5 1002 70 10000 2.6 160 20:56 12.11.2019
4516 Clouds 5 1002 70 10000 1.5 0 20:37 12.11.2019
4517 Clouds 5 1002 70 10000 1.5 0 20:37 12.11.2019
4518 Clouds 5 1002 70 10000 2.6 180 20:18 12.11.2019
4519 Clouds 5 1002 70 10000 2.6 180 20:18 12.11.2019
4520 Clouds 5 1002 70 10000 2.6 180 19:56 12.11.2019
4521 Clouds 6 1002 65 10000 2.6 190 19:38 12.11.2019
4522 Clouds 6 1002 65 10000 2.1 180 19:19 12.11.2019
4523 Clouds 6 1002 65 10000 2.1 180 18:57 12.11.2019
4524 Clouds 6 1002 85 10000 3.1 150 18:39 12.11.2019
4525 Clouds 6 1002 85 10000 3.6 150 18:21 12.11.2019
4526 Clouds 6 1002 85 10000 3.6 150 17:56 12.11.2019
4527 Clouds 6 1002 85 10000 3.6 150 17:56 12.11.2019
4528 Clouds 6 1002 85 10000 3.6 160 17:37 12.11.2019
4529 Clouds 6 1002 70 10000 3.1 170 17:19 12.11.2019
4530 Clouds 6 1002 70 10000 3.6 150 16:44 12.11.2019
4531 Clouds 7 1002 70 10000 3.6 150 16:25 12.11.2019
4532 Clouds 7 1002 61 10000 2.6 150 15:57 12.11.2019
4533 Clouds 7 1003 61 10000 3.6 160 15:39 12.11.2019
4534 Clouds 7 1002 70 10000 4.1 170 15:20 12.11.2019
4535 Clouds 7 1002 70 10000 4.1 170 14:56 12.11.2019
4536 Clouds 7 1002 70 10000 5.1 200 14:36 12.11.2019
4537 Clouds 7 1002 70 10000 5.1 200 14:36 12.11.2019
4538 Clouds 8 1002 61 10000 5.1 210 14:18 12.11.2019
4539 Clouds 8 1002 61 10000 5.1 210 13:55 12.11.2019
4540 Clouds 8 1003 61 10000 5.1 190 13:36 12.11.2019
4541 Clouds 8 1003 61 10000 5.1 190 13:36 12.11.2019
4542 Clouds 7 1003 61 10000 5.7 220 13:18 12.11.2019
4543 Clouds 7 1003 61 10000 5.7 220 13:18 12.11.2019
4544 Clouds 8 1003 67 10000 4.6 200 12:40 12.11.2019
4545 Clouds 7 1003 64 10000 6.2 200 12:19 12.11.2019
4546 Clouds 7 1003 67 10000 6.2 200 11:57 12.11.2019
4547 Clouds 7 1004 64 10000 5.7 200 11:39 12.11.2019
4548 Clouds 7 1004 65 10000 4.6 210 11:21 12.11.2019
4549 Clouds 6 1004 65 10000 3.1 220 10:55 12.11.2019
4550 Clouds 6 1004 65 10000 3.1 220 10:37 12.11.2019
4551 Clouds 6 1004 70 10000 3.6 200 10:19 12.11.2019
4552 Clear 6 1004 70 10000 3.1 160 09:40 12.11.2019
4553 Clear 5 1004 69 10000 3.6 140 09:21 12.11.2019
4554 Clear 4 1004 69 10000 2.6 120 08:51 12.11.2019
4555 Clear 4 1004 69 10000 2.6 120 08:30 12.11.2019
4556 Clouds 4 1003 85 10000 2.1 170 07:45 12.11.2019
4557 Clouds 4 1003 85 10000 2.1 170 07:26 12.11.2019
4558 Clouds 4 1003 85 10000 2.1 170 06:58 12.11.2019
4559 Clouds 4 1003 85 10000 3.6 180 06:39 12.11.2019
4560 Clouds 4 1005 88 0 4.72 209 06:21 12.11.2019
4561 Clouds 3 1005 87 0 4.72 209 05:43 12.11.2019
4562 Clouds 4 1005 87 0 2.99 208 04:42 12.11.2019
4563 Clouds 4 1005 89 0 2.99 208 03:30 12.11.2019
4564 Clouds 4 1005 88 0 2.87 198 01:42 12.11.2019
4565 Clouds 4 1005 88 0 3.05 209 01:20 12.11.2019
4566 Clouds 4 1002 85 0 0.89 270 00:46 12.11.2019
4567 Clouds 3 1005 87 0 3.05 209 00:22 12.11.2019
4568 Clouds 4 1004 76 10000 2.6 190 23:44 11.11.2019
4569 Clouds 4 1004 68 10000 2.6 190 23:22 11.11.2019
4570 Clouds 4 1004 68 10000 2.6 190 22:56 11.11.2019
4571 Clouds 4 1004 68 10000 2.6 190 22:36 11.11.2019
4572 Clouds 4 1004 68 10000 2.1 150 22:18 11.11.2019
4573 Clouds 3 1004 68 10000 2.1 150 21:56 11.11.2019
4574 Clouds 3 1003 68 10000 4.1 140 21:37 11.11.2019
4575 Clouds 4 1004 68 10000 4.1 150 21:19 11.11.2019
4576 Clouds 4 1004 68 10000 4.1 150 20:42 11.11.2019
4577 Clouds 4 1004 71 10000 3.6 150 20:20 11.11.2019
4578 Clouds 4 1004 71 10000 3.6 150 19:57 11.11.2019
4579 Clouds 4 1004 71 10000 3.6 150 19:39 11.11.2019
4580 Clouds 4 1004 71 10000 3.6 150 19:18 11.11.2019
4581 Clouds 4 1004 71 10000 3.6 150 18:54 11.11.2019
4582 Clouds 4 1004 71 10000 4.1 150 18:36 11.11.2019
4583 Clouds 4 1005 71 10000 3.6 140 18:18 11.11.2019
4584 Clouds 4 1005 71 10000 2.6 150 17:41 11.11.2019
4585 Clouds 4 1006 69 10000 3.1 160 17:23 11.11.2019
4586 Clouds 4 1006 70 10000 3.6 130 16:41 11.11.2019
4587 Clouds 4 1006 70 10000 3.6 130 16:22 11.11.2019
4588 Clouds 5 1006 70 10000 3.6 130 15:58 11.11.2019
4589 Clouds 5 1006 70 10000 3.1 110 15:40 11.11.2019
4590 Clouds 5 1007 65 10000 2.1 110 15:19 11.11.2019
4591 Clouds 6 1007 65 10000 1.5 0 14:44 11.11.2019
4592 Clouds 6 1007 65 10000 1.5 0 14:25 11.11.2019
4593 Clouds 6 1008 70 10000 2.1 130 13:58 11.11.2019
4594 Clouds 5 1008 70 10000 2.1 130 13:38 11.11.2019
4595 Clouds 6 1008 70 10000 2.1 130 13:19 11.11.2019
4596 Clouds 5 1008 70 10000 2.1 130 12:57 11.11.2019
4597 Clouds 5 1009 70 10000 2.1 0 12:39 11.11.2019
4598 Clouds 5 1009 70 10000 2.1 0 12:39 11.11.2019
4599 Clouds 5 1009 70 10000 2.1 0 12:39 11.11.2019
4600 Clouds 5 1009 75 10000 1.5 0 12:21 11.11.2019
4601 Clouds 4 1010 80 10000 2.1 190 11:42 11.11.2019
4602 Clouds 3 1010 65 10000 2.1 160 11:22 11.11.2019
4603 Clouds 3 1010 65 10000 2.1 160 10:57 11.11.2019
4604 Clouds 3 1010 65 10000 2.6 170 10:38 11.11.2019
4605 Clouds 2 1010 65 10000 2.1 170 10:18 11.11.2019
4606 Clouds 2 1010 65 10000 2.1 170 09:55 11.11.2019
4607 Clouds 2 1010 65 10000 2.1 160 09:36 11.11.2019
4608 Clouds 2 1011 65 10000 1.5 0 09:18 11.11.2019
4609 Clouds 2 1011 65 10000 2.1 190 08:39 11.11.2019
4610 Clouds 1 1011 92 10000 2.1 130 08:20 11.11.2019
4611 Clouds 1 1011 92 10000 2.1 130 07:55 11.11.2019
4612 Clouds 1 1012 92 7000 1.5 0 07:36 11.11.2019
4613 Clouds 1 1012 92 9000 2.1 100 07:18 11.11.2019
4614 Clouds 1 1010 98 0 2.14 170 06:41 11.11.2019
4615 Clouds 1 1014 92 0 2.14 170 06:21 11.11.2019
4616 Clouds 1 1014 92 0 2.14 170 05:50 11.11.2019
4617 Clear 2 1011 99 0 2.3 206 03:59 11.11.2019
4618 Clear 2 1015 93 0 2.3 206 03:22 11.11.2019
4619 Clear 2 1016 94 0 2.08 208 02:20 11.11.2019
4620 Clear 2 1015 94 0 2.08 208 01:53 11.11.2019
4621 Clear 2 1015 94 0 2.29 202 01:33 11.11.2019
4622 Clear 2 1013 96 0 0.45 292 00:47 11.11.2019
4623 Clear 2 1013 97 0 2.29 202 00:19 11.11.2019
4624 Clear 2 1013 97 0 0.45 270 23:39 10.11.2019
4625 Clear 2 1013 97 0 0.45 292 23:20 10.11.2019
4626 Clear 2 1012 99 0 1.96 200 22:57 10.11.2019
4627 Clear 2 1014 98 0 1.96 200 22:38 10.11.2019
4628 Clear 1 1015 85 5000 1.96 200 22:20 10.11.2019
4629 Clear 1 1015 85 5000 1.96 200 21:58 10.11.2019
4630 Clear 1 1015 85 5000 1.96 200 21:39 10.11.2019
4631 Clear 1 1015 85 5000 1.96 200 21:39 10.11.2019
4632 Clear 1 1015 85 5000 1.96 200 21:21 10.11.2019
4633 Clear 1 1015 85 5000 1.96 200 20:56 10.11.2019
4634 Clouds 2 1015 85 6000 1.96 200 20:37 10.11.2019
4635 Clouds 1 1015 86 5000 1.57 164 20:19 10.11.2019
4636 Clouds 2 1015 86 5000 1.57 164 19:54 10.11.2019
4637 Clear 2 1015 86 10000 1 0 19:36 10.11.2019
4638 Clear 2 1015 93 10000 1.57 164 19:18 10.11.2019
4639 Clear 2 1015 93 10000 1.57 164 19:18 10.11.2019
4640 Clear 2 1015 93 10000 1.57 164 18:54 10.11.2019
4641 Clear 2 1013 96 0 1.57 164 18:36 10.11.2019
4642 Clear 2 1015 86 10000 1.5 250 18:18 10.11.2019
4643 Clear 2 1015 86 10000 1.5 250 17:54 10.11.2019
4644 Clear 3 1014 86 10000 1 260 17:36 10.11.2019
4645 Rain 3 1014 80 10000 1 0 17:18 10.11.2019
4646 Rain 3 1014 80 10000 1 0 17:18 10.11.2019
4647 Rain 4 1016 94 0 0.85 49 16:43 10.11.2019
4648 Rain 4 1012 94 0 0.85 49 16:25 10.11.2019
4649 Clouds 6 1014 70 10000 0.85 49 15:56 10.11.2019
4650 Clouds 6 1014 70 10000 0.85 49 15:56 10.11.2019
4651 Clouds 6 1013 65 10000 1.5 0 15:37 10.11.2019
4652 Clouds 6 1013 61 10000 1 0 15:18 10.11.2019
4653 Clouds 6 1013 61 10000 1 0 14:56 10.11.2019
4654 Clouds 6 1013 70 10000 1 0 14:38 10.11.2019
4655 Clear 6 1013 70 10000 1 0 14:19 10.11.2019
4656 Clear 6 1013 70 10000 2.1 290 13:44 10.11.2019
4657 Clear 6 1013 70 10000 2.1 290 13:22 10.11.2019
4658 Clear 6 1013 70 10000 2.1 290 13:22 10.11.2019
4659 Clear 6 1013 70 10000 2.1 280 13:00 10.11.2019
4660 Clear 7 1013 70 10000 1 0 12:41 10.11.2019
4661 Clear 6 1013 70 10000 1 0 12:19 10.11.2019
4662 Clear 6 1013 70 10000 1 0 11:55 10.11.2019
4663 Clear 6 1013 70 10000 1 0 11:55 10.11.2019
4664 Clear 6 1013 75 10000 1 0 11:37 10.11.2019
4665 Clear 5 1013 86 10000 0.5 0 11:19 10.11.2019
4666 Clear 3 1013 93 10000 1.5 300 10:42 10.11.2019
4667 Clear 2 1013 75 10000 0.5 0 10:21 10.11.2019
4668 Clear 2 1013 75 10000 0.5 0 09:57 10.11.2019
4669 Clear 2 1012 92 10000 1.5 100 09:39 10.11.2019
4670 Clear 1 1012 92 10000 1.5 110 09:19 10.11.2019
4671 Clear 1 1010 97 0 0.41 254 08:39 10.11.2019
4672 Clear 0 1013 94 0 1.2 190 08:20 10.11.2019
4673 Clear -1 1009 96 0 1.2 190 07:46 10.11.2019
4674 Clear -1 1009 96 0 1.2 190 07:26 10.11.2019
4675 Clear 0 1009 97 0 1.2 190 06:59 10.11.2019
4676 Clear 0 1008 96 0 1.2 190 05:57 10.11.2019
4677 Clear 0 1010 93 0 1.43 189 03:33 10.11.2019
4678 Clear 1 1007 95 0 1.43 189 02:28 10.11.2019
4679 Clear 2 1007 94 0 1.64 194 01:37 10.11.2019
4680 Clear 2 1007 93 0 1.68 201 01:18 10.11.2019
4681 Clear 2 1010 92 0 1.68 201 00:23 10.11.2019
4682 Clear 3 1010 92 0 1.68 201 23:40 09.11.2019
4683 Clear 3 1008 95 0 1.34 39 23:19 09.11.2019
4684 Clear 3 1010 92 0 2.34 204 22:42 09.11.2019
4685 Clear 3 1009 92 0 2.34 204 22:22 09.11.2019
4686 Clear 3 1007 93 0 2.34 204 21:58 09.11.2019
4687 Clear 4 1008 95 0 2.34 204 21:40 09.11.2019
4688 Clear 4 1009 92 0 2.34 204 21:21 09.11.2019
4689 Clear 4 1006 93 0 2.34 204 20:56 09.11.2019
4690 Clear 5 1006 92 0 2.34 204 20:38 09.11.2019
4691 Clouds 5 1006 92 0 2.28 229 20:20 09.11.2019
4692 Clouds 5 1006 92 0 2.28 229 19:54 09.11.2019
4693 Clouds 5 1006 91 0 2.28 229 19:36 09.11.2019
4694 Clouds 5 1006 90 0 2.28 229 19:18 09.11.2019
4695 Clouds 6 1008 81 10000 2.1 210 18:39 09.11.2019
4696 -273 0 0 0 0 0 18:39 09.11.2019
4697 Clouds 6 1008 81 10000 2.1 210 18:19 09.11.2019
4698 Clouds 7 1008 81 10000 2.1 210 17:44 09.11.2019
4699 Clouds 7 1007 75 10000 2.6 220 17:23 09.11.2019
4700 Clouds 7 1007 75 10000 2.6 220 16:59 09.11.2019
4701 Clouds 7 1007 75 10000 2.1 220 16:41 09.11.2019
4702 Clouds 7 1007 75 10000 2.6 250 16:20 09.11.2019
4703 Clouds 8 1007 75 10000 2.6 250 15:54 09.11.2019
4704 Clouds 8 1007 75 10000 2.6 250 15:36 09.11.2019
4705 Clouds 8 1007 75 10000 3.6 260 15:18 09.11.2019
4706 Clouds 8 1007 75 10000 3.1 270 14:41 09.11.2019
4707 Clouds 8 1007 70 10000 4.1 280 14:20 09.11.2019
4708 Clouds 8 1007 70 10000 4.1 280 13:57 09.11.2019
4709 Clouds 8 1007 70 10000 4.1 280 13:57 09.11.2019
4710 Clouds 8 1007 75 10000 3.6 270 13:37 09.11.2019
4711 Clouds 8 1007 75 10000 4.1 250 13:18 09.11.2019
4712 Clouds 8 1007 81 10000 3.6 240 12:47 09.11.2019
4713 Clouds 8 1007 81 10000 3.6 240 12:29 09.11.2019
4714 Clouds 7 1007 87 10000 3.6 230 11:57 09.11.2019
4715 Clouds 7 1007 81 10000 3.6 250 11:39 09.11.2019
4716 Clouds 7 1008 87 10000 2.1 240 11:19 09.11.2019
4717 Clouds 6 1008 93 10000 2.1 240 10:42 09.11.2019
4718 Clouds 6 1007 93 10000 2.6 260 10:20 09.11.2019
4719 Clouds 6 1007 93 10000 2.6 260 09:59 09.11.2019
4720 Clouds 6 1007 93 10000 2.6 260 09:59 09.11.2019
4721 Clouds 6 1007 93 8000 2.6 260 09:41 09.11.2019
4722 Drizzle 5 1007 93 6000 2.6 260 09:20 09.11.2019
4723 Clouds 5 1009 94 0 2.31 259 08:43 09.11.2019
4724 Clouds 5 1006 96 0 2.51 266 08:24 09.11.2019
4725 Rain 5 1006 96 0 1.93 296 07:55 09.11.2019
4726 Rain 5 1006 96 0 1.93 296 07:37 09.11.2019
4727 Rain 5 1006 96 0 1.93 296 07:18 09.11.2019
4728 Rain 5 1008 94 0 1.93 296 06:42 09.11.2019
4729 Rain 5 1006 97 0 1.93 296 06:23 09.11.2019
4730 Rain 5 1005 96 0 1.93 296 05:39 09.11.2019
4731 Rain 5 1005 97 0 0.89 289 04:29 09.11.2019
4732 Rain 5 1007 93 10000 1 310 02:47 09.11.2019
4733 Rain 6 1007 93 10000 1 310 02:24 09.11.2019
4734 Rain 6 1005 96 0 1.82 332 01:18 09.11.2019
4735 Rain 6 1005 95 0 1.82 332 00:40 09.11.2019
4736 Rain 6 1007 93 0 1.82 332 00:21 09.11.2019
4737 Rain 6 1005 96 0 1.82 332 23:40 08.11.2019
4738 Clouds 6 1007 93 7000 1.5 330 23:22 08.11.2019
4739 Clouds 6 1007 93 7000 1.5 330 23:22 08.11.2019
4740 Clouds 6 1007 93 7000 1.5 330 22:58 08.11.2019
4741 Clouds 6 1007 93 7000 1.5 330 22:38 08.11.2019
4742 Clouds 6 1007 93 7000 1 330 22:20 08.11.2019
4743 Clouds 6 1007 93 7000 1 330 21:42 08.11.2019
4744 Clouds 6 1007 93 7000 1.58 347 21:23 08.11.2019
4745 Clouds 6 1007 93 7000 1.58 347 21:23 08.11.2019
4746 Clouds 6 1007 93 7000 1.58 347 20:57 08.11.2019
4747 Clouds 6 1007 93 9000 1 0 20:39 08.11.2019
4748 Clouds 6 1007 93 10000 1 0 20:19 08.11.2019
4749 Clouds 7 1007 87 10000 0.5 0 19:54 08.11.2019
4750 Clouds 7 1007 87 10000 0.5 0 19:36 08.11.2019
4751 Clouds 7 1007 87 10000 1 0 19:18 08.11.2019
4752 Clouds 7 1007 87 10000 1 0 18:54 08.11.2019
4753 Clouds 7 1007 87 10000 1 0 18:36 08.11.2019
4754 Rain 7 1007 87 10000 1.5 0 18:18 08.11.2019
4755 Rain 7 1007 87 10000 1.5 0 17:54 08.11.2019
4756 Rain 7 1007 87 10000 1 0 17:36 08.11.2019
4757 Clouds 7 1007 81 10000 1.5 0 17:18 08.11.2019
4758 Clouds 7 1007 81 10000 1.5 0 16:55 08.11.2019
4759 Clouds 8 1007 75 10000 1 0 16:37 08.11.2019
4760 Clouds 8 1007 75 10000 1.5 0 16:18 08.11.2019
4761 Clouds 8 1007 75 10000 1.5 0 15:41 08.11.2019
4762 Clouds 8 1007 75 10000 2.1 70 15:22 08.11.2019
4763 Clouds 8 1007 75 10000 2.1 70 15:22 08.11.2019
4764 Clouds 8 1007 75 10000 2.1 70 14:57 08.11.2019
4765 Clouds 8 1007 70 10000 2.1 60 14:38 08.11.2019
4766 Clouds 8 1007 70 10000 2.1 70 14:20 08.11.2019
4767 Clouds 8 1007 70 10000 2.1 70 13:58 08.11.2019
4768 Clouds 9 1007 76 10000 1.5 0 13:39 08.11.2019
4769 Clouds 8 1007 70 10000 1 0 13:21 08.11.2019
4770 Clouds 8 1007 76 10000 1 110 12:45 08.11.2019
4771 Clouds 8 1007 76 10000 1 110 12:27 08.11.2019
4772 Clouds 8 1007 76 10000 1 0 11:58 08.11.2019
4773 Clouds 8 1007 81 10000 1.5 0 11:40 08.11.2019
4774 Clouds 7 1007 87 10000 1 90 11:21 08.11.2019
4775 Clouds 7 1007 87 10000 1 90 10:58 08.11.2019
4776 Clouds 7 1007 87 10000 1.5 110 10:40 08.11.2019
4777 Clouds 6 1007 87 10000 1.5 90 10:21 08.11.2019
4778 Clouds 6 1007 87 10000 1.5 90 10:21 08.11.2019
4779 Clouds 6 1007 87 10000 1.5 90 09:58 08.11.2019
4780 Clouds 5 1007 93 10000 2.1 90 09:38 08.11.2019
4781 Clouds 5 1007 93 10000 1 0 09:19 08.11.2019
4782 Clouds 3 1007 93 10000 1.5 100 08:45 08.11.2019
4783 Clouds 3 1007 93 10000 1.5 100 08:21 08.11.2019
4784 Clouds 3 1006 86 10000 1.51 201 07:45 08.11.2019
4785 Clouds 4 1006 93 10000 1.5 0 07:24 08.11.2019
4786 Clouds 4 1006 93 10000 1.5 0 06:58 08.11.2019
4787 Clouds 5 1006 86 10000 2.1 180 06:38 08.11.2019
4788 Clouds 4 1008 84 0 1.51 201 06:19 08.11.2019
4789 Clouds 4 1008 84 0 1.51 201 05:36 08.11.2019
4790 Clouds 4 1007 89 0 2.31 191 04:29 08.11.2019
4791 Clouds 4 1007 89 0 2.31 191 03:43 08.11.2019
4792 Clouds 4 1007 89 0 2.31 191 03:19 08.11.2019
4793 Clouds 5 1006 90 0 3.05 201 01:57 08.11.2019
4794 Clouds 5 1006 90 0 3.05 201 01:37 08.11.2019
4795 Clouds 11 1002 88 0 3.15 209 00:49 08.11.2019
4796 Clouds 7 1002 88 0 3.15 209 00:23 08.11.2019
4797 Clouds 7 1002 88 0 3.15 209 23:52 07.11.2019
4798 Clouds 7 1002 88 0 3.15 209 23:33 07.11.2019
4799 Clouds 7 1001 93 0 3.69 209 22:59 07.11.2019
4800 Clouds 8 1002 76 10000 3.6 200 22:41 07.11.2019
4801 Clouds 8 1004 90 0 3.69 209 22:21 07.11.2019
4802 Clouds 8 1002 76 10000 3.6 200 21:55 07.11.2019
4803 Clouds 8 1002 76 10000 3.6 200 21:37 07.11.2019
4804 Clouds 8 1001 76 10000 3.1 170 21:18 07.11.2019
4805 Clouds 8 1001 76 10000 3.1 170 21:18 07.11.2019
4806 Clouds 8 1001 76 10000 3.1 170 20:55 07.11.2019
4807 Clouds 9 1001 76 10000 3.1 150 20:36 07.11.2019
4808 Clouds 9 1001 76 10000 3.1 180 20:18 07.11.2019
4809 Clouds 9 1001 71 10000 5.1 150 19:41 07.11.2019
4810 Clouds 9 1000 76 10000 3.6 120 19:23 07.11.2019
4811 Clouds 9 1000 76 10000 3.6 120 18:58 07.11.2019
4812 Clouds 9 1000 76 10000 3.6 110 18:39 07.11.2019
4813 Clouds 9 1000 76 10000 3.6 110 18:19 07.11.2019
4814 Clouds 9 1000 76 10000 3.6 110 17:59 07.11.2019
4815 Rain 9 1000 76 10000 3.1 130 17:39 07.11.2019
4816 Rain 10 1000 76 10000 3.1 130 17:20 07.11.2019
4817 Rain 10 1000 76 10000 3.1 130 16:57 07.11.2019
4818 Rain 10 1000 76 10000 3.6 130 16:38 07.11.2019
4819 Rain 10 1000 76 10000 3.6 130 16:19 07.11.2019
4820 Rain 10 1000 71 10000 3.1 140 15:54 07.11.2019
4821 Clouds 10 1000 71 10000 3.6 140 15:36 07.11.2019
4822 Clouds 10 1000 71 10000 3.6 140 15:18 07.11.2019
4823 Clouds 11 1000 76 10000 2.1 120 14:43 07.11.2019
4824 Clouds 11 1000 76 10000 3.1 130 14:25 07.11.2019
4825 Clouds 11 1000 81 10000 2.6 120 13:56 07.11.2019
4826 Clouds 11 1000 81 10000 2.6 120 13:56 07.11.2019
4827 Clouds 11 1000 81 10000 3.1 110 13:38 07.11.2019
4828 Clouds 11 1000 81 10000 3.1 110 13:20 07.11.2019
4829 Clouds 10 1001 87 10000 3.1 110 12:58 07.11.2019
4830 Clouds 10 1001 87 10000 3.1 110 12:39 07.11.2019
4831 Clouds 10 1001 87 10000 3.1 110 12:20 07.11.2019
4832 Clouds 10 1001 87 10000 3.1 110 12:20 07.11.2019
4833 Clouds 9 1001 87 10000 2.6 110 11:44 07.11.2019
4834 Clouds 9 1001 87 10000 2.6 110 11:44 07.11.2019
4835 Clouds 9 1001 87 8000 3.6 120 11:24 07.11.2019
4836 Clouds 9 1001 87 8000 3.6 120 11:23 07.11.2019
4837 Clouds 9 1001 93 7000 3.1 120 10:59 07.11.2019
4838 Clouds 9 1001 93 8000 3.6 120 10:40 07.11.2019
4839 Clouds 8 1001 93 8000 3.6 120 10:18 07.11.2019
4840 -273 0 0 0 0 0 09:42 07.11.2019
4841 Clouds 7 1001 93 6000 3.1 100 09:40 07.11.2019
4842 Clouds 7 1001 93 6000 3.1 100 09:20 07.11.2019
4843 -273 0 0 0 0 0 08:47 07.11.2019
4844 Rain 7 999 97 0 1.32 142 08:44 07.11.2019
4845 Rain 7 999 97 0 1.32 142 08:44 07.11.2019
4846 Rain 6 1002 94 0 1.06 107 08:22 07.11.2019
4847 Clouds 6 1000 98 0 0.73 125 07:57 07.11.2019
4848 Clouds 6 1000 98 0 0.73 125 07:39 07.11.2019
4849 Clouds 5 1001 100 6000 1.5 90 07:20 07.11.2019
4850 -273 0 0 0 0 0 06:46 07.11.2019
4851 Clouds 5 999 97 0 0.73 125 06:46 07.11.2019
4852 Clouds 5 999 97 0 0.73 125 06:25 07.11.2019
4853 Clouds 5 999 97 0 0.73 125 05:50 07.11.2019
4854 Clouds 5 998 10 0 0.73 125 05:31 07.11.2019
4855 Clouds 5 1000 97 0 1.31 151 04:52 07.11.2019
4856 Clouds 5 1002 94 0 1.31 151 04:30 07.11.2019
4857 Clouds 5 1000 97 0 1.31 151 04:30 07.11.2019
4858 Clouds 4 999 10 0 1.64 238 01:32 07.11.2019
4859 Clouds 5 1003 93 0 1.28 227 00:41 07.11.2019
4860 Clouds 5 1001 96 0 1.28 227 00:18 07.11.2019
4861 Clouds 5 1003 93 10000 1.28 227 23:45 06.11.2019
4862 Clouds 5 1003 93 10000 2.57 264 23:20 06.11.2019
4863 Clouds 6 1003 93 6000 0.5 0 22:41 06.11.2019
4864 Clouds 6 1003 93 6000 0.5 0 22:22 06.11.2019
4865 Clouds 6 1003 93 10000 2.57 264 21:59 06.11.2019
4866 Clouds 6 1003 93 10000 2.57 264 21:41 06.11.2019
4867 Clouds 7 1003 93 10000 2.57 264 21:20 06.11.2019
4868 Drizzle 7 1002 93 5000 2.1 260 20:58 06.11.2019
4869 Drizzle 7 1002 93 5000 2.1 290 20:40 06.11.2019
4870 Drizzle 7 1002 93 5000 2.1 290 20:20 06.11.2019
4871 Clouds 7 1002 93 10000 1.67 241 19:58 06.11.2019
4872 Clouds 7 1002 93 10000 1 0 19:39 06.11.2019
4873 Clouds 7 1002 93 10000 1 0 19:21 06.11.2019
4874 Clouds 7 1002 93 10000 1 0 18:57 06.11.2019
4875 Clouds 7 1002 93 10000 1 0 18:38 06.11.2019
4876 Clouds 7 1002 87 10000 1.5 320 18:19 06.11.2019
4877 Clouds 7 1002 87 10000 1.5 320 17:56 06.11.2019
4878 Clouds 8 1002 93 10000 2.1 320 17:37 06.11.2019
4879 Clouds 8 1001 87 10000 1 280 17:18 06.11.2019
4880 Clouds 8 1001 87 10000 1 280 16:54 06.11.2019
4881 Drizzle 8 1001 81 10000 2.1 280 16:36 06.11.2019
4882 Clouds 8 1001 87 10000 2.1 290 16:18 06.11.2019
4883 Clouds 8 1001 87 10000 2.1 290 15:54 06.11.2019
4884 Clouds 8 1001 81 10000 2.6 290 15:36 06.11.2019
4885 Clouds 8 1001 87 10000 2.6 300 15:18 06.11.2019
4886 Clouds 8 1001 87 10000 2.6 300 14:55 06.11.2019
4887 Clouds 8 1001 87 10000 3.1 290 14:36 06.11.2019
4888 Clouds 9 1001 87 10000 3.1 290 14:18 06.11.2019
4889 Clouds 8 1000 87 10000 3.6 290 13:38 06.11.2019
4890 Clouds 8 1000 87 10000 2.6 300 13:20 06.11.2019
4891 Clouds 8 1000 87 10000 2.6 300 12:57 06.11.2019
4892 Clouds 8 1000 87 10000 3.1 300 12:39 06.11.2019
4893 Drizzle 8 1000 93 10000 3.1 310 12:20 06.11.2019
4894 Drizzle 8 1000 93 10000 3.1 310 11:58 06.11.2019
4895 Drizzle 8 1000 93 10000 2.1 300 11:37 06.11.2019
4896 Drizzle 8 1000 93 10000 2.1 320 11:18 06.11.2019
4897 Drizzle 8 1000 93 10000 2.1 320 10:56 06.11.2019
4898 Drizzle 8 1000 93 10000 2.1 320 10:37 06.11.2019
4899 Drizzle 8 999 93 10000 1.5 0 10:19 06.11.2019
4900 Rain 7 999 93 10000 2.1 350 09:43 06.11.2019
4901 Rain 7 999 93 10000 2.1 350 09:43 06.11.2019
4902 Drizzle 7 999 93 10000 2.6 330 09:21 06.11.2019
4903 Drizzle 7 999 93 10000 2.6 330 08:57 06.11.2019
4904 Drizzle 7 999 93 4500 2.6 260 08:38 06.11.2019
4905 Drizzle 7 998 93 5000 3.1 260 08:19 06.11.2019
4906 Drizzle 7 998 93 5000 3.1 260 07:56 06.11.2019
4907 Drizzle 7 998 87 6000 3.6 250 07:37 06.11.2019
4908 Drizzle 7 998 87 7000 3.1 250 07:19 06.11.2019
4909 Rain 7 995 10 0 5.71 233 06:42 06.11.2019
4910 Rain 7 999 93 0 5.71 233 06:23 06.11.2019
4911 Clouds 7 996 93 0 3.95 232 03:58 06.11.2019
4912 Clouds 7 996 93 0 0.45 270 02:20 06.11.2019
4913 Clouds 7 995 10 0 3.55 233 01:31 06.11.2019
4914 Clouds 7 997 93 0 0.45 270 00:35 06.11.2019
4915 Clouds 7 996 93 0 3.55 233 23:58 05.11.2019
4916 Clouds 7 996 93 0 3.55 233 23:38 05.11.2019
4917 Clouds 7 997 87 10000 3.6 250 23:19 05.11.2019
4918 Clouds 7 997 87 10000 3.6 250 22:43 05.11.2019
4919 Clouds 8 997 87 10000 3.6 250 22:20 05.11.2019
4920 Clouds 8 997 87 10000 3.6 250 21:59 05.11.2019
4921 Clouds 8 997 87 10000 3.1 260 21:41 05.11.2019
4922 Clouds 8 997 93 10000 3.6 260 21:20 05.11.2019
4923 Clouds 8 997 93 10000 3.6 260 20:57 05.11.2019
4924 Clouds 8 997 87 10000 3.1 250 20:38 05.11.2019
4925 Clouds 8 997 87 10000 3.6 240 20:20 05.11.2019
4926 Clouds 8 997 87 10000 3.6 240 19:56 05.11.2019
4927 Rain 8 997 87 10000 3.1 240 19:38 05.11.2019
4928 Rain 8 997 87 10000 3.1 240 19:38 05.11.2019
4929 Rain 8 997 87 10000 2.6 250 19:20 05.11.2019
4930 Rain 8 997 87 10000 2.6 250 18:57 05.11.2019
4931 Rain 9 997 87 10000 4.1 250 18:38 05.11.2019
4932 Clouds 9 997 87 10000 3.1 240 18:19 05.11.2019
4933 Clouds 8 997 87 10000 3.1 240 17:57 05.11.2019
4934 Clouds 8 996 87 10000 3.1 240 17:38 05.11.2019
4935 Clouds 9 996 87 10000 3.6 250 17:18 05.11.2019
4936 Clouds 9 996 81 10000 4.1 240 16:42 05.11.2019
4937 Clouds 9 996 81 10000 3.6 240 16:22 05.11.2019
4938 Clouds 9 996 81 10000 3.6 240 15:59 05.11.2019
4939 Clouds 9 996 81 10000 3.6 250 15:37 05.11.2019
4940 Clouds 9 995 81 10000 4.6 260 15:19 05.11.2019
4941 Clouds 10 995 81 10000 4.6 260 14:57 05.11.2019
4942 Clouds 10 995 81 10000 5.7 260 14:38 05.11.2019
4943 Clouds 10 996 87 10000 4.6 250 14:19 05.11.2019
4944 Clouds 10 996 87 10000 4.6 250 14:19 05.11.2019
4945 Rain 10 996 87 10000 4.1 240 13:43 05.11.2019
4946 Rain 10 996 87 10000 4.1 240 13:24 05.11.2019
4947 Rain 10 996 87 10000 4.1 240 12:59 05.11.2019
4948 Rain 10 996 81 10000 3.6 240 12:39 05.11.2019
4949 Rain 10 996 81 10000 3.6 230 12:18 05.11.2019
4950 Rain 10 996 81 10000 3.6 230 11:54 05.11.2019
4951 Rain 10 995 87 10000 3.1 230 11:36 05.11.2019
4952 Rain 10 995 87 10000 3.1 230 11:36 05.11.2019
4953 Clouds 10 995 87 10000 3.1 250 11:18 05.11.2019
4954 Clouds 9 995 87 10000 3.6 270 10:41 05.11.2019
4955 Clouds 9 995 81 10000 5.1 260 10:23 05.11.2019
4956 Clouds 9 995 81 10000 5.1 260 10:23 05.11.2019
4957 Clouds 9 995 81 10000 5.1 260 09:57 05.11.2019
4958 Clouds 9 995 81 10000 3.6 250 09:38 05.11.2019
4959 Clouds 9 995 87 10000 2.6 230 09:19 05.11.2019
4960 Clouds 8 994 87 10000 3.1 250 08:40 05.11.2019
4961 Clouds 8 994 87 10000 4.1 240 08:21 05.11.2019
4962 Clouds 8 994 87 10000 4.1 240 07:59 05.11.2019
4963 Clouds 8 993 93 10000 2.1 220 07:41 05.11.2019
4964 Rain 8 993 93 10000 1.5 250 07:23 05.11.2019
4965 Rain 9 993 93 10000 3.1 240 06:51 05.11.2019
4966 Clouds 9 994 92 0 3.47 225 05:51 05.11.2019
4967 Clouds 9 990 99 0 3.47 225 05:29 05.11.2019
4968 Clouds 9 991 95 0 0.45 292 04:47 05.11.2019
4969 Clouds 9 993 97 0 2.83 206 03:58 05.11.2019
4970 Clouds 9 991 93 0 0.45 270 02:59 05.11.2019
4971 Clouds 8 990 10 0 2.83 206 02:41 05.11.2019
4972 Clouds 9 990 99 0 2.57 205 01:27 05.11.2019
4973 Clouds 8 991 93 0 2.57 205 00:38 05.11.2019
4974 Clouds 9 989 99 0 2.57 205 23:59 04.11.2019
4975 Clouds 9 993 92 0 2.57 205 23:41 04.11.2019
4976 Clouds 9 992 96 0 2.4 222 23:18 04.11.2019
4977 Clouds 9 990 91 0 0.45 270 22:54 04.11.2019
4978 Clouds 10 994 92 0 2.4 222 22:36 04.11.2019
4979 Clouds 10 991 81 10000 2.6 230 22:18 04.11.2019
4980 Clouds 10 991 81 10000 2.6 230 21:54 04.11.2019
4981 Clouds 10 991 81 10000 2.6 230 21:36 04.11.2019
4982 Clouds 10 991 81 10000 2.6 230 21:18 04.11.2019
4983 Clouds 10 991 81 10000 2.6 230 20:54 04.11.2019
4984 Clouds 10 991 81 10000 2.1 210 20:36 04.11.2019
4985 Rain 10 991 81 10000 1.5 0 20:18 04.11.2019
4986 Rain 10 990 81 10000 1.5 0 19:41 04.11.2019
4987 Clouds 10 990 81 10000 1.63 222 19:23 04.11.2019
4988 Clouds 10 990 81 10000 1.63 222 18:58 04.11.2019
4989 Rain 10 990 76 10000 1.5 250 18:39 04.11.2019
4990 Clouds 10 990 71 10000 2.6 220 18:21 04.11.2019
4991 Clouds 11 990 71 10000 2.6 220 17:56 04.11.2019
4992 Clouds 11 990 87 10000 0.5 120 17:36 04.11.2019
4993 Clouds 11 990 87 10000 0.5 120 17:18 04.11.2019
4994 Clouds 11 990 87 10000 1 0 16:42 04.11.2019
4995 Clouds 11 990 87 10000 1 0 16:24 04.11.2019
4996 Clouds 12 989 81 10000 0.5 50 15:58 04.11.2019
4997 Clouds 12 989 81 10000 1.5 310 15:40 04.11.2019
4998 Clouds 12 989 71 10000 2.6 280 15:21 04.11.2019
4999 Clouds 12 989 71 10000 2.6 280 14:58 04.11.2019
5000 Clouds 12 989 71 10000 3.1 260 14:39 04.11.2019
5001 Clouds 13 989 71 10000 4.1 250 14:20 04.11.2019
5002 Clouds 13 989 71 10000 4.1 250 13:58 04.11.2019
5003 Clouds 13 989 71 10000 4.6 250 13:39 04.11.2019
5004 Clouds 12 989 81 10000 4.6 240 13:20 04.11.2019
5005 Clouds 12 989 81 10000 4.6 240 12:55 04.11.2019
5006 Clouds 12 989 87 10000 3.6 240 12:37 04.11.2019
5007 Clouds 12 989 81 10000 4.1 230 12:18 04.11.2019
5008 Clouds 11 989 81 10000 4.1 240 11:42 04.11.2019
5009 Clouds 11 989 76 10000 4.6 240 11:23 04.11.2019
5010 Clouds 11 989 76 10000 4.6 240 11:23 04.11.2019
5011 Clouds 11 989 76 10000 4.6 240 10:58 04.11.2019
5012 Clouds 11 989 81 10000 3.6 230 10:39 04.11.2019
5013 Clouds 11 989 81 10000 2.6 220 10:20 04.11.2019
5014 Clouds 10 989 87 10000 3.1 240 09:45 04.11.2019
5015 Clouds 10 989 87 10000 3.1 240 09:45 04.11.2019
5016 Clouds 10 989 87 10000 3.1 240 09:27 04.11.2019
5017 Rain 10 989 87 10000 2.6 240 08:57 04.11.2019
5018 Rain 10 989 87 10000 3.1 240 08:37 04.11.2019
5019 Clouds 10 989 87 10000 5.7 240 08:18 04.11.2019
5020 Clouds 9 988 87 10000 3.6 240 07:42 04.11.2019
5021 Clouds 10 988 93 10000 4.1 240 07:21 04.11.2019
5022 Rain 10 987 92 0 0.45 270 06:49 04.11.2019
5023 Rain 10 987 91 0 0.45 270 06:18 04.11.2019
5024 Rain 10 989 91 0 5.56 239 05:42 04.11.2019
5025 Clouds 10 988 93 0 3.31 219 04:43 04.11.2019
5026 Clouds 11 988 93 0 3.31 219 04:21 04.11.2019
5027 Clouds 11 988 93 0 3.31 219 04:21 04.11.2019
5028 Clouds 11 986 94 0 0.45 292 02:25 04.11.2019
5029 Rain 11 987 96 0 2.81 208 01:21 04.11.2019
5030 Clouds 11 985 93 0 2.27 202 00:40 04.11.2019
5031 Clouds 11 985 92 0 0.89 270 00:20 04.11.2019
5032 Clouds 11 987 95 0 2.27 202 23:41 03.11.2019
5033 Clouds 11 987 95 0 1.25 164 23:21 03.11.2019
5034 Clouds 11 987 95 0 1.25 164 23:21 03.11.2019
5035 Clouds 11 987 95 0 1.25 164 23:21 03.11.2019
5036 Clouds 12 985 88 0 0.45 270 22:58 03.11.2019
5037 Clouds 11 985 87 0 1.25 164 22:40 03.11.2019
5038 Clouds 11 984 98 0 1.25 164 22:20 03.11.2019
5039 Clouds 11 987 88 0 1.25 164 21:57 03.11.2019
5040 Clouds 11 985 88 0 1.25 164 21:38 03.11.2019
5041 Clouds 11 985 88 0 1.25 164 21:20 03.11.2019
5042 Clouds 11 985 88 0 1.25 164 20:55 03.11.2019
5043 Clouds 11 985 89 0 1.25 164 20:36 03.11.2019
5044 Clouds 11 987 81 10000 2.1 90 20:18 03.11.2019
5045 Clouds 11 987 81 10000 2.1 90 19:55 03.11.2019
5046 Clouds 11 987 81 10000 2.1 90 19:37 03.11.2019
5047 Clouds 11 987 81 10000 2.1 90 19:18 03.11.2019
5048 Clouds 11 987 81 10000 2.1 120 18:38 03.11.2019
5049 Clouds 11 987 81 10000 2.1 120 18:38 03.11.2019
5050 Clouds 12 987 81 10000 2.1 90 18:18 03.11.2019
5051 Clouds 12 987 81 10000 2.1 90 17:58 03.11.2019
5052 Clouds 12 987 81 10000 2.1 100 17:39 03.11.2019
5053 Clouds 12 987 81 10000 2.1 120 17:18 03.11.2019
5054 Clouds 12 987 81 10000 2.1 120 16:55 03.11.2019
5055 Clouds 12 987 81 10000 2.1 120 16:55 03.11.2019
5056 Clouds 12 987 81 10000 2.1 120 16:55 03.11.2019
5057 Clouds 13 987 76 10000 2.1 150 16:37 03.11.2019
5058 Clouds 13 987 76 10000 2.6 140 16:18 03.11.2019
5059 Clouds 13 987 76 10000 2.6 140 15:54 03.11.2019
5060 Clouds 13 987 76 10000 2.1 150 15:36 03.11.2019
5061 Clouds 13 987 71 10000 2.6 150 15:18 03.11.2019
5062 Clouds 13 987 71 10000 2.1 210 14:40 03.11.2019
5063 Clouds 13 987 71 10000 3.1 200 14:19 03.11.2019
5064 Clouds 13 987 71 10000 3.1 200 13:55 03.11.2019
5065 Clouds 13 988 67 10000 2.6 200 13:36 03.11.2019
5066 Clouds 13 988 67 10000 2.6 200 13:36 03.11.2019
5067 Clouds 13 988 71 10000 2.6 170 13:18 03.11.2019
5068 Clouds 13 988 76 10000 3.1 170 12:38 03.11.2019
5069 Clouds 13 988 76 10000 3.1 170 12:19 03.11.2019
5070 Clouds 13 988 76 10000 3.1 170 11:56 03.11.2019
5071 Clouds 13 988 76 10000 2.6 150 11:37 03.11.2019
5072 Clouds 13 988 76 10000 3.6 130 11:19 03.11.2019
5073 Rain 13 988 76 10000 3.6 150 10:40 03.11.2019
5074 Clouds 12 988 76 10000 3.6 140 10:22 03.11.2019
5075 Clouds 12 988 76 10000 3.6 140 09:58 03.11.2019
5076 Clouds 11 988 81 10000 2.6 120 09:40 03.11.2019
5077 Rain 11 988 81 10000 2.6 120 09:21 03.11.2019
5078 Rain 11 989 81 10000 2.6 110 08:43 03.11.2019
5079 Rain 10 989 81 10000 2.6 110 08:24 03.11.2019
5080 Rain 10 989 81 10000 2.6 110 08:24 03.11.2019
5081 Rain 10 986 91 0 2.87 164 07:47 03.11.2019
5082 Rain 10 985 98 0 2.87 164 07:28 03.11.2019
5083 Rain 10 986 92 0 0.45 292 06:54 03.11.2019
5084 Rain 10 986 92 0 0.45 270 06:35 03.11.2019
5085 Rain 10 989 89 0 2.87 164 05:40 03.11.2019
5086 Rain 10 987 88 0 0.89 270 05:18 03.11.2019
5087 Rain 11 987 88 0 1.34 270 04:47 03.11.2019
5088 Rain 11 987 88 0 0.89 270 03:40 03.11.2019
5089 Rain 11 987 89 0 0.89 292 02:46 03.11.2019
5090 Clouds 11 990 87 0 2.3 189 02:21 03.11.2019
5091 Clouds 12 988 87 0 0.89 292 01:44 03.11.2019
5092 Rain 12 990 84 0 3.98 214 01:22 03.11.2019
5093 Rain 12 988 81 0 0.89 292 00:46 03.11.2019
5094 Rain 12 990 88 0 3.98 214 00:28 03.11.2019
5095 Rain 12 988 89 0 3.98 214 23:59 02.11.2019
5096 Rain 12 989 82 0 1.34 292 23:39 02.11.2019
5097 Clouds 13 989 80 0 1.34 270 23:20 02.11.2019
5098 Clouds 13 989 80 0 1.79 270 22:56 02.11.2019
5099 Clouds 13 989 82 0 2.24 292 22:38 02.11.2019
5100 Clouds 13 989 83 0 1.79 270 22:19 02.11.2019
5101 Clouds 13 989 88 0 2.25 174 21:57 02.11.2019
5102 Clouds 12 989 84 0 0.89 247 21:38 02.11.2019
5103 Clouds 13 989 80 0 1.34 270 21:18 02.11.2019
5104 Clouds 13 989 80 0 1.34 270 21:18 02.11.2019
5105 Clouds 13 989 80 0 1.34 270 21:18 02.11.2019
5106 Clouds 13 989 80 0 1.34 270 21:18 02.11.2019
5107 Clouds 12 989 90 0 2.25 174 20:59 02.11.2019
5108 Clouds 12 992 82 0 2.25 174 20:40 02.11.2019
5109 Clouds 12 989 78 0 1.79 270 20:20 02.11.2019
5110 Clouds 12 989 77 0 2.24 270 19:57 02.11.2019
5111 Clouds 12 989 80 0 1.34 292 19:36 02.11.2019
5112 Clouds 13 990 79 0 1.34 270 19:18 02.11.2019
5113 Clouds 12 990 78 0 1.34 270 18:54 02.11.2019
5114 Clouds 12 991 93 10000 1.5 0 18:36 02.11.2019
5115 Clouds 12 991 93 10000 1.5 0 18:18 02.11.2019
5116 Clouds 12 991 93 10000 1.5 0 18:18 02.11.2019
5117 Clouds 13 991 93 10000 1.5 0 17:42 02.11.2019
5118 Clouds 13 991 87 10000 3.1 190 17:24 02.11.2019
5119 Rain 13 991 87 10000 3.1 190 16:59 02.11.2019
5120 Clouds 14 991 93 10000 2.6 200 16:39 02.11.2019
5121 Clouds 14 991 87 10000 3.1 210 16:20 02.11.2019
5122 Drizzle 14 991 87 8000 4.1 240 15:43 02.11.2019
5123 Drizzle 15 991 82 10000 4.1 230 15:21 02.11.2019
5124 Drizzle 15 991 82 10000 4.1 230 14:57 02.11.2019
5125 Drizzle 15 991 87 10000 3.6 230 14:39 02.11.2019
5126 Drizzle 15 991 87 6000 4.1 300 14:21 02.11.2019
5127 Clouds 15 990 82 10000 3.6 230 13:40 02.11.2019
5128 Clouds 15 991 82 10000 4.1 220 13:20 02.11.2019
5129 Clouds 15 991 82 10000 4.1 220 12:59 02.11.2019
5130 Clouds 15 991 77 10000 6.2 220 12:40 02.11.2019
5131 Clouds 15 991 77 10000 7.2 220 12:21 02.11.2019
5132 Clouds 15 991 77 10000 7.2 220 11:55 02.11.2019
5133 Clouds 15 991 77 10000 6.7 220 11:36 02.11.2019
5134 Clouds 15 991 82 10000 5.7 220 11:18 02.11.2019
5135 Clouds 14 991 87 10000 4.6 210 10:42 02.11.2019
5136 Clouds 14 991 93 10000 3.1 200 10:23 02.11.2019
5137 Clouds 13 991 87 10000 3.6 190 09:43 02.11.2019
5138 Clouds 13 991 87 10000 4.1 200 09:22 02.11.2019
5139 Clouds 12 991 87 10000 4.1 200 08:57 02.11.2019
5140 Clouds 12 991 87 10000 4.1 200 08:57 02.11.2019
5141 Rain 12 990 95 0 1.34 292 08:37 02.11.2019
5142 Drizzle 12 992 93 10000 3.1 150 08:18 02.11.2019
5143 Drizzle 11 992 93 10000 3.1 150 07:44 02.11.2019
5144 Drizzle 11 992 93 10000 3.1 150 07:25 02.11.2019
5145 Rain 11 992 93 10000 2.6 170 06:52 02.11.2019
5146 Rain 11 992 93 10000 2.6 170 06:25 02.11.2019
5147 Rain 10 993 93 10000 2.6 180 05:50 02.11.2019
5148 Rain 10 992 95 0 0.89 270 04:28 02.11.2019
5149 Rain 10 992 95 0 0.45 292 03:59 02.11.2019
5150 Rain 9 995 93 0 3.19 207 03:32 02.11.2019
5151 Rain 9 995 93 0 3.19 207 03:32 02.11.2019
5152 Rain 9 997 93 0 3.19 207 02:32 02.11.2019
5153 Clouds 9 997 93 0 2.75 209 01:41 02.11.2019
5154 Rain 8 995 93 0 0.89 270 01:19 02.11.2019
5155 Rain 8 998 93 0 2.75 197 00:42 02.11.2019
5156 Rain 8 999 93 0 2.75 197 00:22 02.11.2019
5157 Rain 8 999 93 0 2.75 197 23:42 01.11.2019
5158 Rain 7 1000 100 10000 2.1 110 23:20 01.11.2019
5159 Rain 7 1000 100 10000 2.1 110 22:43 01.11.2019
5160 Rain 7 1000 100 10000 2.1 110 22:22 01.11.2019
5161 Rain 7 1000 100 10000 2.1 110 22:22 01.11.2019
5162 Rain 7 1000 100 10000 2.1 110 21:56 01.11.2019
5163 Rain 6 1000 93 10000 2.1 110 21:38 01.11.2019
5164 Rain 6 1001 93 8000 1.5 100 21:19 01.11.2019
5165 Rain 6 1001 93 8000 1.5 100 20:55 01.11.2019
5166 Rain 6 1002 93 10000 2.1 160 20:36 01.11.2019
5167 Rain 6 1002 93 10000 2.1 160 20:18 01.11.2019
5168 Rain 6 1003 93 10000 1.5 0 19:41 01.11.2019
5169 Rain 6 1003 87 10000 1.5 0 19:22 01.11.2019
5170 Rain 6 1003 87 10000 1.5 0 18:58 01.11.2019
5171 Rain 5 1003 87 10000 2.6 160 18:39 01.11.2019
5172 Rain 5 1004 93 7000 2.1 130 18:18 01.11.2019
5173 Rain 5 1004 93 7000 2.1 120 17:41 01.11.2019
5174 Rain 5 1005 93 5000 1.5 120 17:23 01.11.2019
5175 -273 0 0 0 0 0 16:59 01.11.2019
5176 Rain 5 1006 86 6000 1.5 120 16:36 01.11.2019
5177 Drizzle 5 1006 86 6000 1.5 120 16:18 01.11.2019
5178 Rain 5 1007 80 9000 1.5 130 15:41 01.11.2019
5179 Clouds 5 1007 75 10000 2.1 140 15:22 01.11.2019
5180 Clouds 5 1007 75 10000 2.1 140 14:58 01.11.2019
5181 Rain 5 1008 75 10000 2.6 110 14:40 01.11.2019
5182 Clouds 5 1009 62 10000 2.1 120 14:21 01.11.2019
5183 Clouds 5 1009 62 10000 2.1 120 13:56 01.11.2019
5184 Clouds 4 1009 62 10000 2.1 160 13:37 01.11.2019
5185 Clouds 4 1010 62 10000 2.6 170 13:18 01.11.2019
5186 Clouds 4 1011 62 10000 2.1 180 12:43 01.11.2019
5187 Clouds 4 1011 62 10000 2.1 180 12:24 01.11.2019
5188 Clouds 4 1012 74 10000 3.1 180 11:44 01.11.2019
5189 Clouds 3 1012 74 10000 3.1 180 11:25 01.11.2019
5190 Clouds 3 1012 59 10000 1.5 0 10:59 01.11.2019
5191 Clouds 2 1012 59 8000 1.5 0 10:40 01.11.2019
5192 Clouds 2 1013 59 7000 1.5 90 10:21 01.11.2019
5193 Clouds 2 1013 59 7000 1.5 90 09:56 01.11.2019
5194 Clouds 2 1013 59 7000 1.5 90 09:56 01.11.2019
5195 Clouds 1 1013 92 8000 2.6 110 09:36 01.11.2019
5196 Clouds 1 1013 92 8000 2.6 110 09:36 01.11.2019
5197 Clouds 1 1014 92 8000 1 0 09:18 01.11.2019
5198 Clouds 1 1012 91 0 0.45 292 08:42 01.11.2019
5199 Clouds -1 1015 92 7000 1.39 140 08:21 01.11.2019
5200 Clouds -1 1015 86 6000 1.39 140 07:53 01.11.2019
5201 -273 0 0 0 0 0 07:26 01.11.2019
5202 Clouds -2 1016 92 6000 1.5 0 06:57 01.11.2019
5203 Clouds -2 1013 90 0 0.45 225 06:39 01.11.2019
5204 Clouds -2 1017 93 0 1.39 140 06:21 01.11.2019
5205 Clouds -2 1017 92 0 1.39 140 05:43 01.11.2019
5206 Clear -1 1016 93 0 1.12 146 03:34 01.11.2019
5207 Clear -1 1016 93 0 1.12 146 03:34 01.11.2019
5208 Clear -1 1017 91 0 1.41 158 01:56 01.11.2019
5209 Clear -1 1018 91 0 1.41 158 01:28 01.11.2019
5210 Clear 0 1022 91 0 1.5 162 00:21 01.11.2019
5211 Clear 0 1019 87 0 1.5 162 23:59 31.10.2019
5212 Clear 0 1022 91 0 1.5 162 23:41 31.10.2019
5213 Clear 0 1021 83 0 2.31 130 23:22 31.10.2019
5214 Clear 0 1023 91 0 2.31 130 22:42 31.10.2019
5215 Clear 0 1020 90 0 2.31 130 22:24 31.10.2019
5216 Clear 0 1020 90 0 2.31 130 21:59 31.10.2019
5217 Clear 0 1020 85 0 2.31 130 21:41 31.10.2019
5218 Clear 0 1021 91 0 2.31 130 21:19 31.10.2019
5219 Clear 0 1021 83 0 2.31 130 20:55 31.10.2019
5220 Clear 0 1021 93 0 2.31 130 20:37 31.10.2019
5221 Clear 1 1020 92 0 2.8 132 20:19 31.10.2019
5222 Clear 1 1021 91 0 2.8 132 19:40 31.10.2019
5223 Clear 1 1021 91 0 2.8 132 19:40 31.10.2019
5224 Clear 1 1024 83 0 2.8 132 19:21 31.10.2019
5225 Clear 1 1024 83 0 2.8 132 19:21 31.10.2019
5226 Clear 2 1021 80 0 2.8 132 18:56 31.10.2019
5227 Clear 2 1021 90 0 2.8 132 18:36 31.10.2019
5228 Clear 3 1024 65 10000 3.1 110 18:18 31.10.2019
5229 Clear 3 1024 65 10000 3.1 110 17:41 31.10.2019
5230 Clear 4 1024 65 10000 3.1 110 17:21 31.10.2019
5231 Clear 5 1024 65 10000 3.1 110 16:57 31.10.2019
5232 Clouds 6 1024 63 10000 3.6 110 16:39 31.10.2019
5233 Clear 6 1024 63 10000 4.1 100 16:20 31.10.2019
5234 Clear 6 1024 63 10000 4.1 100 15:54 31.10.2019
5235 Clear 7 1024 52 10000 4.1 110 15:36 31.10.2019
5236 Clear 7 1024 52 10000 4.6 110 15:18 31.10.2019
5237 Clear 7 1025 63 10000 4.6 90 14:41 31.10.2019
5238 Clear 7 1025 50 10000 4.1 90 14:23 31.10.2019
5239 Clear 7 1025 50 10000 4.1 90 13:59 31.10.2019
5240 Clear 7 1025 50 10000 3.6 100 13:39 31.10.2019
5241 Clear 6 1026 53 10000 3.6 100 13:20 31.10.2019
5242 Clear 6 1026 53 10000 3.6 100 12:58 31.10.2019
5243 Clear 7 1026 70 10000 1 0 12:38 31.10.2019
5244 Clear 6 1026 70 10000 1.5 0 12:20 31.10.2019
5245 Clear 5 1026 75 10000 1.5 0 11:46 31.10.2019
5246 Clear 3 1027 64 10000 1.5 0 11:21 31.10.2019
5247 Clear 3 1027 64 10000 1.5 0 10:59 31.10.2019
5248 Clear 2 1027 64 10000 1.5 0 10:40 31.10.2019
5249 Clear 2 1027 64 10000 2.1 110 10:21 31.10.2019
5250 Clear 1 1027 64 10000 2.1 110 09:56 31.10.2019
5251 Clear 0 1027 64 10000 1.5 120 09:38 31.10.2019
5252 Clear -1 1027 92 9000 1.5 100 09:18 31.10.2019
5253 Clear -1 1027 92 6000 1 100 08:46 31.10.2019
5254 Clear -1 1027 92 6000 1 100 08:46 31.10.2019
5255 Clear -1 1027 92 6000 1 100 08:26 31.10.2019
5256 Clear -2 1024 96 0 1.69 119 07:48 31.10.2019
5257 Clear -2 1023 97 0 1.69 119 07:28 31.10.2019
5258 Clear -2 1023 97 0 1.69 119 06:55 31.10.2019
5259 Clear -2 1023 97 0 1.69 119 06:33 31.10.2019
5260 Clear -2 1023 96 0 1.69 119 05:32 31.10.2019
5261 Clear -1 1025 92 0 1.3 115 03:22 31.10.2019
5262 Clear -1 1025 93 0 1.3 115 02:38 31.10.2019
5263 Clear 0 1028 90 0 1.8 130 01:43 31.10.2019
5264 Clear 0 1025 93 0 1.91 128 00:35 31.10.2019
5265 Clear 0 1029 87 0 1.91 128 23:53 30.10.2019
5266 Clear 0 1025 87 0 1.91 128 23:28 30.10.2019
5267 Clear 0 1029 82 10000 2.1 100 22:43 30.10.2019
5268 Clear 0 1029 82 10000 2.1 100 22:21 30.10.2019
5269 Clear 1 1029 82 10000 2.1 100 21:55 30.10.2019
5270 Clear 1 1029 82 10000 2.1 100 21:37 30.10.2019
5271 Clear 1 1029 82 10000 2.1 90 21:18 30.10.2019
5272 Clear 1 1029 82 10000 2.1 90 20:59 30.10.2019
5273 Clear 1 1029 86 10000 1.5 110 20:41 30.10.2019
5274 Clear 1 1029 86 10000 1.5 110 20:41 30.10.2019
5275 Clouds 1 1029 77 10000 1.5 110 20:22 30.10.2019
5276 Clouds 2 1029 77 10000 1.5 110 19:58 30.10.2019
5277 Clouds 2 1029 77 10000 1 110 19:38 30.10.2019
5278 Clouds 2 1029 77 10000 1 90 19:20 30.10.2019
5279 Clouds 3 1029 77 10000 1 90 18:57 30.10.2019
5280 Clouds 3 1029 80 10000 1 90 18:36 30.10.2019
5281 Clouds 3 1029 74 10000 1.5 80 18:18 30.10.2019
5282 Clouds 4 1029 77 10000 2.1 80 17:41 30.10.2019
5283 Clouds 4 1029 77 10000 2.1 80 17:41 30.10.2019
5284 Clear 5 1028 64 10000 1.5 90 17:19 30.10.2019
5285 Clear 6 1028 64 10000 1.5 90 16:56 30.10.2019
5286 Clear 7 1029 64 10000 2.6 110 16:37 30.10.2019
5287 Clear 7 1029 64 10000 3.1 120 16:19 30.10.2019
5288 Clear 7 1029 64 10000 3.1 120 15:56 30.10.2019
5289 Clouds 8 1029 52 10000 3.1 130 15:37 30.10.2019
5290 Clouds 8 1029 64 10000 3.1 120 15:19 30.10.2019
5291 Clouds 8 1029 64 10000 3.1 120 14:55 30.10.2019
5292 Clouds 8 1029 64 10000 3.1 120 14:36 30.10.2019
5293 Clear 8 1029 58 10000 3.1 120 14:18 30.10.2019
5294 Clouds 8 1029 61 10000 3.1 110 13:42 30.10.2019
5295 Clear 9 1030 61 10000 3.6 120 13:20 30.10.2019
5296 Clear 8 1030 61 10000 3.6 120 12:58 30.10.2019
5297 Clear 8 1030 61 10000 3.1 90 12:40 30.10.2019
5298 Clear 8 1030 65 10000 2.6 90 12:22 30.10.2019
5299 Clear 8 1031 70 10000 3.1 90 11:43 30.10.2019
5300 Clear 7 1031 70 10000 3.1 90 11:25 30.10.2019
5301 Clear 6 1031 70 10000 2.6 110 10:58 30.10.2019
5302 Clear 5 1031 80 10000 2.1 100 10:39 30.10.2019
5303 Clear 5 1031 80 10000 2.1 110 10:20 30.10.2019
5304 Clear 4 1030 86 10000 1.5 120 09:40 30.10.2019
5305 Clear 3 1030 86 10000 1.5 110 09:22 30.10.2019
5306 Clear 2 1030 86 10000 1.5 110 08:55 30.10.2019
5307 Clear 2 1030 92 10000 1.5 100 08:37 30.10.2019
5308 Clear 0 1030 92 10000 1.72 111 08:18 30.10.2019
5309 Clear 0 1030 92 10000 1 80 07:43 30.10.2019
5310 Clear 0 1030 92 10000 0.5 230 06:56 30.10.2019
5311 Clear 0 1030 92 10000 0.5 230 06:56 30.10.2019
5312 Clear 0 1027 96 0 1.72 111 06:37 30.10.2019
5313 Clear 0 1025 94 0 1.72 111 05:56 30.10.2019
5314 Clear 0 1025 94 0 1.72 111 05:56 30.10.2019
5315 Clear 0 1025 94 0 1.72 111 05:56 30.10.2019
5316 Clear 0 1025 94 0 1.72 111 05:56 30.10.2019
5317 Clear 0 1026 96 0 1.72 111 05:38 30.10.2019
5318 Clear 1 1027 95 0 1.75 114 03:54 30.10.2019
5319 Clear 1 1027 91 0 1.75 114 03:23 30.10.2019
5320 Clear 1 1027 91 0 1.75 114 02:49 30.10.2019
5321 Clouds 2 1028 89 0 0.89 49 01:49 30.10.2019
5322 Clouds 2 1029 86 10000 2.18 98 00:38 30.10.2019
5323 Clouds 2 1029 86 10000 2.18 98 00:19 30.10.2019
5324 Clouds 3 1029 91 10000 2.18 98 23:41 29.10.2019
5325 Clouds 3 1029 85 10000 2.17 78 23:22 29.10.2019
5326 Clouds 4 1029 85 10000 2.6 80 22:42 29.10.2019
5327 Clouds 4 1029 80 10000 2.1 60 22:20 29.10.2019
5328 Clouds 4 1029 80 10000 2.1 60 21:55 29.10.2019
5329 Clouds 4 1028 75 10000 2.1 50 21:37 29.10.2019
5330 Clouds 4 1028 80 10000 1.5 0 21:19 29.10.2019
5331 Clouds 4 1028 80 10000 1.5 0 20:42 29.10.2019
5332 Clouds 5 1028 81 10000 1 0 20:23 29.10.2019
5333 Clouds 5 1028 81 10000 1 0 19:59 29.10.2019
5334 Clear 5 1028 81 10000 1 0 19:40 29.10.2019
5335 Clouds 5 1027 81 10000 1 0 19:22 29.10.2019
5336 Clouds 5 1027 81 10000 1 0 18:59 29.10.2019
5337 Clear 6 1027 75 10000 1 0 18:40 29.10.2019
5338 Clear 6 1027 81 10000 1 0 18:21 29.10.2019
5339 Clear 6 1027 81 10000 1 0 17:59 29.10.2019
5340 Clouds 6 1026 75 10000 1 0 17:40 29.10.2019
5341 Clouds 7 1026 75 10000 1 0 17:21 29.10.2019
5342 Clouds 7 1026 75 10000 1 0 16:58 29.10.2019
5343 Clouds 8 1026 70 10000 1 0 16:38 29.10.2019
5344 Clouds 9 1026 70 10000 2.1 350 16:18 29.10.2019
5345 Clouds 9 1026 70 10000 2.1 350 15:54 29.10.2019
5346 Clouds 9 1025 70 10000 2.13 19 15:36 29.10.2019
5347 Clouds 9 1025 70 10000 1 0 15:18 29.10.2019
5348 Clouds 9 1025 70 10000 1 0 14:42 29.10.2019
5349 Clouds 9 1025 70 10000 1 0 14:42 29.10.2019
5350 Clouds 9 1025 70 10000 2.1 0 14:23 29.10.2019
5351 Clouds 9 1025 70 10000 2.1 0 13:58 29.10.2019
5352 Clouds 9 1025 76 10000 1.5 0 13:39 29.10.2019
5353 Clouds 9 1025 87 10000 2.6 350 13:21 29.10.2019
5354 Clouds 9 1025 87 10000 2.6 350 13:21 29.10.2019
5355 Clouds 8 1025 93 10000 1.5 0 12:43 29.10.2019
5356 Clouds 8 1025 93 10000 1.5 0 12:43 29.10.2019
5357 Clouds 8 1025 93 10000 1.5 0 12:25 29.10.2019
5358 Clouds 8 1025 93 10000 2.1 270 11:56 29.10.2019
5359 Clouds 7 1025 93 8000 1.5 0 11:38 29.10.2019
5360 Mist 6 1025 93 3600 2.1 260 11:18 29.10.2019
5361 Mist 6 1025 93 3600 2.1 260 10:57 29.10.2019
5362 Mist 6 1025 100 1200 1.5 0 10:38 29.10.2019
5363 Fog 5 1024 93 600 1.5 0 10:19 29.10.2019
5364 Fog 5 1024 93 600 1.5 0 10:19 29.10.2019
5365 Fog 5 1024 93 400 1 0 09:43 29.10.2019
5366 Fog 4 1024 93 350 1.5 0 09:23 29.10.2019
5367 Fog 4 1024 93 350 1.5 0 09:23 29.10.2019
5368 Fog 4 1024 93 350 1.5 0 09:23 29.10.2019
5369 Fog 4 1024 93 350 1.5 0 08:58 29.10.2019
5370 Fog 4 1024 93 300 2.1 280 08:39 29.10.2019
5371 Fog 3 1023 93 300 2.1 280 08:21 29.10.2019
5372 Fog 3 1023 100 400 2.1 290 07:48 29.10.2019
5373 Fog 3 1022 93 1500 1 0 07:21 29.10.2019
5374 Fog 3 1022 93 1500 1 0 06:54 29.10.2019
5375 Clouds 3 1019 98 0 0.95 270 06:33 29.10.2019
5376 Clouds 3 1019 98 0 0.95 270 06:33 29.10.2019
5377 Clouds 3 1019 98 0 0.95 270 05:59 29.10.2019
5378 Clouds 3 1020 96 0 0.95 270 05:39 29.10.2019
5379 Clouds 3 1021 97 0 1.26 268 05:18 29.10.2019
5380 Clouds 4 1022 93 0 1.26 268 03:31 29.10.2019
5381 Clouds 4 1020 96 0 1.53 261 01:57 29.10.2019
5382 Clouds 4 1020 96 0 1.53 261 01:36 29.10.2019
5383 Clouds 5 1020 95 0 1.95 270 00:54 29.10.2019
5384 Clouds 5 1020 96 0 1.95 270 00:26 29.10.2019
5385 Clouds 5 1020 95 0 1.95 270 23:40 28.10.2019
5386 Clouds 5 1021 86 10000 2.6 260 23:20 28.10.2019
5387 Clouds 5 1021 86 10000 2.6 260 22:57 28.10.2019
5388 Clouds 5 1021 86 10000 2.6 260 22:57 28.10.2019
5389 Clouds 5 1021 86 10000 2.6 260 22:36 28.10.2019
5390 Clouds 5 1021 86 10000 2.6 260 22:18 28.10.2019
5391 Clouds 5 1021 86 10000 2.6 260 22:18 28.10.2019
5392 Clouds 5 1021 86 10000 2.6 260 21:54 28.10.2019
5393 Clouds 5 1021 86 10000 2.1 290 21:36 28.10.2019
5394 Clouds 5 1021 86 10000 2.6 260 21:18 28.10.2019
5395 Clouds 5 1021 93 10000 2.1 280 20:41 28.10.2019
5396 Clear 5 1021 93 10000 2.6 280 20:23 28.10.2019
5397 Clear 6 1021 93 10000 2.6 280 19:55 28.10.2019
5398 Clear 6 1021 87 10000 2.6 270 19:37 28.10.2019
5399 Clouds 6 1021 87 10000 2.1 270 19:18 28.10.2019
5400 Clouds 6 1021 87 10000 2.1 270 18:57 28.10.2019
5401 Clear 6 1021 87 10000 2.6 270 18:38 28.10.2019
5402 Clear 7 1021 87 10000 2.6 270 18:20 28.10.2019
5403 Clear 7 1021 87 10000 2.6 270 17:56 28.10.2019
5404 Clouds 7 1021 81 10000 3.6 270 17:38 28.10.2019
5405 Rain 8 1021 71 10000 4.1 280 17:18 28.10.2019
5406 Rain 9 1021 71 10000 4.1 280 16:55 28.10.2019
5407 Clouds 10 1020 71 10000 4.6 270 16:37 28.10.2019
5408 Clouds 10 1020 66 10000 4.6 270 16:19 28.10.2019
5409 Clouds 10 1020 66 10000 4.6 270 15:56 28.10.2019
5410 Clouds 11 1020 66 10000 4.6 260 15:37 28.10.2019
5411 Clouds 11 1021 62 10000 3.6 270 15:18 28.10.2019
5412 Clouds 11 1021 62 10000 3.6 270 14:54 28.10.2019
5413 Clouds 10 1021 71 10000 3.1 290 14:36 28.10.2019
5414 Clouds 10 1021 66 10000 4.1 290 14:18 28.10.2019
5415 Clouds 10 1021 66 10000 4.1 290 14:18 28.10.2019
5416 Clouds 10 1021 66 10000 4.6 270 13:41 28.10.2019
5417 Clouds 11 1021 76 10000 5.1 260 13:19 28.10.2019
5418 Clouds 11 1021 76 10000 5.1 260 12:59 28.10.2019
5419 Clouds 11 1021 76 10000 4.6 270 12:40 28.10.2019
5420 Clouds 11 1021 76 10000 4.6 260 12:19 28.10.2019
5421 Clouds 10 1022 81 10000 4.1 270 11:38 28.10.2019
5422 Clouds 9 1021 76 10000 4.6 270 11:20 28.10.2019
5423 Clouds 9 1021 76 10000 4.6 270 10:56 28.10.2019
5424 Clouds 8 1021 81 10000 5.1 270 10:38 28.10.2019
5425 Clouds 8 1021 81 10000 5.7 260 10:19 28.10.2019
5426 Clouds 8 1021 81 10000 5.7 260 09:54 28.10.2019
5427 Clear 8 1021 81 10000 4.6 260 09:36 28.10.2019
5428 Clear 7 1021 87 10000 4.1 260 09:18 28.10.2019
5429 Clear 7 1021 87 10000 4.1 260 08:55 28.10.2019
5430 Clouds 6 1021 87 10000 3.6 260 08:37 28.10.2019
5431 Clear 5 1021 93 10000 3.1 260 08:18 28.10.2019
5432 Clouds 5 1020 86 10000 2.6 250 07:42 28.10.2019
5433 Clouds 5 1020 86 10000 2.6 250 07:21 28.10.2019
5434 Clouds 5 1020 86 10000 2.6 250 06:55 28.10.2019
5435 Clouds 5 1020 86 10000 3.1 250 06:34 28.10.2019
5436 Clear 5 1019 92 0 4.26 236 04:39 28.10.2019
5437 Clear 6 1022 92 0 0.89 103 03:43 28.10.2019
5438 Clear 6 1019 90 0 4.26 236 02:45 28.10.2019
5439 Clouds 6 1019 90 0 4.82 243 01:36 28.10.2019
5440 Clouds 6 1019 88 0 4.82 244 00:46 28.10.2019
5441 Clouds 6 1022 91 0 4.82 244 00:23 28.10.2019
5442 Clouds 6 1018 96 0 4.82 244 23:44 27.10.2019
5443 Clouds 6 1022 90 0 4.29 248 23:21 27.10.2019
5444 Clouds 6 1018 95 0 4.29 248 22:56 27.10.2019
5445 Clouds 6 1018 95 0 4.29 248 22:56 27.10.2019
5446 Clouds 6 1019 87 0 4.29 248 22:37 27.10.2019
5447 Clouds 6 1019 87 0 4.29 248 22:18 27.10.2019
5448 Clouds 6 1017 95 0 4.29 248 21:40 27.10.2019
5449 Clouds 7 1022 89 0 4.29 248 21:22 27.10.2019
5450 Clouds 7 1017 94 0 4.87 267 20:59 27.10.2019
5451 Clouds 7 1020 75 10000 3.6 250 20:40 27.10.2019
5452 Clouds 7 1020 75 10000 3.6 250 20:22 27.10.2019
5453 Clouds 7 1020 75 10000 3.6 250 19:57 27.10.2019
5454 Clouds 7 1020 75 10000 3.6 250 19:37 27.10.2019
5455 Clouds 7 1020 75 10000 3.6 250 19:37 27.10.2019
5456 Clouds 7 1020 75 10000 3.1 260 19:19 27.10.2019
5457 Clouds 7 1020 75 10000 3.1 260 18:56 27.10.2019
5458 Clouds 7 1019 70 10000 3.1 260 18:38 27.10.2019
5459 Clouds 8 1019 70 10000 3.1 260 18:20 27.10.2019
5460 Clouds 8 1019 70 10000 3.1 260 17:55 27.10.2019
5461 Clouds 8 1019 70 10000 3.1 260 17:36 27.10.2019
5462 Clouds 9 1019 70 10000 3.1 270 17:18 27.10.2019
5463 Clouds 9 1019 70 10000 3.1 270 16:55 27.10.2019
5464 Clouds 10 1019 66 10000 4.6 280 16:37 27.10.2019
5465 Clouds 10 1019 62 10000 5.1 270 16:18 27.10.2019
5466 Clouds 10 1019 62 10000 5.1 270 15:55 27.10.2019
5467 Clouds 10 1019 62 10000 5.1 260 15:36 27.10.2019
5468 Clouds 11 1019 66 10000 5.1 270 15:18 27.10.2019
5469 Clouds 11 1019 62 10000 5.7 280 14:41 27.10.2019
5470 Clouds 11 1018 62 10000 5.7 280 14:19 27.10.2019
5471 Clouds 11 1018 62 10000 6.2 280 13:55 27.10.2019
5472 Clouds 11 1018 62 10000 6.2 280 13:37 27.10.2019
5473 Clouds 11 1018 62 10000 6.2 280 13:18 27.10.2019
5474 Clouds 11 1018 62 10000 5.7 290 12:42 27.10.2019
5475 Clouds 11 1018 71 10000 5.7 280 12:23 27.10.2019
5476 Clouds 11 1018 71 10000 5.7 280 11:55 27.10.2019
5477 Clouds 10 1018 76 10000 5.1 280 11:37 27.10.2019
5478 Clouds 10 1018 76 10000 5.7 280 11:18 27.10.2019
5479 Clouds 10 1017 81 10000 5.1 280 10:42 27.10.2019
5480 Clouds 10 1017 81 10000 5.7 280 10:23 27.10.2019
5481 Rain 9 1016 81 10000 5.7 280 09:44 27.10.2019
5482 Drizzle 9 1016 87 10000 5.1 290 09:20 27.10.2019
5483 Drizzle 10 1016 87 10000 5.1 290 08:59 27.10.2019
5484 Rain 10 1015 93 0 0.45 90 08:40 27.10.2019
5485 Rain 11 1014 93 0 7.68 249 08:20 27.10.2019
5486 Rain 12 1013 92 0 7.68 249 07:50 27.10.2019
5487 Rain 12 1013 90 0 7.68 249 07:29 27.10.2019
5488 Rain 13 1009 78 0 7.68 249 06:56 27.10.2019
5489 Rain 14 1011 82 0 1.79 270 06:37 27.10.2019
5490 Rain 15 1011 80 0 1.79 292 06:18 27.10.2019
5491 Rain 15 1011 76 0 1.34 270 05:38 27.10.2019
5492 Clouds 15 1010 74 0 1.79 225 04:35 27.10.2019
5493 Clouds 15 1013 79 0 7.03 222 02:46 27.10.2019
5494 Clouds 15 1011 73 0 2.24 270 01:36 27.10.2019
5495 Clouds 15 1011 73 0 2.68 270 01:18 27.10.2019
5496 Clouds 15 1010 79 0 6.99 220 00:42 27.10.2019
5497 Clouds 15 1013 78 0 6.21 221 00:18 27.10.2019
5498 Clouds 15 1013 73 0 6.21 221 23:41 26.10.2019
5499 Clouds 15 1013 73 0 6.21 221 23:22 26.10.2019
5500 Clouds 15 1011 71 0 2.24 292 22:59 26.10.2019
5501 Clouds 15 1014 73 0 0.45 136 22:40 26.10.2019
5502 Clouds 15 1011 71 0 1.79 247 22:20 26.10.2019
5503 Clouds 15 1011 71 0 1.79 270 21:59 26.10.2019
5504 Clouds 16 1011 59 10000 6.2 210 21:41 26.10.2019
5505 Clouds 16 1011 59 10000 6.2 210 21:21 26.10.2019
5506 Clouds 16 1011 59 10000 6.2 210 20:45 26.10.2019
5507 Clouds 16 1011 59 10000 6.2 210 20:45 26.10.2019
5508 Clouds 16 1012 59 10000 4.6 210 20:20 26.10.2019
5509 Clouds 16 1012 59 10000 4.6 210 20:20 26.10.2019
5510 Clouds 16 1012 59 10000 4.6 210 19:59 26.10.2019
5511 Clouds 16 1012 59 10000 4.1 210 19:40 26.10.2019
5512 Clouds 16 1012 59 10000 3.1 210 19:20 26.10.2019
5513 Clouds 16 1012 59 10000 3.1 210 18:56 26.10.2019
5514 Clouds 16 1012 59 10000 3.1 210 18:37 26.10.2019
5515 Clouds 16 1011 66 0 1.79 270 18:18 26.10.2019
5516 Clouds 17 1012 55 10000 4.1 210 17:56 26.10.2019
5517 Clouds 17 1012 55 10000 4.6 220 17:36 26.10.2019
5518 Clouds 18 1012 55 10000 5.1 220 17:18 26.10.2019
5519 Clouds 18 1013 52 10000 5.7 230 16:42 26.10.2019
5520 Clouds 18 1013 55 10000 6.7 220 16:22 26.10.2019
5521 Clouds 19 1013 55 10000 5.1 220 15:43 26.10.2019
5522 Clouds 19 1013 59 10000 6.2 220 15:20 26.10.2019
5523 Clouds 18 1013 59 10000 6.2 220 14:54 26.10.2019
5524 Clouds 18 1014 59 10000 6.2 220 14:36 26.10.2019
5525 Clouds 18 1015 67 10000 6.7 230 14:18 26.10.2019
5526 Clouds 18 1015 62 0 6.78 227 13:42 26.10.2019
5527 Clouds 17 1015 67 10000 6.2 230 13:22 26.10.2019
5528 Clouds 16 1015 72 10000 5.1 230 12:49 26.10.2019
5529 Clouds 15 1015 80 0 1.79 270 12:49 26.10.2019
5530 Clouds 15 1015 80 0 1.79 270 12:25 26.10.2019
5531 Clouds 15 1016 72 10000 5.1 230 11:56 26.10.2019
5532 Clouds 15 1016 72 10000 5.1 230 11:36 26.10.2019
5533 Clouds 15 1016 72 10000 5.1 230 11:18 26.10.2019
5534 Clouds 15 1016 72 10000 5.1 230 10:41 26.10.2019
5535 Clouds 15 1016 72 10000 5.1 230 10:23 26.10.2019
5536 Clouds 14 1015 71 10000 6.2 220 09:45 26.10.2019
5537 Clouds 14 1015 71 10000 6.2 220 09:27 26.10.2019
5538 Clouds 12 1017 80 0 5.96 222 08:44 26.10.2019
5539 Clouds 12 1017 80 0 5.96 222 08:25 26.10.2019
5540 Clouds 12 1017 80 0 5.96 222 08:25 26.10.2019
5541 Clouds 12 1017 80 0 5.96 222 07:56 26.10.2019
5542 Clouds 12 1017 80 0 5.96 222 07:31 26.10.2019
5543 Clouds 12 1017 80 0 5.96 222 06:47 26.10.2019
5544 Clouds 12 1017 80 0 5.96 222 06:28 26.10.2019
5545 Clouds 12 1017 82 0 4.9 225 05:21 26.10.2019
5546 Clouds 10 1015 95 0 4.9 225 04:32 26.10.2019
5547 Clouds 13 1019 83 0 4.18 212 03:22 26.10.2019
5548 Clouds 13 1016 81 0 1.34 270 01:58 26.10.2019
5549 Clouds 13 1017 81 0 1.79 292 01:37 26.10.2019
5550 Clouds 12 1016 92 0 4.76 208 00:27 26.10.2019
5551 Clouds 12 1018 71 10000 3.6 180 23:47 25.10.2019
5552 Clouds 12 1018 71 10000 3.6 180 23:21 25.10.2019
5553 Clouds 12 1019 76 10000 3.1 160 22:43 25.10.2019
5554 Clouds 12 1019 76 10000 3.1 160 22:25 25.10.2019
5555 Clouds 12 1019 76 10000 3.1 160 21:58 25.10.2019
5556 Clouds 12 1019 71 10000 2.6 170 21:40 25.10.2019
5557 Clouds 12 1019 71 10000 2.6 170 21:22 25.10.2019
5558 Clouds 12 1019 71 10000 2.6 170 20:59 25.10.2019
5559 Clouds 12 1019 71 10000 2.1 150 20:41 25.10.2019
5560 Clouds 12 1019 71 10000 2.1 170 20:19 25.10.2019
5561 Clouds 12 1019 71 10000 2.1 170 20:19 25.10.2019
5562 Clouds 12 1020 66 10000 2.1 160 19:45 25.10.2019
5563 Clouds 12 1020 66 10000 2.1 160 19:27 25.10.2019
5564 Clouds 13 1019 71 10000 2.28 198 18:47 25.10.2019
5565 Clouds 13 1019 71 10000 2.28 198 18:29 25.10.2019
5566 Clouds 15 1019 62 10000 2.1 230 17:56 25.10.2019
5567 Clouds 15 1019 59 10000 3.1 230 17:36 25.10.2019
5568 Clouds 16 1019 59 10000 3.6 250 17:18 25.10.2019
5569 Clouds 16 1019 55 10000 4.6 260 16:43 25.10.2019
5570 Clouds 17 1019 55 10000 6.7 250 16:22 25.10.2019
5571 Clouds 17 1019 55 10000 6.7 250 15:55 25.10.2019
5572 Clouds 17 1019 55 10000 6.2 260 15:37 25.10.2019
5573 Clouds 16 1019 55 10000 6.2 260 15:18 25.10.2019
5574 Clouds 16 1019 59 10000 6.7 240 14:42 25.10.2019
5575 Clouds 16 1019 59 10000 6.7 250 14:23 25.10.2019
5576 Clouds 17 1019 63 10000 6.7 250 13:44 25.10.2019
5577 Clouds 16 1019 63 10000 6.7 250 13:25 25.10.2019
5578 Clouds 16 1019 63 10000 6.7 260 12:59 25.10.2019
5579 Clouds 16 1019 67 10000 6.2 260 12:41 25.10.2019
5580 Clouds 15 1019 67 10000 6.2 250 12:21 25.10.2019
5581 Clouds 15 1019 67 10000 6.2 250 11:57 25.10.2019
5582 Clouds 15 1018 77 10000 5.1 270 11:38 25.10.2019
5583 Clouds 15 1018 72 10000 6.7 270 11:18 25.10.2019
5584 Clouds 15 1018 72 10000 6.2 270 10:40 25.10.2019
5585 Clouds 14 1017 76 10000 5.1 260 10:22 25.10.2019
5586 Clouds 14 1017 76 10000 5.1 260 09:57 25.10.2019
5587 Clouds 14 1017 72 10000 3.6 250 09:38 25.10.2019
5588 Clouds 14 1016 72 10000 6.7 240 09:19 25.10.2019
5589 Clouds 14 1015 76 10000 4.1 230 08:48 25.10.2019
5590 Clouds 13 1015 76 10000 4.1 230 08:29 25.10.2019
5591 Clouds 13 1015 76 10000 4.6 230 07:55 25.10.2019
5592 Clouds 13 1014 76 10000 4.6 220 07:34 25.10.2019
5593 Clouds 13 1016 84 0 4.9 218 06:42 25.10.2019
5594 Clouds 13 1013 89 0 0.89 270 05:54 25.10.2019
5595 Clouds 13 1012 10 0 3.8 216 05:33 25.10.2019
5596 Clouds 13 1015 86 0 3.8 216 04:52 25.10.2019
5597 Clouds 13 1012 82 0 0.45 270 03:37 25.10.2019
5598 Clouds 14 1012 77 10000 4.1 230 01:54 25.10.2019
5599 Clouds 15 1012 77 10000 5.1 230 00:59 25.10.2019
5600 Clouds 14 1011 88 0 0.89 292 00:20 25.10.2019
5601 Clouds 14 1010 97 0 4.22 217 23:40 24.10.2019
5602 Clouds 14 1010 82 10000 2.6 210 23:22 24.10.2019
5603 Clouds 14 1010 82 10000 2.6 210 22:56 24.10.2019
5604 Clouds 14 1010 82 10000 2.6 210 22:37 24.10.2019
5605 Clouds 14 1010 82 10000 2.6 210 22:18 24.10.2019
5606 Clouds 13 1010 82 10000 2.6 210 21:56 24.10.2019
5607 Clouds 13 1010 87 10000 1.5 0 21:37 24.10.2019
5608 Clouds 13 1010 87 10000 1.5 0 21:19 24.10.2019
5609 Clouds 13 1010 87 10000 1.5 0 20:56 24.10.2019
5610 Clouds 13 1010 87 10000 2.1 190 20:38 24.10.2019
5611 Clouds 13 1009 82 10000 2.6 190 20:19 24.10.2019
5612 Clouds 13 1009 82 10000 3.1 200 19:44 24.10.2019
5613 Clouds 14 1009 82 10000 3.1 200 19:24 24.10.2019
5614 Clouds 14 1009 87 10000 0.5 0 18:59 24.10.2019
5615 Clouds 14 1009 82 10000 3.69 205 18:40 24.10.2019
5616 Clear 14 1009 82 10000 1 0 18:22 24.10.2019
5617 Clear 15 1009 82 10000 1 0 17:59 24.10.2019
5618 Clear 15 1009 77 10000 2.1 210 17:39 24.10.2019
5619 Clear 16 1009 77 10000 2.6 230 17:20 24.10.2019
5620 Clear 16 1009 77 10000 2.6 230 16:55 24.10.2019
5621 Clear 16 1009 77 10000 3.6 240 16:37 24.10.2019
5622 Clear 16 1009 77 10000 4.6 240 16:18 24.10.2019
5623 Clear 16 1009 77 10000 4.6 240 15:55 24.10.2019
5624 Clouds 16 1009 77 10000 6.2 240 15:37 24.10.2019
5625 Clouds 15 1009 77 10000 6.7 230 15:18 24.10.2019
5626 Clouds 15 1009 87 10000 2.1 220 14:44 24.10.2019
5627 Clouds 15 1009 87 10000 2.1 220 14:26 24.10.2019
5628 Clouds 15 1009 93 8000 1.5 0 13:59 24.10.2019
5629 Clouds 15 1009 93 7000 1 0 13:39 24.10.2019
5630 Clouds 14 1008 93 6000 1.5 0 13:19 24.10.2019
5631 Clouds 14 1008 93 6000 1.5 0 12:56 24.10.2019
5632 Mist 14 1009 100 5000 3.43 234 12:38 24.10.2019
5633 Mist 13 1009 100 3900 1.5 0 12:19 24.10.2019
5634 Mist 13 1009 100 3900 1.5 0 11:56 24.10.2019
5635 Mist 13 1009 93 4400 1 0 11:36 24.10.2019
5636 Mist 13 1009 93 4400 1 0 11:36 24.10.2019
5637 Mist 13 1008 93 4500 1.5 0 11:18 24.10.2019
5638 Mist 13 1008 93 4500 1.5 0 11:18 24.10.2019
5639 Mist 12 1008 93 4100 1.5 0 10:42 24.10.2019
5640 Mist 12 1009 100 2200 1.5 0 10:23 24.10.2019
5641 Mist 12 1009 100 2200 1.5 0 09:55 24.10.2019
5642 Mist 12 1009 100 1700 2.1 90 09:36 24.10.2019
5643 Mist 12 1009 100 1500 3.6 140 09:18 24.10.2019
5644 Mist 11 1009 100 1300 2.1 130 08:42 24.10.2019
5645 Mist 11 1009 100 2500 1.5 0 08:20 24.10.2019
5646 Fog 11 1009 93 550 2.1 160 07:48 24.10.2019
5647 Fog 11 1009 93 400 2.1 130 07:24 24.10.2019
5648 Fog 11 1009 93 400 2.1 130 06:57 24.10.2019
5649 Clouds 11 1007 97 0 0.45 270 06:36 24.10.2019
5650 Clouds 11 1006 10 0 0.65 220 05:56 24.10.2019
5651 Clouds 11 1007 97 0 0.45 270 05:35 24.10.2019
5652 Clouds 11 1008 97 0 0.65 220 04:34 24.10.2019
5653 Clouds 12 1009 97 0 0.65 220 03:36 24.10.2019
5654 Clouds 12 1010 98 0 1.34 112 02:44 24.10.2019
5655 Clouds 12 1009 97 0 0.45 292 02:20 24.10.2019
5656 Clouds 12 1012 94 0 1.56 134 01:32 24.10.2019
5657 Clouds 12 1010 97 0 1.56 134 00:57 24.10.2019
5658 Clouds 12 1009 10 0 1.56 134 00:30 24.10.2019
5659 Clouds 12 1009 10 0 3.42 128 23:58 23.10.2019
5660 Clouds 13 1013 93 5000 4.6 110 23:38 23.10.2019
5661 Clouds 13 1013 93 5000 4.6 110 23:20 23.10.2019
5662 Clouds 12 1013 93 5000 4.6 110 22:57 23.10.2019
5663 Clouds 12 1013 93 5000 4.6 110 22:37 23.10.2019
5664 Clouds 12 1013 93 6000 4.6 100 22:18 23.10.2019
5665 Clouds 12 1013 93 6000 4.6 100 21:57 23.10.2019
5666 Clear 12 1013 93 7000 4.6 100 21:37 23.10.2019
5667 Clear 12 1014 93 8000 3.6 110 21:19 23.10.2019
5668 Clear 12 1014 93 8000 3.6 110 20:54 23.10.2019
5669 Clear 13 1014 87 9000 3.6 110 20:36 23.10.2019
5670 Clear 13 1014 93 10000 4.1 100 20:18 23.10.2019
5671 Clear 13 1014 93 10000 3.6 100 19:43 23.10.2019
5672 Clear 13 1015 87 10000 2.6 110 19:19 23.10.2019
5673 Clear 13 1015 87 10000 2.6 110 18:58 23.10.2019
5674 Clear 14 1015 87 10000 2.1 80 18:39 23.10.2019
5675 Clear 14 1015 77 10000 3.6 100 18:19 23.10.2019
5676 Clear 15 1015 77 10000 3.6 100 17:55 23.10.2019
5677 Clear 15 1015 77 10000 3.6 100 17:37 23.10.2019
5678 Clear 16 1015 77 10000 5.1 100 17:18 23.10.2019
5679 Clear 17 1015 77 10000 4.6 100 16:40 23.10.2019
5680 Clear 17 1016 72 10000 6.2 100 16:21 23.10.2019
5681 Clear 17 1016 72 10000 6.2 100 15:57 23.10.2019
5682 Clear 17 1016 72 10000 5.1 100 15:39 23.10.2019
5683 Clouds 17 1016 72 10000 6.2 110 15:20 23.10.2019
5684 Clouds 17 1016 72 10000 6.2 110 14:56 23.10.2019
5685 Clouds 16 1017 67 10000 5.7 110 14:37 23.10.2019
5686 Clouds 17 1017 72 10000 5.1 100 14:18 23.10.2019
5687 Clouds 16 1017 72 10000 4.1 100 13:43 23.10.2019
5688 Clouds 16 1017 72 10000 4.1 100 13:25 23.10.2019
5689 Clouds 15 1018 77 10000 3.1 0 12:57 23.10.2019
5690 Clouds 15 1018 77 10000 4.1 110 12:38 23.10.2019
5691 Clouds 15 1019 76 10000 5.1 120 12:19 23.10.2019
5692 Clouds 14 1019 76 10000 5.1 120 11:58 23.10.2019
5693 Clouds 13 1019 76 10000 4.6 100 11:39 23.10.2019
5694 Clouds 13 1020 87 10000 3.1 110 11:21 23.10.2019
5695 Clouds 12 1020 87 10000 3.1 110 10:55 23.10.2019
5696 Clouds 12 1020 87 10000 3.6 90 10:37 23.10.2019
5697 Clouds 11 1020 87 9000 2.1 80 10:18 23.10.2019
5698 Clouds 11 1020 87 9000 2.1 80 10:18 23.10.2019
5699 Clouds 11 1020 93 7000 1.5 0 09:40 23.10.2019
5700 Clouds 10 1021 92 0 0.81 133 09:22 23.10.2019
5701 Clouds 10 1021 93 8000 1.5 100 08:54 23.10.2019
5702 Clouds 9 1020 93 9000 0.5 110 08:36 23.10.2019
5703 Clouds 10 1020 93 10000 1 0 08:18 23.10.2019
5704 Clouds 10 1020 93 10000 1.5 0 07:41 23.10.2019
5705 Clouds 9 1021 93 10000 0.5 0 07:19 23.10.2019
5706 Clouds 9 1017 97 0 0.81 133 06:41 23.10.2019
5707 Clouds 9 1019 95 0 1.44 107 06:19 23.10.2019
5708 Clouds 9 1020 94 0 1.44 107 05:20 23.10.2019
5709 Clouds 9 1021 93 0 1.44 107 03:47 23.10.2019
5710 Clouds 8 1020 99 0 0.93 124 02:43 23.10.2019
5711 Clouds 8 1021 94 0 0.33 102 01:41 23.10.2019
5712 Clouds 8 1021 94 0 0.33 102 01:18 23.10.2019
5713 Clouds 8 1021 93 0 0.33 102 00:34 23.10.2019
5714 Clouds 8 1020 99 0 1.28 153 23:56 22.10.2019
5715 Clouds 8 1022 92 0 1.28 153 23:37 22.10.2019
5716 Clouds 9 1024 81 10000 1 0 23:18 22.10.2019
5717 Clouds 9 1024 81 10000 1 0 22:41 22.10.2019
5718 Clouds 9 1024 81 10000 1 0 22:41 22.10.2019
5719 Clouds 9 1024 81 10000 1 0 22:41 22.10.2019
5720 Clouds 9 1024 81 10000 1 0 22:23 22.10.2019
5721 Clouds 10 1024 81 10000 1 0 21:57 22.10.2019
5722 Clouds 10 1024 81 10000 1 0 21:57 22.10.2019
5723 Clouds 10 1024 81 10000 1 0 21:39 22.10.2019
5724 Clouds 10 1024 81 10000 1 0 21:19 22.10.2019
5725 Clouds 10 1024 81 10000 1 0 20:59 22.10.2019
5726 Clouds 10 1024 81 10000 1.5 250 20:41 22.10.2019
5727 Clouds 10 1024 81 10000 1.5 250 20:41 22.10.2019
5728 Clouds 10 1024 81 10000 2.1 250 20:23 22.10.2019
5729 Clouds 11 1024 81 10000 2.1 250 19:59 22.10.2019
5730 Clouds 11 1024 81 10000 2.1 280 19:41 22.10.2019
5731 Clouds 11 1024 81 10000 2.1 260 19:23 22.10.2019
5732 Clouds 11 1024 81 10000 2.1 260 18:57 22.10.2019
5733 Clouds 12 1024 81 10000 2.6 270 18:39 22.10.2019
5734 Clouds 12 1024 76 10000 3.1 250 18:20 22.10.2019
5735 Clouds 12 1024 76 10000 3.1 250 17:56 22.10.2019
5736 Clouds 13 1024 71 10000 3.6 250 17:37 22.10.2019
5737 Clouds 13 1023 71 10000 4.1 270 17:18 22.10.2019
5738 Clouds 13 1023 71 10000 4.1 270 16:56 22.10.2019
5739 Clouds 14 1024 71 10000 4.6 260 16:37 22.10.2019
5740 Clouds 14 1024 71 10000 4.6 270 16:18 22.10.2019
5741 Clouds 14 1024 71 10000 4.1 260 15:42 22.10.2019
5742 Clouds 14 1024 76 10000 4.6 260 15:20 22.10.2019
5743 Clouds 14 1024 71 10000 4.1 250 14:50 22.10.2019
5744 Clouds 14 1024 76 10000 4.1 250 14:22 22.10.2019
5745 Clouds 14 1024 76 10000 4.1 250 13:59 22.10.2019
5746 Clouds 14 1024 71 10000 4.1 250 13:41 22.10.2019
5747 Clouds 13 1024 76 10000 5.1 240 13:19 22.10.2019
5748 Clouds 13 1024 76 10000 5.1 240 12:55 22.10.2019
5749 Clouds 13 1024 71 10000 4.6 260 12:37 22.10.2019
5750 Clouds 13 1024 76 10000 4.6 260 12:19 22.10.2019
5751 Clouds 13 1024 71 10000 4.1 260 11:40 22.10.2019
5752 Clouds 12 1024 76 10000 3.1 250 11:22 22.10.2019
5753 Clouds 12 1024 76 10000 3.1 250 10:59 22.10.2019
5754 Clouds 12 1023 76 10000 3.1 240 10:38 22.10.2019
5755 Clouds 11 1023 76 10000 1.5 220 10:19 22.10.2019
5756 Clouds 11 1023 76 10000 1.5 220 10:19 22.10.2019
5757 Clouds 11 1023 76 10000 1.5 220 09:58 22.10.2019
5758 Clouds 11 1023 81 10000 2.1 210 09:40 22.10.2019
5759 Clouds 11 1023 81 10000 2.1 210 09:40 22.10.2019
5760 Clouds 10 1022 81 10000 2.1 230 09:21 22.10.2019
5761 Clouds 10 1022 81 10000 2.1 230 08:55 22.10.2019
5762 Clouds 10 1022 87 10000 1.5 260 08:37 22.10.2019
5763 Clouds 10 1022 93 10000 2.6 260 08:18 22.10.2019
5764 Clouds 10 1022 87 10000 0.5 0 07:42 22.10.2019
5765 Clouds 10 1022 87 10000 1.5 210 07:24 22.10.2019
5766 Clouds 10 1021 92 0 2.06 208 06:40 22.10.2019
5767 Clouds 10 1023 92 0 2.38 230 06:21 22.10.2019
5768 Clouds 11 1021 92 0 2.38 230 05:34 22.10.2019
5769 Clouds 11 1022 92 0 2.38 230 04:22 22.10.2019
5770 Clouds 12 1021 89 0 2.66 249 02:30 22.10.2019
5771 Clouds 12 1020 92 0 2.66 249 01:38 22.10.2019
5772 Clouds 12 1022 94 0 0.89 40 01:18 22.10.2019
5773 Clouds 13 1018 91 0 2.66 249 00:42 22.10.2019
5774 Clouds 13 1023 95 0 2.66 249 00:24 22.10.2019
5775 Clouds 13 1023 95 0 2.66 249 00:24 22.10.2019
5776 Clouds 13 1020 88 0 3.16 223 23:59 21.10.2019
5777 Clouds 13 1020 87 10000 1.5 240 23:38 21.10.2019
5778 Clouds 13 1020 87 10000 1.5 240 23:19 21.10.2019
5779 Clouds 13 1020 87 10000 1.5 240 22:58 21.10.2019
5780 Clouds 13 1020 87 10000 1.5 240 22:39 21.10.2019
5781 Clouds 13 1020 93 10000 1 90 22:20 21.10.2019
5782 Clouds 13 1020 93 10000 1 90 21:57 21.10.2019
5783 Clouds 13 1020 93 10000 1 90 21:38 21.10.2019
5784 Clouds 14 1020 87 10000 1.5 100 21:20 21.10.2019
5785 Clouds 14 1020 87 10000 1.5 100 20:57 21.10.2019
5786 Clouds 14 1020 87 10000 0.5 0 20:38 21.10.2019
5787 Clouds 14 1019 77 10000 1 0 20:20 21.10.2019
5788 Clouds 15 1019 77 10000 1 0 19:56 21.10.2019
5789 Clouds 15 1019 72 10000 2.1 180 19:37 21.10.2019
5790 Clouds 15 1019 72 10000 1.5 0 19:19 21.10.2019
5791 Clouds 16 1019 72 10000 1.5 0 18:55 21.10.2019
5792 Clouds 16 1019 72 10000 1.5 0 18:55 21.10.2019
5793 Clouds 16 1018 77 10000 2.1 160 18:36 21.10.2019
5794 Clouds 16 1018 77 10000 0.5 110 18:18 21.10.2019
5795 Clouds 16 1018 77 10000 0.5 110 18:18 21.10.2019
5796 Clouds 17 1018 72 10000 2.6 190 17:39 21.10.2019
5797 Clouds 17 1018 72 10000 2.1 170 17:20 21.10.2019
5798 Clouds 17 1018 72 10000 2.1 170 16:58 21.10.2019
5799 Clouds 18 1018 68 10000 3.1 200 16:40 21.10.2019
5800 Clouds 18 1018 68 10000 3.1 200 16:22 21.10.2019
5801 Clouds 18 1018 68 10000 3.1 200 15:58 21.10.2019
5802 -273 0 0 0 0 0 15:39 21.10.2019
5803 Clouds 19 1017 68 10000 3.1 220 15:19 21.10.2019
5804 Clouds 19 1017 68 10000 3.1 220 14:40 21.10.2019
5805 Clouds 19 1017 72 10000 2.1 180 14:22 21.10.2019
5806 Clouds 18 1017 72 10000 2.1 180 13:59 21.10.2019
5807 Clouds 18 1017 82 10000 2.1 160 13:41 21.10.2019
5808 Clouds 17 1017 87 10000 2.6 200 13:20 21.10.2019
5809 Clouds 17 1017 87 10000 2.6 200 12:58 21.10.2019
5810 Clouds 17 1017 93 10000 3.1 220 12:40 21.10.2019
5811 Clear 16 1017 100 10000 2.1 170 12:20 21.10.2019
5812 Clear 16 1017 100 10000 2.1 170 11:54 21.10.2019
5813 Clear 16 1017 100 10000 2.1 170 11:54 21.10.2019
5814 Clear 16 1017 100 10000 2.1 170 11:54 21.10.2019
5815 Clouds 15 1016 93 10000 1.5 0 11:36 21.10.2019
5816 Clouds 14 1016 93 6000 2.6 130 11:18 21.10.2019
5817 Clouds 14 1016 93 6000 2.6 130 10:54 21.10.2019
5818 Clouds 14 1016 93 6000 2.6 130 10:54 21.10.2019
5819 Clouds 14 1016 93 6000 2.6 130 10:54 21.10.2019
5820 Mist 14 1015 100 3900 2.1 120 10:36 21.10.2019
5821 Mist 13 1015 93 1100 1.5 0 10:18 21.10.2019
5822 Fog 13 1015 93 500 2.1 140 09:40 21.10.2019
5823 Fog 12 1014 93 400 1.5 0 09:21 21.10.2019
5824 Fog 12 1014 93 700 2.6 110 08:42 21.10.2019
5825 Fog 12 1013 93 750 2.6 110 08:23 21.10.2019
5826 Fog 12 1013 93 750 2.6 110 07:56 21.10.2019
5827 Fog 12 1014 100 900 1 0 07:37 21.10.2019
5828 Fog 12 1013 93 750 2.6 100 07:18 21.10.2019
5829 Clouds 12 1010 10 0 1 193.981 06:44 21.10.2019
5830 Clouds 12 1012 97 0 1 193.981 06:25 21.10.2019
5831 Clouds 12 1010 99 0 0.91 270.126 05:41 21.10.2019
5832 Clouds 13 1012 91 0 0.91 270.126 03:41 21.10.2019
5833 Clouds 13 1010 97 0 1.19 260.641 02:40 21.10.2019
5834 Clouds 13 1010 97 0 1.19 260.641 02:20 21.10.2019
5835 Clouds 14 1011 97 0 1.19 260.641 01:48 21.10.2019
5836 Clouds 14 1010 97 0 1.06 133.541 01:20 21.10.2019
5837 Clouds 14 1010 90 0 1.06 133.541 00:41 21.10.2019
5838 Clouds 14 1010 90 0 1.88 122.125 00:22 21.10.2019
5839 Clouds 14 1008 97 0 1.88 122.125 23:40 20.10.2019
5840 Clouds 14 1009 90 0 1.88 122.125 23:21 20.10.2019
5841 Clouds 14 1008 97 0 1.88 122.125 22:55 20.10.2019
5842 Clouds 14 1008 97 0 1.88 122.125 22:36 20.10.2019
5843 Clouds 14 1008 97 0 1.88 122.125 22:18 20.10.2019
5844 Clear 14 1010 93 10000 1.5 0 21:40 20.10.2019
5845 Clear 14 1010 93 10000 1.5 0 21:40 20.10.2019
5846 Clear 14 1010 93 10000 1.5 0 21:22 20.10.2019
5847 Clear 14 1010 93 10000 1.5 0 20:59 20.10.2019
5848 Clear 14 1010 93 10000 1.5 0 20:39 20.10.2019
5849 Clear 14 1010 93 10000 1.5 0 20:18 20.10.2019
5850 Clear 14 1010 93 10000 1.5 0 20:18 20.10.2019
5851 Clear 14 1010 93 10000 1.5 0 19:56 20.10.2019
5852 Clouds 14 1010 93 10000 1.5 0 19:37 20.10.2019
5853 Clouds 14 1010 93 10000 1 0 19:19 20.10.2019
5854 Clouds 14 1010 87 10000 1 0 18:42 20.10.2019
5855 Clouds 15 1010 87 10000 1 0 18:23 20.10.2019
5856 Clouds 15 1010 87 10000 1 0 17:59 20.10.2019
5857 Rain 15 1009 87 10000 1.5 0 17:40 20.10.2019
5858 Rain 15 1009 87 10000 1.5 0 17:21 20.10.2019
5859 Rain 15 1009 87 10000 1.5 0 16:56 20.10.2019
5860 Clouds 15 1010 87 10000 0.5 0 16:37 20.10.2019
5861 Clouds 15 1010 87 10000 0.5 0 16:18 20.10.2019
5862 Clouds 15 1010 87 10000 0.5 0 15:54 20.10.2019
5863 Clouds 15 1010 87 10000 0.5 0 15:54 20.10.2019
5864 Clouds 15 1010 87 10000 1.5 0 15:36 20.10.2019
5865 Clouds 15 1009 87 10000 1.5 0 15:18 20.10.2019
5866 Clouds 15 1010 87 10000 1 0 14:39 20.10.2019
5867 Clouds 15 1010 87 10000 1 0 14:21 20.10.2019
5868 Clouds 15 1010 87 10000 1 0 13:56 20.10.2019
5869 Clouds 15 1010 87 10000 1 0 13:37 20.10.2019
5870 Clouds 15 1010 87 10000 1 0 13:37 20.10.2019
5871 Clouds 15 1009 93 10000 1.5 0 13:19 20.10.2019
5872 Clouds 15 1009 93 10000 1.5 0 12:58 20.10.2019
5873 Clouds 15 1010 87 10000 1 0 12:39 20.10.2019
5874 Clouds 15 1010 87 10000 1.5 0 12:21 20.10.2019
5875 Clouds 15 1010 87 10000 1.5 0 11:59 20.10.2019
5876 Clouds 14 1010 93 10000 1.5 0 11:40 20.10.2019
5877 Clouds 14 1010 100 7000 2.1 100 11:22 20.10.2019
5878 Clouds 13 1010 100 7000 2.1 100 10:58 20.10.2019
5879 Clouds 13 1009 93 10000 1 80 10:39 20.10.2019
5880 Clouds 13 1009 93 10000 1 90 10:20 20.10.2019
5881 Clouds 13 1009 93 10000 1 90 09:54 20.10.2019
5882 Clouds 12 1009 93 10000 1.5 340 09:36 20.10.2019
5883 Clouds 12 1009 93 10000 2.1 300 09:18 20.10.2019
5884 Rain 12 1007 93 0 1.07 213.853 08:39 20.10.2019
5885 Rain 12 1007 92 0 1.07 213.853 08:20 20.10.2019
5886 Rain 12 1008 92 0 1.07 213.853 07:47 20.10.2019
5887 Rain 12 1007 91 0 1.07 213.853 07:26 20.10.2019
5888 Rain 13 1006 92 0 1.07 213.853 06:30 20.10.2019
5889 Rain 13 1006 92 0 1.34 179.701 04:28 20.10.2019
5890 Rain 12 1006 89 0 1.34 179.701 03:50 20.10.2019
5891 Clouds 12 1008 90 0 1.71 205.967 03:22 20.10.2019
5892 Clouds 13 1006 88 0 0.89 270 02:48 20.10.2019
5893 Clouds 13 1008 89 0 1.71 205.967 02:22 20.10.2019
5894 Clouds 13 1006 86 0 0.45 270 01:49 20.10.2019
5895 Clouds 13 1007 86 0 0.45 270 01:21 20.10.2019
5896 Clouds 13 1006 85 0 0.45 270 00:48 20.10.2019
5897 Clouds 13 1006 85 0 0.89 292 00:20 20.10.2019
5898 Clouds 13 1006 85 0 0.89 292 23:54 19.10.2019
5899 Clouds 13 1008 88 0 1.98 205.066 23:54 19.10.2019
5900 Clouds 13 1006 85 0 0.89 270 23:36 19.10.2019
5901 Clouds 13 1008 88 0 1.98 205.066 23:18 19.10.2019
5902 Clouds 13 1006 86 0 0.45 292 22:40 19.10.2019
5903 Clouds 13 1006 85 0 0.45 225 22:21 19.10.2019
5904 Clouds 13 1006 84 0 0.45 292 21:55 19.10.2019
5905 Clear 13 1006 72 10000 2.6 140 21:37 19.10.2019
5906 Clear 14 1006 72 10000 2.6 140 21:19 19.10.2019
5907 Clear 14 1006 72 10000 2.6 140 20:41 19.10.2019
5908 Clouds 14 1006 72 10000 2.6 160 20:20 19.10.2019
5909 Clouds 14 1006 72 10000 2.6 160 19:42 19.10.2019
5910 Clouds 15 1006 67 10000 2.6 160 19:24 19.10.2019
5911 Clouds 15 1006 67 10000 2.6 160 18:56 19.10.2019
5912 Clear 15 1006 67 10000 3.1 180 18:37 19.10.2019
5913 Clouds 15 1006 63 10000 5.1 210 18:19 19.10.2019
5914 Clouds 15 1006 63 10000 3.6 200 17:41 19.10.2019
5915 Clouds 16 1006 67 10000 3.1 190 17:21 19.10.2019
5916 Clouds 16 1006 67 10000 3.1 190 16:57 19.10.2019
5917 Clouds 16 1006 67 10000 4.1 190 16:37 19.10.2019
5918 Clouds 16 1006 63 10000 3.6 190 16:19 19.10.2019
5919 Clouds 16 1006 63 10000 4.1 180 15:42 19.10.2019
5920 Clouds 16 1006 63 10000 4.1 180 15:24 19.10.2019
5921 Clear 16 1006 67 10000 3.6 140 14:39 19.10.2019
5922 Clouds 16 1007 67 10000 4.6 150 14:21 19.10.2019
5923 Clouds 16 1007 67 10000 4.6 150 14:21 19.10.2019
5924 Clouds 16 1007 67 10000 4.6 150 13:58 19.10.2019
5925 Clouds 16 1007 67 10000 4.6 150 13:40 19.10.2019
5926 Clear 15 1008 71 10000 4.1 130 13:20 19.10.2019
5927 Clear 15 1008 71 10000 4.1 130 12:58 19.10.2019
5928 Clear 15 1008 71 10000 4.1 130 12:38 19.10.2019
5929 Clear 15 1008 71 10000 2.1 140 12:19 19.10.2019
5930 Clear 14 1008 71 10000 3.6 150 11:41 19.10.2019
5931 Clear 13 1008 71 10000 4.1 150 11:23 19.10.2019
5932 Clear 13 1008 71 10000 4.1 150 10:58 19.10.2019
5933 Clear 12 1008 76 10000 3.6 150 10:40 19.10.2019
5934 Clear 12 1008 76 10000 3.6 150 10:22 19.10.2019
5935 Clear 11 1008 76 10000 3.1 140 09:55 19.10.2019
5936 Clear 11 1008 76 10000 3.1 140 09:37 19.10.2019
5937 Clear 11 1008 76 10000 3.1 140 09:18 19.10.2019
5938 Clouds 10 1006 81 0 0.45 292 08:40 19.10.2019
5939 Clouds 10 1009 88 0 1.9 155.761 08:21 19.10.2019
5940 Clouds 10 1009 88 0 1.9 155.761 08:21 19.10.2019
5941 Clouds 10 1006 82 0 0.89 270 07:45 19.10.2019
5942 Clouds 10 1006 82 0 1.9 155.761 07:25 19.10.2019
5943 Clouds 10 1006 82 0 1.9 155.761 07:25 19.10.2019
5944 Clouds 10 1007 83 0 0.89 292 06:48 19.10.2019
5945 Clouds 10 1007 83 0 0.89 292 06:48 19.10.2019
5946 Clouds 10 1007 82 0 0.89 270 06:28 19.10.2019
5947 Clouds 9 1007 85 0 0.89 270 05:35 19.10.2019
5948 Clouds 9 1007 87 0 0.45 292 04:26 19.10.2019
5949 Clouds 9 1007 99 0 3.39 202.908 02:50 19.10.2019
5950 Clouds 10 1008 85 0 0.89 270 01:56 19.10.2019
5951 Clouds 9 1008 85 0 0.89 292 01:37 19.10.2019
5952 Clouds 9 1007 98 0 3.4 202.162 00:49 19.10.2019
5953 Clouds 9 1007 98 0 3.4 202.162 00:28 19.10.2019
5954 Clouds 9 1007 98 0 3.82 210.295 23:56 18.10.2019
5955 Clouds 9 1007 98 0 3.82 210.295 23:56 18.10.2019
5956 Clouds 9 1008 85 0 0.45 292 23:37 18.10.2019
5957 Clear 9 1009 71 10000 4.1 210 23:19 18.10.2019
5958 Clear 10 1009 71 10000 4.1 210 22:54 18.10.2019
5959 Clear 10 1009 71 10000 4.1 210 22:36 18.10.2019
5960 Clear 10 1009 71 10000 4.1 210 22:18 18.10.2019
5961 Clear 10 1009 71 10000 4.1 210 21:54 18.10.2019
5962 Clear 10 1009 71 10000 3.1 210 21:36 18.10.2019
5963 Clear 10 1009 76 10000 4.1 220 21:18 18.10.2019
5964 Clear 10 1008 76 10000 3.6 210 20:41 18.10.2019
5965 Clouds 10 1008 76 10000 3.1 210 20:22 18.10.2019
5966 Clouds 10 1008 76 10000 3.1 210 19:58 18.10.2019
5967 Clouds 10 1008 76 10000 3.6 220 19:40 18.10.2019
5968 Clouds 10 1008 76 10000 3.6 220 19:40 18.10.2019
5969 Clouds 11 1008 76 10000 3.6 220 19:21 18.10.2019
5970 Clouds 11 1008 76 10000 3.6 220 18:58 18.10.2019
5971 Clear 11 1007 71 10000 4.6 230 18:40 18.10.2019
5972 Clear 11 1007 71 10000 4.6 210 18:21 18.10.2019
5973 Clear 12 1007 71 10000 4.6 210 17:55 18.10.2019
5974 Clear 12 1007 76 10000 4.1 200 17:36 18.10.2019
5975 Rain 12 1007 76 10000 6.7 240 17:18 18.10.2019
5976 Rain 13 1006 82 7000 10.3 260 16:38 18.10.2019
5977 Rain 13 1005 81 0 3.13 270 16:20 18.10.2019
5978 Rain 15 1005 59 10000 6.2 210 15:55 18.10.2019
5979 Clouds 17 1005 59 10000 5.7 200 15:37 18.10.2019
5980 Clouds 17 1006 59 10000 5.7 190 15:19 18.10.2019
5981 Clouds 17 1006 59 10000 5.7 190 14:56 18.10.2019
5982 Clear 18 1005 63 10000 5.1 190 14:38 18.10.2019
5983 Clear 18 1006 63 10000 5.7 190 14:19 18.10.2019
5984 Clear 18 1006 63 10000 5.7 190 13:55 18.10.2019
5985 Clear 18 1007 63 10000 5.7 200 13:36 18.10.2019
5986 Clear 17 1007 72 10000 3.1 170 13:18 18.10.2019
5987 Clear 16 1007 72 10000 3.1 170 12:40 18.10.2019
5988 Clear 16 1008 72 10000 3.6 160 12:22 18.10.2019
5989 Clear 16 1008 72 10000 3.6 160 11:59 18.10.2019
5990 Clear 16 1008 72 10000 2.1 160 11:41 18.10.2019
5991 Clear 15 1008 77 10000 3.1 190 11:20 18.10.2019
5992 Clear 15 1008 77 10000 3.1 190 10:57 18.10.2019
5993 Clear 15 1008 77 10000 4.6 170 10:39 18.10.2019
5994 Clear 15 1009 82 10000 2.6 120 10:19 18.10.2019
5995 Clear 14 1009 82 10000 2.6 120 09:57 18.10.2019
5996 Clear 14 1009 82 10000 2.6 120 09:39 18.10.2019
5997 Clear 13 1009 82 10000 3.1 190 09:19 18.10.2019
5998 Clear 13 1009 87 10000 3.6 190 08:43 18.10.2019
5999 Clear 13 1009 87 10000 3.6 190 08:24 18.10.2019
6000 Clouds 12 1009 87 10000 2.6 180 07:51 18.10.2019
6001 Clouds 13 1009 87 10000 2.6 180 07:33 18.10.2019
6002 Clouds 13 1009 87 10000 1.5 0 06:55 18.10.2019
6003 Clouds 13 1008 92 0 0.89 270 06:34 18.10.2019
6004 Clear 13 1010 97 0 3.46 208.437 05:59 18.10.2019
6005 Clear 13 1008 93 0 0.45 270 05:41 18.10.2019
6006 Clear 13 1008 93 0 0.89 292 05:18 18.10.2019
6007 Clear 13 1009 94 0 3.46 208.437 03:35 18.10.2019
6008 Rain 14 1011 97 0 0.45 95 02:51 18.10.2019
6009 Rain 14 1011 93 0 2.61 205.503 02:32 18.10.2019
6010 Rain 14 1009 95 0 0.45 292 01:39 18.10.2019
6011 Rain 14 1011 93 10000 2.1 140 01:20 18.10.2019
6012 Rain 14 1011 93 10000 2.1 140 00:41 18.10.2019
6013 Rain 14 1011 93 10000 2.1 140 00:19 18.10.2019
6014 Rain 14 1011 93 10000 2.6 130 23:39 17.10.2019
6015 Rain 14 1012 87 10000 2.6 170 23:20 17.10.2019
6016 Rain 14 1012 87 10000 2.6 170 22:57 17.10.2019
6017 Rain 14 1012 87 10000 2.6 170 22:39 17.10.2019
6018 Clouds 14 1011 77 10000 2.1 180 22:19 17.10.2019
6019 Clouds 14 1011 77 10000 2.1 180 21:57 17.10.2019
6020 Clouds 15 1011 77 10000 2.1 180 21:39 17.10.2019
6021 Clear 15 1011 77 10000 2.1 150 21:20 17.10.2019
6022 Clear 15 1011 77 10000 2.1 150 20:58 17.10.2019
6023 Clear 15 1011 82 10000 2.6 110 20:39 17.10.2019
6024 Clear 15 1011 82 10000 2.6 110 20:19 17.10.2019
6025 Clear 15 1011 82 10000 2.6 110 19:58 17.10.2019
6026 Clear 15 1011 82 10000 2.1 130 19:39 17.10.2019
6027 Clear 15 1011 77 10000 1.5 0 19:19 17.10.2019
6028 Clear 15 1011 77 10000 1.5 0 19:19 17.10.2019
6029 Clear 15 1011 82 10000 1.5 0 18:43 17.10.2019
6030 Clear 16 1011 72 10000 1.5 0 18:21 17.10.2019
6031 Clear 16 1011 72 10000 1.5 0 17:59 17.10.2019
6032 Clouds 16 1011 67 10000 3.6 230 17:41 17.10.2019
6033 Clouds 17 1011 67 10000 3.6 230 17:23 17.10.2019
6034 Clouds 17 1011 67 10000 3.6 230 16:56 17.10.2019
6035 Clouds 17 1011 72 10000 3.6 230 16:37 17.10.2019
6036 Clouds 17 1011 72 10000 3.6 230 16:37 17.10.2019
6037 Clouds 17 1011 72 10000 3.6 230 16:37 17.10.2019
6038 Clouds 17 1011 72 10000 4.6 230 16:18 17.10.2019
6039 Clouds 17 1011 72 10000 4.6 230 15:55 17.10.2019
6040 Clouds 17 1011 72 10000 5.1 240 15:37 17.10.2019
6041 Clouds 17 1011 67 10000 5.1 230 15:19 17.10.2019
6042 -273 0 0 0 0 0 14:42 17.10.2019
6043 Clouds 17 1011 72 10000 4.1 230 14:23 17.10.2019
6044 Clouds 16 1011 72 10000 4.1 230 13:56 17.10.2019
6045 Clouds 16 1011 67 10000 5.1 230 13:38 17.10.2019
6046 Clouds 16 1011 72 10000 3.6 230 13:18 17.10.2019
6047 Clouds 16 1011 72 10000 5.1 240 12:41 17.10.2019
6048 Clouds 16 1011 67 10000 4.1 220 12:20 17.10.2019
6049 Clouds 15 1011 67 10000 4.1 220 11:58 17.10.2019
6050 Clouds 15 1011 67 10000 4.1 220 11:40 17.10.2019
6051 Clouds 15 1011 72 10000 3.6 210 11:19 17.10.2019
6052 Clouds 15 1011 72 10000 3.6 210 10:55 17.10.2019
6053 Clouds 15 1010 72 10000 3.1 210 10:36 17.10.2019
6054 Clouds 14 1010 72 10000 4.6 230 10:18 17.10.2019
6055 Clouds 14 1010 72 10000 4.6 230 10:18 17.10.2019
6056 Clouds 14 1010 72 10000 4.1 230 09:42 17.10.2019
6057 Clouds 14 1010 72 10000 4.1 220 09:22 17.10.2019
6058 Clouds 14 1010 72 10000 4.1 220 08:58 17.10.2019
6059 Clouds 14 1010 72 10000 4.6 230 08:39 17.10.2019
6060 Clouds 14 1009 72 10000 5.1 220 08:21 17.10.2019
6061 Clouds 14 1009 72 10000 5.1 220 07:55 17.10.2019
6062 Clouds 14 1009 67 10000 4.6 220 07:37 17.10.2019
6063 Clouds 14 1009 72 10000 4.1 220 07:18 17.10.2019
6064 Rain 14 1008 80 0 0.89 270 06:40 17.10.2019
6065 Rain 13 1008 80 0 0.89 292 06:21 17.10.2019
6066 Rain 13 1010 86 0 6.595 213 05:52 17.10.2019
6067 Rain 13 1010 86 0 6.595 213 05:32 17.10.2019
6068 Rain 13 1010 86 0 6.595 213 05:32 17.10.2019
6069 Rain 14 1010 92 0 0.45 62 04:53 17.10.2019
6070 Rain 14 1008 81 0 0.45 292 03:55 17.10.2019
6071 Clouds 14 1009 81 0 0.89 225 02:36 17.10.2019
6072 Clouds 14 1009 84 0 0.45 292 01:27 17.10.2019
6073 Clouds 14 1011 91 0 4.331 206 00:38 17.10.2019
6074 Clouds 13 1008 86 0 0.45 292 00:19 17.10.2019
6075 Clouds 13 1008 90 0 4.699 213 23:42 16.10.2019
6076 Clouds 13 1010 76 10000 3.1 210 23:21 16.10.2019
6077 Clouds 13 1010 76 10000 3.1 210 22:56 16.10.2019
6078 Clouds 14 1010 76 10000 3.1 210 22:37 16.10.2019
6079 Clouds 13 1010 76 10000 3.1 210 22:19 16.10.2019
6080 Clouds 13 1010 76 10000 3.1 210 21:56 16.10.2019
6081 Clouds 13 1010 76 10000 2.6 190 21:37 16.10.2019
6082 Clouds 13 1010 76 10000 2.6 200 21:19 16.10.2019
6083 Clouds 13 1010 76 10000 2.6 200 21:19 16.10.2019
6084 Clouds 13 1010 76 10000 2.6 200 20:57 16.10.2019
6085 Clouds 13 1010 76 10000 2.6 200 20:38 16.10.2019
6086 Clouds 13 1010 76 10000 4.1 220 20:20 16.10.2019
6087 Clouds 13 1010 76 10000 4.1 220 19:58 16.10.2019
6088 Clouds 13 1010 76 10000 4.1 220 19:38 16.10.2019
6089 Clouds 13 1010 71 10000 4.6 220 19:20 16.10.2019
6090 Clouds 14 1010 67 10000 3.6 220 18:39 16.10.2019
6091 Rain 14 1009 67 10000 3.1 220 18:20 16.10.2019
6092 Rain 14 1009 67 10000 3.1 220 17:58 16.10.2019
6093 Rain 14 1009 67 10000 3.1 220 17:58 16.10.2019
6094 Clouds 14 1009 67 10000 4.6 230 17:39 16.10.2019
6095 Clouds 14 1010 63 10000 4.1 240 17:21 16.10.2019
6096 Clouds 15 1010 63 10000 4.1 240 16:59 16.10.2019
6097 Clouds 15 1010 63 10000 4.6 260 16:41 16.10.2019
6098 Clouds 15 1010 63 10000 5.1 270 16:21 16.10.2019
6099 -273 0 0 0 0 0 15:57 16.10.2019
6100 -273 0 0 0 0 0 15:56 16.10.2019
6101 -273 0 0 0 0 0 15:56 16.10.2019
6102 Clouds 15 1010 67 10000 6.7 250 15:38 16.10.2019
6103 Clouds 15 1009 71 10000 7.2 260 15:18 16.10.2019
6104 Clouds 15 1009 71 10000 7.2 260 14:56 16.10.2019
6105 Clouds 15 1009 71 10000 7.2 260 14:56 16.10.2019
6106 Clouds 14 1009 71 10000 7.2 260 14:37 16.10.2019
6107 Clouds 14 1009 76 10000 7.2 250 14:18 16.10.2019
6108 Clouds 14 1009 76 10000 7.2 250 13:55 16.10.2019
6109 Clouds 14 1009 76 10000 6.7 250 13:36 16.10.2019
6110 Clouds 14 1009 82 10000 6.2 250 13:18 16.10.2019
6111 Clouds 13 1009 87 10000 5.7 250 12:40 16.10.2019
6112 Clouds 12 1009 93 10000 5.7 250 12:18 16.10.2019
6113 Clouds 12 1009 93 10000 5.7 250 12:18 16.10.2019
6114 Clouds 12 1009 93 10000 3.6 250 11:43 16.10.2019
6115 Rain 12 1009 93 8000 4.1 280 11:18 16.10.2019
6116 Rain 12 1009 93 4300 6.7 270 10:39 16.10.2019
6117 Rain 12 1009 87 6000 6.7 250 10:20 16.10.2019
6118 Rain 11 1009 87 6000 6.7 250 09:56 16.10.2019
6119 Drizzle 11 1009 87 10000 6.7 250 09:38 16.10.2019
6120 Rain 11 1008 93 8000 7.7 260 09:19 16.10.2019
6121 Rain 11 1008 93 7000 6.7 250 08:43 16.10.2019
6122 Rain 11 1008 93 7000 6.7 250 08:24 16.10.2019
6123 Rain 12 1007 93 7000 5.1 270 07:46 16.10.2019
6124 Rain 12 1007 93 7000 5.1 270 07:26 16.10.2019
6125 Rain 12 1007 93 7000 5.1 270 07:25 16.10.2019
6126 Rain 12 1007 93 8000 5.1 270 06:59 16.10.2019
6127 Rain 12 1007 94 0 1.34 270 06:39 16.10.2019
6128 Rain 12 1007 94 0 1.34 270 06:39 16.10.2019
6129 Rain 12 1006 95 0 0.45 270 05:54 16.10.2019
6130 Rain 14 1002 99 0 5.444 267 03:26 16.10.2019
6131 Rain 14 1005 95 0 6.128 279 02:49 16.10.2019
6132 Rain 15 1005 94 0 0.45 225 01:19 16.10.2019
6133 Rain 15 1005 93 0 8.088 261 00:50 16.10.2019
6134 Rain 15 1006 90 0 2.68 244 00:32 16.10.2019
6135 Rain 16 1001 93 0 1.31 143 23:41 15.10.2019
6136 Rain 16 1006 84 0 1.31 143 23:22 15.10.2019
6137 Rain 16 1001 91 0 1.31 143 22:56 15.10.2019
6138 Rain 17 1005 87 10000 1.31 143 22:38 15.10.2019
6139 Rain 17 1005 87 10000 1.31 143 22:20 15.10.2019
6140 Rain 17 1005 87 10000 1.31 143 21:56 15.10.2019
6141 Rain 17 1005 87 10000 1.31 143 21:56 15.10.2019
6142 Rain 17 1005 77 10000 1 0 21:38 15.10.2019
6143 Clouds 17 1005 77 10000 1 0 21:20 15.10.2019
6144 Clouds 17 1005 77 10000 1 0 20:57 15.10.2019
6145 Clouds 17 1005 82 10000 2.6 350 20:39 15.10.2019
6146 Clouds 17 1005 82 10000 2.6 350 20:39 15.10.2019
6147 Clouds 18 1005 77 10000 1.5 0 20:20 15.10.2019
6148 Clouds 18 1005 77 10000 1.5 0 19:58 15.10.2019
6149 Clouds 18 1005 77 10000 1.5 340 19:40 15.10.2019
6150 Clouds 18 1005 77 10000 1 350 19:20 15.10.2019
6151 Clouds 19 1005 72 10000 1 340 18:47 15.10.2019
6152 Clouds 19 1005 72 10000 1 340 18:29 15.10.2019
6153 Clouds 20 1005 72 10000 0.5 350 17:59 15.10.2019
6154 Clouds 21 1005 68 10000 1 0 17:41 15.10.2019
6155 Clouds 21 1005 68 10000 1 0 17:41 15.10.2019
6156 Clouds 22 1005 64 10000 1.5 350 17:20 15.10.2019
6157 Clouds 22 1005 64 10000 1.5 350 16:57 15.10.2019
6158 Clouds 22 1005 64 10000 2.1 350 16:38 15.10.2019
6159 Clouds 23 1005 56 10000 1 0 16:20 15.10.2019
6160 Clouds 23 1005 56 10000 1 0 15:43 15.10.2019
6161 Clouds 23 1005 56 10000 1 0 15:43 15.10.2019
6162 Clouds 23 1005 60 10000 2.1 300 15:21 15.10.2019
6163 Clouds 22 1005 60 10000 2.1 300 14:59 15.10.2019
6164 Clouds 23 1005 60 10000 3.1 280 14:38 15.10.2019
6165 Clouds 23 1005 56 10000 2.6 270 14:20 15.10.2019
6166 Clouds 23 1005 56 10000 2.6 270 14:20 15.10.2019
6167 Clouds 23 1005 56 10000 2.6 270 13:58 15.10.2019
6168 Clouds 23 1006 56 10000 3.1 270 13:40 15.10.2019
6169 Clouds 22 1006 56 10000 3.1 270 13:19 15.10.2019
6170 Clouds 21 1006 60 10000 2.1 190 12:43 15.10.2019
6171 Clouds 21 1006 60 10000 1 0 12:21 15.10.2019
6172 Clouds 20 1006 60 10000 1 0 11:57 15.10.2019
6173 Clouds 20 1006 72 10000 2.1 100 11:38 15.10.2019
6174 Clouds 19 1006 77 10000 1.5 130 11:19 15.10.2019
6175 Clouds 17 1006 77 10000 2.1 120 10:45 15.10.2019
6176 Clear 17 1007 82 10000 1 130 10:22 15.10.2019
6177 Clear 16 1007 82 10000 1 130 09:58 15.10.2019
6178 Clear 15 1007 87 10000 2.1 100 09:39 15.10.2019
6179 Clear 14 1007 93 10000 2.6 90 09:20 15.10.2019
6180 Clear 13 1007 93 10000 2.6 90 08:56 15.10.2019
6181 Clear 13 1007 93 10000 1.5 0 08:37 15.10.2019
6182 Clear 13 1006 100 10000 2.1 100 08:18 15.10.2019
6183 Clear 13 1006 93 10000 2.6 90 07:42 15.10.2019
6184 Clear 13 1006 100 10000 2.1 110 07:21 15.10.2019
6185 Clouds 13 1005 82 0 1.99 207.542 06:47 15.10.2019
6186 Clouds 13 1007 89 0 2.68 38 06:29 15.10.2019
6187 Clouds 14 1006 79 0 1.93 186.537 05:54 15.10.2019
6188 Clouds 14 1006 78 0 1.93 186.537 05:35 15.10.2019
6189 Clouds 14 1006 76 0 0.45 270 04:39 15.10.2019
6190 Clouds 14 1007 76 0 1.93 186.537 03:57 15.10.2019
6191 Clouds 14 1006 74 0 0.45 270 03:27 15.10.2019
6192 Clouds 15 1006 87 0 2.57 159.758 01:51 15.10.2019
6193 Clouds 15 1007 81 0 2.56 155.118 01:24 15.10.2019
6194 Clouds 15 1006 88 0 2.56 155.118 00:52 15.10.2019
6195 Clouds 15 1010 93 0 2.56 155.118 00:24 15.10.2019
6196 Clouds 15 1006 88 0 1.17 167.796 23:46 14.10.2019
6197 Clear 15 1010 82 10000 3.6 90 23:21 14.10.2019
6198 -273 0 0 0 0 0 22:59 14.10.2019
6199 Clear 16 1010 82 10000 3.6 90 22:39 14.10.2019
6200 Clear 16 1010 82 10000 3.6 90 22:19 14.10.2019
6201 Clear 16 1010 82 10000 3.6 90 21:56 14.10.2019
6202 Clear 17 1010 82 10000 4.1 90 21:38 14.10.2019
6203 Clear 17 1011 82 10000 3.1 90 21:20 14.10.2019
6204 Clear 17 1011 82 10000 3.1 90 20:56 14.10.2019
6205 Clear 17 1011 82 10000 3.6 100 20:37 14.10.2019
6206 Clear 17 1011 77 10000 4.6 90 20:18 14.10.2019
6207 Clouds 18 1011 77 10000 3.1 100 19:43 14.10.2019
6208 Clouds 18 1011 77 10000 3.1 100 19:25 14.10.2019
6209 Clouds 18 1011 77 10000 3.1 100 19:25 14.10.2019
6210 Clear 18 1011 77 10000 3.1 80 18:59 14.10.2019
6211 Clear 18 1011 77 10000 3.1 80 18:59 14.10.2019
6212 Clear 19 1011 77 10000 2.6 90 18:40 14.10.2019
6213 Clear 19 1011 77 10000 2.6 90 18:40 14.10.2019
6214 Clear 20 1011 72 10000 4.1 100 18:20 14.10.2019
6215 Clear 21 1011 72 10000 4.1 100 17:58 14.10.2019
6216 Clear 21 1012 72 10000 4.6 90 17:40 14.10.2019
6217 Clear 22 1012 68 10000 4.1 90 17:21 14.10.2019
6218 Clear 22 1012 68 10000 4.6 90 16:44 14.10.2019
6219 Clear 22 1013 64 10000 4.6 90 16:22 14.10.2019
6220 Clear 22 1013 64 10000 4.6 90 15:57 14.10.2019
6221 Clear 22 1013 64 10000 4.1 100 15:38 14.10.2019
6222 Clear 22 1013 64 10000 4.1 100 15:20 14.10.2019
6223 Clear 22 1014 68 10000 3.1 90 14:43 14.10.2019
6224 Clear 21 1014 68 10000 3.1 80 14:24 14.10.2019
6225 -273 0 0 0 0 0 13:57 14.10.2019
6226 Clear 21 1014 68 10000 1.5 0 13:38 14.10.2019
6227 Clear 21 1015 68 10000 2.1 320 13:19 14.10.2019
6228 Clouds 20 1015 68 10000 2.1 330 12:41 14.10.2019
6229 Clouds 19 1015 68 10000 2.6 330 12:19 14.10.2019
6230 Clouds 18 1015 72 10000 2.6 310 11:47 14.10.2019
6231 Clouds 18 1015 72 10000 2.6 310 11:27 14.10.2019
6232 Clouds 18 1015 72 10000 2.1 300 10:59 14.10.2019
6233 Clouds 17 1015 77 10000 2.1 290 10:40 14.10.2019
6234 Clouds 16 1015 82 10000 2.6 300 10:21 14.10.2019
6235 Clouds 16 1015 82 10000 2.6 300 09:57 14.10.2019
6236 Clear 16 1015 82 10000 2.1 280 09:38 14.10.2019
6237 Clear 15 1014 82 10000 1 0 09:19 14.10.2019
6238 Clouds 14 1014 87 10000 2.1 280 08:45 14.10.2019
6239 Clouds 14 1014 93 10000 1 330 08:22 14.10.2019
6240 Clouds 15 1014 87 10000 2.1 310 07:43 14.10.2019
6241 Clouds 14 1014 82 10000 2.1 300 07:19 14.10.2019
6242 Clouds 15 1015 91 0 2.12 246.216 06:54 14.10.2019
6243 Clouds 16 1012 86 0 2.12 246.216 06:27 14.10.2019
6244 Clouds 16 1010 85 0 4.25 234.621 05:50 14.10.2019
6245 Clouds 17 1012 80 0 0.45 270 04:49 14.10.2019
6246 Clouds 18 1013 89 0 4.25 234.621 03:28 14.10.2019
6247 Clouds 18 1011 76 0 0.89 292 02:56 14.10.2019
6248 Clouds 20 1010 73 0 0.89 270 01:36 14.10.2019
6249 Clouds 20 1008 76 0 4.67 222.872 01:18 14.10.2019
6250 Clouds 20 1008 75 0 5.01 211.931 00:21 14.10.2019
6251 Clouds 20 1008 74 0 5.01 211.931 23:46 13.10.2019
6252 Clouds 20 1008 75 0 5.01 211.931 23:21 13.10.2019
6253 Clouds 20 1011 76 0 5.01 211.931 23:00 13.10.2019
6254 Clouds 20 1009 71 0 1.34 292 22:41 13.10.2019
6255 Clouds 20 1011 67 0 5.01 211.931 22:22 13.10.2019
6256 Clouds 20 1009 69 0 1.34 292 21:58 13.10.2019
6257 Clouds 20 1009 69 0 1.34 292 21:58 13.10.2019
6258 Clear 20 1009 56 10000 4.6 220 21:38 13.10.2019
6259 Clear 21 1009 56 10000 4.6 220 21:19 13.10.2019
6260 Clear 21 1009 56 10000 4.6 220 20:58 13.10.2019
6261 Clear 21 1009 56 10000 4.6 220 20:58 13.10.2019
6262 Clear 21 1009 56 10000 4.6 220 20:58 13.10.2019
6263 Clear 21 1009 56 10000 4.6 220 20:39 13.10.2019
6264 Clear 21 1009 56 10000 4.6 220 20:39 13.10.2019
6265 Clear 21 1008 64 10000 3.1 170 20:21 13.10.2019
6266 Clear 21 1008 64 10000 3.1 170 19:59 13.10.2019
6267 Clear 21 1008 64 10000 3.1 150 19:39 13.10.2019
6268 Clear 21 1008 64 10000 3.1 140 19:21 13.10.2019
6269 Clear 21 1008 64 10000 3.1 140 18:59 13.10.2019
6270 Clear 21 1008 60 10000 3.6 190 18:38 13.10.2019
6271 Clear 22 1008 56 10000 3.6 190 18:20 13.10.2019
6272 Clear 22 1008 56 10000 3.6 190 17:58 13.10.2019
6273 -273 0 0 0 0 0 17:40 13.10.2019
6274 Clear 23 1008 73 10000 3.1 160 17:22 13.10.2019
6275 Clouds 23 1009 73 10000 2.6 150 16:43 13.10.2019
6276 Rain 22 1009 77 10000 2.1 130 16:19 13.10.2019
6277 Rain 22 1009 77 10000 2.1 130 15:57 13.10.2019
6278 Rain 22 1009 77 10000 2.1 130 15:57 13.10.2019
6279 Clear 22 1009 78 10000 3.1 120 15:38 13.10.2019
6280 Clear 22 1010 83 10000 3.1 130 15:20 13.10.2019
6281 Clear 22 1010 83 10000 3.1 130 14:57 13.10.2019
6282 Clear 21 1010 83 10000 2.6 150 14:39 13.10.2019
6283 Clear 21 1011 82 10000 3.1 170 14:20 13.10.2019
6284 Clouds 21 1011 88 10000 2.6 200 13:43 13.10.2019
6285 Clouds 21 1011 88 10000 2.6 200 13:24 13.10.2019
6286 -273 0 0 0 0 0 12:59 13.10.2019
6287 Rain 21 1012 88 10000 4.1 220 12:59 13.10.2019
6288 Clear 21 1011 68 10000 3.6 230 12:40 13.10.2019
6289 Clear 21 1011 68 10000 4.6 230 12:21 13.10.2019
6290 Clear 20 1011 68 10000 4.6 230 11:59 13.10.2019
6291 Clear 20 1011 73 10000 3.6 220 11:40 13.10.2019
6292 Clear 20 1011 72 10000 5.1 220 11:21 13.10.2019
6293 Clear 20 1011 72 10000 5.1 220 10:59 13.10.2019
6294 -273 0 0 0 0 0 10:40 13.10.2019
6295 Clear 18 1011 77 10000 4.1 200 10:22 13.10.2019
6296 Clear 17 1011 82 10000 2.1 170 09:40 13.10.2019
6297 Clear 17 1011 87 10000 1.5 140 09:21 13.10.2019
6298 Clear 16 1011 87 10000 1.5 140 08:55 13.10.2019
6299 Clouds 16 1010 87 0 1.34 292 08:27 13.10.2019
6300 Clouds 16 1010 87 0 1.34 292 08:27 13.10.2019
6301 Clouds 16 1010 88 0 0.89 292 07:56 13.10.2019
6302 Clouds 16 1010 88 0 0.89 292 07:38 13.10.2019
6303 Clouds 15 1009 89 0 0.45 292 06:55 13.10.2019
6304 Clouds 15 1009 89 0 0.45 270 06:26 13.10.2019
6305 Clouds 15 1010 88 0 0.45 292 05:34 13.10.2019
6306 Clouds 16 1010 86 0 0.45 292 04:46 13.10.2019
6307 Clouds 16 1010 83 0 0.45 292 03:39 13.10.2019
6308 Rain 17 1010 81 0 1.34 270 02:35 13.10.2019
6309 Rain 17 1012 82 0 3.56 221.856 01:53 13.10.2019
6310 Clouds 17 1012 82 0 3.3 222.531 01:22 13.10.2019
6311 Clouds 17 1008 85 0 3.3 222.531 00:44 13.10.2019
6312 Rain 17 1010 78 0 1.34 270 00:21 13.10.2019
6313 Rain 17 1010 77 0 0.89 270 23:55 12.10.2019
6314 Rain 17 1010 78 0 0.89 292 23:36 12.10.2019
6315 Rain 17 1010 78 0 0.89 270 23:18 12.10.2019
6316 Rain 17 1009 78 0 0.89 270 22:56 12.10.2019
6317 Rain 16 1009 78 0 1.34 270 22:37 12.10.2019
6318 Rain 16 1008 82 0 3.71 221.096 22:19 12.10.2019
6319 Clear 17 1010 67 10000 2.1 210 21:42 12.10.2019
6320 Clear 17 1010 67 10000 2.1 210 21:24 12.10.2019
6321 Clear 17 1010 67 10000 2.1 210 20:58 12.10.2019
6322 Clear 17 1010 67 10000 2.1 210 20:58 12.10.2019
6323 Clear 17 1010 67 10000 2.1 210 20:39 12.10.2019
6324 Clear 17 1010 67 10000 2.1 210 20:20 12.10.2019
6325 Clear 17 1010 63 10000 4.1 250 19:37 12.10.2019
6326 Clear 17 1010 67 10000 2.1 240 19:19 12.10.2019
6327 Clear 17 1010 67 10000 2.1 240 18:56 12.10.2019
6328 Clear 18 1010 67 10000 2.1 240 18:36 12.10.2019
6329 Clear 18 1010 63 10000 3.6 250 18:18 12.10.2019
6330 Clear 18 1010 63 10000 4.1 270 17:42 12.10.2019
6331 Clouds 19 1011 63 10000 3.6 240 17:19 12.10.2019
6332 Clouds 19 1011 63 10000 3.6 240 16:54 12.10.2019
6333 Clouds 19 1011 63 10000 3.6 240 16:36 12.10.2019
6334 Clouds 19 1010 63 10000 4.6 250 16:18 12.10.2019
6335 Clouds 19 1010 63 10000 4.6 250 15:40 12.10.2019
6336 Clouds 19 1010 63 10000 4.6 240 15:22 12.10.2019
6337 Clouds 18 1010 63 10000 5.7 250 14:43 12.10.2019
6338 Clouds 18 1010 63 10000 5.7 250 14:22 12.10.2019
6339 Clouds 18 1010 63 10000 5.7 250 13:57 12.10.2019
6340 Clouds 18 1010 63 10000 4.6 230 13:38 12.10.2019
6341 Clouds 18 1009 68 10000 5.7 240 13:20 12.10.2019
6342 Clouds 18 1009 63 10000 6.2 230 12:39 12.10.2019
6343 Clouds 17 1009 68 10000 7.7 240 12:21 12.10.2019
6344 Clouds 17 1009 68 10000 7.7 240 11:58 12.10.2019
6345 Clouds 17 1009 67 10000 7.2 230 11:38 12.10.2019
6346 Clouds 16 1009 72 10000 6.7 230 11:19 12.10.2019
6347 Clouds 16 1008 72 10000 5.1 230 10:41 12.10.2019
6348 Clouds 15 1008 72 10000 5.1 230 10:23 12.10.2019
6349 Clouds 15 1008 72 10000 5.1 230 09:58 12.10.2019
6350 Clouds 15 1008 72 10000 5.1 230 09:58 12.10.2019
6351 Clouds 15 1008 72 10000 5.1 220 09:39 12.10.2019
6352 Clouds 14 1008 72 10000 6.2 220 09:21 12.10.2019
6353 Clouds 14 1008 72 10000 6.2 220 08:57 12.10.2019
6354 Clouds 14 1008 72 10000 6.2 220 08:37 12.10.2019
6355 Clouds 13 1006 91 0 6.11 221.987 08:18 12.10.2019
6356 Clouds 13 1006 85 0 6.11 221.987 07:33 12.10.2019
6357 Clouds 13 1006 85 0 6.11 221.987 06:50 12.10.2019
6358 Clouds 14 1006 85 0 5.92 222.027 05:46 12.10.2019
6359 Clouds 14 1006 85 0 5.92 222.027 05:22 12.10.2019
6360 Clouds 15 1007 81 0 1.79 270 03:58 12.10.2019
6361 Clouds 15 1008 82 0 1.79 292 02:57 12.10.2019
6362 Clouds 15 1008 82 0 1.79 270 01:38 12.10.2019
6363 Clouds 15 1010 82 0 3.58 189 01:19 12.10.2019
6364 Clouds 15 1008 83 0 1.79 292 00:40 12.10.2019
6365 Clouds 15 1008 82 0 1.34 270 23:57 11.10.2019
6366 Clouds 15 1008 81 0 2.24 292 23:39 11.10.2019
6367 Clouds 15 1009 72 10000 6.2 230 23:20 11.10.2019
6368 Clouds 15 1009 72 10000 6.2 230 22:40 11.10.2019
6369 Clouds 15 1009 72 10000 6.2 230 22:40 11.10.2019
6370 Clouds 15 1009 72 10000 6.2 230 22:21 11.10.2019
6371 Clouds 15 1009 72 10000 6.2 230 21:56 11.10.2019
6372 Clouds 15 1008 72 10000 6.2 220 21:38 11.10.2019
6373 Clouds 15 1009 72 10000 6.2 230 21:20 11.10.2019
6374 Clouds 15 1009 72 10000 5.7 230 20:44 11.10.2019
6375 Clouds 14 1009 72 10000 5.7 230 20:26 11.10.2019
6376 Clouds 14 1009 72 10000 5.7 220 19:58 11.10.2019
6377 Clouds 14 1009 72 10000 5.7 220 19:39 11.10.2019
6378 Clear 14 1009 72 10000 6.2 220 19:18 11.10.2019
6379 Clear 14 1009 72 10000 6.2 220 18:58 11.10.2019
6380 Clear 14 1010 72 10000 6.2 220 18:38 11.10.2019
6381 Clear 15 1010 72 10000 6.7 220 18:19 11.10.2019
6382 Clear 15 1010 72 10000 6.7 220 18:19 11.10.2019
6383 Clear 15 1010 72 10000 6.7 220 17:58 11.10.2019
6384 Clear 15 1010 72 10000 7.7 220 17:38 11.10.2019
6385 Clear 15 1011 72 10000 6.2 230 17:19 11.10.2019
6386 Clear 15 1011 72 10000 6.2 230 16:58 11.10.2019
6387 Clear 15 1011 72 10000 6.2 230 16:39 11.10.2019
6388 Clear 15 1011 67 10000 5.1 220 16:19 11.10.2019
6389 Clear 15 1011 67 10000 5.7 220 15:41 11.10.2019
6390 Clear 15 1011 67 10000 5.7 220 15:21 11.10.2019
6391 Clear 15 1011 67 10000 5.7 220 14:58 11.10.2019
6392 Clear 15 1011 72 10000 4.6 230 14:39 11.10.2019
6393 Clear 15 1011 67 10000 7.2 240 14:20 11.10.2019
6394 Clear 15 1012 63 10000 7.7 230 13:45 11.10.2019
6395 Clear 15 1012 63 10000 7.7 230 13:25 11.10.2019
6396 Clouds 15 1012 67 10000 7.7 240 12:57 11.10.2019
6397 Clouds 15 1012 71 10000 7.2 240 12:39 11.10.2019
6398 Clouds 14 1012 71 10000 6.7 240 12:20 11.10.2019
6399 Clouds 14 1012 71 10000 6.7 240 11:58 11.10.2019
6400 Clouds 13 1012 71 10000 7.7 240 11:38 11.10.2019
6401 Clouds 13 1012 71 10000 8.2 240 11:20 11.10.2019
6402 Clouds 12 1012 71 10000 8.2 240 10:55 11.10.2019
6403 Clouds 12 1012 71 10000 8.2 240 10:55 11.10.2019
6404 Clouds 12 1012 71 10000 7.2 230 10:36 11.10.2019
6405 Clouds 12 1012 71 10000 6.2 230 10:18 11.10.2019
6406 Clouds 12 1012 76 10000 5.7 220 09:42 11.10.2019
6407 Clouds 11 1012 71 10000 6.2 220 09:21 11.10.2019
6408 Clouds 11 1012 71 10000 6.2 220 08:57 11.10.2019
6409 Clouds 11 1012 71 10000 6.2 230 08:38 11.10.2019
6410 Clear 11 1012 71 10000 5.7 230 08:20 11.10.2019
6411 Clear 11 1012 71 10000 5.1 230 07:53 11.10.2019
6412 Clear 11 1012 71 10000 5.1 230 07:34 11.10.2019
6413 Clouds 11 1014 93 0 7.71 217.87 06:50 11.10.2019
6414 Clouds 11 1012 86 0 1.34 292 06:25 11.10.2019
6415 Clouds 11 1013 86 0 1.34 292 05:47 11.10.2019
6416 Clouds 11 1013 86 0 1.34 292 05:47 11.10.2019
6417 Clouds 11 1015 92 0 5.61 218.418 05:29 11.10.2019
6418 Clouds 11 1013 85 0 1.34 292 04:58 11.10.2019
6419 Clouds 11 1013 86 0 0.89 292 03:40 11.10.2019
6420 Clouds 11 1014 85 0 1.34 270 01:26 11.10.2019
6421 Clouds 11 1013 85 0 0.89 292 00:41 11.10.2019
6422 Rain 10 1013 85 0 0.89 270 00:20 11.10.2019
6423 Rain 10 1014 84 0 0.45 270 23:41 10.10.2019
6424 Clouds 10 1014 76 10000 4.1 240 23:20 10.10.2019
6425 Clouds 10 1014 76 10000 4.1 240 22:56 10.10.2019
6426 Clouds 10 1014 76 10000 4.1 240 22:36 10.10.2019
6427 Clouds 10 1014 76 10000 4.1 240 22:18 10.10.2019
6428 Clear 11 1013 76 10000 4.6 240 21:42 10.10.2019
6429 Clear 11 1013 81 10000 3.6 240 21:22 10.10.2019
6430 Clear 11 1013 81 10000 3.6 240 20:59 10.10.2019
6431 Clear 11 1013 81 10000 3.6 240 20:59 10.10.2019
6432 Rain 11 1013 76 10000 3.6 250 20:40 10.10.2019
6433 Rain 11 1013 76 10000 3.6 250 20:20 10.10.2019
6434 Rain 11 1013 76 10000 3.6 250 19:57 10.10.2019
6435 Rain 11 1013 81 10000 3.1 260 19:39 10.10.2019
6436 Rain 11 1012 87 10000 4.6 300 19:19 10.10.2019
6437 Rain 12 1012 76 10000 4.6 260 18:54 10.10.2019
6438 Rain 12 1012 76 10000 4.6 260 18:36 10.10.2019
6439 Clouds 12 1012 71 10000 5.1 250 18:18 10.10.2019
6440 Clouds 13 1011 67 10000 6.2 240 17:40 10.10.2019
6441 Clouds 13 1011 71 10000 5.1 240 17:19 10.10.2019
6442 Clouds 13 1011 71 10000 5.1 240 16:57 10.10.2019
6443 Clouds 13 1011 66 10000 5.7 260 16:38 10.10.2019
6444 Clouds 13 1011 71 10000 5.1 260 16:20 10.10.2019
6445 Clouds 13 1011 71 10000 6.7 260 15:43 10.10.2019
6446 Clouds 13 1011 71 10000 7.2 260 15:23 10.10.2019
6447 Clouds 13 1011 71 10000 7.2 260 14:59 10.10.2019
6448 Clouds 12 1011 76 10000 6.7 260 14:37 10.10.2019
6449 Clouds 12 1011 71 10000 6.7 260 14:19 10.10.2019
6450 Clouds 12 1011 71 10000 6.7 260 14:19 10.10.2019
6451 Clouds 12 1011 71 10000 6.7 260 13:59 10.10.2019
6452 Clouds 12 1010 71 10000 6.2 260 13:39 10.10.2019
6453 Clouds 12 1010 71 10000 7.2 250 13:18 10.10.2019
6454 Clouds 12 1010 71 10000 7.2 250 12:54 10.10.2019
6455 Clouds 12 1010 71 10000 6.2 260 12:36 10.10.2019
6456 Clouds 12 1009 71 10000 7.2 260 12:18 10.10.2019
6457 Clouds 12 1009 71 10000 7.7 250 11:41 10.10.2019
6458 Clouds 11 1009 76 10000 6.7 250 11:20 10.10.2019
6459 Clouds 11 1009 76 10000 6.7 250 10:59 10.10.2019
6460 Clouds 11 1008 76 10000 5.1 240 10:41 10.10.2019
6461 Clouds 11 1008 81 10000 5.1 240 10:22 10.10.2019
6462 -273 0 0 0 0 0 09:54 10.10.2019
6463 Clear 10 1008 87 10000 4.6 240 09:36 10.10.2019
6464 Clear 10 1007 81 10000 4.1 240 09:18 10.10.2019
6465 Clouds 9 1007 87 10000 3.6 240 08:41 10.10.2019
6466 Clouds 9 1007 87 10000 3.1 230 08:22 10.10.2019
6467 Clouds 9 1007 87 10000 3.1 230 07:58 10.10.2019
6468 Clear 9 1006 87 10000 3.1 230 07:38 10.10.2019
6469 Clouds 9 1006 87 10000 4.1 230 07:19 10.10.2019
6470 Rain 9 1005 93 0 0.45 225 06:45 10.10.2019
6471 Rain 9 1007 95 0 7.27 240.647 06:22 10.10.2019
6472 Rain 9 1008 91 0 7.27 240.647 05:23 10.10.2019
6473 Rain 9 1005 93 0 0.45 292 04:37 10.10.2019
6474 Rain 9 1006 95 0 0.89 215 02:54 10.10.2019
6475 Rain 10 1004 92 0 0.89 270 01:42 10.10.2019
6476 Rain 10 1004 92 0 0.89 270 01:42 10.10.2019
6477 Rain 10 1007 92 0 8.04 239.875 01:23 10.10.2019
6478 Rain 10 1004 91 0 0.89 270 00:45 10.10.2019
6479 Rain 10 1004 91 0 0.89 270 00:20 10.10.2019
6480 Rain 10 1004 90 0 0.89 270 23:39 09.10.2019
6481 Clouds 10 1004 93 10000 3.6 240 23:20 09.10.2019
6482 Clouds 10 1004 93 10000 3.6 240 22:43 09.10.2019
6483 Clouds 10 1004 93 10000 3.6 240 22:24 09.10.2019
6484 Clouds 10 1004 93 10000 3.6 240 21:59 09.10.2019
6485 Rain 10 1004 87 10000 3.6 240 21:40 09.10.2019
6486 Rain 10 1004 87 10000 2.6 210 21:20 09.10.2019
6487 Rain 10 1004 87 10000 2.6 210 20:56 09.10.2019
6488 Rain 10 1004 87 10000 2.6 210 20:56 09.10.2019
6489 Rain 10 1004 87 10000 2.6 210 20:56 09.10.2019
6490 Rain 10 1004 93 10000 3.1 200 20:37 09.10.2019
6491 Rain 10 1004 93 10000 3.1 200 20:37 09.10.2019
6492 Rain 10 1004 93 10000 3.1 200 20:19 09.10.2019
6493 Rain 10 1004 93 10000 3.1 200 19:57 09.10.2019
6494 Rain 10 1005 93 10000 4.1 230 19:39 09.10.2019
6495 Rain 10 1004 93 10000 5.7 240 19:20 09.10.2019
6496 Rain 11 1004 76 10000 3.1 220 18:38 09.10.2019
6497 Clear 12 1004 66 10000 4.6 210 18:19 09.10.2019
6498 Clear 12 1004 66 10000 4.6 210 17:57 09.10.2019
6499 Clear 13 1004 67 10000 5.7 210 17:37 09.10.2019
6500 Clear 13 1004 67 10000 5.7 210 17:19 09.10.2019
6501 Clear 13 1004 67 10000 5.7 210 16:55 09.10.2019
6502 Clouds 14 1004 62 10000 6.2 210 16:36 09.10.2019
6503 Clouds 14 1005 62 10000 6.2 220 16:18 09.10.2019
6504 Clouds 14 1005 62 10000 6.2 220 15:55 09.10.2019
6505 Clouds 14 1005 62 10000 5.7 220 15:36 09.10.2019
6506 Clouds 14 1005 67 10000 4.1 210 15:18 09.10.2019
6507 Clouds 14 1005 67 10000 4.1 210 15:18 09.10.2019
6508 Clouds 14 1006 71 10000 5.7 210 14:41 09.10.2019
6509 Clouds 14 1006 71 10000 5.7 220 14:18 09.10.2019
6510 Clouds 14 1006 71 10000 5.7 220 13:55 09.10.2019
6511 Clouds 14 1006 67 10000 4.6 230 13:36 09.10.2019
6512 Clouds 14 1007 67 10000 5.1 240 13:18 09.10.2019
6513 Clouds 14 1007 67 10000 6.7 240 12:42 09.10.2019
6514 Clouds 14 1007 71 10000 5.7 240 12:22 09.10.2019
6515 Clouds 14 1007 71 10000 5.7 240 11:57 09.10.2019
6516 Clouds 14 1007 71 10000 5.7 230 11:39 09.10.2019
6517 Clouds 14 1007 76 10000 5.1 220 11:20 09.10.2019
6518 Clouds 14 1007 76 10000 5.1 220 10:55 09.10.2019
6519 Clouds 13 1007 76 10000 3.6 210 10:37 09.10.2019
6520 Clouds 12 1007 81 10000 4.1 220 10:18 09.10.2019
6521 Clear 12 1007 81 10000 3.6 230 09:42 09.10.2019
6522 Clouds 11 1007 87 10000 2.6 210 09:19 09.10.2019
6523 Clouds 11 1007 87 10000 2.6 210 08:56 09.10.2019
6524 Clouds 10 1007 87 10000 2.1 180 08:37 09.10.2019
6525 Clouds 10 1007 93 10000 1.5 200 08:18 09.10.2019
6526 Clouds 10 1007 93 10000 1.5 200 08:18 09.10.2019
6527 Clouds 10 1007 87 10000 2.6 230 07:43 09.10.2019
6528 Clouds 10 1007 87 10000 2.6 220 07:23 09.10.2019
6529 Clouds 10 1008 95 0 5.55 233.566 06:52 09.10.2019
6530 Clouds 10 1005 99 0 7.19 241.638 06:20 09.10.2019
6531 Clouds 11 1004 99 0 7.19 241.638 05:46 09.10.2019
6532 Clouds 11 1004 99 0 7.19 241.638 05:46 09.10.2019
6533 Clouds 11 1006 91 0 0.89 270 04:27 09.10.2019
6534 Clouds 11 1007 95 0 6.05 237.264 03:24 09.10.2019
6535 Clouds 11 1003 10 0 6.05 237.264 01:48 09.10.2019
6536 Rain 11 1003 10 0 5.97 231.406 01:22 09.10.2019
6537 Rain 11 1006 97 0 5.97 231.406 00:58 09.10.2019
6538 Rain 11 1006 97 0 5.97 231.406 00:40 09.10.2019
6539 Rain 11 1006 98 0 6.23 237.647 00:21 09.10.2019
6540 Rain 12 1004 94 0 0.89 225 23:57 08.10.2019
6541 Rain 12 1004 94 0 0.45 225 23:37 08.10.2019
6542 Clear 12 1004 87 10000 3.1 230 23:18 08.10.2019
6543 Clear 12 1004 87 10000 3.1 230 22:39 08.10.2019
6544 Clear 12 1004 87 10000 3.1 230 22:20 08.10.2019
6545 Clear 12 1004 87 10000 3.1 230 21:58 08.10.2019
6546 Clear 12 1004 82 10000 3.1 220 21:39 08.10.2019
6547 Clear 12 1004 82 10000 3.1 220 21:39 08.10.2019
6548 Clear 12 1004 87 10000 3.6 220 21:20 08.10.2019
6549 Clear 12 1004 87 10000 3.6 220 20:57 08.10.2019
6550 Clear 12 1004 87 10000 2.6 210 20:39 08.10.2019
6551 Clear 12 1004 87 10000 1.5 0 20:21 08.10.2019
6552 Clear 12 1004 87 10000 1.5 0 19:59 08.10.2019
6553 Clouds 13 1005 87 10000 2.6 230 19:41 08.10.2019
6554 Clouds 13 1005 87 10000 3.1 230 19:23 08.10.2019
6555 Clouds 13 1005 87 10000 3.1 230 18:55 08.10.2019
6556 Clouds 13 1005 87 10000 3.1 230 18:55 08.10.2019
6557 Clouds 13 1005 82 10000 4.1 240 18:37 08.10.2019
6558 Clouds 13 1004 82 10000 4.6 250 18:19 08.10.2019
6559 Clouds 13 1004 82 10000 4.6 250 17:55 08.10.2019
6560 Clouds 13 1004 82 10000 4.6 250 17:55 08.10.2019
6561 Clouds 13 1004 82 10000 5.1 240 17:36 08.10.2019
6562 Clouds 13 1004 82 10000 5.1 240 17:36 08.10.2019
6563 Clouds 13 1005 77 10000 5.1 260 17:18 08.10.2019
6564 Clouds 13 1005 77 10000 5.1 260 17:18 08.10.2019
6565 Clouds 14 1005 77 10000 4.6 250 16:40 08.10.2019
6566 Clouds 14 1005 82 10000 5.1 250 16:22 08.10.2019
6567 Clouds 14 1005 82 10000 5.1 250 15:56 08.10.2019
6568 Clouds 13 1005 82 10000 4.1 270 15:37 08.10.2019
6569 Clouds 14 1005 82 10000 5.7 260 15:19 08.10.2019
6570 Clouds 14 1005 87 10000 5.7 270 14:42 08.10.2019
6571 Clouds 13 1005 87 10000 6.2 260 14:21 08.10.2019
6572 Clouds 13 1005 87 10000 6.2 260 13:57 08.10.2019
6573 Clouds 13 1005 93 10000 5.1 250 13:39 08.10.2019
6574 Clouds 13 1005 87 10000 4.6 250 13:20 08.10.2019
6575 Clouds 12 1005 87 10000 4.6 250 12:59 08.10.2019
6576 Clouds 12 1005 93 6000 4.6 250 12:38 08.10.2019
6577 Drizzle 12 1005 93 3100 4.6 250 12:19 08.10.2019
6578 Clouds 12 1005 87 10000 5.1 230 11:43 08.10.2019
6579 Clouds 12 1005 87 10000 5.1 230 11:24 08.10.2019
6580 Drizzle 11 1005 87 7000 5.7 230 10:59 08.10.2019
6581 Drizzle 12 1006 87 8000 4.6 230 10:40 08.10.2019
6582 Clouds 11 1006 93 10000 5.1 230 10:20 08.10.2019
6583 Clouds 11 1006 93 10000 5.1 230 09:58 08.10.2019
6584 Drizzle 11 1006 93 7000 4.6 210 09:39 08.10.2019
6585 Rain 11 1006 87 6000 3.1 200 09:20 08.10.2019
6586 Drizzle 11 1006 93 7000 3.1 180 08:43 08.10.2019
6587 Drizzle 10 1006 93 7000 3.1 180 08:25 08.10.2019
6588 Rain 10 1008 93 7000 3.6 190 07:46 08.10.2019
6589 Rain 10 1008 93 9000 3.6 210 07:23 08.10.2019
6590 Rain 10 1008 93 9000 3.6 210 06:57 08.10.2019
6591 Rain 10 1007 93 0 0.89 270 06:35 08.10.2019
6592 Clouds 10 1008 92 0 0.45 270 05:57 08.10.2019
6593 Clouds 10 1008 92 0 0.45 270 05:57 08.10.2019
6594 Clouds 10 1008 91 0 0.45 292 05:38 08.10.2019
6595 Clouds 10 1009 88 0 0.89 270 04:55 08.10.2019
6596 Clouds 10 1011 86 0 0.89 270 03:30 08.10.2019
6597 Clouds 9 1011 85 0 0.89 292 02:40 08.10.2019
6598 Clouds 9 1012 85 0 1.34 270 01:51 08.10.2019
6599 Clouds 9 1015 88 0 2.5 203.902 01:32 08.10.2019
6600 Clouds 9 1012 84 0 0.89 292 00:55 08.10.2019
6601 Clouds 8 1012 91 0 2.15 177.895 00:22 08.10.2019
6602 Clouds 8 1016 87 0 2.15 177.895 23:43 07.10.2019
6603 Clouds 8 1013 91 0 2.15 177.895 23:21 07.10.2019
6604 Clouds 8 1014 82 0 0.89 292 22:58 07.10.2019
6605 Clouds 8 1014 82 0 0.89 292 22:58 07.10.2019
6606 Clear 8 1017 87 10000 2.1 100 22:40 07.10.2019
6607 Clear 8 1017 87 10000 2.1 100 22:21 07.10.2019
6608 Clear 8 1017 87 10000 2.1 100 21:59 07.10.2019
6609 Clear 8 1017 87 10000 2.1 100 21:40 07.10.2019
6610 Clear 8 1017 81 10000 2.1 90 21:20 07.10.2019
6611 Clear 8 1017 81 10000 2.1 90 20:58 07.10.2019
6612 Clear 8 1017 87 10000 2.1 100 20:39 07.10.2019
6613 Clear 8 1017 87 10000 2.1 100 20:39 07.10.2019
6614 Clear 8 1017 87 10000 2.1 100 20:39 07.10.2019
6615 Clear 8 1017 87 10000 2.1 100 20:39 07.10.2019
6616 Clear 8 1017 87 10000 2.1 90 20:21 07.10.2019
6617 Clear 8 1017 87 10000 2.1 90 19:59 07.10.2019
6618 Clear 8 1018 75 10000 2.1 100 19:41 07.10.2019
6619 Clear 8 1018 75 10000 2.1 100 19:41 07.10.2019
6620 Clear 9 1017 75 10000 2.1 130 19:20 07.10.2019
6621 Clear 9 1017 75 10000 2.1 130 18:59 07.10.2019
6622 Clear 9 1017 66 10000 1.5 100 18:39 07.10.2019
6623 Clear 10 1018 57 10000 2.1 130 18:19 07.10.2019
6624 -273 0 0 0 0 0 17:54 07.10.2019
6625 Clear 11 1018 57 10000 2.1 140 17:54 07.10.2019
6626 Clear 11 1018 57 10000 2.1 140 17:36 07.10.2019
6627 Clear 12 1018 46 10000 2.1 170 17:18 07.10.2019
6628 Clear 12 1019 46 10000 2.1 0 16:43 07.10.2019
6629 Clear 12 1019 46 10000 2.1 0 16:25 07.10.2019
6630 Clear 12 1019 50 10000 2.1 100 15:46 07.10.2019
6631 Clear 12 1019 50 10000 2.1 100 15:26 07.10.2019
6632 Clear 12 1019 54 10000 2.6 120 14:58 07.10.2019
6633 Clear 12 1019 54 10000 2.6 120 14:58 07.10.2019
6634 Clear 12 1020 54 10000 3.6 120 14:40 07.10.2019
6635 Clear 12 1020 54 10000 2.6 110 14:22 07.10.2019
6636 Clear 12 1020 53 10000 3.6 100 13:44 07.10.2019
6637 Clouds 12 1020 53 10000 3.6 100 13:21 07.10.2019
6638 Clouds 11 1020 53 10000 3.6 100 12:57 07.10.2019
6639 Clear 11 1021 57 10000 4.1 110 12:39 07.10.2019
6640 Clear 10 1021 57 10000 3.1 120 12:19 07.10.2019
6641 Clear 10 1021 57 10000 3.1 120 11:58 07.10.2019
6642 Clear 9 1021 61 10000 2.6 110 11:39 07.10.2019
6643 Clear 8 1021 70 10000 3.1 100 11:20 07.10.2019
6644 Clear 7 1021 75 10000 2.6 100 10:42 07.10.2019
6645 Clear 5 1021 86 10000 3.1 110 10:21 07.10.2019
6646 Clear 5 1021 86 10000 3.1 110 09:56 07.10.2019
6647 Clear 4 1021 86 10000 2.1 100 09:38 07.10.2019
6648 Clear 3 1020 86 10000 1 0 09:19 07.10.2019
6649 Clear 2 1020 86 10000 2.1 100 08:42 07.10.2019
6650 Clear 1 1019 86 10000 2.6 90 08:20 07.10.2019
6651 Clear 1 1019 86 10000 2.6 90 07:47 07.10.2019
6652 Clear 1 1019 86 10000 2.6 90 07:27 07.10.2019
6653 Clear 1 1019 86 10000 2.6 100 06:58 07.10.2019
6654 Clear 2 1017 89 0 2.42 115.199 06:38 07.10.2019
6655 Clear 1 1017 95 0 2.09 113.181 06:18 07.10.2019
6656 Clear 2 1016 94 0 2.09 113.181 05:26 07.10.2019
6657 Clear 3 1015 91 0 2.09 113.181 04:49 07.10.2019
6658 Clear 3 1018 89 0 2.09 113.181 03:46 07.10.2019
6659 Clear 4 1016 93 0 2.09 113.181 03:27 07.10.2019
6660 Clouds 5 1015 90 0 2.91 98.713 02:37 07.10.2019
6661 Clouds 5 1013 90 0 2.91 98.713 02:19 07.10.2019
6662 Clouds 5 1013 90 0 2.91 98.713 02:19 07.10.2019
6663 Clouds 6 1017 85 0 3.15 94.718 01:23 07.10.2019
6664 Clouds 6 1017 86 0 3.15 94.718 00:53 07.10.2019
6665 Clouds 6 1014 83 0 0.89 90 00:26 07.10.2019
6666 Clouds 6 1013 86 0 3.96 95.797 23:59 06.10.2019
6667 Clouds 7 1014 81 0 1.34 90 23:40 06.10.2019
6668 Clouds 7 1013 86 0 3.96 95.797 23:20 06.10.2019
6669 Clouds 7 1014 81 0 0.89 90 22:56 06.10.2019
6670 Clouds 7 1014 82 0 1.34 90 22:37 06.10.2019
6671 Clouds 7 1013 82 0 0.89 90 22:19 06.10.2019
6672 Clouds 7 1013 82 0 0.89 90 21:55 06.10.2019
6673 Clear 8 1016 70 10000 4.6 100 21:36 06.10.2019
6674 Clear 7 1016 70 10000 4.6 100 21:18 06.10.2019
6675 Clear 8 1016 70 10000 4.6 100 20:55 06.10.2019
6676 Clear 8 1016 70 10000 4.6 100 20:36 06.10.2019
6677 Clear 8 1016 70 10000 4.6 100 20:18 06.10.2019
6678 Clear 8 1016 70 10000 4.6 100 19:55 06.10.2019
6679 Clear 8 1016 70 10000 5.1 110 19:36 06.10.2019
6680 Clear 8 1016 75 10000 4.1 100 19:18 06.10.2019
6681 Clear 8 1016 75 10000 4.1 100 18:55 06.10.2019
6682 Clear 8 1016 70 10000 4.6 100 18:36 06.10.2019
6683 Clear 9 1016 70 10000 5.7 110 18:18 06.10.2019
6684 Clear 9 1016 70 10000 5.7 110 18:18 06.10.2019
6685 Clouds 9 1016 76 10000 5.7 110 17:42 06.10.2019
6686 Clouds 9 1016 76 10000 6.2 110 17:20 06.10.2019
6687 Clouds 9 1016 76 10000 6.2 110 17:20 06.10.2019
6688 Clouds 9 1016 76 10000 6.2 110 16:55 06.10.2019
6689 Clouds 9 1017 76 10000 6.2 100 16:37 06.10.2019
6690 Clouds 9 1017 81 10000 5.7 100 16:18 06.10.2019
6691 Clouds 9 1017 76 10000 6.2 110 15:42 06.10.2019
6692 Clouds 9 1017 81 10000 6.7 110 15:21 06.10.2019
6693 Clouds 10 1018 76 10000 6.2 110 14:44 06.10.2019
6694 Clouds 10 1018 76 10000 6.2 110 14:26 06.10.2019
6695 Clouds 10 1018 81 10000 6.7 100 13:59 06.10.2019
6696 Clouds 10 1018 81 10000 6.2 110 13:40 06.10.2019
6697 Clouds 10 1018 87 10000 4.6 100 13:22 06.10.2019
6698 Clouds 9 1018 87 10000 4.6 100 12:59 06.10.2019
6699 Clouds 9 1019 93 10000 3.6 100 12:40 06.10.2019
6700 Clouds 9 1019 93 8000 4.1 100 12:21 06.10.2019
6701 Clouds 9 1019 93 8000 4.1 100 11:59 06.10.2019
6702 Mist 8 1019 93 4500 3.6 110 11:40 06.10.2019
6703 Mist 8 1020 93 1500 3.1 100 11:21 06.10.2019
6704 Mist 8 1020 93 1500 3.1 100 10:55 06.10.2019
6705 Fog 7 1020 93 800 2.6 110 10:37 06.10.2019
6706 Fog 7 1020 100 550 2.6 90 10:19 06.10.2019
6707 Fog 6 1020 93 400 3.1 90 09:41 06.10.2019
6708 Clouds 6 1017 94 0 2.23 121.198 09:19 06.10.2019
6709 Clouds 6 1017 94 0 2.23 121.198 09:19 06.10.2019
6710 Fog 5 1020 93 650 3.6 100 08:48 06.10.2019
6711 Fog 5 1020 93 650 3.6 100 08:48 06.10.2019
6712 Clouds 4 1017 99 0 2.18 118.692 08:22 06.10.2019
6713 Clouds 4 1017 96 0 2.18 118.692 07:58 06.10.2019
6714 Clouds 4 1018 97 0 2.18 118.692 07:39 06.10.2019
6715 Clouds 4 1016 98 0 2.18 118.692 06:49 06.10.2019
6716 Clouds 4 1019 96 0 1.78 124.119 05:40 06.10.2019
6717 Clouds 4 1017 98 0 1.78 124.119 04:32 06.10.2019
6718 Clouds 5 1018 95 0 1.73 122.461 02:52 06.10.2019
6719 Clouds 5 1018 95 0 1.73 122.461 02:29 06.10.2019
6720 Clouds 5 1018 96 0 1.73 122.461 01:46 06.10.2019
6721 Clouds 5 1019 95 0 1.83 116.986 01:28 06.10.2019
6722 Clouds 5 1019 94 0 1.83 116.986 00:59 06.10.2019
6723 Clouds 6 1017 97 0 1.83 116.986 00:31 06.10.2019
6724 Clouds 6 1019 92 0 1.44 129.463 23:58 05.10.2019
6725 Clouds 6 1019 91 0 1.44 129.463 23:40 05.10.2019
6726 Clouds 6 1018 97 0 1.44 129.463 23:19 05.10.2019
6727 Clouds 7 1021 89 0 1.44 129.463 22:54 05.10.2019
6728 Clouds 7 1018 91 0 1.44 129.463 22:36 05.10.2019
6729 Clouds 7 1019 95 0 1.44 129.463 22:18 05.10.2019
6730 Clouds 7 1020 87 10000 1 0 21:41 05.10.2019
6731 Clouds 7 1020 87 10000 1 0 21:22 05.10.2019
6732 Clouds 7 1020 87 10000 1 0 20:57 05.10.2019
6733 Clouds 7 1020 87 10000 1 0 20:39 05.10.2019
6734 Clouds 8 1020 93 10000 1 160 20:19 05.10.2019
6735 Clouds 8 1020 93 10000 1 160 19:55 05.10.2019
6736 Clouds 8 1019 81 10000 4.1 90 19:36 05.10.2019
6737 Clear 8 1019 66 10000 1 0 19:18 05.10.2019
6738 Clouds 9 1018 71 10000 1.41 99.402 18:54 05.10.2019
6739 Clouds 9 1018 71 10000 1.41 99.402 18:36 05.10.2019
6740 Clouds 10 1018 66 10000 1.5 0 18:18 05.10.2019
6741 Clouds 11 1017 62 10000 1 0 17:40 05.10.2019
6742 Clear 11 1017 58 10000 2.6 0 17:21 05.10.2019
6743 Clear 12 1017 58 10000 2.6 0 16:55 05.10.2019